<?xml version="1.0" encoding="UTF-8" standalone="no" ?>
<gpx xmlns="http://www.topografix.com/GPX/1/1" xmlns:xsi="http://www.w3.org/2001/XMLSchema-instance" xsi:schemaLocation="http://www.topografix.com/GPX/1/1 http://www.topografix.com/GPX/1/1/gpx.xsd" version="1.1" creator="VisuGPX - https://www.visugpx.com">
  <metadata>
    <name>Le Vénéon 2023 - J3/6</name>
    <desc><![CDATA[Vénéon 2023-J3]]></desc>
  </metadata>
  <trk>
    <name><![CDATA[25/07/2023 08:04]]></name>
    <trkseg>
      <trkpt lat="44.89851" lon="6.20618">
        <ele>1873</ele>
        <time>2023-07-25T06:04:29Z</time>
      </trkpt>
      <trkpt lat="44.89851" lon="6.20618">
        <ele>1873</ele>
        <time>2023-07-25T06:04:43Z</time>
      </trkpt>
      <trkpt lat="44.89857" lon="6.20626">
        <ele>1857.6</ele>
        <time>2023-07-25T06:10:47Z</time>
      </trkpt>
      <trkpt lat="44.89854" lon="6.20629">
        <ele>1854.2</ele>
        <time>2023-07-25T06:10:54Z</time>
      </trkpt>
      <trkpt lat="44.89852" lon="6.20628">
        <ele>1853.2</ele>
        <time>2023-07-25T06:11:01Z</time>
      </trkpt>
      <trkpt lat="44.89855" lon="6.20626">
        <ele>1852.3</ele>
        <time>2023-07-25T06:11:08Z</time>
      </trkpt>
      <trkpt lat="44.89857" lon="6.20616">
        <ele>1851.9</ele>
        <time>2023-07-25T06:11:15Z</time>
      </trkpt>
      <trkpt lat="44.89858" lon="6.2061">
        <ele>1852.1</ele>
        <time>2023-07-25T06:11:22Z</time>
      </trkpt>
      <trkpt lat="44.89864" lon="6.20606">
        <ele>1850.4</ele>
        <time>2023-07-25T06:11:29Z</time>
      </trkpt>
      <trkpt lat="44.89867" lon="6.20599">
        <ele>1847.4</ele>
        <time>2023-07-25T06:11:36Z</time>
      </trkpt>
      <trkpt lat="44.89871" lon="6.20591">
        <ele>1848</ele>
        <time>2023-07-25T06:11:43Z</time>
      </trkpt>
      <trkpt lat="44.89877" lon="6.20593">
        <ele>1851.2</ele>
        <time>2023-07-25T06:11:50Z</time>
      </trkpt>
      <trkpt lat="44.89882" lon="6.20597">
        <ele>1849.4</ele>
        <time>2023-07-25T06:11:57Z</time>
      </trkpt>
      <trkpt lat="44.89889" lon="6.20603">
        <ele>1850.4</ele>
        <time>2023-07-25T06:12:04Z</time>
      </trkpt>
      <trkpt lat="44.89894" lon="6.20603">
        <ele>1849.8</ele>
        <time>2023-07-25T06:12:11Z</time>
      </trkpt>
      <trkpt lat="44.899" lon="6.20599">
        <ele>1848.1</ele>
        <time>2023-07-25T06:12:18Z</time>
      </trkpt>
      <trkpt lat="44.89904" lon="6.20602">
        <ele>1849.4</ele>
        <time>2023-07-25T06:12:25Z</time>
      </trkpt>
      <trkpt lat="44.89905" lon="6.20607">
        <ele>1851.6</ele>
        <time>2023-07-25T06:12:32Z</time>
      </trkpt>
      <trkpt lat="44.89908" lon="6.20611">
        <ele>1853.4</ele>
        <time>2023-07-25T06:12:39Z</time>
      </trkpt>
      <trkpt lat="44.89912" lon="6.2061">
        <ele>1855.3</ele>
        <time>2023-07-25T06:12:46Z</time>
      </trkpt>
      <trkpt lat="44.89918" lon="6.2061">
        <ele>1854</ele>
        <time>2023-07-25T06:12:53Z</time>
      </trkpt>
      <trkpt lat="44.89922" lon="6.20608">
        <ele>1854.8</ele>
        <time>2023-07-25T06:13:00Z</time>
      </trkpt>
      <trkpt lat="44.89925" lon="6.20606">
        <ele>1854.4</ele>
        <time>2023-07-25T06:13:07Z</time>
      </trkpt>
      <trkpt lat="44.8993" lon="6.20607">
        <ele>1855.6</ele>
        <time>2023-07-25T06:13:14Z</time>
      </trkpt>
      <trkpt lat="44.89929" lon="6.20605">
        <ele>1855.5</ele>
        <time>2023-07-25T06:13:21Z</time>
      </trkpt>
      <trkpt lat="44.89932" lon="6.20609">
        <ele>1856.1</ele>
        <time>2023-07-25T06:13:28Z</time>
      </trkpt>
      <trkpt lat="44.89936" lon="6.20613">
        <ele>1857</ele>
        <time>2023-07-25T06:13:35Z</time>
      </trkpt>
      <trkpt lat="44.8994" lon="6.20619">
        <ele>1857</ele>
        <time>2023-07-25T06:13:42Z</time>
      </trkpt>
      <trkpt lat="44.89944" lon="6.20614">
        <ele>1855</ele>
        <time>2023-07-25T06:13:49Z</time>
      </trkpt>
      <trkpt lat="44.89946" lon="6.20607">
        <ele>1850.9</ele>
        <time>2023-07-25T06:13:56Z</time>
      </trkpt>
      <trkpt lat="44.8995" lon="6.20604">
        <ele>1852.2</ele>
        <time>2023-07-25T06:14:03Z</time>
      </trkpt>
      <trkpt lat="44.89957" lon="6.206">
        <ele>1854.3</ele>
        <time>2023-07-25T06:14:10Z</time>
      </trkpt>
      <trkpt lat="44.89958" lon="6.20604">
        <ele>1856.8</ele>
        <time>2023-07-25T06:14:17Z</time>
      </trkpt>
      <trkpt lat="44.89957" lon="6.20605">
        <ele>1858.4</ele>
        <time>2023-07-25T06:14:24Z</time>
      </trkpt>
      <trkpt lat="44.89957" lon="6.20606">
        <ele>1858.5</ele>
        <time>2023-07-25T06:14:27Z</time>
      </trkpt>
      <trkpt lat="44.89961" lon="6.20609">
        <ele>1859.4</ele>
        <time>2023-07-25T06:14:34Z</time>
      </trkpt>
      <trkpt lat="44.89965" lon="6.20607">
        <ele>1859.4</ele>
        <time>2023-07-25T06:14:41Z</time>
      </trkpt>
      <trkpt lat="44.89967" lon="6.20606">
        <ele>1858.1</ele>
        <time>2023-07-25T06:14:48Z</time>
      </trkpt>
      <trkpt lat="44.89967" lon="6.20606">
        <ele>1858.1</ele>
        <time>2023-07-25T06:14:52Z</time>
      </trkpt>
      <trkpt lat="44.89969" lon="6.20606">
        <ele>1857.4</ele>
        <time>2023-07-25T06:15:02Z</time>
      </trkpt>
      <trkpt lat="44.89972" lon="6.20605">
        <ele>1853.9</ele>
        <time>2023-07-25T06:15:09Z</time>
      </trkpt>
      <trkpt lat="44.89975" lon="6.206">
        <ele>1851.4</ele>
        <time>2023-07-25T06:15:16Z</time>
      </trkpt>
      <trkpt lat="44.89978" lon="6.20608">
        <ele>1851.5</ele>
        <time>2023-07-25T06:15:23Z</time>
      </trkpt>
      <trkpt lat="44.89981" lon="6.2061">
        <ele>1851</ele>
        <time>2023-07-25T06:15:30Z</time>
      </trkpt>
      <trkpt lat="44.89982" lon="6.2061">
        <ele>1851.1</ele>
        <time>2023-07-25T06:15:37Z</time>
      </trkpt>
      <trkpt lat="44.89984" lon="6.2061">
        <ele>1851.7</ele>
        <time>2023-07-25T06:15:44Z</time>
      </trkpt>
      <trkpt lat="44.89986" lon="6.20613">
        <ele>1850.3</ele>
        <time>2023-07-25T06:15:52Z</time>
      </trkpt>
      <trkpt lat="44.89988" lon="6.20619">
        <ele>1848.3</ele>
        <time>2023-07-25T06:15:59Z</time>
      </trkpt>
      <trkpt lat="44.89993" lon="6.20622">
        <ele>1849.6</ele>
        <time>2023-07-25T06:16:06Z</time>
      </trkpt>
      <trkpt lat="44.89995" lon="6.20628">
        <ele>1850.3</ele>
        <time>2023-07-25T06:16:13Z</time>
      </trkpt>
      <trkpt lat="44.9" lon="6.20635">
        <ele>1848.7</ele>
        <time>2023-07-25T06:16:20Z</time>
      </trkpt>
      <trkpt lat="44.90005" lon="6.2064">
        <ele>1846</ele>
        <time>2023-07-25T06:16:27Z</time>
      </trkpt>
      <trkpt lat="44.9001" lon="6.20643">
        <ele>1843.1</ele>
        <time>2023-07-25T06:16:34Z</time>
      </trkpt>
      <trkpt lat="44.90016" lon="6.20643">
        <ele>1841.7</ele>
        <time>2023-07-25T06:16:41Z</time>
      </trkpt>
      <trkpt lat="44.90023" lon="6.20641">
        <ele>1840.1</ele>
        <time>2023-07-25T06:16:48Z</time>
      </trkpt>
      <trkpt lat="44.90028" lon="6.20638">
        <ele>1839.7</ele>
        <time>2023-07-25T06:16:55Z</time>
      </trkpt>
      <trkpt lat="44.90034" lon="6.20633">
        <ele>1836.5</ele>
        <time>2023-07-25T06:17:02Z</time>
      </trkpt>
      <trkpt lat="44.90038" lon="6.20635">
        <ele>1837</ele>
        <time>2023-07-25T06:17:09Z</time>
      </trkpt>
      <trkpt lat="44.90043" lon="6.20635">
        <ele>1836.7</ele>
        <time>2023-07-25T06:17:16Z</time>
      </trkpt>
      <trkpt lat="44.90043" lon="6.20632">
        <ele>1838.4</ele>
        <time>2023-07-25T06:17:23Z</time>
      </trkpt>
      <trkpt lat="44.90043" lon="6.20632">
        <ele>1838.2</ele>
        <time>2023-07-25T06:17:28Z</time>
      </trkpt>
      <trkpt lat="44.90041" lon="6.20625">
        <ele>1838.2</ele>
        <time>2023-07-25T06:17:37Z</time>
      </trkpt>
      <trkpt lat="44.90041" lon="6.2062">
        <ele>1838.3</ele>
        <time>2023-07-25T06:17:44Z</time>
      </trkpt>
      <trkpt lat="44.90045" lon="6.20619">
        <ele>1838.1</ele>
        <time>2023-07-25T06:17:51Z</time>
      </trkpt>
      <trkpt lat="44.90047" lon="6.20619">
        <ele>1836.6</ele>
        <time>2023-07-25T06:17:58Z</time>
      </trkpt>
      <trkpt lat="44.90052" lon="6.20622">
        <ele>1835.3</ele>
        <time>2023-07-25T06:18:05Z</time>
      </trkpt>
      <trkpt lat="44.90053" lon="6.20621">
        <ele>1835.9</ele>
        <time>2023-07-25T06:18:11Z</time>
      </trkpt>
      <trkpt lat="44.90055" lon="6.20626">
        <ele>1835.7</ele>
        <time>2023-07-25T06:18:33Z</time>
      </trkpt>
      <trkpt lat="44.90061" lon="6.20623">
        <ele>1831.9</ele>
        <time>2023-07-25T06:18:40Z</time>
      </trkpt>
      <trkpt lat="44.90062" lon="6.20614">
        <ele>1829.9</ele>
        <time>2023-07-25T06:18:47Z</time>
      </trkpt>
      <trkpt lat="44.90062" lon="6.20608">
        <ele>1826.6</ele>
        <time>2023-07-25T06:18:54Z</time>
      </trkpt>
      <trkpt lat="44.90064" lon="6.20608">
        <ele>1827.8</ele>
        <time>2023-07-25T06:19:01Z</time>
      </trkpt>
      <trkpt lat="44.90065" lon="6.20612">
        <ele>1827.2</ele>
        <time>2023-07-25T06:19:08Z</time>
      </trkpt>
      <trkpt lat="44.90068" lon="6.20616">
        <ele>1826.7</ele>
        <time>2023-07-25T06:19:15Z</time>
      </trkpt>
      <trkpt lat="44.90068" lon="6.2062">
        <ele>1827.1</ele>
        <time>2023-07-25T06:19:22Z</time>
      </trkpt>
      <trkpt lat="44.90067" lon="6.20623">
        <ele>1826.2</ele>
        <time>2023-07-25T06:19:29Z</time>
      </trkpt>
      <trkpt lat="44.90065" lon="6.20622">
        <ele>1825.9</ele>
        <time>2023-07-25T06:19:37Z</time>
      </trkpt>
      <trkpt lat="44.90065" lon="6.20622">
        <ele>1826</ele>
        <time>2023-07-25T06:19:38Z</time>
      </trkpt>
      <trkpt lat="44.90067" lon="6.20627">
        <ele>1825.6</ele>
        <time>2023-07-25T06:19:48Z</time>
      </trkpt>
      <trkpt lat="44.9007" lon="6.20629">
        <ele>1825.6</ele>
        <time>2023-07-25T06:19:55Z</time>
      </trkpt>
      <trkpt lat="44.90071" lon="6.20629">
        <ele>1825.6</ele>
        <time>2023-07-25T06:20:02Z</time>
      </trkpt>
      <trkpt lat="44.90072" lon="6.20629">
        <ele>1826</ele>
        <time>2023-07-25T06:20:04Z</time>
      </trkpt>
      <trkpt lat="44.90072" lon="6.20628">
        <ele>1825.8</ele>
        <time>2023-07-25T06:20:12Z</time>
      </trkpt>
      <trkpt lat="44.90072" lon="6.20628">
        <ele>1825.7</ele>
        <time>2023-07-25T06:20:13Z</time>
      </trkpt>
      <trkpt lat="44.90074" lon="6.20626">
        <ele>1822.8</ele>
        <time>2023-07-25T06:20:24Z</time>
      </trkpt>
      <trkpt lat="44.90073" lon="6.20627">
        <ele>1822.5</ele>
        <time>2023-07-25T06:20:28Z</time>
      </trkpt>
      <trkpt lat="44.90074" lon="6.20629">
        <ele>1820.4</ele>
        <time>2023-07-25T06:20:35Z</time>
      </trkpt>
      <trkpt lat="44.90073" lon="6.20628">
        <ele>1820.2</ele>
        <time>2023-07-25T06:20:36Z</time>
      </trkpt>
      <trkpt lat="44.90071" lon="6.2063">
        <ele>1817</ele>
        <time>2023-07-25T06:20:44Z</time>
      </trkpt>
      <trkpt lat="44.90074" lon="6.20635">
        <ele>1815.8</ele>
        <time>2023-07-25T06:20:51Z</time>
      </trkpt>
      <trkpt lat="44.90077" lon="6.20638">
        <ele>1814.6</ele>
        <time>2023-07-25T06:20:58Z</time>
      </trkpt>
      <trkpt lat="44.90078" lon="6.20638">
        <ele>1817.1</ele>
        <time>2023-07-25T06:21:05Z</time>
      </trkpt>
      <trkpt lat="44.90078" lon="6.20638">
        <ele>1817.5</ele>
        <time>2023-07-25T06:21:06Z</time>
      </trkpt>
      <trkpt lat="44.90081" lon="6.20635">
        <ele>1812.8</ele>
        <time>2023-07-25T06:21:43Z</time>
      </trkpt>
      <trkpt lat="44.90081" lon="6.20632">
        <ele>1809.9</ele>
        <time>2023-07-25T06:21:50Z</time>
      </trkpt>
      <trkpt lat="44.90082" lon="6.2063">
        <ele>1807.1</ele>
        <time>2023-07-25T06:21:57Z</time>
      </trkpt>
      <trkpt lat="44.90083" lon="6.20623">
        <ele>1805.6</ele>
        <time>2023-07-25T06:22:04Z</time>
      </trkpt>
      <trkpt lat="44.90086" lon="6.20617">
        <ele>1806.1</ele>
        <time>2023-07-25T06:22:11Z</time>
      </trkpt>
      <trkpt lat="44.90091" lon="6.20614">
        <ele>1805.3</ele>
        <time>2023-07-25T06:22:18Z</time>
      </trkpt>
      <trkpt lat="44.90097" lon="6.20613">
        <ele>1802.6</ele>
        <time>2023-07-25T06:22:25Z</time>
      </trkpt>
      <trkpt lat="44.90104" lon="6.20613">
        <ele>1804</ele>
        <time>2023-07-25T06:22:32Z</time>
      </trkpt>
      <trkpt lat="44.90109" lon="6.20611">
        <ele>1803.1</ele>
        <time>2023-07-25T06:22:39Z</time>
      </trkpt>
      <trkpt lat="44.90113" lon="6.20609">
        <ele>1804.9</ele>
        <time>2023-07-25T06:22:46Z</time>
      </trkpt>
      <trkpt lat="44.90115" lon="6.20607">
        <ele>1805.2</ele>
        <time>2023-07-25T06:22:53Z</time>
      </trkpt>
      <trkpt lat="44.90115" lon="6.20607">
        <ele>1805.4</ele>
        <time>2023-07-25T06:22:54Z</time>
      </trkpt>
      <trkpt lat="44.90115" lon="6.20605">
        <ele>1807.2</ele>
        <time>2023-07-25T06:23:01Z</time>
      </trkpt>
      <trkpt lat="44.90115" lon="6.20605">
        <ele>1807.1</ele>
        <time>2023-07-25T06:23:02Z</time>
      </trkpt>
      <trkpt lat="44.90117" lon="6.20606">
        <ele>1810.1</ele>
        <time>2023-07-25T06:23:23Z</time>
      </trkpt>
      <trkpt lat="44.90119" lon="6.20606">
        <ele>1810.3</ele>
        <time>2023-07-25T06:23:30Z</time>
      </trkpt>
      <trkpt lat="44.90119" lon="6.20606">
        <ele>1810.3</ele>
        <time>2023-07-25T06:23:32Z</time>
      </trkpt>
      <trkpt lat="44.9012" lon="6.20604">
        <ele>1812.9</ele>
        <time>2023-07-25T06:23:46Z</time>
      </trkpt>
      <trkpt lat="44.9012" lon="6.20604">
        <ele>1816.9</ele>
        <time>2023-07-25T06:23:52Z</time>
      </trkpt>
      <trkpt lat="44.9012" lon="6.20597">
        <ele>1817.2</ele>
        <time>2023-07-25T06:24:03Z</time>
      </trkpt>
      <trkpt lat="44.90124" lon="6.20595">
        <ele>1814.1</ele>
        <time>2023-07-25T06:24:10Z</time>
      </trkpt>
      <trkpt lat="44.90128" lon="6.20592">
        <ele>1813.3</ele>
        <time>2023-07-25T06:24:17Z</time>
      </trkpt>
      <trkpt lat="44.90133" lon="6.2059">
        <ele>1811.7</ele>
        <time>2023-07-25T06:24:24Z</time>
      </trkpt>
      <trkpt lat="44.90139" lon="6.20589">
        <ele>1808</ele>
        <time>2023-07-25T06:24:31Z</time>
      </trkpt>
      <trkpt lat="44.90144" lon="6.20589">
        <ele>1809.4</ele>
        <time>2023-07-25T06:24:38Z</time>
      </trkpt>
      <trkpt lat="44.90147" lon="6.20593">
        <ele>1808.4</ele>
        <time>2023-07-25T06:24:45Z</time>
      </trkpt>
      <trkpt lat="44.9015" lon="6.20594">
        <ele>1808.5</ele>
        <time>2023-07-25T06:24:52Z</time>
      </trkpt>
      <trkpt lat="44.90152" lon="6.20596">
        <ele>1805.8</ele>
        <time>2023-07-25T06:24:59Z</time>
      </trkpt>
      <trkpt lat="44.90153" lon="6.20597">
        <ele>1804.7</ele>
        <time>2023-07-25T06:25:05Z</time>
      </trkpt>
      <trkpt lat="44.90157" lon="6.20602">
        <ele>1803.3</ele>
        <time>2023-07-25T06:25:12Z</time>
      </trkpt>
      <trkpt lat="44.90162" lon="6.206">
        <ele>1805.9</ele>
        <time>2023-07-25T06:25:19Z</time>
      </trkpt>
      <trkpt lat="44.90162" lon="6.20597">
        <ele>1808.3</ele>
        <time>2023-07-25T06:25:26Z</time>
      </trkpt>
      <trkpt lat="44.90164" lon="6.20593">
        <ele>1805.3</ele>
        <time>2023-07-25T06:25:33Z</time>
      </trkpt>
      <trkpt lat="44.9017" lon="6.2059">
        <ele>1803.2</ele>
        <time>2023-07-25T06:25:40Z</time>
      </trkpt>
      <trkpt lat="44.90177" lon="6.2059">
        <ele>1805.5</ele>
        <time>2023-07-25T06:25:47Z</time>
      </trkpt>
      <trkpt lat="44.9018" lon="6.20591">
        <ele>1807.7</ele>
        <time>2023-07-25T06:25:54Z</time>
      </trkpt>
      <trkpt lat="44.90183" lon="6.20587">
        <ele>1806</ele>
        <time>2023-07-25T06:26:01Z</time>
      </trkpt>
      <trkpt lat="44.90187" lon="6.20583">
        <ele>1804.3</ele>
        <time>2023-07-25T06:26:08Z</time>
      </trkpt>
      <trkpt lat="44.90187" lon="6.20576">
        <ele>1808.9</ele>
        <time>2023-07-25T06:26:15Z</time>
      </trkpt>
      <trkpt lat="44.90187" lon="6.20576">
        <ele>1808.8</ele>
        <time>2023-07-25T06:26:21Z</time>
      </trkpt>
      <trkpt lat="44.90188" lon="6.20571">
        <ele>1808.1</ele>
        <time>2023-07-25T06:26:28Z</time>
      </trkpt>
      <trkpt lat="44.90189" lon="6.20576">
        <ele>1808.8</ele>
        <time>2023-07-25T06:26:35Z</time>
      </trkpt>
      <trkpt lat="44.90188" lon="6.20579">
        <ele>1809.2</ele>
        <time>2023-07-25T06:26:42Z</time>
      </trkpt>
      <trkpt lat="44.90188" lon="6.20579">
        <ele>1809.1</ele>
        <time>2023-07-25T06:26:46Z</time>
      </trkpt>
      <trkpt lat="44.90186" lon="6.20581">
        <ele>1807.5</ele>
        <time>2023-07-25T06:27:06Z</time>
      </trkpt>
      <trkpt lat="44.90187" lon="6.20588">
        <ele>1806.9</ele>
        <time>2023-07-25T06:27:13Z</time>
      </trkpt>
      <trkpt lat="44.90192" lon="6.20595">
        <ele>1802.5</ele>
        <time>2023-07-25T06:27:20Z</time>
      </trkpt>
      <trkpt lat="44.90197" lon="6.20598">
        <ele>1800</ele>
        <time>2023-07-25T06:27:27Z</time>
      </trkpt>
      <trkpt lat="44.902" lon="6.20605">
        <ele>1800.5</ele>
        <time>2023-07-25T06:27:34Z</time>
      </trkpt>
      <trkpt lat="44.90206" lon="6.20608">
        <ele>1798</ele>
        <time>2023-07-25T06:27:41Z</time>
      </trkpt>
      <trkpt lat="44.90209" lon="6.20613">
        <ele>1798.5</ele>
        <time>2023-07-25T06:27:48Z</time>
      </trkpt>
      <trkpt lat="44.90214" lon="6.20621">
        <ele>1797.6</ele>
        <time>2023-07-25T06:27:55Z</time>
      </trkpt>
      <trkpt lat="44.9022" lon="6.20625">
        <ele>1798.6</ele>
        <time>2023-07-25T06:28:02Z</time>
      </trkpt>
      <trkpt lat="44.90227" lon="6.20624">
        <ele>1801.2</ele>
        <time>2023-07-25T06:28:09Z</time>
      </trkpt>
      <trkpt lat="44.90234" lon="6.20622">
        <ele>1798.3</ele>
        <time>2023-07-25T06:28:16Z</time>
      </trkpt>
      <trkpt lat="44.9024" lon="6.20624">
        <ele>1797.9</ele>
        <time>2023-07-25T06:28:23Z</time>
      </trkpt>
      <trkpt lat="44.90244" lon="6.20625">
        <ele>1796</ele>
        <time>2023-07-25T06:28:30Z</time>
      </trkpt>
      <trkpt lat="44.90247" lon="6.20627">
        <ele>1794.2</ele>
        <time>2023-07-25T06:28:37Z</time>
      </trkpt>
      <trkpt lat="44.90247" lon="6.20625">
        <ele>1795.3</ele>
        <time>2023-07-25T06:28:44Z</time>
      </trkpt>
      <trkpt lat="44.90247" lon="6.20625">
        <ele>1795.8</ele>
        <time>2023-07-25T06:28:46Z</time>
      </trkpt>
      <trkpt lat="44.90249" lon="6.20619">
        <ele>1796.7</ele>
        <time>2023-07-25T06:28:53Z</time>
      </trkpt>
      <trkpt lat="44.90254" lon="6.20618">
        <ele>1796.1</ele>
        <time>2023-07-25T06:29:00Z</time>
      </trkpt>
      <trkpt lat="44.9026" lon="6.20616">
        <ele>1796.8</ele>
        <time>2023-07-25T06:29:07Z</time>
      </trkpt>
      <trkpt lat="44.90267" lon="6.20614">
        <ele>1794.5</ele>
        <time>2023-07-25T06:29:14Z</time>
      </trkpt>
      <trkpt lat="44.90274" lon="6.20615">
        <ele>1792.8</ele>
        <time>2023-07-25T06:29:21Z</time>
      </trkpt>
      <trkpt lat="44.90281" lon="6.20616">
        <ele>1791.1</ele>
        <time>2023-07-25T06:29:28Z</time>
      </trkpt>
      <trkpt lat="44.90288" lon="6.20616">
        <ele>1789.8</ele>
        <time>2023-07-25T06:29:35Z</time>
      </trkpt>
      <trkpt lat="44.90295" lon="6.20616">
        <ele>1788.4</ele>
        <time>2023-07-25T06:29:42Z</time>
      </trkpt>
      <trkpt lat="44.90302" lon="6.20617">
        <ele>1786.4</ele>
        <time>2023-07-25T06:29:49Z</time>
      </trkpt>
      <trkpt lat="44.90308" lon="6.20618">
        <ele>1783.8</ele>
        <time>2023-07-25T06:29:56Z</time>
      </trkpt>
      <trkpt lat="44.90314" lon="6.20618">
        <ele>1784.1</ele>
        <time>2023-07-25T06:30:03Z</time>
      </trkpt>
      <trkpt lat="44.90319" lon="6.20617">
        <ele>1783.8</ele>
        <time>2023-07-25T06:30:10Z</time>
      </trkpt>
      <trkpt lat="44.90323" lon="6.20619">
        <ele>1781.7</ele>
        <time>2023-07-25T06:30:17Z</time>
      </trkpt>
      <trkpt lat="44.9033" lon="6.20618">
        <ele>1781.4</ele>
        <time>2023-07-25T06:30:24Z</time>
      </trkpt>
      <trkpt lat="44.90337" lon="6.20619">
        <ele>1780.9</ele>
        <time>2023-07-25T06:30:31Z</time>
      </trkpt>
      <trkpt lat="44.90343" lon="6.20622">
        <ele>1782.2</ele>
        <time>2023-07-25T06:30:38Z</time>
      </trkpt>
      <trkpt lat="44.90349" lon="6.20623">
        <ele>1782.6</ele>
        <time>2023-07-25T06:30:45Z</time>
      </trkpt>
      <trkpt lat="44.90354" lon="6.20625">
        <ele>1781.4</ele>
        <time>2023-07-25T06:30:52Z</time>
      </trkpt>
      <trkpt lat="44.90359" lon="6.20626">
        <ele>1781.9</ele>
        <time>2023-07-25T06:30:59Z</time>
      </trkpt>
      <trkpt lat="44.90365" lon="6.2063">
        <ele>1782.1</ele>
        <time>2023-07-25T06:31:06Z</time>
      </trkpt>
      <trkpt lat="44.90365" lon="6.20622">
        <ele>1786.4</ele>
        <time>2023-07-25T06:31:13Z</time>
      </trkpt>
      <trkpt lat="44.90363" lon="6.20619">
        <ele>1789.7</ele>
        <time>2023-07-25T06:31:20Z</time>
      </trkpt>
      <trkpt lat="44.90363" lon="6.20619">
        <ele>1789.5</ele>
        <time>2023-07-25T06:31:24Z</time>
      </trkpt>
      <trkpt lat="44.90364" lon="6.20622">
        <ele>1790.3</ele>
        <time>2023-07-25T06:31:38Z</time>
      </trkpt>
      <trkpt lat="44.90365" lon="6.20623">
        <ele>1790.2</ele>
        <time>2023-07-25T06:31:41Z</time>
      </trkpt>
      <trkpt lat="44.90367" lon="6.20627">
        <ele>1791.1</ele>
        <time>2023-07-25T06:31:49Z</time>
      </trkpt>
      <trkpt lat="44.90372" lon="6.20634">
        <ele>1789.7</ele>
        <time>2023-07-25T06:31:56Z</time>
      </trkpt>
      <trkpt lat="44.90376" lon="6.2064">
        <ele>1789.4</ele>
        <time>2023-07-25T06:32:03Z</time>
      </trkpt>
      <trkpt lat="44.90381" lon="6.20647">
        <ele>1786.8</ele>
        <time>2023-07-25T06:32:10Z</time>
      </trkpt>
      <trkpt lat="44.90385" lon="6.20656">
        <ele>1783.8</ele>
        <time>2023-07-25T06:32:17Z</time>
      </trkpt>
      <trkpt lat="44.90392" lon="6.20657">
        <ele>1782.9</ele>
        <time>2023-07-25T06:32:24Z</time>
      </trkpt>
      <trkpt lat="44.90397" lon="6.20658">
        <ele>1781.1</ele>
        <time>2023-07-25T06:32:31Z</time>
      </trkpt>
      <trkpt lat="44.90405" lon="6.20662">
        <ele>1779.6</ele>
        <time>2023-07-25T06:32:38Z</time>
      </trkpt>
      <trkpt lat="44.90413" lon="6.20663">
        <ele>1777.3</ele>
        <time>2023-07-25T06:32:45Z</time>
      </trkpt>
      <trkpt lat="44.9042" lon="6.20669">
        <ele>1776.9</ele>
        <time>2023-07-25T06:32:51Z</time>
      </trkpt>
      <trkpt lat="44.90425" lon="6.20677">
        <ele>1773.6</ele>
        <time>2023-07-25T06:32:57Z</time>
      </trkpt>
      <trkpt lat="44.9043" lon="6.20685">
        <ele>1771.4</ele>
        <time>2023-07-25T06:33:02Z</time>
      </trkpt>
      <trkpt lat="44.90435" lon="6.20691">
        <ele>1770.1</ele>
        <time>2023-07-25T06:33:09Z</time>
      </trkpt>
      <trkpt lat="44.90441" lon="6.20688">
        <ele>1766.6</ele>
        <time>2023-07-25T06:33:16Z</time>
      </trkpt>
      <trkpt lat="44.90446" lon="6.2069">
        <ele>1766.5</ele>
        <time>2023-07-25T06:33:23Z</time>
      </trkpt>
      <trkpt lat="44.90451" lon="6.20686">
        <ele>1765.3</ele>
        <time>2023-07-25T06:33:30Z</time>
      </trkpt>
      <trkpt lat="44.90458" lon="6.20687">
        <ele>1764.2</ele>
        <time>2023-07-25T06:33:37Z</time>
      </trkpt>
      <trkpt lat="44.90461" lon="6.20679">
        <ele>1763.2</ele>
        <time>2023-07-25T06:33:44Z</time>
      </trkpt>
      <trkpt lat="44.90464" lon="6.20674">
        <ele>1764.4</ele>
        <time>2023-07-25T06:33:51Z</time>
      </trkpt>
      <trkpt lat="44.90468" lon="6.20678">
        <ele>1766.8</ele>
        <time>2023-07-25T06:33:58Z</time>
      </trkpt>
      <trkpt lat="44.90473" lon="6.20682">
        <ele>1765.1</ele>
        <time>2023-07-25T06:34:05Z</time>
      </trkpt>
      <trkpt lat="44.9048" lon="6.20682">
        <ele>1762.3</ele>
        <time>2023-07-25T06:34:12Z</time>
      </trkpt>
      <trkpt lat="44.90487" lon="6.20684">
        <ele>1759.9</ele>
        <time>2023-07-25T06:34:19Z</time>
      </trkpt>
      <trkpt lat="44.90492" lon="6.20687">
        <ele>1763.9</ele>
        <time>2023-07-25T06:34:26Z</time>
      </trkpt>
      <trkpt lat="44.90497" lon="6.20689">
        <ele>1762</ele>
        <time>2023-07-25T06:34:33Z</time>
      </trkpt>
      <trkpt lat="44.90501" lon="6.20682">
        <ele>1762.3</ele>
        <time>2023-07-25T06:34:40Z</time>
      </trkpt>
      <trkpt lat="44.90505" lon="6.20673">
        <ele>1763.7</ele>
        <time>2023-07-25T06:34:47Z</time>
      </trkpt>
      <trkpt lat="44.9051" lon="6.20667">
        <ele>1762.7</ele>
        <time>2023-07-25T06:34:54Z</time>
      </trkpt>
      <trkpt lat="44.90514" lon="6.20666">
        <ele>1763.9</ele>
        <time>2023-07-25T06:35:01Z</time>
      </trkpt>
      <trkpt lat="44.90518" lon="6.20667">
        <ele>1764.3</ele>
        <time>2023-07-25T06:35:08Z</time>
      </trkpt>
      <trkpt lat="44.90518" lon="6.20667">
        <ele>1765.8</ele>
        <time>2023-07-25T06:35:15Z</time>
      </trkpt>
      <trkpt lat="44.90518" lon="6.20664">
        <ele>1763.3</ele>
        <time>2023-07-25T06:35:22Z</time>
      </trkpt>
      <trkpt lat="44.90523" lon="6.20671">
        <ele>1762</ele>
        <time>2023-07-25T06:35:29Z</time>
      </trkpt>
      <trkpt lat="44.90526" lon="6.20672">
        <ele>1762.7</ele>
        <time>2023-07-25T06:35:36Z</time>
      </trkpt>
      <trkpt lat="44.90525" lon="6.20668">
        <ele>1766.2</ele>
        <time>2023-07-25T06:35:43Z</time>
      </trkpt>
      <trkpt lat="44.90524" lon="6.20667">
        <ele>1766.2</ele>
        <time>2023-07-25T06:35:50Z</time>
      </trkpt>
      <trkpt lat="44.9053" lon="6.2067">
        <ele>1764.6</ele>
        <time>2023-07-25T06:35:57Z</time>
      </trkpt>
      <trkpt lat="44.90537" lon="6.20667">
        <ele>1761.1</ele>
        <time>2023-07-25T06:36:04Z</time>
      </trkpt>
      <trkpt lat="44.9054" lon="6.20664">
        <ele>1759.8</ele>
        <time>2023-07-25T06:36:11Z</time>
      </trkpt>
      <trkpt lat="44.90546" lon="6.20665">
        <ele>1757.7</ele>
        <time>2023-07-25T06:36:18Z</time>
      </trkpt>
      <trkpt lat="44.90554" lon="6.20666">
        <ele>1757</ele>
        <time>2023-07-25T06:36:25Z</time>
      </trkpt>
      <trkpt lat="44.9056" lon="6.2067">
        <ele>1756.9</ele>
        <time>2023-07-25T06:36:32Z</time>
      </trkpt>
      <trkpt lat="44.90565" lon="6.20673">
        <ele>1754.4</ele>
        <time>2023-07-25T06:36:39Z</time>
      </trkpt>
      <trkpt lat="44.90572" lon="6.20672">
        <ele>1753.3</ele>
        <time>2023-07-25T06:36:46Z</time>
      </trkpt>
      <trkpt lat="44.90577" lon="6.20675">
        <ele>1754.2</ele>
        <time>2023-07-25T06:36:53Z</time>
      </trkpt>
      <trkpt lat="44.90584" lon="6.20675">
        <ele>1753</ele>
        <time>2023-07-25T06:37:00Z</time>
      </trkpt>
      <trkpt lat="44.90587" lon="6.20674">
        <ele>1755.9</ele>
        <time>2023-07-25T06:37:07Z</time>
      </trkpt>
      <trkpt lat="44.90587" lon="6.20673">
        <ele>1755.7</ele>
        <time>2023-07-25T06:37:12Z</time>
      </trkpt>
      <trkpt lat="44.90585" lon="6.20671">
        <ele>1757.7</ele>
        <time>2023-07-25T06:37:19Z</time>
      </trkpt>
      <trkpt lat="44.90586" lon="6.20671">
        <ele>1758.2</ele>
        <time>2023-07-25T06:37:22Z</time>
      </trkpt>
      <trkpt lat="44.90592" lon="6.2067">
        <ele>1758.1</ele>
        <time>2023-07-25T06:37:30Z</time>
      </trkpt>
      <trkpt lat="44.90598" lon="6.20667">
        <ele>1757.8</ele>
        <time>2023-07-25T06:37:37Z</time>
      </trkpt>
      <trkpt lat="44.90603" lon="6.20671">
        <ele>1756.9</ele>
        <time>2023-07-25T06:37:44Z</time>
      </trkpt>
      <trkpt lat="44.90609" lon="6.20673">
        <ele>1756.3</ele>
        <time>2023-07-25T06:37:51Z</time>
      </trkpt>
      <trkpt lat="44.90616" lon="6.20676">
        <ele>1754.8</ele>
        <time>2023-07-25T06:37:58Z</time>
      </trkpt>
      <trkpt lat="44.90623" lon="6.20678">
        <ele>1752.5</ele>
        <time>2023-07-25T06:38:05Z</time>
      </trkpt>
      <trkpt lat="44.90629" lon="6.20677">
        <ele>1752</ele>
        <time>2023-07-25T06:38:12Z</time>
      </trkpt>
      <trkpt lat="44.90635" lon="6.20676">
        <ele>1751.1</ele>
        <time>2023-07-25T06:38:19Z</time>
      </trkpt>
      <trkpt lat="44.90641" lon="6.20679">
        <ele>1751.3</ele>
        <time>2023-07-25T06:38:26Z</time>
      </trkpt>
      <trkpt lat="44.90648" lon="6.20684">
        <ele>1751.7</ele>
        <time>2023-07-25T06:38:32Z</time>
      </trkpt>
      <trkpt lat="44.90654" lon="6.20688">
        <ele>1750.7</ele>
        <time>2023-07-25T06:38:39Z</time>
      </trkpt>
      <trkpt lat="44.90659" lon="6.20689">
        <ele>1752.1</ele>
        <time>2023-07-25T06:38:46Z</time>
      </trkpt>
      <trkpt lat="44.90667" lon="6.20687">
        <ele>1751.7</ele>
        <time>2023-07-25T06:38:53Z</time>
      </trkpt>
      <trkpt lat="44.90672" lon="6.20689">
        <ele>1751.5</ele>
        <time>2023-07-25T06:39:00Z</time>
      </trkpt>
      <trkpt lat="44.90677" lon="6.20697">
        <ele>1750.5</ele>
        <time>2023-07-25T06:39:07Z</time>
      </trkpt>
      <trkpt lat="44.90684" lon="6.20702">
        <ele>1751.4</ele>
        <time>2023-07-25T06:39:14Z</time>
      </trkpt>
      <trkpt lat="44.90688" lon="6.20703">
        <ele>1753.8</ele>
        <time>2023-07-25T06:39:21Z</time>
      </trkpt>
      <trkpt lat="44.90693" lon="6.20703">
        <ele>1754.5</ele>
        <time>2023-07-25T06:39:28Z</time>
      </trkpt>
      <trkpt lat="44.907" lon="6.20706">
        <ele>1752.8</ele>
        <time>2023-07-25T06:39:35Z</time>
      </trkpt>
      <trkpt lat="44.90707" lon="6.2071">
        <ele>1754</ele>
        <time>2023-07-25T06:39:42Z</time>
      </trkpt>
      <trkpt lat="44.90713" lon="6.20717">
        <ele>1756.2</ele>
        <time>2023-07-25T06:39:49Z</time>
      </trkpt>
      <trkpt lat="44.90717" lon="6.20718">
        <ele>1756.2</ele>
        <time>2023-07-25T06:39:56Z</time>
      </trkpt>
      <trkpt lat="44.90722" lon="6.2072">
        <ele>1753.2</ele>
        <time>2023-07-25T06:40:03Z</time>
      </trkpt>
      <trkpt lat="44.90728" lon="6.2072">
        <ele>1755.3</ele>
        <time>2023-07-25T06:40:10Z</time>
      </trkpt>
      <trkpt lat="44.90731" lon="6.20728">
        <ele>1757.1</ele>
        <time>2023-07-25T06:40:17Z</time>
      </trkpt>
      <trkpt lat="44.90735" lon="6.20735">
        <ele>1757.7</ele>
        <time>2023-07-25T06:40:24Z</time>
      </trkpt>
      <trkpt lat="44.90737" lon="6.20746">
        <ele>1760.1</ele>
        <time>2023-07-25T06:40:30Z</time>
      </trkpt>
      <trkpt lat="44.90737" lon="6.20752">
        <ele>1761.7</ele>
        <time>2023-07-25T06:40:37Z</time>
      </trkpt>
      <trkpt lat="44.90735" lon="6.20752">
        <ele>1762.6</ele>
        <time>2023-07-25T06:40:44Z</time>
      </trkpt>
      <trkpt lat="44.90735" lon="6.20752">
        <ele>1762.2</ele>
        <time>2023-07-25T06:40:46Z</time>
      </trkpt>
      <trkpt lat="44.90736" lon="6.20754">
        <ele>1761.8</ele>
        <time>2023-07-25T06:40:57Z</time>
      </trkpt>
      <trkpt lat="44.90736" lon="6.20754">
        <ele>1761.8</ele>
        <time>2023-07-25T06:40:58Z</time>
      </trkpt>
      <trkpt lat="44.90737" lon="6.20754">
        <ele>1762.8</ele>
        <time>2023-07-25T06:41:48Z</time>
      </trkpt>
      <trkpt lat="44.90737" lon="6.20754">
        <ele>1762.8</ele>
        <time>2023-07-25T06:41:49Z</time>
      </trkpt>
      <trkpt lat="44.90738" lon="6.20754">
        <ele>1765.2</ele>
        <time>2023-07-25T06:42:12Z</time>
      </trkpt>
      <trkpt lat="44.90738" lon="6.20754">
        <ele>1765.3</ele>
        <time>2023-07-25T06:42:13Z</time>
      </trkpt>
      <trkpt lat="44.90739" lon="6.20755">
        <ele>1760.7</ele>
        <time>2023-07-25T06:43:28Z</time>
      </trkpt>
      <trkpt lat="44.90739" lon="6.20755">
        <ele>1760.6</ele>
        <time>2023-07-25T06:43:29Z</time>
      </trkpt>
      <trkpt lat="44.9074" lon="6.20751">
        <ele>1759.6</ele>
        <time>2023-07-25T06:43:37Z</time>
      </trkpt>
      <trkpt lat="44.90743" lon="6.20748">
        <ele>1759.8</ele>
        <time>2023-07-25T06:43:44Z</time>
      </trkpt>
      <trkpt lat="44.90746" lon="6.20751">
        <ele>1757.3</ele>
        <time>2023-07-25T06:43:51Z</time>
      </trkpt>
      <trkpt lat="44.90751" lon="6.20753">
        <ele>1757.1</ele>
        <time>2023-07-25T06:43:58Z</time>
      </trkpt>
      <trkpt lat="44.90755" lon="6.20756">
        <ele>1756</ele>
        <time>2023-07-25T06:44:05Z</time>
      </trkpt>
      <trkpt lat="44.90759" lon="6.20749">
        <ele>1749.9</ele>
        <time>2023-07-25T06:44:12Z</time>
      </trkpt>
      <trkpt lat="44.90762" lon="6.20744">
        <ele>1748.8</ele>
        <time>2023-07-25T06:44:19Z</time>
      </trkpt>
      <trkpt lat="44.90768" lon="6.2074">
        <ele>1750.6</ele>
        <time>2023-07-25T06:44:26Z</time>
      </trkpt>
      <trkpt lat="44.90773" lon="6.20736">
        <ele>1750.2</ele>
        <time>2023-07-25T06:44:33Z</time>
      </trkpt>
      <trkpt lat="44.90779" lon="6.20734">
        <ele>1750.6</ele>
        <time>2023-07-25T06:44:40Z</time>
      </trkpt>
      <trkpt lat="44.90784" lon="6.20736">
        <ele>1750.5</ele>
        <time>2023-07-25T06:44:47Z</time>
      </trkpt>
      <trkpt lat="44.9079" lon="6.2074">
        <ele>1751.9</ele>
        <time>2023-07-25T06:44:54Z</time>
      </trkpt>
      <trkpt lat="44.90796" lon="6.20739">
        <ele>1751.9</ele>
        <time>2023-07-25T06:45:01Z</time>
      </trkpt>
      <trkpt lat="44.908" lon="6.20742">
        <ele>1748.1</ele>
        <time>2023-07-25T06:45:08Z</time>
      </trkpt>
      <trkpt lat="44.90807" lon="6.20738">
        <ele>1745.5</ele>
        <time>2023-07-25T06:45:15Z</time>
      </trkpt>
      <trkpt lat="44.90813" lon="6.20738">
        <ele>1744</ele>
        <time>2023-07-25T06:45:22Z</time>
      </trkpt>
      <trkpt lat="44.90817" lon="6.20746">
        <ele>1744.8</ele>
        <time>2023-07-25T06:45:29Z</time>
      </trkpt>
      <trkpt lat="44.90822" lon="6.20747">
        <ele>1745.2</ele>
        <time>2023-07-25T06:45:36Z</time>
      </trkpt>
      <trkpt lat="44.90829" lon="6.20747">
        <ele>1745.7</ele>
        <time>2023-07-25T06:45:43Z</time>
      </trkpt>
      <trkpt lat="44.90833" lon="6.20745">
        <ele>1743.8</ele>
        <time>2023-07-25T06:45:50Z</time>
      </trkpt>
      <trkpt lat="44.90837" lon="6.20742">
        <ele>1743.2</ele>
        <time>2023-07-25T06:45:57Z</time>
      </trkpt>
      <trkpt lat="44.90842" lon="6.20738">
        <ele>1740</ele>
        <time>2023-07-25T06:46:04Z</time>
      </trkpt>
      <trkpt lat="44.90848" lon="6.20737">
        <ele>1739.2</ele>
        <time>2023-07-25T06:46:11Z</time>
      </trkpt>
      <trkpt lat="44.90854" lon="6.20738">
        <ele>1738.4</ele>
        <time>2023-07-25T06:46:18Z</time>
      </trkpt>
      <trkpt lat="44.9086" lon="6.20735">
        <ele>1738.4</ele>
        <time>2023-07-25T06:46:25Z</time>
      </trkpt>
      <trkpt lat="44.90867" lon="6.20733">
        <ele>1738.5</ele>
        <time>2023-07-25T06:46:32Z</time>
      </trkpt>
      <trkpt lat="44.90873" lon="6.20733">
        <ele>1738.4</ele>
        <time>2023-07-25T06:46:39Z</time>
      </trkpt>
      <trkpt lat="44.90879" lon="6.20733">
        <ele>1737.7</ele>
        <time>2023-07-25T06:46:46Z</time>
      </trkpt>
      <trkpt lat="44.90886" lon="6.20733">
        <ele>1736</ele>
        <time>2023-07-25T06:46:53Z</time>
      </trkpt>
      <trkpt lat="44.90891" lon="6.20734">
        <ele>1735.4</ele>
        <time>2023-07-25T06:47:00Z</time>
      </trkpt>
      <trkpt lat="44.90897" lon="6.20736">
        <ele>1735.9</ele>
        <time>2023-07-25T06:47:07Z</time>
      </trkpt>
      <trkpt lat="44.909" lon="6.20736">
        <ele>1736.3</ele>
        <time>2023-07-25T06:47:14Z</time>
      </trkpt>
      <trkpt lat="44.90905" lon="6.20736">
        <ele>1735.4</ele>
        <time>2023-07-25T06:47:21Z</time>
      </trkpt>
      <trkpt lat="44.90911" lon="6.20735">
        <ele>1733.7</ele>
        <time>2023-07-25T06:47:28Z</time>
      </trkpt>
      <trkpt lat="44.90917" lon="6.20736">
        <ele>1730.4</ele>
        <time>2023-07-25T06:47:35Z</time>
      </trkpt>
      <trkpt lat="44.90923" lon="6.20738">
        <ele>1729.5</ele>
        <time>2023-07-25T06:47:42Z</time>
      </trkpt>
      <trkpt lat="44.90928" lon="6.2074">
        <ele>1729.2</ele>
        <time>2023-07-25T06:47:49Z</time>
      </trkpt>
      <trkpt lat="44.90934" lon="6.2074">
        <ele>1729.5</ele>
        <time>2023-07-25T06:47:56Z</time>
      </trkpt>
      <trkpt lat="44.90939" lon="6.20742">
        <ele>1732</ele>
        <time>2023-07-25T06:48:03Z</time>
      </trkpt>
      <trkpt lat="44.90945" lon="6.20742">
        <ele>1731.5</ele>
        <time>2023-07-25T06:48:10Z</time>
      </trkpt>
      <trkpt lat="44.9095" lon="6.20748">
        <ele>1730.6</ele>
        <time>2023-07-25T06:48:17Z</time>
      </trkpt>
      <trkpt lat="44.90956" lon="6.20753">
        <ele>1733.4</ele>
        <time>2023-07-25T06:48:24Z</time>
      </trkpt>
      <trkpt lat="44.90961" lon="6.20753">
        <ele>1734</ele>
        <time>2023-07-25T06:48:31Z</time>
      </trkpt>
      <trkpt lat="44.90966" lon="6.20752">
        <ele>1736.3</ele>
        <time>2023-07-25T06:48:38Z</time>
      </trkpt>
      <trkpt lat="44.90973" lon="6.20754">
        <ele>1736.5</ele>
        <time>2023-07-25T06:48:45Z</time>
      </trkpt>
      <trkpt lat="44.90975" lon="6.20751">
        <ele>1737.6</ele>
        <time>2023-07-25T06:48:52Z</time>
      </trkpt>
      <trkpt lat="44.90975" lon="6.20751">
        <ele>1738.7</ele>
        <time>2023-07-25T06:48:55Z</time>
      </trkpt>
      <trkpt lat="44.90977" lon="6.20743">
        <ele>1738.2</ele>
        <time>2023-07-25T06:49:08Z</time>
      </trkpt>
      <trkpt lat="44.90976" lon="6.20738">
        <ele>1736.4</ele>
        <time>2023-07-25T06:49:15Z</time>
      </trkpt>
      <trkpt lat="44.90978" lon="6.20743">
        <ele>1737.6</ele>
        <time>2023-07-25T06:49:22Z</time>
      </trkpt>
      <trkpt lat="44.90981" lon="6.20746">
        <ele>1739.3</ele>
        <time>2023-07-25T06:49:29Z</time>
      </trkpt>
      <trkpt lat="44.90984" lon="6.20739">
        <ele>1739.6</ele>
        <time>2023-07-25T06:49:36Z</time>
      </trkpt>
      <trkpt lat="44.90988" lon="6.20738">
        <ele>1738.7</ele>
        <time>2023-07-25T06:49:43Z</time>
      </trkpt>
      <trkpt lat="44.90993" lon="6.20743">
        <ele>1736.8</ele>
        <time>2023-07-25T06:49:50Z</time>
      </trkpt>
      <trkpt lat="44.90996" lon="6.20745">
        <ele>1736.4</ele>
        <time>2023-07-25T06:49:57Z</time>
      </trkpt>
      <trkpt lat="44.91" lon="6.20749">
        <ele>1735.9</ele>
        <time>2023-07-25T06:50:04Z</time>
      </trkpt>
      <trkpt lat="44.91002" lon="6.20757">
        <ele>1737.1</ele>
        <time>2023-07-25T06:50:11Z</time>
      </trkpt>
      <trkpt lat="44.91006" lon="6.20761">
        <ele>1735.5</ele>
        <time>2023-07-25T06:50:18Z</time>
      </trkpt>
      <trkpt lat="44.91009" lon="6.20757">
        <ele>1736.4</ele>
        <time>2023-07-25T06:50:25Z</time>
      </trkpt>
      <trkpt lat="44.91009" lon="6.20759">
        <ele>1738.3</ele>
        <time>2023-07-25T06:50:32Z</time>
      </trkpt>
      <trkpt lat="44.91006" lon="6.20759">
        <ele>1741.3</ele>
        <time>2023-07-25T06:50:39Z</time>
      </trkpt>
      <trkpt lat="44.91006" lon="6.20758">
        <ele>1741</ele>
        <time>2023-07-25T06:50:44Z</time>
      </trkpt>
      <trkpt lat="44.91008" lon="6.20759">
        <ele>1739.7</ele>
        <time>2023-07-25T06:50:56Z</time>
      </trkpt>
      <trkpt lat="44.91011" lon="6.20754">
        <ele>1736.8</ele>
        <time>2023-07-25T06:51:03Z</time>
      </trkpt>
      <trkpt lat="44.91013" lon="6.20753">
        <ele>1738.7</ele>
        <time>2023-07-25T06:51:10Z</time>
      </trkpt>
      <trkpt lat="44.91017" lon="6.20748">
        <ele>1738.1</ele>
        <time>2023-07-25T06:51:17Z</time>
      </trkpt>
      <trkpt lat="44.91023" lon="6.20745">
        <ele>1735.8</ele>
        <time>2023-07-25T06:51:24Z</time>
      </trkpt>
      <trkpt lat="44.91025" lon="6.20743">
        <ele>1735.4</ele>
        <time>2023-07-25T06:51:31Z</time>
      </trkpt>
      <trkpt lat="44.91025" lon="6.20742">
        <ele>1736.1</ele>
        <time>2023-07-25T06:51:34Z</time>
      </trkpt>
      <trkpt lat="44.91025" lon="6.20739">
        <ele>1736.4</ele>
        <time>2023-07-25T06:51:42Z</time>
      </trkpt>
      <trkpt lat="44.91025" lon="6.20739">
        <ele>1736.5</ele>
        <time>2023-07-25T06:51:43Z</time>
      </trkpt>
      <trkpt lat="44.91024" lon="6.2074">
        <ele>1737.4</ele>
        <time>2023-07-25T06:51:56Z</time>
      </trkpt>
      <trkpt lat="44.91024" lon="6.2074">
        <ele>1737.4</ele>
        <time>2023-07-25T06:51:57Z</time>
      </trkpt>
      <trkpt lat="44.91021" lon="6.20749">
        <ele>1738.8</ele>
        <time>2023-07-25T06:52:37Z</time>
      </trkpt>
      <trkpt lat="44.91018" lon="6.20747">
        <ele>1738.7</ele>
        <time>2023-07-25T06:52:44Z</time>
      </trkpt>
      <trkpt lat="44.91015" lon="6.20751">
        <ele>1736.9</ele>
        <time>2023-07-25T06:52:51Z</time>
      </trkpt>
      <trkpt lat="44.91014" lon="6.20759">
        <ele>1732.9</ele>
        <time>2023-07-25T06:52:58Z</time>
      </trkpt>
      <trkpt lat="44.91015" lon="6.20767">
        <ele>1733</ele>
        <time>2023-07-25T06:53:05Z</time>
      </trkpt>
      <trkpt lat="44.91019" lon="6.2077">
        <ele>1734</ele>
        <time>2023-07-25T06:53:12Z</time>
      </trkpt>
      <trkpt lat="44.91019" lon="6.20773">
        <ele>1734.2</ele>
        <time>2023-07-25T06:53:19Z</time>
      </trkpt>
      <trkpt lat="44.91025" lon="6.20774">
        <ele>1733.1</ele>
        <time>2023-07-25T06:53:26Z</time>
      </trkpt>
      <trkpt lat="44.91025" lon="6.20776">
        <ele>1733.8</ele>
        <time>2023-07-25T06:53:33Z</time>
      </trkpt>
      <trkpt lat="44.91025" lon="6.20776">
        <ele>1733.6</ele>
        <time>2023-07-25T06:53:35Z</time>
      </trkpt>
      <trkpt lat="44.91023" lon="6.20773">
        <ele>1734.7</ele>
        <time>2023-07-25T06:54:19Z</time>
      </trkpt>
      <trkpt lat="44.91025" lon="6.20774">
        <ele>1734.5</ele>
        <time>2023-07-25T06:54:26Z</time>
      </trkpt>
      <trkpt lat="44.91026" lon="6.20776">
        <ele>1736.2</ele>
        <time>2023-07-25T06:54:33Z</time>
      </trkpt>
      <trkpt lat="44.91026" lon="6.20776">
        <ele>1736.3</ele>
        <time>2023-07-25T06:54:34Z</time>
      </trkpt>
      <trkpt lat="44.91025" lon="6.20775">
        <ele>1734.8</ele>
        <time>2023-07-25T06:54:49Z</time>
      </trkpt>
      <trkpt lat="44.91024" lon="6.20775">
        <ele>1737.3</ele>
        <time>2023-07-25T06:54:56Z</time>
      </trkpt>
      <trkpt lat="44.91024" lon="6.20779">
        <ele>1735.7</ele>
        <time>2023-07-25T06:55:03Z</time>
      </trkpt>
      <trkpt lat="44.91019" lon="6.20784">
        <ele>1733.3</ele>
        <time>2023-07-25T06:55:10Z</time>
      </trkpt>
      <trkpt lat="44.91018" lon="6.20781">
        <ele>1731.3</ele>
        <time>2023-07-25T06:55:17Z</time>
      </trkpt>
      <trkpt lat="44.91017" lon="6.20781">
        <ele>1732.6</ele>
        <time>2023-07-25T06:55:24Z</time>
      </trkpt>
      <trkpt lat="44.91018" lon="6.20781">
        <ele>1732.8</ele>
        <time>2023-07-25T06:55:31Z</time>
      </trkpt>
      <trkpt lat="44.91018" lon="6.20781">
        <ele>1733</ele>
        <time>2023-07-25T06:55:32Z</time>
      </trkpt>
      <trkpt lat="44.91019" lon="6.20783">
        <ele>1733.4</ele>
        <time>2023-07-25T06:55:40Z</time>
      </trkpt>
      <trkpt lat="44.91019" lon="6.20783">
        <ele>1734</ele>
        <time>2023-07-25T06:55:41Z</time>
      </trkpt>
      <trkpt lat="44.91019" lon="6.20785">
        <ele>1734.4</ele>
        <time>2023-07-25T06:55:48Z</time>
      </trkpt>
      <trkpt lat="44.91019" lon="6.20786">
        <ele>1734.5</ele>
        <time>2023-07-25T06:55:49Z</time>
      </trkpt>
      <trkpt lat="44.91021" lon="6.20786">
        <ele>1733.1</ele>
        <time>2023-07-25T06:55:59Z</time>
      </trkpt>
      <trkpt lat="44.91023" lon="6.20787">
        <ele>1732.1</ele>
        <time>2023-07-25T06:56:06Z</time>
      </trkpt>
      <trkpt lat="44.91029" lon="6.20789">
        <ele>1735.1</ele>
        <time>2023-07-25T06:56:13Z</time>
      </trkpt>
      <trkpt lat="44.91035" lon="6.20787">
        <ele>1734.8</ele>
        <time>2023-07-25T06:56:20Z</time>
      </trkpt>
      <trkpt lat="44.91041" lon="6.20785">
        <ele>1734.2</ele>
        <time>2023-07-25T06:56:27Z</time>
      </trkpt>
      <trkpt lat="44.91045" lon="6.20779">
        <ele>1732.4</ele>
        <time>2023-07-25T06:56:34Z</time>
      </trkpt>
      <trkpt lat="44.91051" lon="6.20777">
        <ele>1729.9</ele>
        <time>2023-07-25T06:56:41Z</time>
      </trkpt>
      <trkpt lat="44.91058" lon="6.20781">
        <ele>1727.8</ele>
        <time>2023-07-25T06:56:48Z</time>
      </trkpt>
      <trkpt lat="44.91066" lon="6.20781">
        <ele>1726.2</ele>
        <time>2023-07-25T06:56:54Z</time>
      </trkpt>
      <trkpt lat="44.91073" lon="6.20781">
        <ele>1722</ele>
        <time>2023-07-25T06:57:01Z</time>
      </trkpt>
      <trkpt lat="44.91081" lon="6.20783">
        <ele>1720.3</ele>
        <time>2023-07-25T06:57:07Z</time>
      </trkpt>
      <trkpt lat="44.91089" lon="6.20784">
        <ele>1721.6</ele>
        <time>2023-07-25T06:57:14Z</time>
      </trkpt>
      <trkpt lat="44.91095" lon="6.20783">
        <ele>1722.5</ele>
        <time>2023-07-25T06:57:21Z</time>
      </trkpt>
      <trkpt lat="44.91101" lon="6.20789">
        <ele>1723</ele>
        <time>2023-07-25T06:57:28Z</time>
      </trkpt>
      <trkpt lat="44.91108" lon="6.20794">
        <ele>1722.7</ele>
        <time>2023-07-25T06:57:35Z</time>
      </trkpt>
      <trkpt lat="44.91114" lon="6.20798">
        <ele>1723.4</ele>
        <time>2023-07-25T06:57:42Z</time>
      </trkpt>
      <trkpt lat="44.91114" lon="6.20798">
        <ele>1720.8</ele>
        <time>2023-07-25T06:57:49Z</time>
      </trkpt>
      <trkpt lat="44.91114" lon="6.20797">
        <ele>1717.5</ele>
        <time>2023-07-25T06:57:56Z</time>
      </trkpt>
      <trkpt lat="44.91114" lon="6.20798">
        <ele>1718.4</ele>
        <time>2023-07-25T06:58:03Z</time>
      </trkpt>
      <trkpt lat="44.91114" lon="6.20798">
        <ele>1718.6</ele>
        <time>2023-07-25T06:58:04Z</time>
      </trkpt>
      <trkpt lat="44.91118" lon="6.20801">
        <ele>1714.9</ele>
        <time>2023-07-25T06:58:11Z</time>
      </trkpt>
      <trkpt lat="44.91124" lon="6.20806">
        <ele>1712.2</ele>
        <time>2023-07-25T06:58:18Z</time>
      </trkpt>
      <trkpt lat="44.91128" lon="6.20815">
        <ele>1711.7</ele>
        <time>2023-07-25T06:58:24Z</time>
      </trkpt>
      <trkpt lat="44.91128" lon="6.20815">
        <ele>1712.3</ele>
        <time>2023-07-25T06:58:31Z</time>
      </trkpt>
      <trkpt lat="44.91131" lon="6.20815">
        <ele>1713</ele>
        <time>2023-07-25T06:58:38Z</time>
      </trkpt>
      <trkpt lat="44.91135" lon="6.2082">
        <ele>1714.2</ele>
        <time>2023-07-25T06:58:45Z</time>
      </trkpt>
      <trkpt lat="44.9114" lon="6.20823">
        <ele>1712.9</ele>
        <time>2023-07-25T06:58:52Z</time>
      </trkpt>
      <trkpt lat="44.91145" lon="6.20825">
        <ele>1711.1</ele>
        <time>2023-07-25T06:58:59Z</time>
      </trkpt>
      <trkpt lat="44.91151" lon="6.20825">
        <ele>1709</ele>
        <time>2023-07-25T06:59:06Z</time>
      </trkpt>
      <trkpt lat="44.91156" lon="6.20823">
        <ele>1705.3</ele>
        <time>2023-07-25T06:59:13Z</time>
      </trkpt>
      <trkpt lat="44.9116" lon="6.20825">
        <ele>1706.4</ele>
        <time>2023-07-25T06:59:20Z</time>
      </trkpt>
      <trkpt lat="44.9116" lon="6.20826">
        <ele>1703.4</ele>
        <time>2023-07-25T06:59:27Z</time>
      </trkpt>
      <trkpt lat="44.9116" lon="6.20826">
        <ele>1703.3</ele>
        <time>2023-07-25T06:59:28Z</time>
      </trkpt>
      <trkpt lat="44.91161" lon="6.20826">
        <ele>1705.4</ele>
        <time>2023-07-25T06:59:36Z</time>
      </trkpt>
      <trkpt lat="44.91168" lon="6.20825">
        <ele>1707.1</ele>
        <time>2023-07-25T06:59:43Z</time>
      </trkpt>
      <trkpt lat="44.91172" lon="6.20829">
        <ele>1708.1</ele>
        <time>2023-07-25T06:59:50Z</time>
      </trkpt>
      <trkpt lat="44.91177" lon="6.20834">
        <ele>1706.5</ele>
        <time>2023-07-25T06:59:57Z</time>
      </trkpt>
      <trkpt lat="44.91183" lon="6.20836">
        <ele>1707.3</ele>
        <time>2023-07-25T07:00:04Z</time>
      </trkpt>
      <trkpt lat="44.91188" lon="6.2084">
        <ele>1708.7</ele>
        <time>2023-07-25T07:00:11Z</time>
      </trkpt>
      <trkpt lat="44.91194" lon="6.2084">
        <ele>1709.7</ele>
        <time>2023-07-25T07:00:18Z</time>
      </trkpt>
      <trkpt lat="44.91201" lon="6.20839">
        <ele>1707.9</ele>
        <time>2023-07-25T07:00:25Z</time>
      </trkpt>
      <trkpt lat="44.91204" lon="6.20839">
        <ele>1704.4</ele>
        <time>2023-07-25T07:00:32Z</time>
      </trkpt>
      <trkpt lat="44.91207" lon="6.20843">
        <ele>1704.5</ele>
        <time>2023-07-25T07:00:39Z</time>
      </trkpt>
      <trkpt lat="44.91211" lon="6.20846">
        <ele>1704.5</ele>
        <time>2023-07-25T07:00:46Z</time>
      </trkpt>
      <trkpt lat="44.91213" lon="6.20848">
        <ele>1707.2</ele>
        <time>2023-07-25T07:00:53Z</time>
      </trkpt>
      <trkpt lat="44.91216" lon="6.20848">
        <ele>1708.1</ele>
        <time>2023-07-25T07:01:00Z</time>
      </trkpt>
      <trkpt lat="44.91222" lon="6.20848">
        <ele>1710.8</ele>
        <time>2023-07-25T07:01:07Z</time>
      </trkpt>
      <trkpt lat="44.91228" lon="6.20848">
        <ele>1711</ele>
        <time>2023-07-25T07:01:14Z</time>
      </trkpt>
      <trkpt lat="44.91234" lon="6.20847">
        <ele>1712.7</ele>
        <time>2023-07-25T07:01:21Z</time>
      </trkpt>
      <trkpt lat="44.9124" lon="6.20846">
        <ele>1713.7</ele>
        <time>2023-07-25T07:01:28Z</time>
      </trkpt>
      <trkpt lat="44.91245" lon="6.20847">
        <ele>1715.8</ele>
        <time>2023-07-25T07:01:35Z</time>
      </trkpt>
      <trkpt lat="44.9125" lon="6.20848">
        <ele>1718.1</ele>
        <time>2023-07-25T07:01:42Z</time>
      </trkpt>
      <trkpt lat="44.91256" lon="6.20846">
        <ele>1720.1</ele>
        <time>2023-07-25T07:01:49Z</time>
      </trkpt>
      <trkpt lat="44.91261" lon="6.20844">
        <ele>1719.5</ele>
        <time>2023-07-25T07:01:56Z</time>
      </trkpt>
      <trkpt lat="44.91269" lon="6.20841">
        <ele>1718.3</ele>
        <time>2023-07-25T07:02:03Z</time>
      </trkpt>
      <trkpt lat="44.91275" lon="6.20835">
        <ele>1718.6</ele>
        <time>2023-07-25T07:02:10Z</time>
      </trkpt>
      <trkpt lat="44.91279" lon="6.20829">
        <ele>1716.8</ele>
        <time>2023-07-25T07:02:17Z</time>
      </trkpt>
      <trkpt lat="44.91279" lon="6.20824">
        <ele>1716.4</ele>
        <time>2023-07-25T07:02:24Z</time>
      </trkpt>
      <trkpt lat="44.91282" lon="6.20822">
        <ele>1716.8</ele>
        <time>2023-07-25T07:02:31Z</time>
      </trkpt>
      <trkpt lat="44.91286" lon="6.2082">
        <ele>1719.5</ele>
        <time>2023-07-25T07:02:38Z</time>
      </trkpt>
      <trkpt lat="44.91289" lon="6.20817">
        <ele>1718.7</ele>
        <time>2023-07-25T07:02:45Z</time>
      </trkpt>
      <trkpt lat="44.91295" lon="6.20812">
        <ele>1715.4</ele>
        <time>2023-07-25T07:02:52Z</time>
      </trkpt>
      <trkpt lat="44.91299" lon="6.2081">
        <ele>1713.2</ele>
        <time>2023-07-25T07:02:59Z</time>
      </trkpt>
      <trkpt lat="44.91305" lon="6.20806">
        <ele>1712.2</ele>
        <time>2023-07-25T07:03:06Z</time>
      </trkpt>
      <trkpt lat="44.91311" lon="6.20804">
        <ele>1712.6</ele>
        <time>2023-07-25T07:03:13Z</time>
      </trkpt>
      <trkpt lat="44.91315" lon="6.20805">
        <ele>1707</ele>
        <time>2023-07-25T07:03:20Z</time>
      </trkpt>
      <trkpt lat="44.91318" lon="6.20804">
        <ele>1704.2</ele>
        <time>2023-07-25T07:03:27Z</time>
      </trkpt>
      <trkpt lat="44.91323" lon="6.20802">
        <ele>1702.7</ele>
        <time>2023-07-25T07:03:34Z</time>
      </trkpt>
      <trkpt lat="44.9133" lon="6.20799">
        <ele>1702.8</ele>
        <time>2023-07-25T07:03:41Z</time>
      </trkpt>
      <trkpt lat="44.91337" lon="6.20797">
        <ele>1700.5</ele>
        <time>2023-07-25T07:03:46Z</time>
      </trkpt>
      <trkpt lat="44.91344" lon="6.20794">
        <ele>1698.6</ele>
        <time>2023-07-25T07:03:53Z</time>
      </trkpt>
      <trkpt lat="44.91349" lon="6.20791">
        <ele>1697.6</ele>
        <time>2023-07-25T07:04:00Z</time>
      </trkpt>
      <trkpt lat="44.91354" lon="6.2079">
        <ele>1695.8</ele>
        <time>2023-07-25T07:04:07Z</time>
      </trkpt>
      <trkpt lat="44.9136" lon="6.20787">
        <ele>1695.2</ele>
        <time>2023-07-25T07:04:14Z</time>
      </trkpt>
      <trkpt lat="44.91366" lon="6.20786">
        <ele>1694.6</ele>
        <time>2023-07-25T07:04:21Z</time>
      </trkpt>
      <trkpt lat="44.91371" lon="6.20785">
        <ele>1693.2</ele>
        <time>2023-07-25T07:04:28Z</time>
      </trkpt>
      <trkpt lat="44.91378" lon="6.20781">
        <ele>1690.2</ele>
        <time>2023-07-25T07:04:35Z</time>
      </trkpt>
      <trkpt lat="44.91381" lon="6.20783">
        <ele>1689.9</ele>
        <time>2023-07-25T07:04:42Z</time>
      </trkpt>
      <trkpt lat="44.91382" lon="6.20783">
        <ele>1685.2</ele>
        <time>2023-07-25T07:04:49Z</time>
      </trkpt>
      <trkpt lat="44.91384" lon="6.20783">
        <ele>1684.6</ele>
        <time>2023-07-25T07:04:56Z</time>
      </trkpt>
      <trkpt lat="44.91385" lon="6.20782">
        <ele>1683.4</ele>
        <time>2023-07-25T07:04:58Z</time>
      </trkpt>
      <trkpt lat="44.91387" lon="6.20783">
        <ele>1681.7</ele>
        <time>2023-07-25T07:05:06Z</time>
      </trkpt>
      <trkpt lat="44.9139" lon="6.20781">
        <ele>1678.6</ele>
        <time>2023-07-25T07:05:13Z</time>
      </trkpt>
      <trkpt lat="44.9139" lon="6.2078">
        <ele>1676.6</ele>
        <time>2023-07-25T07:05:20Z</time>
      </trkpt>
      <trkpt lat="44.9139" lon="6.2078">
        <ele>1676.8</ele>
        <time>2023-07-25T07:05:23Z</time>
      </trkpt>
      <trkpt lat="44.91398" lon="6.2078">
        <ele>1676.8</ele>
        <time>2023-07-25T07:05:29Z</time>
      </trkpt>
      <trkpt lat="44.91404" lon="6.2078">
        <ele>1676.9</ele>
        <time>2023-07-25T07:05:36Z</time>
      </trkpt>
      <trkpt lat="44.91411" lon="6.20778">
        <ele>1674.2</ele>
        <time>2023-07-25T07:05:43Z</time>
      </trkpt>
      <trkpt lat="44.91413" lon="6.20781">
        <ele>1674.3</ele>
        <time>2023-07-25T07:05:50Z</time>
      </trkpt>
      <trkpt lat="44.91415" lon="6.20784">
        <ele>1674.6</ele>
        <time>2023-07-25T07:05:57Z</time>
      </trkpt>
      <trkpt lat="44.91417" lon="6.20785">
        <ele>1674.2</ele>
        <time>2023-07-25T07:06:04Z</time>
      </trkpt>
      <trkpt lat="44.9142" lon="6.20783">
        <ele>1672.3</ele>
        <time>2023-07-25T07:06:11Z</time>
      </trkpt>
      <trkpt lat="44.91426" lon="6.20783">
        <ele>1673.1</ele>
        <time>2023-07-25T07:06:18Z</time>
      </trkpt>
      <trkpt lat="44.91432" lon="6.20788">
        <ele>1675.6</ele>
        <time>2023-07-25T07:06:25Z</time>
      </trkpt>
      <trkpt lat="44.91435" lon="6.20791">
        <ele>1676.5</ele>
        <time>2023-07-25T07:06:32Z</time>
      </trkpt>
      <trkpt lat="44.91439" lon="6.20793">
        <ele>1677.4</ele>
        <time>2023-07-25T07:06:39Z</time>
      </trkpt>
      <trkpt lat="44.91443" lon="6.20794">
        <ele>1681.2</ele>
        <time>2023-07-25T07:06:46Z</time>
      </trkpt>
      <trkpt lat="44.91447" lon="6.20797">
        <ele>1681.8</ele>
        <time>2023-07-25T07:06:53Z</time>
      </trkpt>
      <trkpt lat="44.91453" lon="6.20802">
        <ele>1682.5</ele>
        <time>2023-07-25T07:07:00Z</time>
      </trkpt>
      <trkpt lat="44.91458" lon="6.20803">
        <ele>1681.7</ele>
        <time>2023-07-25T07:07:07Z</time>
      </trkpt>
      <trkpt lat="44.91464" lon="6.20803">
        <ele>1681.2</ele>
        <time>2023-07-25T07:07:14Z</time>
      </trkpt>
      <trkpt lat="44.91468" lon="6.20806">
        <ele>1684.6</ele>
        <time>2023-07-25T07:07:21Z</time>
      </trkpt>
      <trkpt lat="44.91472" lon="6.20809">
        <ele>1687.1</ele>
        <time>2023-07-25T07:07:28Z</time>
      </trkpt>
      <trkpt lat="44.91474" lon="6.20815">
        <ele>1692.3</ele>
        <time>2023-07-25T07:07:35Z</time>
      </trkpt>
      <trkpt lat="44.91477" lon="6.20821">
        <ele>1691.6</ele>
        <time>2023-07-25T07:07:42Z</time>
      </trkpt>
      <trkpt lat="44.91478" lon="6.20826">
        <ele>1693.7</ele>
        <time>2023-07-25T07:07:49Z</time>
      </trkpt>
      <trkpt lat="44.91481" lon="6.20826">
        <ele>1693.3</ele>
        <time>2023-07-25T07:07:56Z</time>
      </trkpt>
      <trkpt lat="44.91487" lon="6.20828">
        <ele>1694.2</ele>
        <time>2023-07-25T07:08:03Z</time>
      </trkpt>
      <trkpt lat="44.91492" lon="6.20828">
        <ele>1698.7</ele>
        <time>2023-07-25T07:08:10Z</time>
      </trkpt>
      <trkpt lat="44.91496" lon="6.2083">
        <ele>1701.4</ele>
        <time>2023-07-25T07:08:17Z</time>
      </trkpt>
      <trkpt lat="44.915" lon="6.20832">
        <ele>1701.9</ele>
        <time>2023-07-25T07:08:24Z</time>
      </trkpt>
      <trkpt lat="44.915" lon="6.20832">
        <ele>1702.5</ele>
        <time>2023-07-25T07:08:31Z</time>
      </trkpt>
      <trkpt lat="44.91505" lon="6.2083">
        <ele>1703.1</ele>
        <time>2023-07-25T07:08:50Z</time>
      </trkpt>
      <trkpt lat="44.91508" lon="6.20829">
        <ele>1701.9</ele>
        <time>2023-07-25T07:08:57Z</time>
      </trkpt>
      <trkpt lat="44.91511" lon="6.20826">
        <ele>1702</ele>
        <time>2023-07-25T07:09:04Z</time>
      </trkpt>
      <trkpt lat="44.91515" lon="6.2082">
        <ele>1701.1</ele>
        <time>2023-07-25T07:09:11Z</time>
      </trkpt>
      <trkpt lat="44.9152" lon="6.20817">
        <ele>1699</ele>
        <time>2023-07-25T07:09:18Z</time>
      </trkpt>
      <trkpt lat="44.91528" lon="6.20813">
        <ele>1697.6</ele>
        <time>2023-07-25T07:09:25Z</time>
      </trkpt>
      <trkpt lat="44.91532" lon="6.20805">
        <ele>1695.4</ele>
        <time>2023-07-25T07:09:30Z</time>
      </trkpt>
      <trkpt lat="44.91538" lon="6.20798">
        <ele>1693.1</ele>
        <time>2023-07-25T07:09:36Z</time>
      </trkpt>
      <trkpt lat="44.91544" lon="6.20793">
        <ele>1691</ele>
        <time>2023-07-25T07:09:43Z</time>
      </trkpt>
      <trkpt lat="44.9155" lon="6.20788">
        <ele>1691.2</ele>
        <time>2023-07-25T07:09:50Z</time>
      </trkpt>
      <trkpt lat="44.91555" lon="6.20784">
        <ele>1691.9</ele>
        <time>2023-07-25T07:09:57Z</time>
      </trkpt>
      <trkpt lat="44.91561" lon="6.20779">
        <ele>1691.5</ele>
        <time>2023-07-25T07:10:04Z</time>
      </trkpt>
      <trkpt lat="44.91566" lon="6.20772">
        <ele>1691.2</ele>
        <time>2023-07-25T07:10:11Z</time>
      </trkpt>
      <trkpt lat="44.9157" lon="6.20772">
        <ele>1693</ele>
        <time>2023-07-25T07:10:18Z</time>
      </trkpt>
      <trkpt lat="44.91575" lon="6.20768">
        <ele>1690.3</ele>
        <time>2023-07-25T07:10:25Z</time>
      </trkpt>
      <trkpt lat="44.91577" lon="6.20759">
        <ele>1691.5</ele>
        <time>2023-07-25T07:10:32Z</time>
      </trkpt>
      <trkpt lat="44.91579" lon="6.20754">
        <ele>1690.4</ele>
        <time>2023-07-25T07:10:39Z</time>
      </trkpt>
      <trkpt lat="44.91585" lon="6.20748">
        <ele>1691</ele>
        <time>2023-07-25T07:10:46Z</time>
      </trkpt>
      <trkpt lat="44.91592" lon="6.20743">
        <ele>1687.9</ele>
        <time>2023-07-25T07:10:53Z</time>
      </trkpt>
      <trkpt lat="44.91595" lon="6.20741">
        <ele>1687.8</ele>
        <time>2023-07-25T07:11:00Z</time>
      </trkpt>
      <trkpt lat="44.91595" lon="6.20741">
        <ele>1687.8</ele>
        <time>2023-07-25T07:11:04Z</time>
      </trkpt>
      <trkpt lat="44.91593" lon="6.20742">
        <ele>1690.7</ele>
        <time>2023-07-25T07:11:51Z</time>
      </trkpt>
      <trkpt lat="44.91593" lon="6.20742">
        <ele>1690.9</ele>
        <time>2023-07-25T07:11:55Z</time>
      </trkpt>
      <trkpt lat="44.9159" lon="6.20742">
        <ele>1686.6</ele>
        <time>2023-07-25T07:12:24Z</time>
      </trkpt>
      <trkpt lat="44.9159" lon="6.20742">
        <ele>1686.6</ele>
        <time>2023-07-25T07:12:27Z</time>
      </trkpt>
      <trkpt lat="44.91594" lon="6.20743">
        <ele>1687.6</ele>
        <time>2023-07-25T07:14:56Z</time>
      </trkpt>
      <trkpt lat="44.91596" lon="6.20744">
        <ele>1686</ele>
        <time>2023-07-25T07:15:03Z</time>
      </trkpt>
      <trkpt lat="44.91597" lon="6.20743">
        <ele>1686.1</ele>
        <time>2023-07-25T07:15:04Z</time>
      </trkpt>
      <trkpt lat="44.916" lon="6.20743">
        <ele>1685.5</ele>
        <time>2023-07-25T07:15:11Z</time>
      </trkpt>
      <trkpt lat="44.91607" lon="6.20744">
        <ele>1684</ele>
        <time>2023-07-25T07:15:18Z</time>
      </trkpt>
      <trkpt lat="44.91613" lon="6.20745">
        <ele>1680.3</ele>
        <time>2023-07-25T07:15:25Z</time>
      </trkpt>
      <trkpt lat="44.91617" lon="6.20748">
        <ele>1683.7</ele>
        <time>2023-07-25T07:15:32Z</time>
      </trkpt>
      <trkpt lat="44.91622" lon="6.20751">
        <ele>1683</ele>
        <time>2023-07-25T07:15:39Z</time>
      </trkpt>
      <trkpt lat="44.91628" lon="6.20754">
        <ele>1680.5</ele>
        <time>2023-07-25T07:15:46Z</time>
      </trkpt>
      <trkpt lat="44.91633" lon="6.20755">
        <ele>1681.1</ele>
        <time>2023-07-25T07:15:53Z</time>
      </trkpt>
      <trkpt lat="44.91636" lon="6.20759">
        <ele>1680.1</ele>
        <time>2023-07-25T07:16:00Z</time>
      </trkpt>
      <trkpt lat="44.9164" lon="6.20763">
        <ele>1682.2</ele>
        <time>2023-07-25T07:16:07Z</time>
      </trkpt>
      <trkpt lat="44.91644" lon="6.20765">
        <ele>1684.1</ele>
        <time>2023-07-25T07:16:14Z</time>
      </trkpt>
      <trkpt lat="44.91648" lon="6.20763">
        <ele>1684</ele>
        <time>2023-07-25T07:16:21Z</time>
      </trkpt>
      <trkpt lat="44.91653" lon="6.20768">
        <ele>1686.2</ele>
        <time>2023-07-25T07:16:28Z</time>
      </trkpt>
      <trkpt lat="44.91653" lon="6.20769">
        <ele>1685.3</ele>
        <time>2023-07-25T07:16:35Z</time>
      </trkpt>
      <trkpt lat="44.91653" lon="6.20769">
        <ele>1685.2</ele>
        <time>2023-07-25T07:16:39Z</time>
      </trkpt>
      <trkpt lat="44.91658" lon="6.20772">
        <ele>1690.7</ele>
        <time>2023-07-25T07:16:50Z</time>
      </trkpt>
      <trkpt lat="44.91664" lon="6.20768">
        <ele>1687</ele>
        <time>2023-07-25T07:16:57Z</time>
      </trkpt>
      <trkpt lat="44.91669" lon="6.20766">
        <ele>1687</ele>
        <time>2023-07-25T07:17:04Z</time>
      </trkpt>
      <trkpt lat="44.91674" lon="6.20766">
        <ele>1687.1</ele>
        <time>2023-07-25T07:17:11Z</time>
      </trkpt>
      <trkpt lat="44.91681" lon="6.20769">
        <ele>1693.2</ele>
        <time>2023-07-25T07:17:18Z</time>
      </trkpt>
      <trkpt lat="44.91685" lon="6.20776">
        <ele>1697.7</ele>
        <time>2023-07-25T07:17:25Z</time>
      </trkpt>
      <trkpt lat="44.9169" lon="6.20783">
        <ele>1698.1</ele>
        <time>2023-07-25T07:17:32Z</time>
      </trkpt>
      <trkpt lat="44.91696" lon="6.20789">
        <ele>1696.9</ele>
        <time>2023-07-25T07:17:39Z</time>
      </trkpt>
      <trkpt lat="44.91702" lon="6.20794">
        <ele>1698.4</ele>
        <time>2023-07-25T07:17:46Z</time>
      </trkpt>
      <trkpt lat="44.91709" lon="6.208">
        <ele>1701.9</ele>
        <time>2023-07-25T07:17:53Z</time>
      </trkpt>
      <trkpt lat="44.91715" lon="6.20804">
        <ele>1704.9</ele>
        <time>2023-07-25T07:18:00Z</time>
      </trkpt>
      <trkpt lat="44.9172" lon="6.20806">
        <ele>1705.3</ele>
        <time>2023-07-25T07:18:07Z</time>
      </trkpt>
      <trkpt lat="44.91723" lon="6.20805">
        <ele>1705.1</ele>
        <time>2023-07-25T07:18:14Z</time>
      </trkpt>
      <trkpt lat="44.91728" lon="6.20807">
        <ele>1707.1</ele>
        <time>2023-07-25T07:18:21Z</time>
      </trkpt>
      <trkpt lat="44.91731" lon="6.20806">
        <ele>1705.4</ele>
        <time>2023-07-25T07:18:28Z</time>
      </trkpt>
      <trkpt lat="44.91737" lon="6.20803">
        <ele>1707.1</ele>
        <time>2023-07-25T07:18:35Z</time>
      </trkpt>
      <trkpt lat="44.91743" lon="6.20803">
        <ele>1711.9</ele>
        <time>2023-07-25T07:18:42Z</time>
      </trkpt>
      <trkpt lat="44.91749" lon="6.20806">
        <ele>1712.6</ele>
        <time>2023-07-25T07:18:49Z</time>
      </trkpt>
      <trkpt lat="44.91756" lon="6.20802">
        <ele>1708.3</ele>
        <time>2023-07-25T07:18:55Z</time>
      </trkpt>
      <trkpt lat="44.91759" lon="6.20802">
        <ele>1709.2</ele>
        <time>2023-07-25T07:19:02Z</time>
      </trkpt>
      <trkpt lat="44.91761" lon="6.20804">
        <ele>1708.5</ele>
        <time>2023-07-25T07:19:09Z</time>
      </trkpt>
      <trkpt lat="44.91767" lon="6.20807">
        <ele>1708.5</ele>
        <time>2023-07-25T07:19:16Z</time>
      </trkpt>
      <trkpt lat="44.91774" lon="6.20808">
        <ele>1703.3</ele>
        <time>2023-07-25T07:19:23Z</time>
      </trkpt>
      <trkpt lat="44.91778" lon="6.20808">
        <ele>1703.5</ele>
        <time>2023-07-25T07:19:30Z</time>
      </trkpt>
      <trkpt lat="44.91782" lon="6.20803">
        <ele>1698.8</ele>
        <time>2023-07-25T07:19:37Z</time>
      </trkpt>
      <trkpt lat="44.91788" lon="6.20802">
        <ele>1701.7</ele>
        <time>2023-07-25T07:19:44Z</time>
      </trkpt>
      <trkpt lat="44.91795" lon="6.20801">
        <ele>1706.1</ele>
        <time>2023-07-25T07:19:51Z</time>
      </trkpt>
      <trkpt lat="44.91797" lon="6.20799">
        <ele>1704.5</ele>
        <time>2023-07-25T07:19:58Z</time>
      </trkpt>
      <trkpt lat="44.91801" lon="6.20806">
        <ele>1711.8</ele>
        <time>2023-07-25T07:20:05Z</time>
      </trkpt>
      <trkpt lat="44.91806" lon="6.20808">
        <ele>1712</ele>
        <time>2023-07-25T07:20:12Z</time>
      </trkpt>
      <trkpt lat="44.91811" lon="6.20809">
        <ele>1716.5</ele>
        <time>2023-07-25T07:20:19Z</time>
      </trkpt>
      <trkpt lat="44.91814" lon="6.20809">
        <ele>1720.4</ele>
        <time>2023-07-25T07:20:26Z</time>
      </trkpt>
      <trkpt lat="44.91822" lon="6.20809">
        <ele>1715.8</ele>
        <time>2023-07-25T07:20:33Z</time>
      </trkpt>
      <trkpt lat="44.91825" lon="6.20812">
        <ele>1714.9</ele>
        <time>2023-07-25T07:20:40Z</time>
      </trkpt>
      <trkpt lat="44.91826" lon="6.20816">
        <ele>1716.3</ele>
        <time>2023-07-25T07:20:47Z</time>
      </trkpt>
      <trkpt lat="44.9183" lon="6.20816">
        <ele>1719.8</ele>
        <time>2023-07-25T07:20:54Z</time>
      </trkpt>
      <trkpt lat="44.91835" lon="6.20815">
        <ele>1720.3</ele>
        <time>2023-07-25T07:21:01Z</time>
      </trkpt>
      <trkpt lat="44.91837" lon="6.20815">
        <ele>1719.3</ele>
        <time>2023-07-25T07:21:08Z</time>
      </trkpt>
      <trkpt lat="44.9184" lon="6.20817">
        <ele>1718.2</ele>
        <time>2023-07-25T07:21:15Z</time>
      </trkpt>
      <trkpt lat="44.91845" lon="6.20815">
        <ele>1715.8</ele>
        <time>2023-07-25T07:21:22Z</time>
      </trkpt>
      <trkpt lat="44.91851" lon="6.20815">
        <ele>1716.4</ele>
        <time>2023-07-25T07:21:29Z</time>
      </trkpt>
      <trkpt lat="44.91854" lon="6.20812">
        <ele>1713.7</ele>
        <time>2023-07-25T07:21:36Z</time>
      </trkpt>
      <trkpt lat="44.91856" lon="6.20814">
        <ele>1715.1</ele>
        <time>2023-07-25T07:21:43Z</time>
      </trkpt>
      <trkpt lat="44.91857" lon="6.20817">
        <ele>1715.3</ele>
        <time>2023-07-25T07:21:50Z</time>
      </trkpt>
      <trkpt lat="44.91857" lon="6.20819">
        <ele>1716.5</ele>
        <time>2023-07-25T07:21:57Z</time>
      </trkpt>
      <trkpt lat="44.91856" lon="6.20819">
        <ele>1716.8</ele>
        <time>2023-07-25T07:22:04Z</time>
      </trkpt>
      <trkpt lat="44.91856" lon="6.20819">
        <ele>1716.9</ele>
        <time>2023-07-25T07:22:11Z</time>
      </trkpt>
      <trkpt lat="44.91859" lon="6.20817">
        <ele>1716.9</ele>
        <time>2023-07-25T07:22:18Z</time>
      </trkpt>
      <trkpt lat="44.91865" lon="6.20813">
        <ele>1713.6</ele>
        <time>2023-07-25T07:22:25Z</time>
      </trkpt>
      <trkpt lat="44.9187" lon="6.20812">
        <ele>1715.3</ele>
        <time>2023-07-25T07:22:32Z</time>
      </trkpt>
      <trkpt lat="44.91874" lon="6.20809">
        <ele>1713</ele>
        <time>2023-07-25T07:22:39Z</time>
      </trkpt>
      <trkpt lat="44.91878" lon="6.2081">
        <ele>1711.7</ele>
        <time>2023-07-25T07:22:46Z</time>
      </trkpt>
      <trkpt lat="44.91885" lon="6.20811">
        <ele>1713.2</ele>
        <time>2023-07-25T07:22:53Z</time>
      </trkpt>
      <trkpt lat="44.91884" lon="6.2081">
        <ele>1716.6</ele>
        <time>2023-07-25T07:23:00Z</time>
      </trkpt>
      <trkpt lat="44.91883" lon="6.20812">
        <ele>1715.3</ele>
        <time>2023-07-25T07:23:07Z</time>
      </trkpt>
      <trkpt lat="44.91886" lon="6.20813">
        <ele>1716.3</ele>
        <time>2023-07-25T07:23:14Z</time>
      </trkpt>
      <trkpt lat="44.91887" lon="6.20811">
        <ele>1714</ele>
        <time>2023-07-25T07:23:21Z</time>
      </trkpt>
      <trkpt lat="44.9189" lon="6.20814">
        <ele>1714.2</ele>
        <time>2023-07-25T07:23:28Z</time>
      </trkpt>
      <trkpt lat="44.91897" lon="6.20816">
        <ele>1716.7</ele>
        <time>2023-07-25T07:23:35Z</time>
      </trkpt>
      <trkpt lat="44.91904" lon="6.20819">
        <ele>1724.3</ele>
        <time>2023-07-25T07:23:42Z</time>
      </trkpt>
      <trkpt lat="44.91906" lon="6.20821">
        <ele>1726.8</ele>
        <time>2023-07-25T07:23:49Z</time>
      </trkpt>
      <trkpt lat="44.91911" lon="6.20822">
        <ele>1729.2</ele>
        <time>2023-07-25T07:23:56Z</time>
      </trkpt>
      <trkpt lat="44.91914" lon="6.20822">
        <ele>1731.3</ele>
        <time>2023-07-25T07:24:03Z</time>
      </trkpt>
      <trkpt lat="44.91917" lon="6.20824">
        <ele>1729.8</ele>
        <time>2023-07-25T07:24:10Z</time>
      </trkpt>
      <trkpt lat="44.9192" lon="6.20824">
        <ele>1730.4</ele>
        <time>2023-07-25T07:24:17Z</time>
      </trkpt>
      <trkpt lat="44.91924" lon="6.20824">
        <ele>1727.4</ele>
        <time>2023-07-25T07:24:24Z</time>
      </trkpt>
      <trkpt lat="44.91927" lon="6.20824">
        <ele>1729.2</ele>
        <time>2023-07-25T07:24:31Z</time>
      </trkpt>
      <trkpt lat="44.91931" lon="6.20824">
        <ele>1732.9</ele>
        <time>2023-07-25T07:24:38Z</time>
      </trkpt>
      <trkpt lat="44.91931" lon="6.20824">
        <ele>1732.9</ele>
        <time>2023-07-25T07:24:42Z</time>
      </trkpt>
      <trkpt lat="44.91935" lon="6.20824">
        <ele>1737.9</ele>
        <time>2023-07-25T07:24:53Z</time>
      </trkpt>
      <trkpt lat="44.91938" lon="6.20822">
        <ele>1736.8</ele>
        <time>2023-07-25T07:25:00Z</time>
      </trkpt>
      <trkpt lat="44.91941" lon="6.20821">
        <ele>1736.9</ele>
        <time>2023-07-25T07:25:07Z</time>
      </trkpt>
      <trkpt lat="44.91941" lon="6.20821">
        <ele>1736.8</ele>
        <time>2023-07-25T07:25:13Z</time>
      </trkpt>
      <trkpt lat="44.91943" lon="6.20817">
        <ele>1737.5</ele>
        <time>2023-07-25T07:25:45Z</time>
      </trkpt>
      <trkpt lat="44.91943" lon="6.20817">
        <ele>1737.7</ele>
        <time>2023-07-25T07:25:48Z</time>
      </trkpt>
      <trkpt lat="44.9194" lon="6.20816">
        <ele>1736.8</ele>
        <time>2023-07-25T07:26:43Z</time>
      </trkpt>
      <trkpt lat="44.9194" lon="6.20816">
        <ele>1736.8</ele>
        <time>2023-07-25T07:26:45Z</time>
      </trkpt>
      <trkpt lat="44.91944" lon="6.20807">
        <ele>1729.4</ele>
        <time>2023-07-25T07:28:52Z</time>
      </trkpt>
      <trkpt lat="44.91947" lon="6.20808">
        <ele>1729.3</ele>
        <time>2023-07-25T07:28:59Z</time>
      </trkpt>
      <trkpt lat="44.91951" lon="6.2081">
        <ele>1730.2</ele>
        <time>2023-07-25T07:29:06Z</time>
      </trkpt>
      <trkpt lat="44.91956" lon="6.20811">
        <ele>1728.1</ele>
        <time>2023-07-25T07:29:13Z</time>
      </trkpt>
      <trkpt lat="44.91963" lon="6.20815">
        <ele>1728.4</ele>
        <time>2023-07-25T07:29:20Z</time>
      </trkpt>
      <trkpt lat="44.9197" lon="6.20816">
        <ele>1727</ele>
        <time>2023-07-25T07:29:26Z</time>
      </trkpt>
      <trkpt lat="44.91977" lon="6.20815">
        <ele>1724.4</ele>
        <time>2023-07-25T07:29:33Z</time>
      </trkpt>
      <trkpt lat="44.91983" lon="6.20812">
        <ele>1721.8</ele>
        <time>2023-07-25T07:29:40Z</time>
      </trkpt>
      <trkpt lat="44.9199" lon="6.2081">
        <ele>1720.4</ele>
        <time>2023-07-25T07:29:47Z</time>
      </trkpt>
      <trkpt lat="44.91996" lon="6.20812">
        <ele>1720.5</ele>
        <time>2023-07-25T07:29:54Z</time>
      </trkpt>
      <trkpt lat="44.92003" lon="6.20816">
        <ele>1722.1</ele>
        <time>2023-07-25T07:30:01Z</time>
      </trkpt>
      <trkpt lat="44.92009" lon="6.20818">
        <ele>1722.6</ele>
        <time>2023-07-25T07:30:08Z</time>
      </trkpt>
      <trkpt lat="44.92016" lon="6.20815">
        <ele>1726.8</ele>
        <time>2023-07-25T07:30:15Z</time>
      </trkpt>
      <trkpt lat="44.92022" lon="6.2081">
        <ele>1728</ele>
        <time>2023-07-25T07:30:21Z</time>
      </trkpt>
      <trkpt lat="44.9203" lon="6.20808">
        <ele>1728.5</ele>
        <time>2023-07-25T07:30:28Z</time>
      </trkpt>
      <trkpt lat="44.92037" lon="6.20805">
        <ele>1725.7</ele>
        <time>2023-07-25T07:30:35Z</time>
      </trkpt>
      <trkpt lat="44.92041" lon="6.20799">
        <ele>1724.8</ele>
        <time>2023-07-25T07:30:42Z</time>
      </trkpt>
      <trkpt lat="44.92047" lon="6.208">
        <ele>1721.4</ele>
        <time>2023-07-25T07:30:49Z</time>
      </trkpt>
      <trkpt lat="44.92053" lon="6.20803">
        <ele>1724.1</ele>
        <time>2023-07-25T07:30:56Z</time>
      </trkpt>
      <trkpt lat="44.92058" lon="6.20806">
        <ele>1722.1</ele>
        <time>2023-07-25T07:31:03Z</time>
      </trkpt>
      <trkpt lat="44.92062" lon="6.20806">
        <ele>1723.8</ele>
        <time>2023-07-25T07:31:10Z</time>
      </trkpt>
      <trkpt lat="44.92065" lon="6.20806">
        <ele>1725.9</ele>
        <time>2023-07-25T07:31:17Z</time>
      </trkpt>
      <trkpt lat="44.9207" lon="6.20807">
        <ele>1726</ele>
        <time>2023-07-25T07:31:24Z</time>
      </trkpt>
      <trkpt lat="44.92072" lon="6.20809">
        <ele>1724.7</ele>
        <time>2023-07-25T07:31:31Z</time>
      </trkpt>
      <trkpt lat="44.92076" lon="6.20813">
        <ele>1724.8</ele>
        <time>2023-07-25T07:31:38Z</time>
      </trkpt>
      <trkpt lat="44.92081" lon="6.20819">
        <ele>1726.6</ele>
        <time>2023-07-25T07:31:45Z</time>
      </trkpt>
      <trkpt lat="44.92084" lon="6.20825">
        <ele>1726.6</ele>
        <time>2023-07-25T07:31:52Z</time>
      </trkpt>
      <trkpt lat="44.92087" lon="6.20822">
        <ele>1724.9</ele>
        <time>2023-07-25T07:31:59Z</time>
      </trkpt>
      <trkpt lat="44.92093" lon="6.20819">
        <ele>1724.7</ele>
        <time>2023-07-25T07:32:06Z</time>
      </trkpt>
      <trkpt lat="44.92101" lon="6.20822">
        <ele>1723.2</ele>
        <time>2023-07-25T07:32:13Z</time>
      </trkpt>
      <trkpt lat="44.92106" lon="6.20824">
        <ele>1723.9</ele>
        <time>2023-07-25T07:32:20Z</time>
      </trkpt>
      <trkpt lat="44.92112" lon="6.20825">
        <ele>1725.6</ele>
        <time>2023-07-25T07:32:27Z</time>
      </trkpt>
      <trkpt lat="44.92117" lon="6.20828">
        <ele>1727.2</ele>
        <time>2023-07-25T07:32:34Z</time>
      </trkpt>
      <trkpt lat="44.92125" lon="6.20826">
        <ele>1726.6</ele>
        <time>2023-07-25T07:32:41Z</time>
      </trkpt>
      <trkpt lat="44.92132" lon="6.20827">
        <ele>1724.9</ele>
        <time>2023-07-25T07:32:48Z</time>
      </trkpt>
      <trkpt lat="44.92138" lon="6.20821">
        <ele>1720.6</ele>
        <time>2023-07-25T07:32:53Z</time>
      </trkpt>
      <trkpt lat="44.92144" lon="6.20816">
        <ele>1721.3</ele>
        <time>2023-07-25T07:33:00Z</time>
      </trkpt>
      <trkpt lat="44.92151" lon="6.2081">
        <ele>1720.9</ele>
        <time>2023-07-25T07:33:07Z</time>
      </trkpt>
      <trkpt lat="44.92157" lon="6.20804">
        <ele>1721.5</ele>
        <time>2023-07-25T07:33:14Z</time>
      </trkpt>
      <trkpt lat="44.92163" lon="6.20798">
        <ele>1723.7</ele>
        <time>2023-07-25T07:33:21Z</time>
      </trkpt>
      <trkpt lat="44.9217" lon="6.20794">
        <ele>1723</ele>
        <time>2023-07-25T07:33:28Z</time>
      </trkpt>
      <trkpt lat="44.92174" lon="6.20789">
        <ele>1724.1</ele>
        <time>2023-07-25T07:33:35Z</time>
      </trkpt>
      <trkpt lat="44.92179" lon="6.2079">
        <ele>1722.3</ele>
        <time>2023-07-25T07:33:42Z</time>
      </trkpt>
      <trkpt lat="44.92182" lon="6.20798">
        <ele>1721.9</ele>
        <time>2023-07-25T07:33:49Z</time>
      </trkpt>
      <trkpt lat="44.92183" lon="6.20806">
        <ele>1723.7</ele>
        <time>2023-07-25T07:33:56Z</time>
      </trkpt>
      <trkpt lat="44.92185" lon="6.20811">
        <ele>1725.5</ele>
        <time>2023-07-25T07:34:03Z</time>
      </trkpt>
      <trkpt lat="44.92191" lon="6.20806">
        <ele>1724.3</ele>
        <time>2023-07-25T07:34:10Z</time>
      </trkpt>
      <trkpt lat="44.92192" lon="6.20802">
        <ele>1725.4</ele>
        <time>2023-07-25T07:34:17Z</time>
      </trkpt>
      <trkpt lat="44.92192" lon="6.20802">
        <ele>1725.4</ele>
        <time>2023-07-25T07:34:20Z</time>
      </trkpt>
      <trkpt lat="44.92199" lon="6.20795">
        <ele>1724.6</ele>
        <time>2023-07-25T07:35:01Z</time>
      </trkpt>
      <trkpt lat="44.92201" lon="6.2079">
        <ele>1724.3</ele>
        <time>2023-07-25T07:35:08Z</time>
      </trkpt>
      <trkpt lat="44.92207" lon="6.20787">
        <ele>1723.7</ele>
        <time>2023-07-25T07:35:15Z</time>
      </trkpt>
      <trkpt lat="44.92211" lon="6.2078">
        <ele>1723</ele>
        <time>2023-07-25T07:35:22Z</time>
      </trkpt>
      <trkpt lat="44.92214" lon="6.20773">
        <ele>1720.4</ele>
        <time>2023-07-25T07:35:29Z</time>
      </trkpt>
      <trkpt lat="44.92217" lon="6.20768">
        <ele>1717.3</ele>
        <time>2023-07-25T07:35:36Z</time>
      </trkpt>
      <trkpt lat="44.92224" lon="6.20765">
        <ele>1715.8</ele>
        <time>2023-07-25T07:35:43Z</time>
      </trkpt>
      <trkpt lat="44.92229" lon="6.20765">
        <ele>1715.1</ele>
        <time>2023-07-25T07:35:50Z</time>
      </trkpt>
      <trkpt lat="44.92235" lon="6.20765">
        <ele>1713</ele>
        <time>2023-07-25T07:35:57Z</time>
      </trkpt>
      <trkpt lat="44.92241" lon="6.20764">
        <ele>1712.7</ele>
        <time>2023-07-25T07:36:04Z</time>
      </trkpt>
      <trkpt lat="44.92248" lon="6.20761">
        <ele>1709.4</ele>
        <time>2023-07-25T07:36:11Z</time>
      </trkpt>
      <trkpt lat="44.92253" lon="6.20758">
        <ele>1708.5</ele>
        <time>2023-07-25T07:36:18Z</time>
      </trkpt>
      <trkpt lat="44.9226" lon="6.20754">
        <ele>1709.3</ele>
        <time>2023-07-25T07:36:25Z</time>
      </trkpt>
      <trkpt lat="44.92266" lon="6.20753">
        <ele>1707.4</ele>
        <time>2023-07-25T07:36:32Z</time>
      </trkpt>
      <trkpt lat="44.92271" lon="6.20748">
        <ele>1707.2</ele>
        <time>2023-07-25T07:36:39Z</time>
      </trkpt>
      <trkpt lat="44.92276" lon="6.20744">
        <ele>1707.5</ele>
        <time>2023-07-25T07:36:46Z</time>
      </trkpt>
      <trkpt lat="44.92281" lon="6.20744">
        <ele>1705.4</ele>
        <time>2023-07-25T07:36:53Z</time>
      </trkpt>
      <trkpt lat="44.92284" lon="6.20747">
        <ele>1706.7</ele>
        <time>2023-07-25T07:37:00Z</time>
      </trkpt>
      <trkpt lat="44.92284" lon="6.20749">
        <ele>1706.4</ele>
        <time>2023-07-25T07:37:07Z</time>
      </trkpt>
      <trkpt lat="44.92284" lon="6.20749">
        <ele>1706.4</ele>
        <time>2023-07-25T07:37:09Z</time>
      </trkpt>
      <trkpt lat="44.92283" lon="6.20749">
        <ele>1707.2</ele>
        <time>2023-07-25T07:38:40Z</time>
      </trkpt>
      <trkpt lat="44.92283" lon="6.20749">
        <ele>1707.2</ele>
        <time>2023-07-25T07:38:41Z</time>
      </trkpt>
      <trkpt lat="44.92284" lon="6.20751">
        <ele>1707.8</ele>
        <time>2023-07-25T07:39:07Z</time>
      </trkpt>
      <trkpt lat="44.92284" lon="6.20751">
        <ele>1707.8</ele>
        <time>2023-07-25T07:39:09Z</time>
      </trkpt>
      <trkpt lat="44.92284" lon="6.20751">
        <ele>1706.9</ele>
        <time>2023-07-25T07:39:30Z</time>
      </trkpt>
      <trkpt lat="44.92284" lon="6.20751">
        <ele>1705.7</ele>
        <time>2023-07-25T07:39:35Z</time>
      </trkpt>
      <trkpt lat="44.92284" lon="6.20748">
        <ele>1706.9</ele>
        <time>2023-07-25T07:40:07Z</time>
      </trkpt>
      <trkpt lat="44.92284" lon="6.20748">
        <ele>1706.9</ele>
        <time>2023-07-25T07:40:08Z</time>
      </trkpt>
      <trkpt lat="44.92284" lon="6.2075">
        <ele>1705.6</ele>
        <time>2023-07-25T07:40:30Z</time>
      </trkpt>
      <trkpt lat="44.92284" lon="6.2075">
        <ele>1705.5</ele>
        <time>2023-07-25T07:40:31Z</time>
      </trkpt>
      <trkpt lat="44.92289" lon="6.20756">
        <ele>1705.8</ele>
        <time>2023-07-25T07:41:10Z</time>
      </trkpt>
      <trkpt lat="44.92296" lon="6.20757">
        <ele>1706</ele>
        <time>2023-07-25T07:41:16Z</time>
      </trkpt>
      <trkpt lat="44.923" lon="6.20758">
        <ele>1704.3</ele>
        <time>2023-07-25T07:41:23Z</time>
      </trkpt>
      <trkpt lat="44.92307" lon="6.20756">
        <ele>1705.6</ele>
        <time>2023-07-25T07:41:30Z</time>
      </trkpt>
      <trkpt lat="44.92313" lon="6.20759">
        <ele>1702.5</ele>
        <time>2023-07-25T07:41:37Z</time>
      </trkpt>
      <trkpt lat="44.92318" lon="6.20761">
        <ele>1698.9</ele>
        <time>2023-07-25T07:41:44Z</time>
      </trkpt>
      <trkpt lat="44.92325" lon="6.20762">
        <ele>1694.8</ele>
        <time>2023-07-25T07:41:51Z</time>
      </trkpt>
      <trkpt lat="44.92331" lon="6.20761">
        <ele>1692.7</ele>
        <time>2023-07-25T07:41:58Z</time>
      </trkpt>
      <trkpt lat="44.92331" lon="6.20753">
        <ele>1692.1</ele>
        <time>2023-07-25T07:42:05Z</time>
      </trkpt>
      <trkpt lat="44.92329" lon="6.20745">
        <ele>1692</ele>
        <time>2023-07-25T07:42:12Z</time>
      </trkpt>
      <trkpt lat="44.92329" lon="6.20745">
        <ele>1693.1</ele>
        <time>2023-07-25T07:42:19Z</time>
      </trkpt>
      <trkpt lat="44.92332" lon="6.20743">
        <ele>1691</ele>
        <time>2023-07-25T07:42:26Z</time>
      </trkpt>
      <trkpt lat="44.92334" lon="6.20743">
        <ele>1690.3</ele>
        <time>2023-07-25T07:42:30Z</time>
      </trkpt>
      <trkpt lat="44.92337" lon="6.20738">
        <ele>1691.2</ele>
        <time>2023-07-25T07:42:37Z</time>
      </trkpt>
      <trkpt lat="44.92342" lon="6.20734">
        <ele>1692.4</ele>
        <time>2023-07-25T07:42:44Z</time>
      </trkpt>
      <trkpt lat="44.92345" lon="6.20733">
        <ele>1691.4</ele>
        <time>2023-07-25T07:42:51Z</time>
      </trkpt>
      <trkpt lat="44.92345" lon="6.20733">
        <ele>1691.4</ele>
        <time>2023-07-25T07:42:56Z</time>
      </trkpt>
      <trkpt lat="44.9235" lon="6.20732">
        <ele>1690.5</ele>
        <time>2023-07-25T07:43:05Z</time>
      </trkpt>
      <trkpt lat="44.92356" lon="6.20727">
        <ele>1688.7</ele>
        <time>2023-07-25T07:43:12Z</time>
      </trkpt>
      <trkpt lat="44.92362" lon="6.20728">
        <ele>1684.6</ele>
        <time>2023-07-25T07:43:19Z</time>
      </trkpt>
      <trkpt lat="44.92367" lon="6.20728">
        <ele>1683.4</ele>
        <time>2023-07-25T07:43:26Z</time>
      </trkpt>
      <trkpt lat="44.92373" lon="6.20731">
        <ele>1682.9</ele>
        <time>2023-07-25T07:43:33Z</time>
      </trkpt>
      <trkpt lat="44.92376" lon="6.20724">
        <ele>1684.1</ele>
        <time>2023-07-25T07:43:40Z</time>
      </trkpt>
      <trkpt lat="44.92383" lon="6.2072">
        <ele>1681.3</ele>
        <time>2023-07-25T07:43:47Z</time>
      </trkpt>
      <trkpt lat="44.92387" lon="6.20716">
        <ele>1680.1</ele>
        <time>2023-07-25T07:43:54Z</time>
      </trkpt>
      <trkpt lat="44.92392" lon="6.20714">
        <ele>1677.5</ele>
        <time>2023-07-25T07:44:01Z</time>
      </trkpt>
      <trkpt lat="44.92396" lon="6.20716">
        <ele>1678.1</ele>
        <time>2023-07-25T07:44:08Z</time>
      </trkpt>
      <trkpt lat="44.924" lon="6.20719">
        <ele>1677.9</ele>
        <time>2023-07-25T07:44:15Z</time>
      </trkpt>
      <trkpt lat="44.92405" lon="6.20717">
        <ele>1674.5</ele>
        <time>2023-07-25T07:44:22Z</time>
      </trkpt>
      <trkpt lat="44.92409" lon="6.20711">
        <ele>1676.8</ele>
        <time>2023-07-25T07:44:29Z</time>
      </trkpt>
      <trkpt lat="44.92413" lon="6.20706">
        <ele>1675.7</ele>
        <time>2023-07-25T07:44:36Z</time>
      </trkpt>
      <trkpt lat="44.92417" lon="6.20703">
        <ele>1672.9</ele>
        <time>2023-07-25T07:44:43Z</time>
      </trkpt>
      <trkpt lat="44.92421" lon="6.20699">
        <ele>1672.7</ele>
        <time>2023-07-25T07:44:50Z</time>
      </trkpt>
      <trkpt lat="44.92425" lon="6.20697">
        <ele>1670</ele>
        <time>2023-07-25T07:44:57Z</time>
      </trkpt>
      <trkpt lat="44.92431" lon="6.20696">
        <ele>1667.4</ele>
        <time>2023-07-25T07:45:04Z</time>
      </trkpt>
      <trkpt lat="44.92435" lon="6.20696">
        <ele>1665.8</ele>
        <time>2023-07-25T07:45:11Z</time>
      </trkpt>
      <trkpt lat="44.9244" lon="6.20692">
        <ele>1663.7</ele>
        <time>2023-07-25T07:45:18Z</time>
      </trkpt>
      <trkpt lat="44.9244" lon="6.20692">
        <ele>1663.5</ele>
        <time>2023-07-25T07:45:24Z</time>
      </trkpt>
      <trkpt lat="44.92445" lon="6.20688">
        <ele>1663.9</ele>
        <time>2023-07-25T07:45:37Z</time>
      </trkpt>
      <trkpt lat="44.92451" lon="6.20684">
        <ele>1664.4</ele>
        <time>2023-07-25T07:45:44Z</time>
      </trkpt>
      <trkpt lat="44.92456" lon="6.20683">
        <ele>1662.7</ele>
        <time>2023-07-25T07:45:51Z</time>
      </trkpt>
      <trkpt lat="44.92461" lon="6.20684">
        <ele>1661.7</ele>
        <time>2023-07-25T07:45:58Z</time>
      </trkpt>
      <trkpt lat="44.92464" lon="6.20688">
        <ele>1661.1</ele>
        <time>2023-07-25T07:46:05Z</time>
      </trkpt>
      <trkpt lat="44.92467" lon="6.20692">
        <ele>1661.3</ele>
        <time>2023-07-25T07:46:12Z</time>
      </trkpt>
      <trkpt lat="44.92471" lon="6.20689">
        <ele>1660.3</ele>
        <time>2023-07-25T07:46:19Z</time>
      </trkpt>
      <trkpt lat="44.92473" lon="6.20693">
        <ele>1660.4</ele>
        <time>2023-07-25T07:46:26Z</time>
      </trkpt>
      <trkpt lat="44.92476" lon="6.20697">
        <ele>1659.8</ele>
        <time>2023-07-25T07:46:33Z</time>
      </trkpt>
      <trkpt lat="44.92481" lon="6.20694">
        <ele>1659.8</ele>
        <time>2023-07-25T07:46:40Z</time>
      </trkpt>
      <trkpt lat="44.92483" lon="6.20689">
        <ele>1660</ele>
        <time>2023-07-25T07:46:47Z</time>
      </trkpt>
      <trkpt lat="44.92486" lon="6.20686">
        <ele>1658.8</ele>
        <time>2023-07-25T07:46:54Z</time>
      </trkpt>
      <trkpt lat="44.9249" lon="6.20683">
        <ele>1658.7</ele>
        <time>2023-07-25T07:47:01Z</time>
      </trkpt>
      <trkpt lat="44.92496" lon="6.20679">
        <ele>1658.1</ele>
        <time>2023-07-25T07:47:08Z</time>
      </trkpt>
      <trkpt lat="44.92502" lon="6.20677">
        <ele>1655.7</ele>
        <time>2023-07-25T07:47:15Z</time>
      </trkpt>
      <trkpt lat="44.92507" lon="6.20676">
        <ele>1657.2</ele>
        <time>2023-07-25T07:47:22Z</time>
      </trkpt>
      <trkpt lat="44.92511" lon="6.20677">
        <ele>1657.6</ele>
        <time>2023-07-25T07:47:29Z</time>
      </trkpt>
      <trkpt lat="44.92515" lon="6.20678">
        <ele>1656.7</ele>
        <time>2023-07-25T07:47:36Z</time>
      </trkpt>
      <trkpt lat="44.92521" lon="6.20677">
        <ele>1657.3</ele>
        <time>2023-07-25T07:47:43Z</time>
      </trkpt>
      <trkpt lat="44.92528" lon="6.20677">
        <ele>1653.8</ele>
        <time>2023-07-25T07:47:50Z</time>
      </trkpt>
      <trkpt lat="44.92532" lon="6.20677">
        <ele>1655.6</ele>
        <time>2023-07-25T07:47:57Z</time>
      </trkpt>
      <trkpt lat="44.92532" lon="6.20677">
        <ele>1659.3</ele>
        <time>2023-07-25T07:48:02Z</time>
      </trkpt>
      <trkpt lat="44.92532" lon="6.20674">
        <ele>1660.1</ele>
        <time>2023-07-25T07:48:28Z</time>
      </trkpt>
      <trkpt lat="44.92532" lon="6.20674">
        <ele>1660.1</ele>
        <time>2023-07-25T07:48:29Z</time>
      </trkpt>
      <trkpt lat="44.92533" lon="6.20676">
        <ele>1659.2</ele>
        <time>2023-07-25T07:49:12Z</time>
      </trkpt>
      <trkpt lat="44.92534" lon="6.20675">
        <ele>1659.2</ele>
        <time>2023-07-25T07:49:19Z</time>
      </trkpt>
      <trkpt lat="44.92534" lon="6.20675">
        <ele>1659.2</ele>
        <time>2023-07-25T07:49:20Z</time>
      </trkpt>
      <trkpt lat="44.92534" lon="6.20676">
        <ele>1657.7</ele>
        <time>2023-07-25T07:49:28Z</time>
      </trkpt>
      <trkpt lat="44.92534" lon="6.20676">
        <ele>1657.7</ele>
        <time>2023-07-25T07:49:29Z</time>
      </trkpt>
      <trkpt lat="44.92539" lon="6.20677">
        <ele>1657.7</ele>
        <time>2023-07-25T07:49:53Z</time>
      </trkpt>
      <trkpt lat="44.92542" lon="6.2068">
        <ele>1660.2</ele>
        <time>2023-07-25T07:50:00Z</time>
      </trkpt>
      <trkpt lat="44.92549" lon="6.20684">
        <ele>1656.3</ele>
        <time>2023-07-25T07:50:07Z</time>
      </trkpt>
      <trkpt lat="44.9255" lon="6.20683">
        <ele>1656.2</ele>
        <time>2023-07-25T07:50:14Z</time>
      </trkpt>
      <trkpt lat="44.92553" lon="6.2068">
        <ele>1656</ele>
        <time>2023-07-25T07:50:21Z</time>
      </trkpt>
      <trkpt lat="44.92559" lon="6.20675">
        <ele>1655.9</ele>
        <time>2023-07-25T07:50:28Z</time>
      </trkpt>
      <trkpt lat="44.92566" lon="6.20672">
        <ele>1659.3</ele>
        <time>2023-07-25T07:50:34Z</time>
      </trkpt>
      <trkpt lat="44.92574" lon="6.20667">
        <ele>1654.9</ele>
        <time>2023-07-25T07:50:39Z</time>
      </trkpt>
      <trkpt lat="44.9258" lon="6.20664">
        <ele>1653.6</ele>
        <time>2023-07-25T07:50:46Z</time>
      </trkpt>
      <trkpt lat="44.92586" lon="6.20662">
        <ele>1652.4</ele>
        <time>2023-07-25T07:50:53Z</time>
      </trkpt>
      <trkpt lat="44.92589" lon="6.20661">
        <ele>1652</ele>
        <time>2023-07-25T07:51:00Z</time>
      </trkpt>
      <trkpt lat="44.92595" lon="6.20663">
        <ele>1648.6</ele>
        <time>2023-07-25T07:51:07Z</time>
      </trkpt>
      <trkpt lat="44.92595" lon="6.20663">
        <ele>1646.8</ele>
        <time>2023-07-25T07:51:14Z</time>
      </trkpt>
      <trkpt lat="44.92595" lon="6.20663">
        <ele>1646.8</ele>
        <time>2023-07-25T07:51:15Z</time>
      </trkpt>
      <trkpt lat="44.92594" lon="6.2066">
        <ele>1646.8</ele>
        <time>2023-07-25T07:52:16Z</time>
      </trkpt>
      <trkpt lat="44.92598" lon="6.20659">
        <ele>1648.7</ele>
        <time>2023-07-25T07:52:23Z</time>
      </trkpt>
      <trkpt lat="44.92601" lon="6.20653">
        <ele>1647</ele>
        <time>2023-07-25T07:52:30Z</time>
      </trkpt>
      <trkpt lat="44.92602" lon="6.20647">
        <ele>1646.7</ele>
        <time>2023-07-25T07:52:37Z</time>
      </trkpt>
      <trkpt lat="44.92607" lon="6.20643">
        <ele>1648.3</ele>
        <time>2023-07-25T07:52:44Z</time>
      </trkpt>
      <trkpt lat="44.92607" lon="6.20644">
        <ele>1648.3</ele>
        <time>2023-07-25T07:52:50Z</time>
      </trkpt>
      <trkpt lat="44.92615" lon="6.20639">
        <ele>1650.3</ele>
        <time>2023-07-25T07:52:59Z</time>
      </trkpt>
      <trkpt lat="44.9262" lon="6.20638">
        <ele>1651.5</ele>
        <time>2023-07-25T07:53:06Z</time>
      </trkpt>
      <trkpt lat="44.92625" lon="6.20641">
        <ele>1651.8</ele>
        <time>2023-07-25T07:53:13Z</time>
      </trkpt>
      <trkpt lat="44.9263" lon="6.20643">
        <ele>1651.6</ele>
        <time>2023-07-25T07:53:20Z</time>
      </trkpt>
      <trkpt lat="44.92632" lon="6.20643">
        <ele>1652.5</ele>
        <time>2023-07-25T07:53:27Z</time>
      </trkpt>
      <trkpt lat="44.92637" lon="6.20647">
        <ele>1652.4</ele>
        <time>2023-07-25T07:53:34Z</time>
      </trkpt>
      <trkpt lat="44.92642" lon="6.20648">
        <ele>1651.6</ele>
        <time>2023-07-25T07:53:41Z</time>
      </trkpt>
      <trkpt lat="44.92649" lon="6.20648">
        <ele>1651.4</ele>
        <time>2023-07-25T07:53:48Z</time>
      </trkpt>
      <trkpt lat="44.92652" lon="6.20648">
        <ele>1651.4</ele>
        <time>2023-07-25T07:53:55Z</time>
      </trkpt>
      <trkpt lat="44.92655" lon="6.20646">
        <ele>1652</ele>
        <time>2023-07-25T07:54:02Z</time>
      </trkpt>
      <trkpt lat="44.92661" lon="6.20645">
        <ele>1652.7</ele>
        <time>2023-07-25T07:54:09Z</time>
      </trkpt>
      <trkpt lat="44.92668" lon="6.20647">
        <ele>1652.7</ele>
        <time>2023-07-25T07:54:16Z</time>
      </trkpt>
      <trkpt lat="44.92674" lon="6.20646">
        <ele>1652.7</ele>
        <time>2023-07-25T07:54:23Z</time>
      </trkpt>
      <trkpt lat="44.92677" lon="6.20642">
        <ele>1649.9</ele>
        <time>2023-07-25T07:54:30Z</time>
      </trkpt>
      <trkpt lat="44.92683" lon="6.20647">
        <ele>1652</ele>
        <time>2023-07-25T07:54:37Z</time>
      </trkpt>
      <trkpt lat="44.92687" lon="6.20647">
        <ele>1648.4</ele>
        <time>2023-07-25T07:54:44Z</time>
      </trkpt>
      <trkpt lat="44.92692" lon="6.20648">
        <ele>1647.1</ele>
        <time>2023-07-25T07:54:51Z</time>
      </trkpt>
      <trkpt lat="44.92696" lon="6.20645">
        <ele>1647.3</ele>
        <time>2023-07-25T07:54:58Z</time>
      </trkpt>
      <trkpt lat="44.92701" lon="6.2064">
        <ele>1647.2</ele>
        <time>2023-07-25T07:55:05Z</time>
      </trkpt>
      <trkpt lat="44.92705" lon="6.20635">
        <ele>1647.3</ele>
        <time>2023-07-25T07:55:12Z</time>
      </trkpt>
      <trkpt lat="44.92712" lon="6.20638">
        <ele>1642.7</ele>
        <time>2023-07-25T07:55:19Z</time>
      </trkpt>
      <trkpt lat="44.92716" lon="6.20639">
        <ele>1642.7</ele>
        <time>2023-07-25T07:55:26Z</time>
      </trkpt>
      <trkpt lat="44.92721" lon="6.20639">
        <ele>1642.9</ele>
        <time>2023-07-25T07:55:33Z</time>
      </trkpt>
      <trkpt lat="44.92725" lon="6.20645">
        <ele>1643</ele>
        <time>2023-07-25T07:55:40Z</time>
      </trkpt>
      <trkpt lat="44.92728" lon="6.20651">
        <ele>1643</ele>
        <time>2023-07-25T07:55:47Z</time>
      </trkpt>
      <trkpt lat="44.92732" lon="6.20654">
        <ele>1643</ele>
        <time>2023-07-25T07:55:54Z</time>
      </trkpt>
      <trkpt lat="44.92734" lon="6.20661">
        <ele>1642.9</ele>
        <time>2023-07-25T07:56:01Z</time>
      </trkpt>
      <trkpt lat="44.92742" lon="6.20663">
        <ele>1639.1</ele>
        <time>2023-07-25T07:56:07Z</time>
      </trkpt>
      <trkpt lat="44.92746" lon="6.20672">
        <ele>1641.9</ele>
        <time>2023-07-25T07:56:12Z</time>
      </trkpt>
      <trkpt lat="44.92751" lon="6.20672">
        <ele>1641.9</ele>
        <time>2023-07-25T07:56:19Z</time>
      </trkpt>
      <trkpt lat="44.92758" lon="6.20676">
        <ele>1641.7</ele>
        <time>2023-07-25T07:56:26Z</time>
      </trkpt>
      <trkpt lat="44.92764" lon="6.20673">
        <ele>1641.6</ele>
        <time>2023-07-25T07:56:33Z</time>
      </trkpt>
      <trkpt lat="44.92768" lon="6.20672">
        <ele>1641.6</ele>
        <time>2023-07-25T07:56:40Z</time>
      </trkpt>
      <trkpt lat="44.92772" lon="6.20672">
        <ele>1641.5</ele>
        <time>2023-07-25T07:56:47Z</time>
      </trkpt>
      <trkpt lat="44.92772" lon="6.20665">
        <ele>1641.5</ele>
        <time>2023-07-25T07:56:54Z</time>
      </trkpt>
      <trkpt lat="44.92777" lon="6.20664">
        <ele>1641.2</ele>
        <time>2023-07-25T07:57:01Z</time>
      </trkpt>
      <trkpt lat="44.92781" lon="6.20663">
        <ele>1641.3</ele>
        <time>2023-07-25T07:57:08Z</time>
      </trkpt>
      <trkpt lat="44.92785" lon="6.20667">
        <ele>1637.6</ele>
        <time>2023-07-25T07:57:15Z</time>
      </trkpt>
      <trkpt lat="44.9279" lon="6.20668">
        <ele>1637.5</ele>
        <time>2023-07-25T07:57:22Z</time>
      </trkpt>
      <trkpt lat="44.92792" lon="6.20664">
        <ele>1631.7</ele>
        <time>2023-07-25T07:57:29Z</time>
      </trkpt>
      <trkpt lat="44.92799" lon="6.20662">
        <ele>1626.9</ele>
        <time>2023-07-25T07:57:36Z</time>
      </trkpt>
      <trkpt lat="44.92803" lon="6.2066">
        <ele>1627.4</ele>
        <time>2023-07-25T07:57:43Z</time>
      </trkpt>
      <trkpt lat="44.92806" lon="6.20658">
        <ele>1626.8</ele>
        <time>2023-07-25T07:57:50Z</time>
      </trkpt>
      <trkpt lat="44.92812" lon="6.20657">
        <ele>1626</ele>
        <time>2023-07-25T07:57:57Z</time>
      </trkpt>
      <trkpt lat="44.92817" lon="6.20656">
        <ele>1621.1</ele>
        <time>2023-07-25T07:58:04Z</time>
      </trkpt>
      <trkpt lat="44.92822" lon="6.20651">
        <ele>1620</ele>
        <time>2023-07-25T07:58:11Z</time>
      </trkpt>
      <trkpt lat="44.92828" lon="6.20647">
        <ele>1620.9</ele>
        <time>2023-07-25T07:58:18Z</time>
      </trkpt>
      <trkpt lat="44.92833" lon="6.20644">
        <ele>1620.1</ele>
        <time>2023-07-25T07:58:25Z</time>
      </trkpt>
      <trkpt lat="44.92837" lon="6.20638">
        <ele>1618.9</ele>
        <time>2023-07-25T07:58:32Z</time>
      </trkpt>
      <trkpt lat="44.92844" lon="6.20632">
        <ele>1619.9</ele>
        <time>2023-07-25T07:58:39Z</time>
      </trkpt>
      <trkpt lat="44.9285" lon="6.20624">
        <ele>1620.5</ele>
        <time>2023-07-25T07:58:46Z</time>
      </trkpt>
      <trkpt lat="44.92856" lon="6.20619">
        <ele>1621.6</ele>
        <time>2023-07-25T07:58:53Z</time>
      </trkpt>
      <trkpt lat="44.92855" lon="6.2062">
        <ele>1620</ele>
        <time>2023-07-25T07:58:59Z</time>
      </trkpt>
      <trkpt lat="44.92855" lon="6.20617">
        <ele>1620.5</ele>
        <time>2023-07-25T07:59:06Z</time>
      </trkpt>
      <trkpt lat="44.92855" lon="6.20617">
        <ele>1620.2</ele>
        <time>2023-07-25T07:59:10Z</time>
      </trkpt>
      <trkpt lat="44.92853" lon="6.20614">
        <ele>1620.8</ele>
        <time>2023-07-25T07:59:33Z</time>
      </trkpt>
      <trkpt lat="44.92853" lon="6.20615">
        <ele>1621.5</ele>
        <time>2023-07-25T07:59:34Z</time>
      </trkpt>
      <trkpt lat="44.92853" lon="6.20614">
        <ele>1619.3</ele>
        <time>2023-07-25T07:59:42Z</time>
      </trkpt>
      <trkpt lat="44.92857" lon="6.20609">
        <ele>1617.7</ele>
        <time>2023-07-25T07:59:49Z</time>
      </trkpt>
      <trkpt lat="44.92862" lon="6.20602">
        <ele>1617.5</ele>
        <time>2023-07-25T07:59:56Z</time>
      </trkpt>
      <trkpt lat="44.92864" lon="6.20602">
        <ele>1617.6</ele>
        <time>2023-07-25T08:00:03Z</time>
      </trkpt>
      <trkpt lat="44.92864" lon="6.20601">
        <ele>1617.4</ele>
        <time>2023-07-25T08:00:10Z</time>
      </trkpt>
      <trkpt lat="44.92864" lon="6.206">
        <ele>1616.3</ele>
        <time>2023-07-25T08:00:12Z</time>
      </trkpt>
      <trkpt lat="44.92864" lon="6.206">
        <ele>1616.4</ele>
        <time>2023-07-25T08:00:33Z</time>
      </trkpt>
      <trkpt lat="44.92864" lon="6.206">
        <ele>1616.4</ele>
        <time>2023-07-25T08:00:34Z</time>
      </trkpt>
      <trkpt lat="44.92865" lon="6.20603">
        <ele>1614.9</ele>
        <time>2023-07-25T08:01:13Z</time>
      </trkpt>
      <trkpt lat="44.92865" lon="6.20603">
        <ele>1614.8</ele>
        <time>2023-07-25T08:01:19Z</time>
      </trkpt>
      <trkpt lat="44.92866" lon="6.20602">
        <ele>1616.6</ele>
        <time>2023-07-25T08:04:40Z</time>
      </trkpt>
      <trkpt lat="44.92866" lon="6.20601">
        <ele>1616.7</ele>
        <time>2023-07-25T08:04:41Z</time>
      </trkpt>
      <trkpt lat="44.92865" lon="6.20604">
        <ele>1617.5</ele>
        <time>2023-07-25T08:04:52Z</time>
      </trkpt>
      <trkpt lat="44.92865" lon="6.20604">
        <ele>1617.5</ele>
        <time>2023-07-25T08:04:53Z</time>
      </trkpt>
      <trkpt lat="44.92863" lon="6.20605">
        <ele>1619.2</ele>
        <time>2023-07-25T08:05:57Z</time>
      </trkpt>
      <trkpt lat="44.92863" lon="6.20605">
        <ele>1618.3</ele>
        <time>2023-07-25T08:06:03Z</time>
      </trkpt>
      <trkpt lat="44.92863" lon="6.20605">
        <ele>1617.7</ele>
        <time>2023-07-25T08:06:13Z</time>
      </trkpt>
      <trkpt lat="44.92863" lon="6.20605">
        <ele>1618.3</ele>
        <time>2023-07-25T08:06:20Z</time>
      </trkpt>
      <trkpt lat="44.92863" lon="6.20606">
        <ele>1618.9</ele>
        <time>2023-07-25T08:06:22Z</time>
      </trkpt>
      <trkpt lat="44.92864" lon="6.20605">
        <ele>1618.5</ele>
        <time>2023-07-25T08:06:32Z</time>
      </trkpt>
      <trkpt lat="44.92865" lon="6.20604">
        <ele>1618.4</ele>
        <time>2023-07-25T08:06:34Z</time>
      </trkpt>
      <trkpt lat="44.92865" lon="6.20604">
        <ele>1619.4</ele>
        <time>2023-07-25T08:06:43Z</time>
      </trkpt>
      <trkpt lat="44.92865" lon="6.20604">
        <ele>1619.4</ele>
        <time>2023-07-25T08:06:44Z</time>
      </trkpt>
      <trkpt lat="44.92866" lon="6.20602">
        <ele>1618.8</ele>
        <time>2023-07-25T08:07:16Z</time>
      </trkpt>
      <trkpt lat="44.92866" lon="6.206">
        <ele>1619.1</ele>
        <time>2023-07-25T08:07:23Z</time>
      </trkpt>
      <trkpt lat="44.92867" lon="6.20597">
        <ele>1618.6</ele>
        <time>2023-07-25T08:07:32Z</time>
      </trkpt>
      <trkpt lat="44.92867" lon="6.20597">
        <ele>1618.6</ele>
        <time>2023-07-25T08:07:36Z</time>
      </trkpt>
      <trkpt lat="44.92867" lon="6.20597">
        <ele>1619.4</ele>
        <time>2023-07-25T08:07:59Z</time>
      </trkpt>
      <trkpt lat="44.92867" lon="6.20597">
        <ele>1619.2</ele>
        <time>2023-07-25T08:08:00Z</time>
      </trkpt>
      <trkpt lat="44.92866" lon="6.20597">
        <ele>1620.9</ele>
        <time>2023-07-25T08:08:12Z</time>
      </trkpt>
      <trkpt lat="44.92866" lon="6.20597">
        <ele>1620.9</ele>
        <time>2023-07-25T08:08:13Z</time>
      </trkpt>
      <trkpt lat="44.92867" lon="6.20597">
        <ele>1620.4</ele>
        <time>2023-07-25T08:08:32Z</time>
      </trkpt>
      <trkpt lat="44.92867" lon="6.20597">
        <ele>1620.6</ele>
        <time>2023-07-25T08:08:34Z</time>
      </trkpt>
      <trkpt lat="44.92868" lon="6.20597">
        <ele>1619.3</ele>
        <time>2023-07-25T08:08:44Z</time>
      </trkpt>
      <trkpt lat="44.92868" lon="6.20597">
        <ele>1619.3</ele>
        <time>2023-07-25T08:08:45Z</time>
      </trkpt>
      <trkpt lat="44.92868" lon="6.20596">
        <ele>1618.2</ele>
        <time>2023-07-25T08:09:11Z</time>
      </trkpt>
      <trkpt lat="44.92868" lon="6.20596">
        <ele>1618.2</ele>
        <time>2023-07-25T08:09:12Z</time>
      </trkpt>
      <trkpt lat="44.92868" lon="6.20597">
        <ele>1618.5</ele>
        <time>2023-07-25T08:09:36Z</time>
      </trkpt>
      <trkpt lat="44.92868" lon="6.20597">
        <ele>1618.4</ele>
        <time>2023-07-25T08:09:37Z</time>
      </trkpt>
      <trkpt lat="44.92868" lon="6.20597">
        <ele>1617.8</ele>
        <time>2023-07-25T08:09:50Z</time>
      </trkpt>
      <trkpt lat="44.92868" lon="6.20597">
        <ele>1617.9</ele>
        <time>2023-07-25T08:09:51Z</time>
      </trkpt>
      <trkpt lat="44.92871" lon="6.20594">
        <ele>1618.3</ele>
        <time>2023-07-25T08:10:11Z</time>
      </trkpt>
      <trkpt lat="44.92875" lon="6.20591">
        <ele>1619.4</ele>
        <time>2023-07-25T08:10:18Z</time>
      </trkpt>
      <trkpt lat="44.92879" lon="6.20587">
        <ele>1616.5</ele>
        <time>2023-07-25T08:10:25Z</time>
      </trkpt>
      <trkpt lat="44.92877" lon="6.20578">
        <ele>1614.8</ele>
        <time>2023-07-25T08:10:32Z</time>
      </trkpt>
      <trkpt lat="44.92884" lon="6.20581">
        <ele>1611.4</ele>
        <time>2023-07-25T08:10:39Z</time>
      </trkpt>
      <trkpt lat="44.92889" lon="6.20578">
        <ele>1610.6</ele>
        <time>2023-07-25T08:10:46Z</time>
      </trkpt>
      <trkpt lat="44.9289" lon="6.20586">
        <ele>1610</ele>
        <time>2023-07-25T08:10:53Z</time>
      </trkpt>
      <trkpt lat="44.92891" lon="6.20587">
        <ele>1607.6</ele>
        <time>2023-07-25T08:11:00Z</time>
      </trkpt>
      <trkpt lat="44.9289" lon="6.20587">
        <ele>1605.8</ele>
        <time>2023-07-25T08:11:07Z</time>
      </trkpt>
      <trkpt lat="44.92894" lon="6.20587">
        <ele>1603.5</ele>
        <time>2023-07-25T08:11:14Z</time>
      </trkpt>
      <trkpt lat="44.92894" lon="6.20586">
        <ele>1600.9</ele>
        <time>2023-07-25T08:11:21Z</time>
      </trkpt>
      <trkpt lat="44.92894" lon="6.20586">
        <ele>1601.3</ele>
        <time>2023-07-25T08:11:23Z</time>
      </trkpt>
      <trkpt lat="44.92896" lon="6.20579">
        <ele>1602.3</ele>
        <time>2023-07-25T08:13:19Z</time>
      </trkpt>
      <trkpt lat="44.92901" lon="6.20579">
        <ele>1601.3</ele>
        <time>2023-07-25T08:13:26Z</time>
      </trkpt>
      <trkpt lat="44.92905" lon="6.20578">
        <ele>1600.3</ele>
        <time>2023-07-25T08:13:33Z</time>
      </trkpt>
      <trkpt lat="44.92907" lon="6.20578">
        <ele>1595.2</ele>
        <time>2023-07-25T08:13:40Z</time>
      </trkpt>
      <trkpt lat="44.92911" lon="6.20579">
        <ele>1595</ele>
        <time>2023-07-25T08:13:47Z</time>
      </trkpt>
      <trkpt lat="44.92917" lon="6.20578">
        <ele>1591.2</ele>
        <time>2023-07-25T08:13:54Z</time>
      </trkpt>
      <trkpt lat="44.9292" lon="6.20572">
        <ele>1592.8</ele>
        <time>2023-07-25T08:14:01Z</time>
      </trkpt>
      <trkpt lat="44.92924" lon="6.20567">
        <ele>1591.9</ele>
        <time>2023-07-25T08:14:08Z</time>
      </trkpt>
      <trkpt lat="44.92929" lon="6.20568">
        <ele>1593.5</ele>
        <time>2023-07-25T08:14:15Z</time>
      </trkpt>
      <trkpt lat="44.92932" lon="6.20572">
        <ele>1590.6</ele>
        <time>2023-07-25T08:14:22Z</time>
      </trkpt>
      <trkpt lat="44.92932" lon="6.20565">
        <ele>1589.7</ele>
        <time>2023-07-25T08:14:29Z</time>
      </trkpt>
      <trkpt lat="44.92936" lon="6.20566">
        <ele>1587.4</ele>
        <time>2023-07-25T08:14:36Z</time>
      </trkpt>
      <trkpt lat="44.9294" lon="6.20571">
        <ele>1587.1</ele>
        <time>2023-07-25T08:14:43Z</time>
      </trkpt>
      <trkpt lat="44.92945" lon="6.20573">
        <ele>1586.7</ele>
        <time>2023-07-25T08:14:50Z</time>
      </trkpt>
      <trkpt lat="44.9295" lon="6.20571">
        <ele>1585</ele>
        <time>2023-07-25T08:14:57Z</time>
      </trkpt>
      <trkpt lat="44.92953" lon="6.20566">
        <ele>1583.1</ele>
        <time>2023-07-25T08:15:04Z</time>
      </trkpt>
      <trkpt lat="44.92957" lon="6.20569">
        <ele>1578.4</ele>
        <time>2023-07-25T08:15:11Z</time>
      </trkpt>
      <trkpt lat="44.92961" lon="6.20574">
        <ele>1578.2</ele>
        <time>2023-07-25T08:15:18Z</time>
      </trkpt>
      <trkpt lat="44.92964" lon="6.20578">
        <ele>1576</ele>
        <time>2023-07-25T08:15:25Z</time>
      </trkpt>
      <trkpt lat="44.92965" lon="6.20575">
        <ele>1574.9</ele>
        <time>2023-07-25T08:15:32Z</time>
      </trkpt>
      <trkpt lat="44.92965" lon="6.20574">
        <ele>1572.1</ele>
        <time>2023-07-25T08:15:39Z</time>
      </trkpt>
      <trkpt lat="44.92965" lon="6.20574">
        <ele>1571.6</ele>
        <time>2023-07-25T08:15:41Z</time>
      </trkpt>
      <trkpt lat="44.92969" lon="6.20577">
        <ele>1572.5</ele>
        <time>2023-07-25T08:16:37Z</time>
      </trkpt>
      <trkpt lat="44.92971" lon="6.20585">
        <ele>1569.7</ele>
        <time>2023-07-25T08:16:44Z</time>
      </trkpt>
      <trkpt lat="44.92969" lon="6.20591">
        <ele>1569.6</ele>
        <time>2023-07-25T08:16:51Z</time>
      </trkpt>
      <trkpt lat="44.92972" lon="6.20596">
        <ele>1569.7</ele>
        <time>2023-07-25T08:16:58Z</time>
      </trkpt>
      <trkpt lat="44.92979" lon="6.20591">
        <ele>1568.8</ele>
        <time>2023-07-25T08:17:05Z</time>
      </trkpt>
      <trkpt lat="44.92979" lon="6.20591">
        <ele>1568.4</ele>
        <time>2023-07-25T08:17:12Z</time>
      </trkpt>
      <trkpt lat="44.92982" lon="6.20598">
        <ele>1571.1</ele>
        <time>2023-07-25T08:17:19Z</time>
      </trkpt>
      <trkpt lat="44.92985" lon="6.20603">
        <ele>1572.5</ele>
        <time>2023-07-25T08:17:26Z</time>
      </trkpt>
      <trkpt lat="44.92988" lon="6.20611">
        <ele>1569.1</ele>
        <time>2023-07-25T08:17:33Z</time>
      </trkpt>
      <trkpt lat="44.92989" lon="6.20618">
        <ele>1566.6</ele>
        <time>2023-07-25T08:17:40Z</time>
      </trkpt>
      <trkpt lat="44.92989" lon="6.20618">
        <ele>1566.6</ele>
        <time>2023-07-25T08:17:45Z</time>
      </trkpt>
      <trkpt lat="44.92993" lon="6.20621">
        <ele>1566.3</ele>
        <time>2023-07-25T08:17:56Z</time>
      </trkpt>
      <trkpt lat="44.92992" lon="6.20621">
        <ele>1566.2</ele>
        <time>2023-07-25T08:18:03Z</time>
      </trkpt>
      <trkpt lat="44.92992" lon="6.20621">
        <ele>1566.1</ele>
        <time>2023-07-25T08:18:06Z</time>
      </trkpt>
      <trkpt lat="44.92993" lon="6.20629">
        <ele>1565.1</ele>
        <time>2023-07-25T08:18:21Z</time>
      </trkpt>
      <trkpt lat="44.92991" lon="6.20639">
        <ele>1565.1</ele>
        <time>2023-07-25T08:18:28Z</time>
      </trkpt>
      <trkpt lat="44.92996" lon="6.20644">
        <ele>1564.2</ele>
        <time>2023-07-25T08:18:35Z</time>
      </trkpt>
      <trkpt lat="44.92996" lon="6.20649">
        <ele>1565.9</ele>
        <time>2023-07-25T08:18:42Z</time>
      </trkpt>
      <trkpt lat="44.93002" lon="6.20654">
        <ele>1565.3</ele>
        <time>2023-07-25T08:18:49Z</time>
      </trkpt>
      <trkpt lat="44.93007" lon="6.20662">
        <ele>1563.4</ele>
        <time>2023-07-25T08:18:56Z</time>
      </trkpt>
      <trkpt lat="44.93009" lon="6.20668">
        <ele>1563.5</ele>
        <time>2023-07-25T08:19:03Z</time>
      </trkpt>
      <trkpt lat="44.93015" lon="6.20675">
        <ele>1553.6</ele>
        <time>2023-07-25T08:19:09Z</time>
      </trkpt>
      <trkpt lat="44.93016" lon="6.20677">
        <ele>1552.6</ele>
        <time>2023-07-25T08:19:16Z</time>
      </trkpt>
      <trkpt lat="44.93016" lon="6.20677">
        <ele>1552.6</ele>
        <time>2023-07-25T08:19:18Z</time>
      </trkpt>
      <trkpt lat="44.93017" lon="6.20673">
        <ele>1553.8</ele>
        <time>2023-07-25T08:19:43Z</time>
      </trkpt>
      <trkpt lat="44.93017" lon="6.20672">
        <ele>1548.1</ele>
        <time>2023-07-25T08:19:50Z</time>
      </trkpt>
      <trkpt lat="44.93017" lon="6.20672">
        <ele>1546.5</ele>
        <time>2023-07-25T08:19:51Z</time>
      </trkpt>
      <trkpt lat="44.93016" lon="6.20667">
        <ele>1538.5</ele>
        <time>2023-07-25T08:19:58Z</time>
      </trkpt>
      <trkpt lat="44.93017" lon="6.20661">
        <ele>1535</ele>
        <time>2023-07-25T08:20:05Z</time>
      </trkpt>
      <trkpt lat="44.93017" lon="6.20653">
        <ele>1533.2</ele>
        <time>2023-07-25T08:20:12Z</time>
      </trkpt>
      <trkpt lat="44.93019" lon="6.20644">
        <ele>1529.5</ele>
        <time>2023-07-25T08:20:19Z</time>
      </trkpt>
      <trkpt lat="44.93021" lon="6.20649">
        <ele>1527.9</ele>
        <time>2023-07-25T08:20:26Z</time>
      </trkpt>
      <trkpt lat="44.9302" lon="6.20658">
        <ele>1528</ele>
        <time>2023-07-25T08:20:33Z</time>
      </trkpt>
      <trkpt lat="44.93023" lon="6.20662">
        <ele>1523.3</ele>
        <time>2023-07-25T08:20:40Z</time>
      </trkpt>
      <trkpt lat="44.93024" lon="6.2067">
        <ele>1520.3</ele>
        <time>2023-07-25T08:20:47Z</time>
      </trkpt>
      <trkpt lat="44.93029" lon="6.20666">
        <ele>1517.5</ele>
        <time>2023-07-25T08:20:54Z</time>
      </trkpt>
      <trkpt lat="44.9303" lon="6.20657">
        <ele>1514</ele>
        <time>2023-07-25T08:21:01Z</time>
      </trkpt>
      <trkpt lat="44.93032" lon="6.20653">
        <ele>1513.2</ele>
        <time>2023-07-25T08:21:08Z</time>
      </trkpt>
      <trkpt lat="44.93037" lon="6.20648">
        <ele>1514.3</ele>
        <time>2023-07-25T08:21:15Z</time>
      </trkpt>
      <trkpt lat="44.9304" lon="6.2064">
        <ele>1510.5</ele>
        <time>2023-07-25T08:21:22Z</time>
      </trkpt>
      <trkpt lat="44.93042" lon="6.20634">
        <ele>1506.2</ele>
        <time>2023-07-25T08:21:29Z</time>
      </trkpt>
      <trkpt lat="44.93046" lon="6.20629">
        <ele>1503.7</ele>
        <time>2023-07-25T08:21:36Z</time>
      </trkpt>
      <trkpt lat="44.9305" lon="6.20623">
        <ele>1503.4</ele>
        <time>2023-07-25T08:21:43Z</time>
      </trkpt>
      <trkpt lat="44.93051" lon="6.20622">
        <ele>1503.6</ele>
        <time>2023-07-25T08:21:50Z</time>
      </trkpt>
      <trkpt lat="44.93051" lon="6.20622">
        <ele>1502.3</ele>
        <time>2023-07-25T08:21:52Z</time>
      </trkpt>
      <trkpt lat="44.93051" lon="6.20623">
        <ele>1500</ele>
        <time>2023-07-25T08:26:44Z</time>
      </trkpt>
      <trkpt lat="44.9305" lon="6.20627">
        <ele>1501</ele>
        <time>2023-07-25T08:26:51Z</time>
      </trkpt>
      <trkpt lat="44.93051" lon="6.20627">
        <ele>1499.9</ele>
        <time>2023-07-25T08:26:58Z</time>
      </trkpt>
      <trkpt lat="44.93051" lon="6.20627">
        <ele>1499.8</ele>
        <time>2023-07-25T08:26:59Z</time>
      </trkpt>
      <trkpt lat="44.93052" lon="6.20628">
        <ele>1500.9</ele>
        <time>2023-07-25T08:27:24Z</time>
      </trkpt>
      <trkpt lat="44.93052" lon="6.20628">
        <ele>1502</ele>
        <time>2023-07-25T08:27:27Z</time>
      </trkpt>
      <trkpt lat="44.93053" lon="6.20628">
        <ele>1504</ele>
        <time>2023-07-25T08:27:42Z</time>
      </trkpt>
      <trkpt lat="44.93053" lon="6.20628">
        <ele>1504</ele>
        <time>2023-07-25T08:27:43Z</time>
      </trkpt>
      <trkpt lat="44.93054" lon="6.20627">
        <ele>1506.4</ele>
        <time>2023-07-25T08:28:07Z</time>
      </trkpt>
      <trkpt lat="44.93054" lon="6.20627">
        <ele>1506.3</ele>
        <time>2023-07-25T08:28:08Z</time>
      </trkpt>
      <trkpt lat="44.93054" lon="6.20627">
        <ele>1509.1</ele>
        <time>2023-07-25T08:28:22Z</time>
      </trkpt>
      <trkpt lat="44.93054" lon="6.20627">
        <ele>1509.1</ele>
        <time>2023-07-25T08:28:23Z</time>
      </trkpt>
      <trkpt lat="44.93057" lon="6.20623">
        <ele>1510.4</ele>
        <time>2023-07-25T08:29:03Z</time>
      </trkpt>
      <trkpt lat="44.93057" lon="6.20623">
        <ele>1510.1</ele>
        <time>2023-07-25T08:29:05Z</time>
      </trkpt>
      <trkpt lat="44.93057" lon="6.20623">
        <ele>1510</ele>
        <time>2023-07-25T08:29:50Z</time>
      </trkpt>
      <trkpt lat="44.93057" lon="6.20623">
        <ele>1509.9</ele>
        <time>2023-07-25T08:29:51Z</time>
      </trkpt>
      <trkpt lat="44.93056" lon="6.20618">
        <ele>1511.7</ele>
        <time>2023-07-25T08:31:35Z</time>
      </trkpt>
      <trkpt lat="44.93056" lon="6.20616">
        <ele>1511.3</ele>
        <time>2023-07-25T08:31:42Z</time>
      </trkpt>
      <trkpt lat="44.93056" lon="6.20616">
        <ele>1511.1</ele>
        <time>2023-07-25T08:31:44Z</time>
      </trkpt>
      <trkpt lat="44.93057" lon="6.20612">
        <ele>1510.7</ele>
        <time>2023-07-25T08:31:58Z</time>
      </trkpt>
      <trkpt lat="44.93056" lon="6.20607">
        <ele>1511.4</ele>
        <time>2023-07-25T08:32:05Z</time>
      </trkpt>
      <trkpt lat="44.93054" lon="6.20599">
        <ele>1510.7</ele>
        <time>2023-07-25T08:32:12Z</time>
      </trkpt>
      <trkpt lat="44.93049" lon="6.20591">
        <ele>1511.5</ele>
        <time>2023-07-25T08:32:19Z</time>
      </trkpt>
      <trkpt lat="44.93049" lon="6.20583">
        <ele>1510.2</ele>
        <time>2023-07-25T08:32:26Z</time>
      </trkpt>
      <trkpt lat="44.93057" lon="6.20585">
        <ele>1513</ele>
        <time>2023-07-25T08:32:33Z</time>
      </trkpt>
      <trkpt lat="44.93058" lon="6.20578">
        <ele>1511.7</ele>
        <time>2023-07-25T08:32:40Z</time>
      </trkpt>
      <trkpt lat="44.93052" lon="6.20572">
        <ele>1510.2</ele>
        <time>2023-07-25T08:32:45Z</time>
      </trkpt>
      <trkpt lat="44.93052" lon="6.20568">
        <ele>1506.6</ele>
        <time>2023-07-25T08:32:52Z</time>
      </trkpt>
      <trkpt lat="44.93057" lon="6.20569">
        <ele>1506.1</ele>
        <time>2023-07-25T08:32:59Z</time>
      </trkpt>
      <trkpt lat="44.93061" lon="6.20571">
        <ele>1507.3</ele>
        <time>2023-07-25T08:33:06Z</time>
      </trkpt>
      <trkpt lat="44.93062" lon="6.20569">
        <ele>1509.6</ele>
        <time>2023-07-25T08:33:13Z</time>
      </trkpt>
      <trkpt lat="44.93062" lon="6.20569">
        <ele>1509.8</ele>
        <time>2023-07-25T08:33:15Z</time>
      </trkpt>
      <trkpt lat="44.93062" lon="6.20569">
        <ele>1509.7</ele>
        <time>2023-07-25T08:33:29Z</time>
      </trkpt>
      <trkpt lat="44.93062" lon="6.20569">
        <ele>1509.8</ele>
        <time>2023-07-25T08:33:30Z</time>
      </trkpt>
      <trkpt lat="44.93061" lon="6.20567">
        <ele>1508.4</ele>
        <time>2023-07-25T08:33:39Z</time>
      </trkpt>
      <trkpt lat="44.93061" lon="6.20567">
        <ele>1508.2</ele>
        <time>2023-07-25T08:33:46Z</time>
      </trkpt>
      <trkpt lat="44.93061" lon="6.20566">
        <ele>1507.8</ele>
        <time>2023-07-25T08:33:48Z</time>
      </trkpt>
      <trkpt lat="44.93057" lon="6.20562">
        <ele>1505.3</ele>
        <time>2023-07-25T08:33:55Z</time>
      </trkpt>
      <trkpt lat="44.93056" lon="6.20559">
        <ele>1503.1</ele>
        <time>2023-07-25T08:34:02Z</time>
      </trkpt>
      <trkpt lat="44.93053" lon="6.20556">
        <ele>1500.9</ele>
        <time>2023-07-25T08:34:10Z</time>
      </trkpt>
      <trkpt lat="44.93057" lon="6.20552">
        <ele>1503.8</ele>
        <time>2023-07-25T08:34:17Z</time>
      </trkpt>
      <trkpt lat="44.93063" lon="6.20553">
        <ele>1503.8</ele>
        <time>2023-07-25T08:34:24Z</time>
      </trkpt>
      <trkpt lat="44.93063" lon="6.20548">
        <ele>1498.9</ele>
        <time>2023-07-25T08:34:31Z</time>
      </trkpt>
      <trkpt lat="44.93064" lon="6.20548">
        <ele>1500.5</ele>
        <time>2023-07-25T08:34:38Z</time>
      </trkpt>
      <trkpt lat="44.93064" lon="6.20548">
        <ele>1497.9</ele>
        <time>2023-07-25T08:34:42Z</time>
      </trkpt>
      <trkpt lat="44.93063" lon="6.20549">
        <ele>1496.2</ele>
        <time>2023-07-25T08:34:56Z</time>
      </trkpt>
      <trkpt lat="44.93063" lon="6.20548">
        <ele>1499.8</ele>
        <time>2023-07-25T08:35:03Z</time>
      </trkpt>
      <trkpt lat="44.9306" lon="6.20548">
        <ele>1494.4</ele>
        <time>2023-07-25T08:35:10Z</time>
      </trkpt>
      <trkpt lat="44.9306" lon="6.20548">
        <ele>1494.6</ele>
        <time>2023-07-25T08:35:14Z</time>
      </trkpt>
      <trkpt lat="44.93054" lon="6.20546">
        <ele>1493.4</ele>
        <time>2023-07-25T08:35:22Z</time>
      </trkpt>
      <trkpt lat="44.93055" lon="6.20542">
        <ele>1490.8</ele>
        <time>2023-07-25T08:35:29Z</time>
      </trkpt>
      <trkpt lat="44.93059" lon="6.20544">
        <ele>1492.7</ele>
        <time>2023-07-25T08:35:36Z</time>
      </trkpt>
      <trkpt lat="44.93062" lon="6.20539">
        <ele>1490.7</ele>
        <time>2023-07-25T08:35:43Z</time>
      </trkpt>
      <trkpt lat="44.93065" lon="6.20535">
        <ele>1495.5</ele>
        <time>2023-07-25T08:35:50Z</time>
      </trkpt>
      <trkpt lat="44.9307" lon="6.20536">
        <ele>1494.7</ele>
        <time>2023-07-25T08:35:57Z</time>
      </trkpt>
      <trkpt lat="44.93071" lon="6.20533">
        <ele>1497.9</ele>
        <time>2023-07-25T08:36:04Z</time>
      </trkpt>
      <trkpt lat="44.93071" lon="6.20533">
        <ele>1498.3</ele>
        <time>2023-07-25T08:36:07Z</time>
      </trkpt>
      <trkpt lat="44.93072" lon="6.20533">
        <ele>1501</ele>
        <time>2023-07-25T08:36:21Z</time>
      </trkpt>
      <trkpt lat="44.93072" lon="6.20533">
        <ele>1501</ele>
        <time>2023-07-25T08:36:22Z</time>
      </trkpt>
      <trkpt lat="44.93072" lon="6.20534">
        <ele>1501.2</ele>
        <time>2023-07-25T08:36:32Z</time>
      </trkpt>
      <trkpt lat="44.93071" lon="6.20533">
        <ele>1501.4</ele>
        <time>2023-07-25T08:36:39Z</time>
      </trkpt>
      <trkpt lat="44.93069" lon="6.20535">
        <ele>1500</ele>
        <time>2023-07-25T08:36:46Z</time>
      </trkpt>
      <trkpt lat="44.9307" lon="6.20536">
        <ele>1498.9</ele>
        <time>2023-07-25T08:36:52Z</time>
      </trkpt>
      <trkpt lat="44.93072" lon="6.20536">
        <ele>1497.4</ele>
        <time>2023-07-25T08:37:04Z</time>
      </trkpt>
      <trkpt lat="44.9307" lon="6.20537">
        <ele>1496.9</ele>
        <time>2023-07-25T08:37:11Z</time>
      </trkpt>
      <trkpt lat="44.9307" lon="6.20538">
        <ele>1496.8</ele>
        <time>2023-07-25T08:37:14Z</time>
      </trkpt>
      <trkpt lat="44.93072" lon="6.20541">
        <ele>1497.3</ele>
        <time>2023-07-25T08:37:27Z</time>
      </trkpt>
      <trkpt lat="44.93072" lon="6.20547">
        <ele>1494.5</ele>
        <time>2023-07-25T08:37:34Z</time>
      </trkpt>
      <trkpt lat="44.93077" lon="6.20546">
        <ele>1490.4</ele>
        <time>2023-07-25T08:37:41Z</time>
      </trkpt>
      <trkpt lat="44.93081" lon="6.20543">
        <ele>1490.8</ele>
        <time>2023-07-25T08:37:48Z</time>
      </trkpt>
      <trkpt lat="44.93081" lon="6.20543">
        <ele>1490.8</ele>
        <time>2023-07-25T08:37:52Z</time>
      </trkpt>
      <trkpt lat="44.93083" lon="6.20543">
        <ele>1490.3</ele>
        <time>2023-07-25T08:38:11Z</time>
      </trkpt>
      <trkpt lat="44.93083" lon="6.20543">
        <ele>1489.4</ele>
        <time>2023-07-25T08:38:12Z</time>
      </trkpt>
      <trkpt lat="44.93088" lon="6.20543">
        <ele>1490.9</ele>
        <time>2023-07-25T08:38:25Z</time>
      </trkpt>
      <trkpt lat="44.93092" lon="6.20548">
        <ele>1489</ele>
        <time>2023-07-25T08:38:32Z</time>
      </trkpt>
      <trkpt lat="44.93098" lon="6.20551">
        <ele>1488.2</ele>
        <time>2023-07-25T08:38:39Z</time>
      </trkpt>
      <trkpt lat="44.93104" lon="6.20553">
        <ele>1488.2</ele>
        <time>2023-07-25T08:38:46Z</time>
      </trkpt>
      <trkpt lat="44.93107" lon="6.20559">
        <ele>1479.3</ele>
        <time>2023-07-25T08:38:53Z</time>
      </trkpt>
      <trkpt lat="44.93108" lon="6.20562">
        <ele>1474</ele>
        <time>2023-07-25T08:39:00Z</time>
      </trkpt>
      <trkpt lat="44.93108" lon="6.20562">
        <ele>1472.9</ele>
        <time>2023-07-25T08:39:04Z</time>
      </trkpt>
      <trkpt lat="44.93107" lon="6.20562">
        <ele>1469.8</ele>
        <time>2023-07-25T08:40:34Z</time>
      </trkpt>
      <trkpt lat="44.93107" lon="6.20562">
        <ele>1469.8</ele>
        <time>2023-07-25T08:40:35Z</time>
      </trkpt>
      <trkpt lat="44.93106" lon="6.2056">
        <ele>1473.7</ele>
        <time>2023-07-25T08:42:58Z</time>
      </trkpt>
      <trkpt lat="44.93105" lon="6.2056">
        <ele>1473.9</ele>
        <time>2023-07-25T08:43:05Z</time>
      </trkpt>
      <trkpt lat="44.93105" lon="6.20559">
        <ele>1474</ele>
        <time>2023-07-25T08:43:56Z</time>
      </trkpt>
      <trkpt lat="44.93105" lon="6.20559">
        <ele>1474</ele>
        <time>2023-07-25T08:43:57Z</time>
      </trkpt>
      <trkpt lat="44.93106" lon="6.20562">
        <ele>1477.2</ele>
        <time>2023-07-25T08:45:47Z</time>
      </trkpt>
      <trkpt lat="44.93106" lon="6.2057">
        <ele>1477.8</ele>
        <time>2023-07-25T08:45:54Z</time>
      </trkpt>
      <trkpt lat="44.93106" lon="6.2057">
        <ele>1477.4</ele>
        <time>2023-07-25T08:46:00Z</time>
      </trkpt>
      <trkpt lat="44.9311" lon="6.20575">
        <ele>1479.4</ele>
        <time>2023-07-25T08:46:16Z</time>
      </trkpt>
      <trkpt lat="44.9311" lon="6.2058">
        <ele>1481.2</ele>
        <time>2023-07-25T08:46:23Z</time>
      </trkpt>
      <trkpt lat="44.9311" lon="6.20586">
        <ele>1481.3</ele>
        <time>2023-07-25T08:46:30Z</time>
      </trkpt>
      <trkpt lat="44.9311" lon="6.20591">
        <ele>1482.3</ele>
        <time>2023-07-25T08:46:37Z</time>
      </trkpt>
      <trkpt lat="44.93106" lon="6.20597">
        <ele>1482.3</ele>
        <time>2023-07-25T08:46:44Z</time>
      </trkpt>
      <trkpt lat="44.93106" lon="6.20602">
        <ele>1481.1</ele>
        <time>2023-07-25T08:46:51Z</time>
      </trkpt>
      <trkpt lat="44.93105" lon="6.20606">
        <ele>1481.1</ele>
        <time>2023-07-25T08:46:58Z</time>
      </trkpt>
      <trkpt lat="44.93104" lon="6.20609">
        <ele>1481.1</ele>
        <time>2023-07-25T08:47:05Z</time>
      </trkpt>
      <trkpt lat="44.93105" lon="6.20611">
        <ele>1481.9</ele>
        <time>2023-07-25T08:47:12Z</time>
      </trkpt>
      <trkpt lat="44.93102" lon="6.20618">
        <ele>1483.4</ele>
        <time>2023-07-25T08:47:19Z</time>
      </trkpt>
      <trkpt lat="44.93102" lon="6.20625">
        <ele>1483.5</ele>
        <time>2023-07-25T08:47:26Z</time>
      </trkpt>
      <trkpt lat="44.93104" lon="6.2063">
        <ele>1483.7</ele>
        <time>2023-07-25T08:47:33Z</time>
      </trkpt>
      <trkpt lat="44.93097" lon="6.20635">
        <ele>1487.9</ele>
        <time>2023-07-25T08:47:37Z</time>
      </trkpt>
      <trkpt lat="44.93098" lon="6.20643">
        <ele>1491.8</ele>
        <time>2023-07-25T08:47:44Z</time>
      </trkpt>
      <trkpt lat="44.931" lon="6.2065">
        <ele>1495.1</ele>
        <time>2023-07-25T08:47:51Z</time>
      </trkpt>
      <trkpt lat="44.93103" lon="6.20654">
        <ele>1495.4</ele>
        <time>2023-07-25T08:47:58Z</time>
      </trkpt>
      <trkpt lat="44.93106" lon="6.20659">
        <ele>1495.9</ele>
        <time>2023-07-25T08:48:05Z</time>
      </trkpt>
      <trkpt lat="44.93107" lon="6.20665">
        <ele>1496</ele>
        <time>2023-07-25T08:48:12Z</time>
      </trkpt>
      <trkpt lat="44.93108" lon="6.2067">
        <ele>1496.1</ele>
        <time>2023-07-25T08:48:19Z</time>
      </trkpt>
      <trkpt lat="44.93109" lon="6.20676">
        <ele>1496.4</ele>
        <time>2023-07-25T08:48:26Z</time>
      </trkpt>
      <trkpt lat="44.93109" lon="6.20682">
        <ele>1496.5</ele>
        <time>2023-07-25T08:48:33Z</time>
      </trkpt>
      <trkpt lat="44.93104" lon="6.20691">
        <ele>1496.5</ele>
        <time>2023-07-25T08:48:40Z</time>
      </trkpt>
      <trkpt lat="44.93103" lon="6.20691">
        <ele>1497.2</ele>
        <time>2023-07-25T08:48:47Z</time>
      </trkpt>
      <trkpt lat="44.93101" lon="6.2069">
        <ele>1497.2</ele>
        <time>2023-07-25T08:48:54Z</time>
      </trkpt>
      <trkpt lat="44.93101" lon="6.20683">
        <ele>1497.4</ele>
        <time>2023-07-25T08:49:01Z</time>
      </trkpt>
      <trkpt lat="44.93101" lon="6.20679">
        <ele>1497.6</ele>
        <time>2023-07-25T08:49:08Z</time>
      </trkpt>
      <trkpt lat="44.93098" lon="6.20684">
        <ele>1498.1</ele>
        <time>2023-07-25T08:49:15Z</time>
      </trkpt>
      <trkpt lat="44.931" lon="6.207">
        <ele>1493.5</ele>
        <time>2023-07-25T08:49:22Z</time>
      </trkpt>
      <trkpt lat="44.93105" lon="6.20707">
        <ele>1495.2</ele>
        <time>2023-07-25T08:49:25Z</time>
      </trkpt>
      <trkpt lat="44.93096" lon="6.20713">
        <ele>1494.3</ele>
        <time>2023-07-25T08:49:30Z</time>
      </trkpt>
      <trkpt lat="44.93088" lon="6.20718">
        <ele>1490.4</ele>
        <time>2023-07-25T08:49:35Z</time>
      </trkpt>
      <trkpt lat="44.93084" lon="6.20722">
        <ele>1493.7</ele>
        <time>2023-07-25T08:49:42Z</time>
      </trkpt>
      <trkpt lat="44.93086" lon="6.20731">
        <ele>1497</ele>
        <time>2023-07-25T08:49:49Z</time>
      </trkpt>
      <trkpt lat="44.93085" lon="6.20737">
        <ele>1500.5</ele>
        <time>2023-07-25T08:49:56Z</time>
      </trkpt>
      <trkpt lat="44.93082" lon="6.20745">
        <ele>1500.5</ele>
        <time>2023-07-25T08:50:03Z</time>
      </trkpt>
      <trkpt lat="44.93084" lon="6.20752">
        <ele>1501.8</ele>
        <time>2023-07-25T08:50:10Z</time>
      </trkpt>
      <trkpt lat="44.93081" lon="6.2076">
        <ele>1499.6</ele>
        <time>2023-07-25T08:50:17Z</time>
      </trkpt>
      <trkpt lat="44.93082" lon="6.20769">
        <ele>1502.7</ele>
        <time>2023-07-25T08:50:24Z</time>
      </trkpt>
      <trkpt lat="44.9308" lon="6.2078">
        <ele>1499</ele>
        <time>2023-07-25T08:50:30Z</time>
      </trkpt>
      <trkpt lat="44.93079" lon="6.20785">
        <ele>1499.1</ele>
        <time>2023-07-25T08:50:37Z</time>
      </trkpt>
      <trkpt lat="44.93083" lon="6.20789">
        <ele>1497.2</ele>
        <time>2023-07-25T08:50:44Z</time>
      </trkpt>
      <trkpt lat="44.93082" lon="6.20797">
        <ele>1494.6</ele>
        <time>2023-07-25T08:50:51Z</time>
      </trkpt>
      <trkpt lat="44.93085" lon="6.20802">
        <ele>1496.8</ele>
        <time>2023-07-25T08:50:58Z</time>
      </trkpt>
      <trkpt lat="44.93087" lon="6.20811">
        <ele>1497.4</ele>
        <time>2023-07-25T08:51:05Z</time>
      </trkpt>
      <trkpt lat="44.93092" lon="6.20817">
        <ele>1497.9</ele>
        <time>2023-07-25T08:51:12Z</time>
      </trkpt>
      <trkpt lat="44.93093" lon="6.20827">
        <ele>1492.7</ele>
        <time>2023-07-25T08:51:19Z</time>
      </trkpt>
      <trkpt lat="44.93094" lon="6.20837">
        <ele>1487</ele>
        <time>2023-07-25T08:51:26Z</time>
      </trkpt>
      <trkpt lat="44.93095" lon="6.20846">
        <ele>1486.1</ele>
        <time>2023-07-25T08:51:33Z</time>
      </trkpt>
      <trkpt lat="44.93092" lon="6.20856">
        <ele>1484.2</ele>
        <time>2023-07-25T08:51:40Z</time>
      </trkpt>
      <trkpt lat="44.93089" lon="6.20868">
        <ele>1481.8</ele>
        <time>2023-07-25T08:51:46Z</time>
      </trkpt>
      <trkpt lat="44.93087" lon="6.20878">
        <ele>1480.7</ele>
        <time>2023-07-25T08:51:53Z</time>
      </trkpt>
      <trkpt lat="44.93086" lon="6.20882">
        <ele>1478</ele>
        <time>2023-07-25T08:52:00Z</time>
      </trkpt>
      <trkpt lat="44.93087" lon="6.2089">
        <ele>1475.3</ele>
        <time>2023-07-25T08:52:07Z</time>
      </trkpt>
      <trkpt lat="44.93088" lon="6.20897">
        <ele>1472.3</ele>
        <time>2023-07-25T08:52:14Z</time>
      </trkpt>
      <trkpt lat="44.9309" lon="6.20903">
        <ele>1471.5</ele>
        <time>2023-07-25T08:52:21Z</time>
      </trkpt>
      <trkpt lat="44.9309" lon="6.20911">
        <ele>1468.5</ele>
        <time>2023-07-25T08:52:28Z</time>
      </trkpt>
      <trkpt lat="44.93092" lon="6.20916">
        <ele>1467.7</ele>
        <time>2023-07-25T08:52:35Z</time>
      </trkpt>
      <trkpt lat="44.93096" lon="6.20924">
        <ele>1462.9</ele>
        <time>2023-07-25T08:52:42Z</time>
      </trkpt>
      <trkpt lat="44.93102" lon="6.20931">
        <ele>1463</ele>
        <time>2023-07-25T08:52:47Z</time>
      </trkpt>
      <trkpt lat="44.93105" lon="6.20942">
        <ele>1466.6</ele>
        <time>2023-07-25T08:52:52Z</time>
      </trkpt>
      <trkpt lat="44.93108" lon="6.20946">
        <ele>1466.5</ele>
        <time>2023-07-25T08:52:59Z</time>
      </trkpt>
      <trkpt lat="44.9311" lon="6.20953">
        <ele>1466.4</ele>
        <time>2023-07-25T08:53:06Z</time>
      </trkpt>
      <trkpt lat="44.93109" lon="6.20962">
        <ele>1471.8</ele>
        <time>2023-07-25T08:53:13Z</time>
      </trkpt>
      <trkpt lat="44.9311" lon="6.2097">
        <ele>1478.6</ele>
        <time>2023-07-25T08:53:20Z</time>
      </trkpt>
      <trkpt lat="44.93115" lon="6.20978">
        <ele>1476.6</ele>
        <time>2023-07-25T08:53:27Z</time>
      </trkpt>
      <trkpt lat="44.93114" lon="6.20985">
        <ele>1478.1</ele>
        <time>2023-07-25T08:53:34Z</time>
      </trkpt>
      <trkpt lat="44.93116" lon="6.20994">
        <ele>1473.8</ele>
        <time>2023-07-25T08:53:41Z</time>
      </trkpt>
      <trkpt lat="44.93116" lon="6.21">
        <ele>1468.5</ele>
        <time>2023-07-25T08:53:48Z</time>
      </trkpt>
      <trkpt lat="44.93117" lon="6.21002">
        <ele>1465.7</ele>
        <time>2023-07-25T08:53:55Z</time>
      </trkpt>
      <trkpt lat="44.93116" lon="6.21005">
        <ele>1465.9</ele>
        <time>2023-07-25T08:54:02Z</time>
      </trkpt>
      <trkpt lat="44.9312" lon="6.21015">
        <ele>1466.3</ele>
        <time>2023-07-25T08:54:08Z</time>
      </trkpt>
      <trkpt lat="44.9312" lon="6.2102">
        <ele>1469.7</ele>
        <time>2023-07-25T08:54:15Z</time>
      </trkpt>
      <trkpt lat="44.93122" lon="6.21024">
        <ele>1470.6</ele>
        <time>2023-07-25T08:54:22Z</time>
      </trkpt>
      <trkpt lat="44.93117" lon="6.21032">
        <ele>1469.3</ele>
        <time>2023-07-25T08:54:29Z</time>
      </trkpt>
      <trkpt lat="44.93123" lon="6.21038">
        <ele>1472.8</ele>
        <time>2023-07-25T08:54:36Z</time>
      </trkpt>
      <trkpt lat="44.93123" lon="6.21043">
        <ele>1472.9</ele>
        <time>2023-07-25T08:54:43Z</time>
      </trkpt>
      <trkpt lat="44.93124" lon="6.21042">
        <ele>1472.4</ele>
        <time>2023-07-25T08:54:50Z</time>
      </trkpt>
      <trkpt lat="44.93126" lon="6.21046">
        <ele>1474.6</ele>
        <time>2023-07-25T08:54:57Z</time>
      </trkpt>
      <trkpt lat="44.93126" lon="6.21054">
        <ele>1479.9</ele>
        <time>2023-07-25T08:55:04Z</time>
      </trkpt>
      <trkpt lat="44.93129" lon="6.21059">
        <ele>1481.2</ele>
        <time>2023-07-25T08:55:11Z</time>
      </trkpt>
      <trkpt lat="44.9313" lon="6.21064">
        <ele>1479.4</ele>
        <time>2023-07-25T08:55:18Z</time>
      </trkpt>
      <trkpt lat="44.9313" lon="6.21068">
        <ele>1479.4</ele>
        <time>2023-07-25T08:55:25Z</time>
      </trkpt>
      <trkpt lat="44.93131" lon="6.21072">
        <ele>1480.5</ele>
        <time>2023-07-25T08:55:32Z</time>
      </trkpt>
      <trkpt lat="44.93132" lon="6.21073">
        <ele>1484.8</ele>
        <time>2023-07-25T08:55:36Z</time>
      </trkpt>
      <trkpt lat="44.93131" lon="6.21073">
        <ele>1492.6</ele>
        <time>2023-07-25T08:55:49Z</time>
      </trkpt>
      <trkpt lat="44.93131" lon="6.21073">
        <ele>1492.5</ele>
        <time>2023-07-25T08:55:50Z</time>
      </trkpt>
      <trkpt lat="44.93128" lon="6.21077">
        <ele>1492.8</ele>
        <time>2023-07-25T08:57:18Z</time>
      </trkpt>
      <trkpt lat="44.93128" lon="6.21077">
        <ele>1492.8</ele>
        <time>2023-07-25T08:57:19Z</time>
      </trkpt>
      <trkpt lat="44.93129" lon="6.21077">
        <ele>1492.6</ele>
        <time>2023-07-25T08:57:58Z</time>
      </trkpt>
      <trkpt lat="44.93129" lon="6.21077">
        <ele>1492.6</ele>
        <time>2023-07-25T08:57:59Z</time>
      </trkpt>
      <trkpt lat="44.93137" lon="6.21081">
        <ele>1491</ele>
        <time>2023-07-25T08:58:04Z</time>
      </trkpt>
      <trkpt lat="44.93139" lon="6.21093">
        <ele>1495.7</ele>
        <time>2023-07-25T08:58:11Z</time>
      </trkpt>
      <trkpt lat="44.93144" lon="6.21091">
        <ele>1497.4</ele>
        <time>2023-07-25T08:58:18Z</time>
      </trkpt>
      <trkpt lat="44.93146" lon="6.21095">
        <ele>1497.4</ele>
        <time>2023-07-25T08:58:25Z</time>
      </trkpt>
      <trkpt lat="44.93148" lon="6.21099">
        <ele>1497.5</ele>
        <time>2023-07-25T08:58:32Z</time>
      </trkpt>
      <trkpt lat="44.9315" lon="6.21106">
        <ele>1497.7</ele>
        <time>2023-07-25T08:58:39Z</time>
      </trkpt>
      <trkpt lat="44.93154" lon="6.21111">
        <ele>1503.4</ele>
        <time>2023-07-25T08:58:46Z</time>
      </trkpt>
      <trkpt lat="44.93155" lon="6.21115">
        <ele>1503.9</ele>
        <time>2023-07-25T08:58:53Z</time>
      </trkpt>
      <trkpt lat="44.93161" lon="6.21116">
        <ele>1503.1</ele>
        <time>2023-07-25T08:59:00Z</time>
      </trkpt>
      <trkpt lat="44.93167" lon="6.2112">
        <ele>1500.6</ele>
        <time>2023-07-25T08:59:07Z</time>
      </trkpt>
      <trkpt lat="44.93173" lon="6.21124">
        <ele>1502</ele>
        <time>2023-07-25T08:59:14Z</time>
      </trkpt>
      <trkpt lat="44.93172" lon="6.21135">
        <ele>1502.7</ele>
        <time>2023-07-25T08:59:21Z</time>
      </trkpt>
      <trkpt lat="44.93171" lon="6.21143">
        <ele>1502.9</ele>
        <time>2023-07-25T08:59:28Z</time>
      </trkpt>
      <trkpt lat="44.93171" lon="6.21143">
        <ele>1500.2</ele>
        <time>2023-07-25T08:59:34Z</time>
      </trkpt>
      <trkpt lat="44.93171" lon="6.21155">
        <ele>1503.1</ele>
        <time>2023-07-25T09:00:08Z</time>
      </trkpt>
      <trkpt lat="44.93176" lon="6.2116">
        <ele>1502.1</ele>
        <time>2023-07-25T09:00:15Z</time>
      </trkpt>
      <trkpt lat="44.9318" lon="6.21165">
        <ele>1504.7</ele>
        <time>2023-07-25T09:00:22Z</time>
      </trkpt>
      <trkpt lat="44.93182" lon="6.21172">
        <ele>1503.1</ele>
        <time>2023-07-25T09:00:29Z</time>
      </trkpt>
      <trkpt lat="44.93186" lon="6.21179">
        <ele>1499.2</ele>
        <time>2023-07-25T09:00:36Z</time>
      </trkpt>
      <trkpt lat="44.93189" lon="6.21188">
        <ele>1497.6</ele>
        <time>2023-07-25T09:00:43Z</time>
      </trkpt>
      <trkpt lat="44.9319" lon="6.212">
        <ele>1499.2</ele>
        <time>2023-07-25T09:00:50Z</time>
      </trkpt>
      <trkpt lat="44.93186" lon="6.21207">
        <ele>1499.2</ele>
        <time>2023-07-25T09:00:57Z</time>
      </trkpt>
      <trkpt lat="44.93186" lon="6.21214">
        <ele>1498.8</ele>
        <time>2023-07-25T09:01:04Z</time>
      </trkpt>
      <trkpt lat="44.9319" lon="6.21217">
        <ele>1499.9</ele>
        <time>2023-07-25T09:01:11Z</time>
      </trkpt>
      <trkpt lat="44.93193" lon="6.21224">
        <ele>1504.3</ele>
        <time>2023-07-25T09:01:18Z</time>
      </trkpt>
      <trkpt lat="44.93195" lon="6.21232">
        <ele>1504.5</ele>
        <time>2023-07-25T09:01:25Z</time>
      </trkpt>
      <trkpt lat="44.93197" lon="6.21239">
        <ele>1504.6</ele>
        <time>2023-07-25T09:01:32Z</time>
      </trkpt>
      <trkpt lat="44.93193" lon="6.21249">
        <ele>1507.1</ele>
        <time>2023-07-25T09:01:38Z</time>
      </trkpt>
      <trkpt lat="44.93192" lon="6.2126">
        <ele>1505.9</ele>
        <time>2023-07-25T09:01:45Z</time>
      </trkpt>
      <trkpt lat="44.93191" lon="6.21269">
        <ele>1505.9</ele>
        <time>2023-07-25T09:01:52Z</time>
      </trkpt>
      <trkpt lat="44.93191" lon="6.21278">
        <ele>1505.3</ele>
        <time>2023-07-25T09:01:59Z</time>
      </trkpt>
      <trkpt lat="44.93195" lon="6.21288">
        <ele>1504.7</ele>
        <time>2023-07-25T09:02:06Z</time>
      </trkpt>
      <trkpt lat="44.93197" lon="6.21296">
        <ele>1503.9</ele>
        <time>2023-07-25T09:02:13Z</time>
      </trkpt>
      <trkpt lat="44.93202" lon="6.21303">
        <ele>1505.9</ele>
        <time>2023-07-25T09:02:20Z</time>
      </trkpt>
      <trkpt lat="44.93202" lon="6.2131">
        <ele>1501.8</ele>
        <time>2023-07-25T09:02:27Z</time>
      </trkpt>
      <trkpt lat="44.932" lon="6.21315">
        <ele>1503.3</ele>
        <time>2023-07-25T09:02:34Z</time>
      </trkpt>
      <trkpt lat="44.93203" lon="6.21323">
        <ele>1504.1</ele>
        <time>2023-07-25T09:02:41Z</time>
      </trkpt>
      <trkpt lat="44.93207" lon="6.21329">
        <ele>1503.2</ele>
        <time>2023-07-25T09:02:48Z</time>
      </trkpt>
      <trkpt lat="44.93206" lon="6.21331">
        <ele>1504.8</ele>
        <time>2023-07-25T09:02:55Z</time>
      </trkpt>
      <trkpt lat="44.93207" lon="6.21336">
        <ele>1505.9</ele>
        <time>2023-07-25T09:03:02Z</time>
      </trkpt>
      <trkpt lat="44.93209" lon="6.21336">
        <ele>1507.3</ele>
        <time>2023-07-25T09:03:09Z</time>
      </trkpt>
      <trkpt lat="44.93209" lon="6.21336">
        <ele>1508.7</ele>
        <time>2023-07-25T09:03:12Z</time>
      </trkpt>
      <trkpt lat="44.93208" lon="6.21343">
        <ele>1509.6</ele>
        <time>2023-07-25T09:03:20Z</time>
      </trkpt>
      <trkpt lat="44.93206" lon="6.21348">
        <ele>1509.8</ele>
        <time>2023-07-25T09:03:27Z</time>
      </trkpt>
      <trkpt lat="44.93207" lon="6.21358">
        <ele>1512.7</ele>
        <time>2023-07-25T09:03:34Z</time>
      </trkpt>
      <trkpt lat="44.93209" lon="6.21362">
        <ele>1512.3</ele>
        <time>2023-07-25T09:03:41Z</time>
      </trkpt>
      <trkpt lat="44.93209" lon="6.21362">
        <ele>1512.3</ele>
        <time>2023-07-25T09:03:45Z</time>
      </trkpt>
      <trkpt lat="44.93209" lon="6.21362">
        <ele>1509.2</ele>
        <time>2023-07-25T09:03:53Z</time>
      </trkpt>
      <trkpt lat="44.93211" lon="6.21366">
        <ele>1508.1</ele>
        <time>2023-07-25T09:04:00Z</time>
      </trkpt>
      <trkpt lat="44.93215" lon="6.21372">
        <ele>1508.3</ele>
        <time>2023-07-25T09:04:07Z</time>
      </trkpt>
      <trkpt lat="44.93215" lon="6.21372">
        <ele>1508.3</ele>
        <time>2023-07-25T09:04:14Z</time>
      </trkpt>
      <trkpt lat="44.93213" lon="6.21374">
        <ele>1509.5</ele>
        <time>2023-07-25T09:04:34Z</time>
      </trkpt>
      <trkpt lat="44.93213" lon="6.21374">
        <ele>1509.5</ele>
        <time>2023-07-25T09:04:39Z</time>
      </trkpt>
      <trkpt lat="44.93213" lon="6.21381">
        <ele>1509.4</ele>
        <time>2023-07-25T09:04:47Z</time>
      </trkpt>
      <trkpt lat="44.93212" lon="6.21391">
        <ele>1509.1</ele>
        <time>2023-07-25T09:04:54Z</time>
      </trkpt>
      <trkpt lat="44.93213" lon="6.21399">
        <ele>1509.1</ele>
        <time>2023-07-25T09:05:01Z</time>
      </trkpt>
      <trkpt lat="44.93213" lon="6.21408">
        <ele>1510.4</ele>
        <time>2023-07-25T09:05:08Z</time>
      </trkpt>
      <trkpt lat="44.93213" lon="6.21418">
        <ele>1508.5</ele>
        <time>2023-07-25T09:05:15Z</time>
      </trkpt>
      <trkpt lat="44.93214" lon="6.21427">
        <ele>1508.4</ele>
        <time>2023-07-25T09:05:22Z</time>
      </trkpt>
      <trkpt lat="44.93218" lon="6.21428">
        <ele>1507.5</ele>
        <time>2023-07-25T09:05:29Z</time>
      </trkpt>
      <trkpt lat="44.93218" lon="6.21428">
        <ele>1507.5</ele>
        <time>2023-07-25T09:05:31Z</time>
      </trkpt>
      <trkpt lat="44.93219" lon="6.21437">
        <ele>1507.3</ele>
        <time>2023-07-25T09:05:43Z</time>
      </trkpt>
      <trkpt lat="44.93219" lon="6.21446">
        <ele>1507.4</ele>
        <time>2023-07-25T09:05:50Z</time>
      </trkpt>
      <trkpt lat="44.9322" lon="6.21448">
        <ele>1507.3</ele>
        <time>2023-07-25T09:05:57Z</time>
      </trkpt>
      <trkpt lat="44.9322" lon="6.21448">
        <ele>1507.3</ele>
        <time>2023-07-25T09:06:00Z</time>
      </trkpt>
      <trkpt lat="44.93221" lon="6.2145">
        <ele>1507.1</ele>
        <time>2023-07-25T09:06:10Z</time>
      </trkpt>
      <trkpt lat="44.93218" lon="6.21452">
        <ele>1504.3</ele>
        <time>2023-07-25T09:06:17Z</time>
      </trkpt>
      <trkpt lat="44.93211" lon="6.21456">
        <ele>1500.3</ele>
        <time>2023-07-25T09:06:24Z</time>
      </trkpt>
      <trkpt lat="44.93209" lon="6.21461">
        <ele>1500.7</ele>
        <time>2023-07-25T09:06:31Z</time>
      </trkpt>
      <trkpt lat="44.93208" lon="6.21469">
        <ele>1500.7</ele>
        <time>2023-07-25T09:06:38Z</time>
      </trkpt>
      <trkpt lat="44.93212" lon="6.21473">
        <ele>1500.2</ele>
        <time>2023-07-25T09:06:45Z</time>
      </trkpt>
      <trkpt lat="44.93212" lon="6.21473">
        <ele>1500.7</ele>
        <time>2023-07-25T09:06:49Z</time>
      </trkpt>
      <trkpt lat="44.93211" lon="6.21475">
        <ele>1501.3</ele>
        <time>2023-07-25T09:07:16Z</time>
      </trkpt>
      <trkpt lat="44.93211" lon="6.21475">
        <ele>1501.5</ele>
        <time>2023-07-25T09:07:20Z</time>
      </trkpt>
      <trkpt lat="44.93211" lon="6.21477">
        <ele>1505.3</ele>
        <time>2023-07-25T09:08:34Z</time>
      </trkpt>
      <trkpt lat="44.93211" lon="6.21477">
        <ele>1505.1</ele>
        <time>2023-07-25T09:08:39Z</time>
      </trkpt>
      <trkpt lat="44.93212" lon="6.21477">
        <ele>1504.8</ele>
        <time>2023-07-25T09:09:20Z</time>
      </trkpt>
      <trkpt lat="44.93212" lon="6.21477">
        <ele>1504.2</ele>
        <time>2023-07-25T09:09:21Z</time>
      </trkpt>
      <trkpt lat="44.9321" lon="6.21477">
        <ele>1504.8</ele>
        <time>2023-07-25T09:09:44Z</time>
      </trkpt>
      <trkpt lat="44.9321" lon="6.21477">
        <ele>1504.7</ele>
        <time>2023-07-25T09:09:45Z</time>
      </trkpt>
      <trkpt lat="44.93211" lon="6.21476">
        <ele>1503.8</ele>
        <time>2023-07-25T09:10:39Z</time>
      </trkpt>
      <trkpt lat="44.93211" lon="6.21476">
        <ele>1503.8</ele>
        <time>2023-07-25T09:10:40Z</time>
      </trkpt>
      <trkpt lat="44.93211" lon="6.21477">
        <ele>1504</ele>
        <time>2023-07-25T09:12:33Z</time>
      </trkpt>
      <trkpt lat="44.93211" lon="6.21477">
        <ele>1504.6</ele>
        <time>2023-07-25T09:12:34Z</time>
      </trkpt>
      <trkpt lat="44.93209" lon="6.21479">
        <ele>1505.6</ele>
        <time>2023-07-25T09:14:47Z</time>
      </trkpt>
      <trkpt lat="44.93209" lon="6.21479">
        <ele>1505.6</ele>
        <time>2023-07-25T09:14:48Z</time>
      </trkpt>
      <trkpt lat="44.93209" lon="6.2148">
        <ele>1508.9</ele>
        <time>2023-07-25T09:15:10Z</time>
      </trkpt>
      <trkpt lat="44.93209" lon="6.2148">
        <ele>1509.3</ele>
        <time>2023-07-25T09:15:11Z</time>
      </trkpt>
      <trkpt lat="44.93209" lon="6.21481">
        <ele>1509.7</ele>
        <time>2023-07-25T09:15:56Z</time>
      </trkpt>
      <trkpt lat="44.93209" lon="6.21481">
        <ele>1509.7</ele>
        <time>2023-07-25T09:15:57Z</time>
      </trkpt>
      <trkpt lat="44.93209" lon="6.21484">
        <ele>1511.1</ele>
        <time>2023-07-25T09:16:49Z</time>
      </trkpt>
      <trkpt lat="44.93211" lon="6.21491">
        <ele>1511</ele>
        <time>2023-07-25T09:16:56Z</time>
      </trkpt>
      <trkpt lat="44.93214" lon="6.215">
        <ele>1511.3</ele>
        <time>2023-07-25T09:17:03Z</time>
      </trkpt>
      <trkpt lat="44.93209" lon="6.21509">
        <ele>1509.3</ele>
        <time>2023-07-25T09:17:10Z</time>
      </trkpt>
      <trkpt lat="44.93202" lon="6.21515">
        <ele>1507.3</ele>
        <time>2023-07-25T09:17:17Z</time>
      </trkpt>
      <trkpt lat="44.93197" lon="6.21521">
        <ele>1506.9</ele>
        <time>2023-07-25T09:17:24Z</time>
      </trkpt>
      <trkpt lat="44.93201" lon="6.21528">
        <ele>1505.2</ele>
        <time>2023-07-25T09:17:31Z</time>
      </trkpt>
      <trkpt lat="44.93202" lon="6.21535">
        <ele>1505.4</ele>
        <time>2023-07-25T09:17:38Z</time>
      </trkpt>
      <trkpt lat="44.93209" lon="6.21536">
        <ele>1505.3</ele>
        <time>2023-07-25T09:17:45Z</time>
      </trkpt>
      <trkpt lat="44.93209" lon="6.21536">
        <ele>1505.3</ele>
        <time>2023-07-25T09:17:52Z</time>
      </trkpt>
      <trkpt lat="44.93218" lon="6.2154">
        <ele>1503.7</ele>
        <time>2023-07-25T09:18:02Z</time>
      </trkpt>
      <trkpt lat="44.93224" lon="6.21547">
        <ele>1500.7</ele>
        <time>2023-07-25T09:18:09Z</time>
      </trkpt>
      <trkpt lat="44.93221" lon="6.21554">
        <ele>1500.4</ele>
        <time>2023-07-25T09:18:16Z</time>
      </trkpt>
      <trkpt lat="44.93221" lon="6.21554">
        <ele>1500.4</ele>
        <time>2023-07-25T09:18:21Z</time>
      </trkpt>
      <trkpt lat="44.93222" lon="6.21562">
        <ele>1502</ele>
        <time>2023-07-25T09:18:28Z</time>
      </trkpt>
      <trkpt lat="44.93226" lon="6.21566">
        <ele>1500.6</ele>
        <time>2023-07-25T09:18:35Z</time>
      </trkpt>
      <trkpt lat="44.93231" lon="6.21571">
        <ele>1504.8</ele>
        <time>2023-07-25T09:18:42Z</time>
      </trkpt>
      <trkpt lat="44.93238" lon="6.21577">
        <ele>1506.7</ele>
        <time>2023-07-25T09:18:49Z</time>
      </trkpt>
      <trkpt lat="44.93244" lon="6.21581">
        <ele>1504.2</ele>
        <time>2023-07-25T09:18:56Z</time>
      </trkpt>
      <trkpt lat="44.93247" lon="6.21591">
        <ele>1502.9</ele>
        <time>2023-07-25T09:19:00Z</time>
      </trkpt>
      <trkpt lat="44.93247" lon="6.21595">
        <ele>1501.6</ele>
        <time>2023-07-25T09:19:07Z</time>
      </trkpt>
      <trkpt lat="44.93249" lon="6.21599">
        <ele>1500.1</ele>
        <time>2023-07-25T09:19:14Z</time>
      </trkpt>
      <trkpt lat="44.93253" lon="6.21606">
        <ele>1498.6</ele>
        <time>2023-07-25T09:19:21Z</time>
      </trkpt>
      <trkpt lat="44.93256" lon="6.21608">
        <ele>1499.1</ele>
        <time>2023-07-25T09:19:28Z</time>
      </trkpt>
      <trkpt lat="44.93254" lon="6.21616">
        <ele>1502</ele>
        <time>2023-07-25T09:19:35Z</time>
      </trkpt>
      <trkpt lat="44.93253" lon="6.21623">
        <ele>1497.2</ele>
        <time>2023-07-25T09:19:42Z</time>
      </trkpt>
      <trkpt lat="44.93258" lon="6.21632">
        <ele>1492.8</ele>
        <time>2023-07-25T09:19:49Z</time>
      </trkpt>
      <trkpt lat="44.93259" lon="6.21636">
        <ele>1493.9</ele>
        <time>2023-07-25T09:19:56Z</time>
      </trkpt>
      <trkpt lat="44.9326" lon="6.21643">
        <ele>1491.5</ele>
        <time>2023-07-25T09:20:03Z</time>
      </trkpt>
      <trkpt lat="44.93261" lon="6.2165">
        <ele>1492.9</ele>
        <time>2023-07-25T09:20:10Z</time>
      </trkpt>
      <trkpt lat="44.93264" lon="6.21655">
        <ele>1492.3</ele>
        <time>2023-07-25T09:20:17Z</time>
      </trkpt>
      <trkpt lat="44.93267" lon="6.21661">
        <ele>1490.2</ele>
        <time>2023-07-25T09:20:24Z</time>
      </trkpt>
      <trkpt lat="44.93269" lon="6.21671">
        <ele>1488.7</ele>
        <time>2023-07-25T09:20:29Z</time>
      </trkpt>
      <trkpt lat="44.93271" lon="6.21682">
        <ele>1487.8</ele>
        <time>2023-07-25T09:20:36Z</time>
      </trkpt>
      <trkpt lat="44.93271" lon="6.21693">
        <ele>1489.4</ele>
        <time>2023-07-25T09:20:43Z</time>
      </trkpt>
      <trkpt lat="44.93274" lon="6.21702">
        <ele>1489.6</ele>
        <time>2023-07-25T09:20:50Z</time>
      </trkpt>
      <trkpt lat="44.93278" lon="6.21709">
        <ele>1492.3</ele>
        <time>2023-07-25T09:20:57Z</time>
      </trkpt>
      <trkpt lat="44.93281" lon="6.21718">
        <ele>1495.2</ele>
        <time>2023-07-25T09:21:04Z</time>
      </trkpt>
      <trkpt lat="44.93279" lon="6.21724">
        <ele>1495.7</ele>
        <time>2023-07-25T09:21:11Z</time>
      </trkpt>
      <trkpt lat="44.93277" lon="6.21728">
        <ele>1497.5</ele>
        <time>2023-07-25T09:21:18Z</time>
      </trkpt>
      <trkpt lat="44.93274" lon="6.21731">
        <ele>1498.7</ele>
        <time>2023-07-25T09:21:25Z</time>
      </trkpt>
      <trkpt lat="44.93276" lon="6.21738">
        <ele>1501</ele>
        <time>2023-07-25T09:21:32Z</time>
      </trkpt>
      <trkpt lat="44.93279" lon="6.21745">
        <ele>1502.2</ele>
        <time>2023-07-25T09:21:39Z</time>
      </trkpt>
      <trkpt lat="44.93278" lon="6.21754">
        <ele>1501.5</ele>
        <time>2023-07-25T09:21:46Z</time>
      </trkpt>
      <trkpt lat="44.93283" lon="6.21759">
        <ele>1501.8</ele>
        <time>2023-07-25T09:21:53Z</time>
      </trkpt>
      <trkpt lat="44.93279" lon="6.21761">
        <ele>1499.5</ele>
        <time>2023-07-25T09:22:00Z</time>
      </trkpt>
      <trkpt lat="44.93281" lon="6.21769">
        <ele>1499.6</ele>
        <time>2023-07-25T09:22:07Z</time>
      </trkpt>
      <trkpt lat="44.93281" lon="6.21776">
        <ele>1500.7</ele>
        <time>2023-07-25T09:22:14Z</time>
      </trkpt>
      <trkpt lat="44.9328" lon="6.2178">
        <ele>1499.6</ele>
        <time>2023-07-25T09:22:21Z</time>
      </trkpt>
      <trkpt lat="44.9328" lon="6.21781">
        <ele>1500.3</ele>
        <time>2023-07-25T09:22:24Z</time>
      </trkpt>
      <trkpt lat="44.93282" lon="6.21784">
        <ele>1499.7</ele>
        <time>2023-07-25T09:22:31Z</time>
      </trkpt>
      <trkpt lat="44.93287" lon="6.21789">
        <ele>1500.5</ele>
        <time>2023-07-25T09:22:38Z</time>
      </trkpt>
      <trkpt lat="44.93292" lon="6.21791">
        <ele>1501.1</ele>
        <time>2023-07-25T09:22:45Z</time>
      </trkpt>
      <trkpt lat="44.93295" lon="6.21798">
        <ele>1501.4</ele>
        <time>2023-07-25T09:22:52Z</time>
      </trkpt>
      <trkpt lat="44.93298" lon="6.21808">
        <ele>1501.4</ele>
        <time>2023-07-25T09:22:59Z</time>
      </trkpt>
      <trkpt lat="44.93301" lon="6.21812">
        <ele>1500.7</ele>
        <time>2023-07-25T09:23:06Z</time>
      </trkpt>
      <trkpt lat="44.93303" lon="6.21817">
        <ele>1503.3</ele>
        <time>2023-07-25T09:23:13Z</time>
      </trkpt>
      <trkpt lat="44.93305" lon="6.21825">
        <ele>1504.8</ele>
        <time>2023-07-25T09:23:20Z</time>
      </trkpt>
      <trkpt lat="44.93304" lon="6.21829">
        <ele>1502.2</ele>
        <time>2023-07-25T09:23:27Z</time>
      </trkpt>
      <trkpt lat="44.93307" lon="6.21833">
        <ele>1503.9</ele>
        <time>2023-07-25T09:23:34Z</time>
      </trkpt>
      <trkpt lat="44.93311" lon="6.21842">
        <ele>1503.6</ele>
        <time>2023-07-25T09:23:41Z</time>
      </trkpt>
      <trkpt lat="44.93314" lon="6.2185">
        <ele>1506</ele>
        <time>2023-07-25T09:23:48Z</time>
      </trkpt>
      <trkpt lat="44.93317" lon="6.21855">
        <ele>1506.9</ele>
        <time>2023-07-25T09:23:55Z</time>
      </trkpt>
      <trkpt lat="44.93322" lon="6.21861">
        <ele>1506</ele>
        <time>2023-07-25T09:24:02Z</time>
      </trkpt>
      <trkpt lat="44.93327" lon="6.21867">
        <ele>1506.2</ele>
        <time>2023-07-25T09:24:09Z</time>
      </trkpt>
      <trkpt lat="44.93328" lon="6.21873">
        <ele>1502.6</ele>
        <time>2023-07-25T09:24:16Z</time>
      </trkpt>
      <trkpt lat="44.93327" lon="6.2187">
        <ele>1502.1</ele>
        <time>2023-07-25T09:24:22Z</time>
      </trkpt>
      <trkpt lat="44.93328" lon="6.21878">
        <ele>1503.3</ele>
        <time>2023-07-25T09:24:38Z</time>
      </trkpt>
      <trkpt lat="44.93331" lon="6.21883">
        <ele>1504.6</ele>
        <time>2023-07-25T09:24:45Z</time>
      </trkpt>
      <trkpt lat="44.93335" lon="6.21887">
        <ele>1507.1</ele>
        <time>2023-07-25T09:24:52Z</time>
      </trkpt>
      <trkpt lat="44.93337" lon="6.21893">
        <ele>1509.8</ele>
        <time>2023-07-25T09:24:59Z</time>
      </trkpt>
      <trkpt lat="44.93339" lon="6.21897">
        <ele>1511.7</ele>
        <time>2023-07-25T09:25:06Z</time>
      </trkpt>
      <trkpt lat="44.93337" lon="6.21901">
        <ele>1512.7</ele>
        <time>2023-07-25T09:25:13Z</time>
      </trkpt>
      <trkpt lat="44.93342" lon="6.21904">
        <ele>1512.8</ele>
        <time>2023-07-25T09:25:20Z</time>
      </trkpt>
      <trkpt lat="44.93344" lon="6.21909">
        <ele>1514</ele>
        <time>2023-07-25T09:25:27Z</time>
      </trkpt>
      <trkpt lat="44.93345" lon="6.21915">
        <ele>1516.7</ele>
        <time>2023-07-25T09:25:34Z</time>
      </trkpt>
      <trkpt lat="44.93348" lon="6.2192">
        <ele>1520.8</ele>
        <time>2023-07-25T09:25:41Z</time>
      </trkpt>
      <trkpt lat="44.93349" lon="6.21926">
        <ele>1522.3</ele>
        <time>2023-07-25T09:25:48Z</time>
      </trkpt>
      <trkpt lat="44.93349" lon="6.21932">
        <ele>1527.8</ele>
        <time>2023-07-25T09:25:55Z</time>
      </trkpt>
      <trkpt lat="44.93349" lon="6.21936">
        <ele>1527.5</ele>
        <time>2023-07-25T09:26:02Z</time>
      </trkpt>
      <trkpt lat="44.9335" lon="6.21937">
        <ele>1525.4</ele>
        <time>2023-07-25T09:26:05Z</time>
      </trkpt>
      <trkpt lat="44.93348" lon="6.21942">
        <ele>1521.9</ele>
        <time>2023-07-25T09:26:13Z</time>
      </trkpt>
      <trkpt lat="44.93347" lon="6.21949">
        <ele>1522.8</ele>
        <time>2023-07-25T09:26:20Z</time>
      </trkpt>
      <trkpt lat="44.9335" lon="6.21956">
        <ele>1522.5</ele>
        <time>2023-07-25T09:26:27Z</time>
      </trkpt>
      <trkpt lat="44.93354" lon="6.21962">
        <ele>1522.5</ele>
        <time>2023-07-25T09:26:34Z</time>
      </trkpt>
      <trkpt lat="44.93355" lon="6.21971">
        <ele>1521.7</ele>
        <time>2023-07-25T09:26:41Z</time>
      </trkpt>
      <trkpt lat="44.93359" lon="6.21976">
        <ele>1522.2</ele>
        <time>2023-07-25T09:26:48Z</time>
      </trkpt>
      <trkpt lat="44.93363" lon="6.21983">
        <ele>1521.5</ele>
        <time>2023-07-25T09:26:55Z</time>
      </trkpt>
      <trkpt lat="44.93364" lon="6.2199">
        <ele>1522.9</ele>
        <time>2023-07-25T09:27:02Z</time>
      </trkpt>
      <trkpt lat="44.9336" lon="6.21995">
        <ele>1524.8</ele>
        <time>2023-07-25T09:27:09Z</time>
      </trkpt>
      <trkpt lat="44.93358" lon="6.22002">
        <ele>1522.4</ele>
        <time>2023-07-25T09:27:16Z</time>
      </trkpt>
      <trkpt lat="44.93358" lon="6.2201">
        <ele>1521.3</ele>
        <time>2023-07-25T09:27:23Z</time>
      </trkpt>
      <trkpt lat="44.93357" lon="6.22013">
        <ele>1526.6</ele>
        <time>2023-07-25T09:27:30Z</time>
      </trkpt>
      <trkpt lat="44.93357" lon="6.22014">
        <ele>1527.5</ele>
        <time>2023-07-25T09:27:33Z</time>
      </trkpt>
      <trkpt lat="44.93356" lon="6.22014">
        <ele>1527.7</ele>
        <time>2023-07-25T09:27:41Z</time>
      </trkpt>
      <trkpt lat="44.93356" lon="6.22014">
        <ele>1527.7</ele>
        <time>2023-07-25T09:27:42Z</time>
      </trkpt>
      <trkpt lat="44.93357" lon="6.22014">
        <ele>1527.2</ele>
        <time>2023-07-25T09:28:03Z</time>
      </trkpt>
      <trkpt lat="44.93357" lon="6.22014">
        <ele>1527.1</ele>
        <time>2023-07-25T09:28:04Z</time>
      </trkpt>
      <trkpt lat="44.93356" lon="6.22016">
        <ele>1526.9</ele>
        <time>2023-07-25T09:28:40Z</time>
      </trkpt>
      <trkpt lat="44.93356" lon="6.22016">
        <ele>1527.6</ele>
        <time>2023-07-25T09:28:41Z</time>
      </trkpt>
      <trkpt lat="44.93357" lon="6.22015">
        <ele>1526.6</ele>
        <time>2023-07-25T09:28:51Z</time>
      </trkpt>
      <trkpt lat="44.93357" lon="6.22015">
        <ele>1526.5</ele>
        <time>2023-07-25T09:28:52Z</time>
      </trkpt>
      <trkpt lat="44.93357" lon="6.22014">
        <ele>1526.2</ele>
        <time>2023-07-25T09:29:39Z</time>
      </trkpt>
      <trkpt lat="44.93352" lon="6.22021">
        <ele>1525.2</ele>
        <time>2023-07-25T09:29:46Z</time>
      </trkpt>
      <trkpt lat="44.93352" lon="6.22028">
        <ele>1523.9</ele>
        <time>2023-07-25T09:29:53Z</time>
      </trkpt>
      <trkpt lat="44.93354" lon="6.22034">
        <ele>1523.2</ele>
        <time>2023-07-25T09:30:00Z</time>
      </trkpt>
      <trkpt lat="44.93354" lon="6.22034">
        <ele>1525</ele>
        <time>2023-07-25T09:30:07Z</time>
      </trkpt>
      <trkpt lat="44.93352" lon="6.22035">
        <ele>1525.9</ele>
        <time>2023-07-25T09:30:09Z</time>
      </trkpt>
      <trkpt lat="44.93358" lon="6.22034">
        <ele>1525.3</ele>
        <time>2023-07-25T09:30:17Z</time>
      </trkpt>
      <trkpt lat="44.93358" lon="6.22034">
        <ele>1524.9</ele>
        <time>2023-07-25T09:30:22Z</time>
      </trkpt>
      <trkpt lat="44.93359" lon="6.22038">
        <ele>1524</ele>
        <time>2023-07-25T09:40:25Z</time>
      </trkpt>
      <trkpt lat="44.93359" lon="6.22038">
        <ele>1523.9</ele>
        <time>2023-07-25T09:40:26Z</time>
      </trkpt>
      <trkpt lat="44.93359" lon="6.22038">
        <ele>1524.4</ele>
        <time>2023-07-25T09:42:13Z</time>
      </trkpt>
      <trkpt lat="44.93359" lon="6.22037">
        <ele>1523.9</ele>
        <time>2023-07-25T09:42:19Z</time>
      </trkpt>
      <trkpt lat="44.9336" lon="6.22033">
        <ele>1523.3</ele>
        <time>2023-07-25T09:42:27Z</time>
      </trkpt>
      <trkpt lat="44.93361" lon="6.22034">
        <ele>1522.9</ele>
        <time>2023-07-25T09:42:34Z</time>
      </trkpt>
      <trkpt lat="44.93361" lon="6.22035">
        <ele>1521.9</ele>
        <time>2023-07-25T09:42:41Z</time>
      </trkpt>
      <trkpt lat="44.93361" lon="6.22034">
        <ele>1520.9</ele>
        <time>2023-07-25T09:42:48Z</time>
      </trkpt>
      <trkpt lat="44.93361" lon="6.22034">
        <ele>1520.9</ele>
        <time>2023-07-25T09:42:51Z</time>
      </trkpt>
      <trkpt lat="44.93362" lon="6.22035">
        <ele>1520.3</ele>
        <time>2023-07-25T09:45:11Z</time>
      </trkpt>
      <trkpt lat="44.93361" lon="6.22033">
        <ele>1522.8</ele>
        <time>2023-07-25T09:45:18Z</time>
      </trkpt>
      <trkpt lat="44.93361" lon="6.22033">
        <ele>1523.1</ele>
        <time>2023-07-25T09:45:20Z</time>
      </trkpt>
      <trkpt lat="44.93363" lon="6.22033">
        <ele>1528.4</ele>
        <time>2023-07-25T09:45:28Z</time>
      </trkpt>
      <trkpt lat="44.93363" lon="6.22033">
        <ele>1529.9</ele>
        <time>2023-07-25T09:45:29Z</time>
      </trkpt>
      <trkpt lat="44.93361" lon="6.22033">
        <ele>1532.1</ele>
        <time>2023-07-25T09:45:37Z</time>
      </trkpt>
      <trkpt lat="44.93361" lon="6.22033">
        <ele>1532.2</ele>
        <time>2023-07-25T09:45:38Z</time>
      </trkpt>
      <trkpt lat="44.93359" lon="6.22032">
        <ele>1531.1</ele>
        <time>2023-07-25T09:45:49Z</time>
      </trkpt>
      <trkpt lat="44.93359" lon="6.22032">
        <ele>1531.4</ele>
        <time>2023-07-25T09:45:51Z</time>
      </trkpt>
      <trkpt lat="44.9336" lon="6.22033">
        <ele>1534</ele>
        <time>2023-07-25T09:46:00Z</time>
      </trkpt>
      <trkpt lat="44.9336" lon="6.22033">
        <ele>1534.1</ele>
        <time>2023-07-25T09:46:01Z</time>
      </trkpt>
      <trkpt lat="44.93358" lon="6.22035">
        <ele>1535.1</ele>
        <time>2023-07-25T09:46:09Z</time>
      </trkpt>
      <trkpt lat="44.93358" lon="6.22035">
        <ele>1535.7</ele>
        <time>2023-07-25T09:46:15Z</time>
      </trkpt>
      <trkpt lat="44.93359" lon="6.22034">
        <ele>1536</ele>
        <time>2023-07-25T09:46:28Z</time>
      </trkpt>
      <trkpt lat="44.93359" lon="6.22034">
        <ele>1536</ele>
        <time>2023-07-25T09:46:29Z</time>
      </trkpt>
      <trkpt lat="44.93359" lon="6.22037">
        <ele>1538</ele>
        <time>2023-07-25T09:46:42Z</time>
      </trkpt>
      <trkpt lat="44.93359" lon="6.22037">
        <ele>1537.8</ele>
        <time>2023-07-25T09:46:43Z</time>
      </trkpt>
      <trkpt lat="44.9336" lon="6.22037">
        <ele>1538</ele>
        <time>2023-07-25T09:46:56Z</time>
      </trkpt>
      <trkpt lat="44.9336" lon="6.22037">
        <ele>1538</ele>
        <time>2023-07-25T09:46:57Z</time>
      </trkpt>
      <trkpt lat="44.93359" lon="6.22037">
        <ele>1539.8</ele>
        <time>2023-07-25T09:47:28Z</time>
      </trkpt>
      <trkpt lat="44.93359" lon="6.22038">
        <ele>1540</ele>
        <time>2023-07-25T09:47:30Z</time>
      </trkpt>
      <trkpt lat="44.93358" lon="6.22039">
        <ele>1543.4</ele>
        <time>2023-07-25T09:47:42Z</time>
      </trkpt>
      <trkpt lat="44.93358" lon="6.2204">
        <ele>1543.9</ele>
        <time>2023-07-25T09:47:49Z</time>
      </trkpt>
      <trkpt lat="44.93358" lon="6.2204">
        <ele>1544.1</ele>
        <time>2023-07-25T09:47:51Z</time>
      </trkpt>
      <trkpt lat="44.93358" lon="6.22041">
        <ele>1545</ele>
        <time>2023-07-25T09:48:33Z</time>
      </trkpt>
      <trkpt lat="44.93358" lon="6.22041">
        <ele>1545.1</ele>
        <time>2023-07-25T09:48:34Z</time>
      </trkpt>
      <trkpt lat="44.93356" lon="6.22045">
        <ele>1547.3</ele>
        <time>2023-07-25T09:48:43Z</time>
      </trkpt>
      <trkpt lat="44.93357" lon="6.22046">
        <ele>1548.7</ele>
        <time>2023-07-25T09:48:47Z</time>
      </trkpt>
      <trkpt lat="44.93355" lon="6.22047">
        <ele>1553.3</ele>
        <time>2023-07-25T09:49:05Z</time>
      </trkpt>
      <trkpt lat="44.93355" lon="6.22047">
        <ele>1553.2</ele>
        <time>2023-07-25T09:49:06Z</time>
      </trkpt>
      <trkpt lat="44.93356" lon="6.22047">
        <ele>1553</ele>
        <time>2023-07-25T09:49:15Z</time>
      </trkpt>
      <trkpt lat="44.93356" lon="6.22047">
        <ele>1553</ele>
        <time>2023-07-25T09:49:16Z</time>
      </trkpt>
      <trkpt lat="44.93357" lon="6.2205">
        <ele>1553.7</ele>
        <time>2023-07-25T09:49:56Z</time>
      </trkpt>
      <trkpt lat="44.93356" lon="6.22058">
        <ele>1551.9</ele>
        <time>2023-07-25T09:50:03Z</time>
      </trkpt>
      <trkpt lat="44.93354" lon="6.22062">
        <ele>1551.2</ele>
        <time>2023-07-25T09:50:10Z</time>
      </trkpt>
      <trkpt lat="44.93358" lon="6.22064">
        <ele>1550.9</ele>
        <time>2023-07-25T09:50:17Z</time>
      </trkpt>
      <trkpt lat="44.9336" lon="6.2207">
        <ele>1549.9</ele>
        <time>2023-07-25T09:50:24Z</time>
      </trkpt>
      <trkpt lat="44.93359" lon="6.22076">
        <ele>1549.4</ele>
        <time>2023-07-25T09:50:31Z</time>
      </trkpt>
      <trkpt lat="44.93359" lon="6.22082">
        <ele>1549.2</ele>
        <time>2023-07-25T09:50:38Z</time>
      </trkpt>
      <trkpt lat="44.93361" lon="6.2209">
        <ele>1548</ele>
        <time>2023-07-25T09:50:45Z</time>
      </trkpt>
      <trkpt lat="44.93359" lon="6.22095">
        <ele>1548.5</ele>
        <time>2023-07-25T09:50:52Z</time>
      </trkpt>
      <trkpt lat="44.93361" lon="6.22103">
        <ele>1545.2</ele>
        <time>2023-07-25T09:50:59Z</time>
      </trkpt>
      <trkpt lat="44.93366" lon="6.22112">
        <ele>1542.5</ele>
        <time>2023-07-25T09:51:06Z</time>
      </trkpt>
      <trkpt lat="44.93367" lon="6.22118">
        <ele>1542.4</ele>
        <time>2023-07-25T09:51:13Z</time>
      </trkpt>
      <trkpt lat="44.93366" lon="6.22124">
        <ele>1542.3</ele>
        <time>2023-07-25T09:51:20Z</time>
      </trkpt>
      <trkpt lat="44.93365" lon="6.22131">
        <ele>1543.6</ele>
        <time>2023-07-25T09:51:27Z</time>
      </trkpt>
      <trkpt lat="44.93365" lon="6.22139">
        <ele>1544.2</ele>
        <time>2023-07-25T09:51:34Z</time>
      </trkpt>
      <trkpt lat="44.93366" lon="6.22148">
        <ele>1543.5</ele>
        <time>2023-07-25T09:51:41Z</time>
      </trkpt>
      <trkpt lat="44.93371" lon="6.22154">
        <ele>1543.4</ele>
        <time>2023-07-25T09:51:48Z</time>
      </trkpt>
      <trkpt lat="44.93374" lon="6.2216">
        <ele>1540.7</ele>
        <time>2023-07-25T09:51:55Z</time>
      </trkpt>
      <trkpt lat="44.93378" lon="6.22167">
        <ele>1537.6</ele>
        <time>2023-07-25T09:52:02Z</time>
      </trkpt>
      <trkpt lat="44.93381" lon="6.22173">
        <ele>1539</ele>
        <time>2023-07-25T09:52:09Z</time>
      </trkpt>
      <trkpt lat="44.93378" lon="6.22173">
        <ele>1541.5</ele>
        <time>2023-07-25T09:52:16Z</time>
      </trkpt>
      <trkpt lat="44.93377" lon="6.22179">
        <ele>1545.2</ele>
        <time>2023-07-25T09:52:23Z</time>
      </trkpt>
      <trkpt lat="44.93378" lon="6.22187">
        <ele>1544.2</ele>
        <time>2023-07-25T09:52:30Z</time>
      </trkpt>
      <trkpt lat="44.93377" lon="6.22193">
        <ele>1546.2</ele>
        <time>2023-07-25T09:52:37Z</time>
      </trkpt>
      <trkpt lat="44.93379" lon="6.22198">
        <ele>1548.9</ele>
        <time>2023-07-25T09:52:44Z</time>
      </trkpt>
      <trkpt lat="44.93382" lon="6.22202">
        <ele>1550</ele>
        <time>2023-07-25T09:52:51Z</time>
      </trkpt>
      <trkpt lat="44.93383" lon="6.22211">
        <ele>1549.2</ele>
        <time>2023-07-25T09:52:58Z</time>
      </trkpt>
      <trkpt lat="44.93386" lon="6.22219">
        <ele>1550.5</ele>
        <time>2023-07-25T09:53:05Z</time>
      </trkpt>
      <trkpt lat="44.93389" lon="6.22226">
        <ele>1549.7</ele>
        <time>2023-07-25T09:53:12Z</time>
      </trkpt>
      <trkpt lat="44.93392" lon="6.22233">
        <ele>1550.8</ele>
        <time>2023-07-25T09:53:19Z</time>
      </trkpt>
      <trkpt lat="44.93394" lon="6.22243">
        <ele>1553.3</ele>
        <time>2023-07-25T09:53:26Z</time>
      </trkpt>
      <trkpt lat="44.93392" lon="6.22251">
        <ele>1550</ele>
        <time>2023-07-25T09:53:33Z</time>
      </trkpt>
      <trkpt lat="44.9339" lon="6.2226">
        <ele>1549.1</ele>
        <time>2023-07-25T09:53:40Z</time>
      </trkpt>
      <trkpt lat="44.93394" lon="6.22268">
        <ele>1549.4</ele>
        <time>2023-07-25T09:53:47Z</time>
      </trkpt>
      <trkpt lat="44.93396" lon="6.22278">
        <ele>1548.7</ele>
        <time>2023-07-25T09:53:54Z</time>
      </trkpt>
      <trkpt lat="44.93398" lon="6.22284">
        <ele>1548.1</ele>
        <time>2023-07-25T09:54:01Z</time>
      </trkpt>
      <trkpt lat="44.93399" lon="6.22284">
        <ele>1548.5</ele>
        <time>2023-07-25T09:54:08Z</time>
      </trkpt>
      <trkpt lat="44.93399" lon="6.22284">
        <ele>1548.2</ele>
        <time>2023-07-25T09:54:11Z</time>
      </trkpt>
      <trkpt lat="44.93402" lon="6.22294">
        <ele>1548.3</ele>
        <time>2023-07-25T09:54:20Z</time>
      </trkpt>
      <trkpt lat="44.93399" lon="6.22296">
        <ele>1551.7</ele>
        <time>2023-07-25T09:54:27Z</time>
      </trkpt>
      <trkpt lat="44.93397" lon="6.22301">
        <ele>1555</ele>
        <time>2023-07-25T09:54:34Z</time>
      </trkpt>
      <trkpt lat="44.93394" lon="6.22302">
        <ele>1559.7</ele>
        <time>2023-07-25T09:54:41Z</time>
      </trkpt>
      <trkpt lat="44.93392" lon="6.22303">
        <ele>1562.8</ele>
        <time>2023-07-25T09:54:48Z</time>
      </trkpt>
      <trkpt lat="44.93392" lon="6.22304">
        <ele>1562.8</ele>
        <time>2023-07-25T09:54:51Z</time>
      </trkpt>
      <trkpt lat="44.9339" lon="6.22309">
        <ele>1566.8</ele>
        <time>2023-07-25T09:55:05Z</time>
      </trkpt>
      <trkpt lat="44.93392" lon="6.2231">
        <ele>1569.5</ele>
        <time>2023-07-25T09:55:10Z</time>
      </trkpt>
      <trkpt lat="44.93388" lon="6.2231">
        <ele>1571</ele>
        <time>2023-07-25T09:55:18Z</time>
      </trkpt>
      <trkpt lat="44.9339" lon="6.22317">
        <ele>1570</ele>
        <time>2023-07-25T09:55:25Z</time>
      </trkpt>
      <trkpt lat="44.9339" lon="6.22321">
        <ele>1568.6</ele>
        <time>2023-07-25T09:55:32Z</time>
      </trkpt>
      <trkpt lat="44.93392" lon="6.22327">
        <ele>1568.2</ele>
        <time>2023-07-25T09:55:39Z</time>
      </trkpt>
      <trkpt lat="44.93394" lon="6.22332">
        <ele>1568</ele>
        <time>2023-07-25T09:55:46Z</time>
      </trkpt>
      <trkpt lat="44.93395" lon="6.22335">
        <ele>1568</ele>
        <time>2023-07-25T09:55:53Z</time>
      </trkpt>
      <trkpt lat="44.93388" lon="6.22334">
        <ele>1567.7</ele>
        <time>2023-07-25T09:55:56Z</time>
      </trkpt>
      <trkpt lat="44.93386" lon="6.22339">
        <ele>1567.5</ele>
        <time>2023-07-25T09:56:03Z</time>
      </trkpt>
      <trkpt lat="44.9339" lon="6.22344">
        <ele>1567.5</ele>
        <time>2023-07-25T09:56:10Z</time>
      </trkpt>
      <trkpt lat="44.9339" lon="6.22343">
        <ele>1567.5</ele>
        <time>2023-07-25T09:56:14Z</time>
      </trkpt>
      <trkpt lat="44.93396" lon="6.22349">
        <ele>1566.1</ele>
        <time>2023-07-25T09:57:24Z</time>
      </trkpt>
      <trkpt lat="44.93404" lon="6.22352">
        <ele>1564.6</ele>
        <time>2023-07-25T09:57:31Z</time>
      </trkpt>
      <trkpt lat="44.93409" lon="6.22355">
        <ele>1564.6</ele>
        <time>2023-07-25T09:57:38Z</time>
      </trkpt>
      <trkpt lat="44.93413" lon="6.2236">
        <ele>1564.6</ele>
        <time>2023-07-25T09:57:45Z</time>
      </trkpt>
      <trkpt lat="44.93413" lon="6.22373">
        <ele>1559.6</ele>
        <time>2023-07-25T09:57:52Z</time>
      </trkpt>
      <trkpt lat="44.93415" lon="6.2238">
        <ele>1564.8</ele>
        <time>2023-07-25T09:57:59Z</time>
      </trkpt>
      <trkpt lat="44.93418" lon="6.22383">
        <ele>1569.1</ele>
        <time>2023-07-25T09:58:06Z</time>
      </trkpt>
      <trkpt lat="44.93421" lon="6.22386">
        <ele>1563.6</ele>
        <time>2023-07-25T09:58:13Z</time>
      </trkpt>
      <trkpt lat="44.93427" lon="6.2239">
        <ele>1564.5</ele>
        <time>2023-07-25T09:58:20Z</time>
      </trkpt>
      <trkpt lat="44.9343" lon="6.22397">
        <ele>1563.3</ele>
        <time>2023-07-25T09:58:27Z</time>
      </trkpt>
      <trkpt lat="44.9343" lon="6.22396">
        <ele>1557</ele>
        <time>2023-07-25T09:58:34Z</time>
      </trkpt>
      <trkpt lat="44.93431" lon="6.22393">
        <ele>1560.3</ele>
        <time>2023-07-25T09:58:43Z</time>
      </trkpt>
      <trkpt lat="44.93431" lon="6.22393">
        <ele>1560.5</ele>
        <time>2023-07-25T09:58:44Z</time>
      </trkpt>
      <trkpt lat="44.9343" lon="6.22395">
        <ele>1565.9</ele>
        <time>2023-07-25T09:59:16Z</time>
      </trkpt>
      <trkpt lat="44.93428" lon="6.22396">
        <ele>1570.6</ele>
        <time>2023-07-25T09:59:23Z</time>
      </trkpt>
      <trkpt lat="44.93428" lon="6.224">
        <ele>1570.9</ele>
        <time>2023-07-25T09:59:30Z</time>
      </trkpt>
      <trkpt lat="44.93428" lon="6.22402">
        <ele>1573.6</ele>
        <time>2023-07-25T09:59:37Z</time>
      </trkpt>
      <trkpt lat="44.93428" lon="6.22402">
        <ele>1573.8</ele>
        <time>2023-07-25T09:59:38Z</time>
      </trkpt>
      <trkpt lat="44.93428" lon="6.22401">
        <ele>1577.4</ele>
        <time>2023-07-25T09:59:49Z</time>
      </trkpt>
      <trkpt lat="44.93428" lon="6.22402">
        <ele>1578.1</ele>
        <time>2023-07-25T09:59:50Z</time>
      </trkpt>
      <trkpt lat="44.93428" lon="6.22406">
        <ele>1579.5</ele>
        <time>2023-07-25T09:59:58Z</time>
      </trkpt>
      <trkpt lat="44.93428" lon="6.22412">
        <ele>1579.6</ele>
        <time>2023-07-25T10:00:05Z</time>
      </trkpt>
      <trkpt lat="44.93427" lon="6.2241">
        <ele>1578</ele>
        <time>2023-07-25T10:00:12Z</time>
      </trkpt>
      <trkpt lat="44.93427" lon="6.2241">
        <ele>1577.6</ele>
        <time>2023-07-25T10:00:14Z</time>
      </trkpt>
      <trkpt lat="44.93427" lon="6.22406">
        <ele>1577</ele>
        <time>2023-07-25T10:00:22Z</time>
      </trkpt>
      <trkpt lat="44.93427" lon="6.22406">
        <ele>1577</ele>
        <time>2023-07-25T10:00:23Z</time>
      </trkpt>
      <trkpt lat="44.93428" lon="6.22406">
        <ele>1578.3</ele>
        <time>2023-07-25T10:00:35Z</time>
      </trkpt>
      <trkpt lat="44.93428" lon="6.22406">
        <ele>1580.5</ele>
        <time>2023-07-25T10:00:41Z</time>
      </trkpt>
      <trkpt lat="44.93428" lon="6.22405">
        <ele>1580.2</ele>
        <time>2023-07-25T10:00:50Z</time>
      </trkpt>
      <trkpt lat="44.9343" lon="6.22405">
        <ele>1580.2</ele>
        <time>2023-07-25T10:00:51Z</time>
      </trkpt>
      <trkpt lat="44.9343" lon="6.2241">
        <ele>1577.5</ele>
        <time>2023-07-25T10:01:01Z</time>
      </trkpt>
      <trkpt lat="44.93428" lon="6.2241">
        <ele>1577.6</ele>
        <time>2023-07-25T10:01:04Z</time>
      </trkpt>
      <trkpt lat="44.93432" lon="6.22417">
        <ele>1576.5</ele>
        <time>2023-07-25T10:01:43Z</time>
      </trkpt>
      <trkpt lat="44.93433" lon="6.22424">
        <ele>1576.4</ele>
        <time>2023-07-25T10:01:50Z</time>
      </trkpt>
      <trkpt lat="44.93434" lon="6.2243">
        <ele>1570.5</ele>
        <time>2023-07-25T10:01:57Z</time>
      </trkpt>
      <trkpt lat="44.9343" lon="6.22439">
        <ele>1566</ele>
        <time>2023-07-25T10:02:02Z</time>
      </trkpt>
      <trkpt lat="44.93427" lon="6.22446">
        <ele>1563.9</ele>
        <time>2023-07-25T10:02:09Z</time>
      </trkpt>
      <trkpt lat="44.93424" lon="6.22455">
        <ele>1563.6</ele>
        <time>2023-07-25T10:02:16Z</time>
      </trkpt>
      <trkpt lat="44.93421" lon="6.22462">
        <ele>1561.7</ele>
        <time>2023-07-25T10:02:23Z</time>
      </trkpt>
      <trkpt lat="44.93419" lon="6.22468">
        <ele>1558</ele>
        <time>2023-07-25T10:02:30Z</time>
      </trkpt>
      <trkpt lat="44.93421" lon="6.22469">
        <ele>1559.5</ele>
        <time>2023-07-25T10:02:37Z</time>
      </trkpt>
      <trkpt lat="44.93421" lon="6.22475">
        <ele>1557.9</ele>
        <time>2023-07-25T10:02:44Z</time>
      </trkpt>
      <trkpt lat="44.9342" lon="6.22479">
        <ele>1550.7</ele>
        <time>2023-07-25T10:02:51Z</time>
      </trkpt>
      <trkpt lat="44.93421" lon="6.22488">
        <ele>1549.4</ele>
        <time>2023-07-25T10:02:58Z</time>
      </trkpt>
      <trkpt lat="44.9342" lon="6.22497">
        <ele>1548.9</ele>
        <time>2023-07-25T10:03:05Z</time>
      </trkpt>
      <trkpt lat="44.93418" lon="6.22502">
        <ele>1548.3</ele>
        <time>2023-07-25T10:03:12Z</time>
      </trkpt>
      <trkpt lat="44.9341" lon="6.22505">
        <ele>1548.5</ele>
        <time>2023-07-25T10:03:15Z</time>
      </trkpt>
      <trkpt lat="44.93412" lon="6.22509">
        <ele>1547.4</ele>
        <time>2023-07-25T10:03:22Z</time>
      </trkpt>
      <trkpt lat="44.93413" lon="6.22512">
        <ele>1547.4</ele>
        <time>2023-07-25T10:03:29Z</time>
      </trkpt>
      <trkpt lat="44.93416" lon="6.22511">
        <ele>1547.3</ele>
        <time>2023-07-25T10:03:36Z</time>
      </trkpt>
      <trkpt lat="44.93418" lon="6.22513">
        <ele>1542.4</ele>
        <time>2023-07-25T10:03:43Z</time>
      </trkpt>
      <trkpt lat="44.9342" lon="6.22519">
        <ele>1543.8</ele>
        <time>2023-07-25T10:03:50Z</time>
      </trkpt>
      <trkpt lat="44.9342" lon="6.22522">
        <ele>1542.1</ele>
        <time>2023-07-25T10:03:57Z</time>
      </trkpt>
      <trkpt lat="44.93425" lon="6.22528">
        <ele>1536.6</ele>
        <time>2023-07-25T10:04:04Z</time>
      </trkpt>
      <trkpt lat="44.93426" lon="6.22534">
        <ele>1533.8</ele>
        <time>2023-07-25T10:04:11Z</time>
      </trkpt>
      <trkpt lat="44.93426" lon="6.22537">
        <ele>1534.5</ele>
        <time>2023-07-25T10:04:18Z</time>
      </trkpt>
      <trkpt lat="44.93425" lon="6.22538">
        <ele>1534.4</ele>
        <time>2023-07-25T10:04:25Z</time>
      </trkpt>
      <trkpt lat="44.93423" lon="6.22541">
        <ele>1534.9</ele>
        <time>2023-07-25T10:04:32Z</time>
      </trkpt>
      <trkpt lat="44.93423" lon="6.22547">
        <ele>1534.5</ele>
        <time>2023-07-25T10:04:39Z</time>
      </trkpt>
      <trkpt lat="44.93421" lon="6.22556">
        <ele>1534.1</ele>
        <time>2023-07-25T10:04:46Z</time>
      </trkpt>
      <trkpt lat="44.93423" lon="6.22563">
        <ele>1534.1</ele>
        <time>2023-07-25T10:04:53Z</time>
      </trkpt>
      <trkpt lat="44.9342" lon="6.22571">
        <ele>1536.7</ele>
        <time>2023-07-25T10:05:00Z</time>
      </trkpt>
      <trkpt lat="44.93421" lon="6.22576">
        <ele>1533.7</ele>
        <time>2023-07-25T10:05:07Z</time>
      </trkpt>
      <trkpt lat="44.93424" lon="6.22581">
        <ele>1534.8</ele>
        <time>2023-07-25T10:05:14Z</time>
      </trkpt>
      <trkpt lat="44.93428" lon="6.22586">
        <ele>1537.5</ele>
        <time>2023-07-25T10:05:21Z</time>
      </trkpt>
      <trkpt lat="44.9343" lon="6.22589">
        <ele>1537</ele>
        <time>2023-07-25T10:05:28Z</time>
      </trkpt>
      <trkpt lat="44.9343" lon="6.22597">
        <ele>1540.3</ele>
        <time>2023-07-25T10:05:35Z</time>
      </trkpt>
      <trkpt lat="44.9343" lon="6.22606">
        <ele>1541.8</ele>
        <time>2023-07-25T10:05:42Z</time>
      </trkpt>
      <trkpt lat="44.9343" lon="6.22612">
        <ele>1542</ele>
        <time>2023-07-25T10:05:49Z</time>
      </trkpt>
      <trkpt lat="44.9343" lon="6.2262">
        <ele>1540.6</ele>
        <time>2023-07-25T10:05:56Z</time>
      </trkpt>
      <trkpt lat="44.93435" lon="6.22625">
        <ele>1539.4</ele>
        <time>2023-07-25T10:06:03Z</time>
      </trkpt>
      <trkpt lat="44.93435" lon="6.22635">
        <ele>1535.6</ele>
        <time>2023-07-25T10:06:10Z</time>
      </trkpt>
      <trkpt lat="44.93437" lon="6.2264">
        <ele>1534.8</ele>
        <time>2023-07-25T10:06:17Z</time>
      </trkpt>
      <trkpt lat="44.93439" lon="6.22645">
        <ele>1534.8</ele>
        <time>2023-07-25T10:06:24Z</time>
      </trkpt>
      <trkpt lat="44.93441" lon="6.2265">
        <ele>1536.3</ele>
        <time>2023-07-25T10:06:31Z</time>
      </trkpt>
      <trkpt lat="44.93443" lon="6.22658">
        <ele>1538.8</ele>
        <time>2023-07-25T10:06:38Z</time>
      </trkpt>
      <trkpt lat="44.93444" lon="6.22665">
        <ele>1539.7</ele>
        <time>2023-07-25T10:06:45Z</time>
      </trkpt>
      <trkpt lat="44.9345" lon="6.2267">
        <ele>1539.7</ele>
        <time>2023-07-25T10:06:52Z</time>
      </trkpt>
      <trkpt lat="44.93453" lon="6.22673">
        <ele>1539.7</ele>
        <time>2023-07-25T10:06:59Z</time>
      </trkpt>
      <trkpt lat="44.93455" lon="6.22678">
        <ele>1539.7</ele>
        <time>2023-07-25T10:07:06Z</time>
      </trkpt>
      <trkpt lat="44.93458" lon="6.22684">
        <ele>1539.8</ele>
        <time>2023-07-25T10:07:13Z</time>
      </trkpt>
      <trkpt lat="44.93462" lon="6.22689">
        <ele>1539.7</ele>
        <time>2023-07-25T10:07:20Z</time>
      </trkpt>
      <trkpt lat="44.93466" lon="6.22692">
        <ele>1539.7</ele>
        <time>2023-07-25T10:07:27Z</time>
      </trkpt>
      <trkpt lat="44.93472" lon="6.22697">
        <ele>1542.1</ele>
        <time>2023-07-25T10:07:34Z</time>
      </trkpt>
      <trkpt lat="44.9348" lon="6.22701">
        <ele>1543.5</ele>
        <time>2023-07-25T10:07:40Z</time>
      </trkpt>
      <trkpt lat="44.93488" lon="6.22703">
        <ele>1548.1</ele>
        <time>2023-07-25T10:07:46Z</time>
      </trkpt>
      <trkpt lat="44.93492" lon="6.22709">
        <ele>1543.8</ele>
        <time>2023-07-25T10:07:53Z</time>
      </trkpt>
      <trkpt lat="44.93493" lon="6.22714">
        <ele>1541</ele>
        <time>2023-07-25T10:08:00Z</time>
      </trkpt>
      <trkpt lat="44.93495" lon="6.22722">
        <ele>1541.1</ele>
        <time>2023-07-25T10:08:07Z</time>
      </trkpt>
      <trkpt lat="44.93498" lon="6.22727">
        <ele>1540.5</ele>
        <time>2023-07-25T10:08:14Z</time>
      </trkpt>
      <trkpt lat="44.93501" lon="6.22732">
        <ele>1543.2</ele>
        <time>2023-07-25T10:08:21Z</time>
      </trkpt>
      <trkpt lat="44.93504" lon="6.2274">
        <ele>1547.2</ele>
        <time>2023-07-25T10:08:28Z</time>
      </trkpt>
      <trkpt lat="44.93506" lon="6.22747">
        <ele>1547.5</ele>
        <time>2023-07-25T10:08:35Z</time>
      </trkpt>
      <trkpt lat="44.93511" lon="6.22755">
        <ele>1547.2</ele>
        <time>2023-07-25T10:08:42Z</time>
      </trkpt>
      <trkpt lat="44.93513" lon="6.22757">
        <ele>1548.8</ele>
        <time>2023-07-25T10:08:49Z</time>
      </trkpt>
      <trkpt lat="44.93513" lon="6.22758">
        <ele>1548.8</ele>
        <time>2023-07-25T10:08:54Z</time>
      </trkpt>
      <trkpt lat="44.93518" lon="6.22764">
        <ele>1548.7</ele>
        <time>2023-07-25T10:09:03Z</time>
      </trkpt>
      <trkpt lat="44.93518" lon="6.22764">
        <ele>1548.7</ele>
        <time>2023-07-25T10:09:10Z</time>
      </trkpt>
      <trkpt lat="44.93524" lon="6.22769">
        <ele>1549.9</ele>
        <time>2023-07-25T10:09:17Z</time>
      </trkpt>
      <trkpt lat="44.93528" lon="6.22765">
        <ele>1550.9</ele>
        <time>2023-07-25T10:09:24Z</time>
      </trkpt>
      <trkpt lat="44.93531" lon="6.2276">
        <ele>1555.3</ele>
        <time>2023-07-25T10:09:31Z</time>
      </trkpt>
      <trkpt lat="44.93533" lon="6.22761">
        <ele>1553.5</ele>
        <time>2023-07-25T10:09:38Z</time>
      </trkpt>
      <trkpt lat="44.93531" lon="6.22767">
        <ele>1555.4</ele>
        <time>2023-07-25T10:09:45Z</time>
      </trkpt>
      <trkpt lat="44.9353" lon="6.22776">
        <ele>1554.4</ele>
        <time>2023-07-25T10:09:52Z</time>
      </trkpt>
      <trkpt lat="44.93531" lon="6.22783">
        <ele>1555.5</ele>
        <time>2023-07-25T10:09:59Z</time>
      </trkpt>
      <trkpt lat="44.93532" lon="6.22792">
        <ele>1558.4</ele>
        <time>2023-07-25T10:10:06Z</time>
      </trkpt>
      <trkpt lat="44.93534" lon="6.22795">
        <ele>1560.9</ele>
        <time>2023-07-25T10:10:13Z</time>
      </trkpt>
      <trkpt lat="44.93534" lon="6.22802">
        <ele>1561.7</ele>
        <time>2023-07-25T10:10:20Z</time>
      </trkpt>
      <trkpt lat="44.93539" lon="6.22808">
        <ele>1563.4</ele>
        <time>2023-07-25T10:10:26Z</time>
      </trkpt>
      <trkpt lat="44.93542" lon="6.22814">
        <ele>1564.8</ele>
        <time>2023-07-25T10:10:33Z</time>
      </trkpt>
      <trkpt lat="44.93542" lon="6.22818">
        <ele>1566.6</ele>
        <time>2023-07-25T10:10:40Z</time>
      </trkpt>
      <trkpt lat="44.93546" lon="6.22821">
        <ele>1566.6</ele>
        <time>2023-07-25T10:10:47Z</time>
      </trkpt>
      <trkpt lat="44.93547" lon="6.22818">
        <ele>1566.7</ele>
        <time>2023-07-25T10:10:54Z</time>
      </trkpt>
      <trkpt lat="44.93547" lon="6.22818">
        <ele>1566.6</ele>
        <time>2023-07-25T10:10:58Z</time>
      </trkpt>
      <trkpt lat="44.93548" lon="6.22817">
        <ele>1567.3</ele>
        <time>2023-07-25T10:11:31Z</time>
      </trkpt>
      <trkpt lat="44.93549" lon="6.22817">
        <ele>1569.1</ele>
        <time>2023-07-25T10:11:34Z</time>
      </trkpt>
      <trkpt lat="44.93549" lon="6.22816">
        <ele>1572</ele>
        <time>2023-07-25T10:11:43Z</time>
      </trkpt>
      <trkpt lat="44.93549" lon="6.22815">
        <ele>1571.5</ele>
        <time>2023-07-25T10:11:47Z</time>
      </trkpt>
      <trkpt lat="44.93551" lon="6.22813">
        <ele>1574.2</ele>
        <time>2023-07-25T10:11:54Z</time>
      </trkpt>
      <trkpt lat="44.93551" lon="6.22812">
        <ele>1573.5</ele>
        <time>2023-07-25T10:11:58Z</time>
      </trkpt>
      <trkpt lat="44.93552" lon="6.22811">
        <ele>1573.3</ele>
        <time>2023-07-25T10:12:08Z</time>
      </trkpt>
      <trkpt lat="44.93552" lon="6.22811">
        <ele>1573.2</ele>
        <time>2023-07-25T10:12:09Z</time>
      </trkpt>
      <trkpt lat="44.93551" lon="6.22812">
        <ele>1572.7</ele>
        <time>2023-07-25T10:12:40Z</time>
      </trkpt>
      <trkpt lat="44.93551" lon="6.22812">
        <ele>1572.5</ele>
        <time>2023-07-25T10:12:41Z</time>
      </trkpt>
      <trkpt lat="44.93549" lon="6.22812">
        <ele>1576</ele>
        <time>2023-07-25T10:13:25Z</time>
      </trkpt>
      <trkpt lat="44.93549" lon="6.22812">
        <ele>1576</ele>
        <time>2023-07-25T10:13:26Z</time>
      </trkpt>
      <trkpt lat="44.93549" lon="6.2282">
        <ele>1575.3</ele>
        <time>2023-07-25T10:13:40Z</time>
      </trkpt>
      <trkpt lat="44.93549" lon="6.22831">
        <ele>1578.1</ele>
        <time>2023-07-25T10:13:47Z</time>
      </trkpt>
      <trkpt lat="44.93547" lon="6.2284">
        <ele>1578.9</ele>
        <time>2023-07-25T10:13:54Z</time>
      </trkpt>
      <trkpt lat="44.93542" lon="6.22847">
        <ele>1576.3</ele>
        <time>2023-07-25T10:14:01Z</time>
      </trkpt>
      <trkpt lat="44.93545" lon="6.22848">
        <ele>1580.2</ele>
        <time>2023-07-25T10:14:08Z</time>
      </trkpt>
      <trkpt lat="44.93545" lon="6.22848">
        <ele>1581.5</ele>
        <time>2023-07-25T10:14:12Z</time>
      </trkpt>
      <trkpt lat="44.93549" lon="6.22851">
        <ele>1584.1</ele>
        <time>2023-07-25T10:14:22Z</time>
      </trkpt>
      <trkpt lat="44.93549" lon="6.22852">
        <ele>1586.1</ele>
        <time>2023-07-25T10:14:29Z</time>
      </trkpt>
      <trkpt lat="44.93551" lon="6.22855">
        <ele>1586.3</ele>
        <time>2023-07-25T10:14:36Z</time>
      </trkpt>
      <trkpt lat="44.93552" lon="6.22856">
        <ele>1586.3</ele>
        <time>2023-07-25T10:14:43Z</time>
      </trkpt>
      <trkpt lat="44.93554" lon="6.22858">
        <ele>1586</ele>
        <time>2023-07-25T10:14:50Z</time>
      </trkpt>
      <trkpt lat="44.93556" lon="6.2286">
        <ele>1585.1</ele>
        <time>2023-07-25T10:14:57Z</time>
      </trkpt>
      <trkpt lat="44.93556" lon="6.22863">
        <ele>1583.8</ele>
        <time>2023-07-25T10:15:04Z</time>
      </trkpt>
      <trkpt lat="44.93556" lon="6.22863">
        <ele>1583.6</ele>
        <time>2023-07-25T10:15:06Z</time>
      </trkpt>
      <trkpt lat="44.93557" lon="6.22862">
        <ele>1584.4</ele>
        <time>2023-07-25T10:15:20Z</time>
      </trkpt>
      <trkpt lat="44.93557" lon="6.22862">
        <ele>1584.4</ele>
        <time>2023-07-25T10:15:21Z</time>
      </trkpt>
      <trkpt lat="44.93558" lon="6.22863">
        <ele>1584.2</ele>
        <time>2023-07-25T10:15:38Z</time>
      </trkpt>
      <trkpt lat="44.93558" lon="6.22863">
        <ele>1585.7</ele>
        <time>2023-07-25T10:15:42Z</time>
      </trkpt>
      <trkpt lat="44.93559" lon="6.22865">
        <ele>1584.8</ele>
        <time>2023-07-25T10:15:52Z</time>
      </trkpt>
      <trkpt lat="44.93559" lon="6.22865">
        <ele>1584.7</ele>
        <time>2023-07-25T10:15:57Z</time>
      </trkpt>
      <trkpt lat="44.93559" lon="6.22865">
        <ele>1583.7</ele>
        <time>2023-07-25T10:16:34Z</time>
      </trkpt>
      <trkpt lat="44.93559" lon="6.22865">
        <ele>1583.6</ele>
        <time>2023-07-25T10:16:35Z</time>
      </trkpt>
      <trkpt lat="44.9356" lon="6.22866">
        <ele>1584.1</ele>
        <time>2023-07-25T10:17:09Z</time>
      </trkpt>
      <trkpt lat="44.93565" lon="6.22868">
        <ele>1584</ele>
        <time>2023-07-25T10:17:16Z</time>
      </trkpt>
      <trkpt lat="44.93569" lon="6.22877">
        <ele>1586.5</ele>
        <time>2023-07-25T10:17:23Z</time>
      </trkpt>
      <trkpt lat="44.93571" lon="6.22884">
        <ele>1586.1</ele>
        <time>2023-07-25T10:17:30Z</time>
      </trkpt>
      <trkpt lat="44.93572" lon="6.22888">
        <ele>1589.9</ele>
        <time>2023-07-25T10:17:37Z</time>
      </trkpt>
      <trkpt lat="44.93576" lon="6.22888">
        <ele>1584.2</ele>
        <time>2023-07-25T10:17:44Z</time>
      </trkpt>
      <trkpt lat="44.93575" lon="6.22887">
        <ele>1583</ele>
        <time>2023-07-25T10:17:51Z</time>
      </trkpt>
      <trkpt lat="44.9358" lon="6.2289">
        <ele>1579.5</ele>
        <time>2023-07-25T10:17:58Z</time>
      </trkpt>
      <trkpt lat="44.93585" lon="6.22894">
        <ele>1580.6</ele>
        <time>2023-07-25T10:18:05Z</time>
      </trkpt>
      <trkpt lat="44.93587" lon="6.22901">
        <ele>1584.1</ele>
        <time>2023-07-25T10:18:12Z</time>
      </trkpt>
      <trkpt lat="44.93586" lon="6.22908">
        <ele>1581.7</ele>
        <time>2023-07-25T10:18:19Z</time>
      </trkpt>
      <trkpt lat="44.93587" lon="6.22908">
        <ele>1581.7</ele>
        <time>2023-07-25T10:18:26Z</time>
      </trkpt>
      <trkpt lat="44.93587" lon="6.22908">
        <ele>1581.7</ele>
        <time>2023-07-25T10:18:30Z</time>
      </trkpt>
      <trkpt lat="44.93587" lon="6.22911">
        <ele>1581.2</ele>
        <time>2023-07-25T10:18:40Z</time>
      </trkpt>
      <trkpt lat="44.93587" lon="6.22911">
        <ele>1581.2</ele>
        <time>2023-07-25T10:18:45Z</time>
      </trkpt>
      <trkpt lat="44.93589" lon="6.22911">
        <ele>1579.6</ele>
        <time>2023-07-25T10:18:55Z</time>
      </trkpt>
      <trkpt lat="44.93589" lon="6.22911">
        <ele>1579.3</ele>
        <time>2023-07-25T10:18:56Z</time>
      </trkpt>
      <trkpt lat="44.93587" lon="6.22911">
        <ele>1581.3</ele>
        <time>2023-07-25T10:19:05Z</time>
      </trkpt>
      <trkpt lat="44.93587" lon="6.22911">
        <ele>1581.9</ele>
        <time>2023-07-25T10:19:07Z</time>
      </trkpt>
      <trkpt lat="44.93589" lon="6.2291">
        <ele>1583.2</ele>
        <time>2023-07-25T10:19:20Z</time>
      </trkpt>
      <trkpt lat="44.93589" lon="6.2291">
        <ele>1583.2</ele>
        <time>2023-07-25T10:19:22Z</time>
      </trkpt>
      <trkpt lat="44.93589" lon="6.2291">
        <ele>1583</ele>
        <time>2023-07-25T10:19:35Z</time>
      </trkpt>
      <trkpt lat="44.93589" lon="6.2291">
        <ele>1583</ele>
        <time>2023-07-25T10:19:37Z</time>
      </trkpt>
      <trkpt lat="44.93591" lon="6.22909">
        <ele>1582.9</ele>
        <time>2023-07-25T10:19:52Z</time>
      </trkpt>
      <trkpt lat="44.93591" lon="6.22909">
        <ele>1582.8</ele>
        <time>2023-07-25T10:19:53Z</time>
      </trkpt>
      <trkpt lat="44.93593" lon="6.22908">
        <ele>1582.7</ele>
        <time>2023-07-25T10:20:17Z</time>
      </trkpt>
      <trkpt lat="44.93593" lon="6.22908">
        <ele>1582.7</ele>
        <time>2023-07-25T10:20:18Z</time>
      </trkpt>
      <trkpt lat="44.93598" lon="6.22916">
        <ele>1581.9</ele>
        <time>2023-07-25T10:20:28Z</time>
      </trkpt>
      <trkpt lat="44.93603" lon="6.2292">
        <ele>1582</ele>
        <time>2023-07-25T10:20:35Z</time>
      </trkpt>
      <trkpt lat="44.93603" lon="6.22923">
        <ele>1583.4</ele>
        <time>2023-07-25T10:20:42Z</time>
      </trkpt>
      <trkpt lat="44.93603" lon="6.22923">
        <ele>1583.5</ele>
        <time>2023-07-25T10:20:45Z</time>
      </trkpt>
      <trkpt lat="44.93609" lon="6.22927">
        <ele>1581.6</ele>
        <time>2023-07-25T10:20:53Z</time>
      </trkpt>
      <trkpt lat="44.93613" lon="6.22934">
        <ele>1581.7</ele>
        <time>2023-07-25T10:21:00Z</time>
      </trkpt>
      <trkpt lat="44.93618" lon="6.22938">
        <ele>1581.4</ele>
        <time>2023-07-25T10:21:07Z</time>
      </trkpt>
      <trkpt lat="44.93623" lon="6.22945">
        <ele>1578.6</ele>
        <time>2023-07-25T10:21:14Z</time>
      </trkpt>
      <trkpt lat="44.9363" lon="6.22948">
        <ele>1580.3</ele>
        <time>2023-07-25T10:21:21Z</time>
      </trkpt>
      <trkpt lat="44.93633" lon="6.22951">
        <ele>1580.5</ele>
        <time>2023-07-25T10:21:28Z</time>
      </trkpt>
      <trkpt lat="44.93632" lon="6.22951">
        <ele>1580.7</ele>
        <time>2023-07-25T10:21:35Z</time>
      </trkpt>
      <trkpt lat="44.93632" lon="6.22953">
        <ele>1585.1</ele>
        <time>2023-07-25T10:21:41Z</time>
      </trkpt>
      <trkpt lat="44.93636" lon="6.22951">
        <ele>1585.1</ele>
        <time>2023-07-25T10:21:48Z</time>
      </trkpt>
      <trkpt lat="44.93636" lon="6.2295">
        <ele>1586.2</ele>
        <time>2023-07-25T10:21:53Z</time>
      </trkpt>
      <trkpt lat="44.9364" lon="6.22941">
        <ele>1584.8</ele>
        <time>2023-07-25T11:43:46Z</time>
      </trkpt>
      <trkpt lat="44.93635" lon="6.22945">
        <ele>1585.3</ele>
        <time>2023-07-25T11:43:53Z</time>
      </trkpt>
      <trkpt lat="44.93634" lon="6.22945">
        <ele>1585.3</ele>
        <time>2023-07-25T11:43:58Z</time>
      </trkpt>
      <trkpt lat="44.93637" lon="6.22944">
        <ele>1588.1</ele>
        <time>2023-07-25T11:44:12Z</time>
      </trkpt>
      <trkpt lat="44.93637" lon="6.22944">
        <ele>1587.5</ele>
        <time>2023-07-25T11:44:16Z</time>
      </trkpt>
      <trkpt lat="44.9364" lon="6.22942">
        <ele>1586.3</ele>
        <time>2023-07-25T11:44:24Z</time>
      </trkpt>
      <trkpt lat="44.9364" lon="6.22942">
        <ele>1586.3</ele>
        <time>2023-07-25T11:44:27Z</time>
      </trkpt>
      <trkpt lat="44.93641" lon="6.22952">
        <ele>1584.2</ele>
        <time>2023-07-25T11:45:19Z</time>
      </trkpt>
      <trkpt lat="44.93646" lon="6.22961">
        <ele>1581.9</ele>
        <time>2023-07-25T11:45:24Z</time>
      </trkpt>
      <trkpt lat="44.9365" lon="6.22971">
        <ele>1581.1</ele>
        <time>2023-07-25T11:45:29Z</time>
      </trkpt>
      <trkpt lat="44.93656" lon="6.22976">
        <ele>1577.1</ele>
        <time>2023-07-25T11:45:35Z</time>
      </trkpt>
      <trkpt lat="44.93663" lon="6.22979">
        <ele>1577</ele>
        <time>2023-07-25T11:45:41Z</time>
      </trkpt>
      <trkpt lat="44.93671" lon="6.22983">
        <ele>1578.4</ele>
        <time>2023-07-25T11:45:47Z</time>
      </trkpt>
      <trkpt lat="44.93676" lon="6.22989">
        <ele>1575.9</ele>
        <time>2023-07-25T11:45:54Z</time>
      </trkpt>
      <trkpt lat="44.93675" lon="6.22999">
        <ele>1574.5</ele>
        <time>2023-07-25T11:46:01Z</time>
      </trkpt>
      <trkpt lat="44.93678" lon="6.23006">
        <ele>1576.3</ele>
        <time>2023-07-25T11:46:08Z</time>
      </trkpt>
      <trkpt lat="44.93683" lon="6.23008">
        <ele>1572</ele>
        <time>2023-07-25T11:46:15Z</time>
      </trkpt>
      <trkpt lat="44.93685" lon="6.23008">
        <ele>1573.8</ele>
        <time>2023-07-25T11:46:22Z</time>
      </trkpt>
      <trkpt lat="44.93685" lon="6.23018">
        <ele>1570.3</ele>
        <time>2023-07-25T11:46:29Z</time>
      </trkpt>
      <trkpt lat="44.93685" lon="6.23025">
        <ele>1570.9</ele>
        <time>2023-07-25T11:46:36Z</time>
      </trkpt>
      <trkpt lat="44.93689" lon="6.23029">
        <ele>1573.3</ele>
        <time>2023-07-25T11:46:43Z</time>
      </trkpt>
      <trkpt lat="44.93693" lon="6.23036">
        <ele>1573.4</ele>
        <time>2023-07-25T11:46:50Z</time>
      </trkpt>
      <trkpt lat="44.93697" lon="6.23043">
        <ele>1569.6</ele>
        <time>2023-07-25T11:46:57Z</time>
      </trkpt>
      <trkpt lat="44.93698" lon="6.23047">
        <ele>1569.4</ele>
        <time>2023-07-25T11:47:04Z</time>
      </trkpt>
      <trkpt lat="44.93698" lon="6.23047">
        <ele>1569.3</ele>
        <time>2023-07-25T11:47:08Z</time>
      </trkpt>
      <trkpt lat="44.93698" lon="6.23047">
        <ele>1568.2</ele>
        <time>2023-07-25T11:47:19Z</time>
      </trkpt>
      <trkpt lat="44.93698" lon="6.23047">
        <ele>1568.2</ele>
        <time>2023-07-25T11:47:20Z</time>
      </trkpt>
      <trkpt lat="44.93698" lon="6.23049">
        <ele>1566</ele>
        <time>2023-07-25T11:48:01Z</time>
      </trkpt>
      <trkpt lat="44.93698" lon="6.23049">
        <ele>1566.1</ele>
        <time>2023-07-25T11:48:03Z</time>
      </trkpt>
      <trkpt lat="44.93698" lon="6.23055">
        <ele>1569.2</ele>
        <time>2023-07-25T11:48:11Z</time>
      </trkpt>
      <trkpt lat="44.93703" lon="6.23056">
        <ele>1567.8</ele>
        <time>2023-07-25T11:48:18Z</time>
      </trkpt>
      <trkpt lat="44.93706" lon="6.23062">
        <ele>1567.7</ele>
        <time>2023-07-25T11:48:25Z</time>
      </trkpt>
      <trkpt lat="44.93708" lon="6.23068">
        <ele>1567.8</ele>
        <time>2023-07-25T11:48:32Z</time>
      </trkpt>
      <trkpt lat="44.9371" lon="6.23075">
        <ele>1567.7</ele>
        <time>2023-07-25T11:48:39Z</time>
      </trkpt>
      <trkpt lat="44.9371" lon="6.23076">
        <ele>1567.7</ele>
        <time>2023-07-25T11:48:46Z</time>
      </trkpt>
      <trkpt lat="44.93706" lon="6.23086">
        <ele>1569.3</ele>
        <time>2023-07-25T11:48:49Z</time>
      </trkpt>
      <trkpt lat="44.93714" lon="6.23094">
        <ele>1564.9</ele>
        <time>2023-07-25T11:48:52Z</time>
      </trkpt>
      <trkpt lat="44.93717" lon="6.23105">
        <ele>1564.6</ele>
        <time>2023-07-25T11:48:58Z</time>
      </trkpt>
      <trkpt lat="44.93715" lon="6.2311">
        <ele>1565.2</ele>
        <time>2023-07-25T11:49:05Z</time>
      </trkpt>
      <trkpt lat="44.93709" lon="6.2311">
        <ele>1565</ele>
        <time>2023-07-25T11:49:12Z</time>
      </trkpt>
      <trkpt lat="44.93706" lon="6.23108">
        <ele>1565.1</ele>
        <time>2023-07-25T11:49:19Z</time>
      </trkpt>
      <trkpt lat="44.93708" lon="6.23115">
        <ele>1564.9</ele>
        <time>2023-07-25T11:49:26Z</time>
      </trkpt>
      <trkpt lat="44.93713" lon="6.23124">
        <ele>1565</ele>
        <time>2023-07-25T11:49:33Z</time>
      </trkpt>
      <trkpt lat="44.93712" lon="6.23132">
        <ele>1570.1</ele>
        <time>2023-07-25T11:49:40Z</time>
      </trkpt>
      <trkpt lat="44.93713" lon="6.23141">
        <ele>1572</ele>
        <time>2023-07-25T11:49:47Z</time>
      </trkpt>
      <trkpt lat="44.9372" lon="6.23145">
        <ele>1570.4</ele>
        <time>2023-07-25T11:49:53Z</time>
      </trkpt>
      <trkpt lat="44.93724" lon="6.23148">
        <ele>1568.7</ele>
        <time>2023-07-25T11:50:00Z</time>
      </trkpt>
      <trkpt lat="44.93724" lon="6.23148">
        <ele>1568.7</ele>
        <time>2023-07-25T11:50:05Z</time>
      </trkpt>
      <trkpt lat="44.93721" lon="6.23145">
        <ele>1568.6</ele>
        <time>2023-07-25T11:50:30Z</time>
      </trkpt>
      <trkpt lat="44.93723" lon="6.23156">
        <ele>1567.2</ele>
        <time>2023-07-25T11:50:35Z</time>
      </trkpt>
      <trkpt lat="44.93723" lon="6.2316">
        <ele>1568.4</ele>
        <time>2023-07-25T11:50:42Z</time>
      </trkpt>
      <trkpt lat="44.93727" lon="6.23164">
        <ele>1567.3</ele>
        <time>2023-07-25T11:50:49Z</time>
      </trkpt>
      <trkpt lat="44.93734" lon="6.23169">
        <ele>1567.3</ele>
        <time>2023-07-25T11:50:56Z</time>
      </trkpt>
      <trkpt lat="44.93738" lon="6.23175">
        <ele>1567.2</ele>
        <time>2023-07-25T11:51:03Z</time>
      </trkpt>
      <trkpt lat="44.93739" lon="6.23182">
        <ele>1567.4</ele>
        <time>2023-07-25T11:51:10Z</time>
      </trkpt>
      <trkpt lat="44.93736" lon="6.23188">
        <ele>1566.4</ele>
        <time>2023-07-25T11:51:17Z</time>
      </trkpt>
      <trkpt lat="44.93735" lon="6.23187">
        <ele>1566.5</ele>
        <time>2023-07-25T11:51:24Z</time>
      </trkpt>
      <trkpt lat="44.93734" lon="6.23187">
        <ele>1566.5</ele>
        <time>2023-07-25T11:51:31Z</time>
      </trkpt>
      <trkpt lat="44.93734" lon="6.23188">
        <ele>1566.5</ele>
        <time>2023-07-25T11:51:32Z</time>
      </trkpt>
      <trkpt lat="44.93733" lon="6.23192">
        <ele>1566.5</ele>
        <time>2023-07-25T11:51:39Z</time>
      </trkpt>
      <trkpt lat="44.93733" lon="6.23193">
        <ele>1566.5</ele>
        <time>2023-07-25T11:51:43Z</time>
      </trkpt>
      <trkpt lat="44.93724" lon="6.23228">
        <ele>1563.4</ele>
        <time>2023-07-25T11:51:53Z</time>
      </trkpt>
      <trkpt lat="44.93722" lon="6.23229">
        <ele>1562.6</ele>
        <time>2023-07-25T11:52:00Z</time>
      </trkpt>
      <trkpt lat="44.93724" lon="6.23227">
        <ele>1566.1</ele>
        <time>2023-07-25T11:52:07Z</time>
      </trkpt>
      <trkpt lat="44.93717" lon="6.2323">
        <ele>1568.9</ele>
        <time>2023-07-25T11:52:12Z</time>
      </trkpt>
      <trkpt lat="44.93714" lon="6.23237">
        <ele>1566.4</ele>
        <time>2023-07-25T11:52:19Z</time>
      </trkpt>
      <trkpt lat="44.93714" lon="6.23244">
        <ele>1566.4</ele>
        <time>2023-07-25T11:52:26Z</time>
      </trkpt>
      <trkpt lat="44.93716" lon="6.2325">
        <ele>1566.3</ele>
        <time>2023-07-25T11:52:33Z</time>
      </trkpt>
      <trkpt lat="44.93717" lon="6.23257">
        <ele>1566.3</ele>
        <time>2023-07-25T11:52:40Z</time>
      </trkpt>
      <trkpt lat="44.93717" lon="6.23263">
        <ele>1566.4</ele>
        <time>2023-07-25T11:52:47Z</time>
      </trkpt>
      <trkpt lat="44.93716" lon="6.23271">
        <ele>1566.3</ele>
        <time>2023-07-25T11:52:54Z</time>
      </trkpt>
      <trkpt lat="44.93713" lon="6.2328">
        <ele>1566.3</ele>
        <time>2023-07-25T11:53:01Z</time>
      </trkpt>
      <trkpt lat="44.9371" lon="6.2329">
        <ele>1566.3</ele>
        <time>2023-07-25T11:53:08Z</time>
      </trkpt>
      <trkpt lat="44.93739" lon="6.23292">
        <ele>1572.8</ele>
        <time>2023-07-25T11:53:12Z</time>
      </trkpt>
      <trkpt lat="44.9373" lon="6.23297">
        <ele>1573.1</ele>
        <time>2023-07-25T11:53:16Z</time>
      </trkpt>
      <trkpt lat="44.93729" lon="6.23305">
        <ele>1576.6</ele>
        <time>2023-07-25T11:53:23Z</time>
      </trkpt>
      <trkpt lat="44.9373" lon="6.23305">
        <ele>1576.6</ele>
        <time>2023-07-25T11:53:30Z</time>
      </trkpt>
      <trkpt lat="44.9373" lon="6.23305">
        <ele>1576.6</ele>
        <time>2023-07-25T11:53:31Z</time>
      </trkpt>
      <trkpt lat="44.93727" lon="6.23307">
        <ele>1576.5</ele>
        <time>2023-07-25T11:53:41Z</time>
      </trkpt>
      <trkpt lat="44.93723" lon="6.23318">
        <ele>1574.5</ele>
        <time>2023-07-25T11:53:47Z</time>
      </trkpt>
      <trkpt lat="44.93722" lon="6.23327">
        <ele>1574.4</ele>
        <time>2023-07-25T11:53:54Z</time>
      </trkpt>
      <trkpt lat="44.93724" lon="6.23335">
        <ele>1574.6</ele>
        <time>2023-07-25T11:54:01Z</time>
      </trkpt>
      <trkpt lat="44.93727" lon="6.23342">
        <ele>1574.6</ele>
        <time>2023-07-25T11:54:08Z</time>
      </trkpt>
      <trkpt lat="44.93724" lon="6.2335">
        <ele>1574.5</ele>
        <time>2023-07-25T11:54:15Z</time>
      </trkpt>
      <trkpt lat="44.93699" lon="6.23367">
        <ele>1577.6</ele>
        <time>2023-07-25T11:54:20Z</time>
      </trkpt>
      <trkpt lat="44.93706" lon="6.23366">
        <ele>1578.9</ele>
        <time>2023-07-25T11:54:24Z</time>
      </trkpt>
      <trkpt lat="44.93707" lon="6.23374">
        <ele>1578.7</ele>
        <time>2023-07-25T11:54:31Z</time>
      </trkpt>
      <trkpt lat="44.93703" lon="6.23382">
        <ele>1574.6</ele>
        <time>2023-07-25T11:54:37Z</time>
      </trkpt>
      <trkpt lat="44.93701" lon="6.23387">
        <ele>1574.4</ele>
        <time>2023-07-25T11:54:44Z</time>
      </trkpt>
      <trkpt lat="44.93716" lon="6.23393">
        <ele>1577.1</ele>
        <time>2023-07-25T11:54:51Z</time>
      </trkpt>
      <trkpt lat="44.93718" lon="6.23396">
        <ele>1573.8</ele>
        <time>2023-07-25T11:54:58Z</time>
      </trkpt>
      <trkpt lat="44.93721" lon="6.23402">
        <ele>1573.6</ele>
        <time>2023-07-25T11:55:05Z</time>
      </trkpt>
      <trkpt lat="44.93722" lon="6.23407">
        <ele>1574</ele>
        <time>2023-07-25T11:55:12Z</time>
      </trkpt>
      <trkpt lat="44.93717" lon="6.23412">
        <ele>1574</ele>
        <time>2023-07-25T11:55:19Z</time>
      </trkpt>
      <trkpt lat="44.93711" lon="6.23417">
        <ele>1573.8</ele>
        <time>2023-07-25T11:55:26Z</time>
      </trkpt>
      <trkpt lat="44.93713" lon="6.23424">
        <ele>1573.9</ele>
        <time>2023-07-25T11:55:33Z</time>
      </trkpt>
      <trkpt lat="44.93717" lon="6.23428">
        <ele>1574.6</ele>
        <time>2023-07-25T11:55:40Z</time>
      </trkpt>
      <trkpt lat="44.93718" lon="6.2343">
        <ele>1566.8</ele>
        <time>2023-07-25T11:55:47Z</time>
      </trkpt>
      <trkpt lat="44.9372" lon="6.23431">
        <ele>1566.8</ele>
        <time>2023-07-25T11:55:54Z</time>
      </trkpt>
      <trkpt lat="44.9372" lon="6.23431">
        <ele>1566.8</ele>
        <time>2023-07-25T11:55:56Z</time>
      </trkpt>
      <trkpt lat="44.93727" lon="6.23434">
        <ele>1566.8</ele>
        <time>2023-07-25T11:56:54Z</time>
      </trkpt>
      <trkpt lat="44.93733" lon="6.23437">
        <ele>1566.9</ele>
        <time>2023-07-25T11:57:01Z</time>
      </trkpt>
      <trkpt lat="44.93738" lon="6.23442">
        <ele>1566.5</ele>
        <time>2023-07-25T11:57:08Z</time>
      </trkpt>
      <trkpt lat="44.93741" lon="6.23451">
        <ele>1563.9</ele>
        <time>2023-07-25T11:57:15Z</time>
      </trkpt>
      <trkpt lat="44.93745" lon="6.2346">
        <ele>1563.2</ele>
        <time>2023-07-25T11:57:22Z</time>
      </trkpt>
      <trkpt lat="44.93748" lon="6.23466">
        <ele>1562.7</ele>
        <time>2023-07-25T11:57:29Z</time>
      </trkpt>
      <trkpt lat="44.9375" lon="6.23469">
        <ele>1569.6</ele>
        <time>2023-07-25T11:57:36Z</time>
      </trkpt>
      <trkpt lat="44.9375" lon="6.23469">
        <ele>1570.2</ele>
        <time>2023-07-25T11:57:37Z</time>
      </trkpt>
      <trkpt lat="44.93756" lon="6.23473">
        <ele>1569.8</ele>
        <time>2023-07-25T11:59:14Z</time>
      </trkpt>
      <trkpt lat="44.93761" lon="6.23478">
        <ele>1571.8</ele>
        <time>2023-07-25T11:59:21Z</time>
      </trkpt>
      <trkpt lat="44.93767" lon="6.23479">
        <ele>1574</ele>
        <time>2023-07-25T11:59:28Z</time>
      </trkpt>
      <trkpt lat="44.93766" lon="6.2348">
        <ele>1574.6</ele>
        <time>2023-07-25T11:59:35Z</time>
      </trkpt>
      <trkpt lat="44.93768" lon="6.23488">
        <ele>1577.6</ele>
        <time>2023-07-25T11:59:42Z</time>
      </trkpt>
      <trkpt lat="44.93772" lon="6.23494">
        <ele>1578.6</ele>
        <time>2023-07-25T11:59:49Z</time>
      </trkpt>
      <trkpt lat="44.93769" lon="6.23498">
        <ele>1578.4</ele>
        <time>2023-07-25T11:59:56Z</time>
      </trkpt>
      <trkpt lat="44.93772" lon="6.23504">
        <ele>1577.7</ele>
        <time>2023-07-25T12:00:03Z</time>
      </trkpt>
      <trkpt lat="44.93771" lon="6.23505">
        <ele>1578</ele>
        <time>2023-07-25T12:00:10Z</time>
      </trkpt>
      <trkpt lat="44.93772" lon="6.23513">
        <ele>1575.6</ele>
        <time>2023-07-25T12:00:17Z</time>
      </trkpt>
      <trkpt lat="44.93771" lon="6.23517">
        <ele>1570.6</ele>
        <time>2023-07-25T12:00:24Z</time>
      </trkpt>
      <trkpt lat="44.93771" lon="6.23517">
        <ele>1571.1</ele>
        <time>2023-07-25T12:00:31Z</time>
      </trkpt>
      <trkpt lat="44.9377" lon="6.23522">
        <ele>1568</ele>
        <time>2023-07-25T12:01:17Z</time>
      </trkpt>
      <trkpt lat="44.93767" lon="6.23529">
        <ele>1571.4</ele>
        <time>2023-07-25T12:01:24Z</time>
      </trkpt>
      <trkpt lat="44.93767" lon="6.23538">
        <ele>1574.5</ele>
        <time>2023-07-25T12:01:31Z</time>
      </trkpt>
      <trkpt lat="44.93769" lon="6.23548">
        <ele>1576.9</ele>
        <time>2023-07-25T12:01:38Z</time>
      </trkpt>
      <trkpt lat="44.93767" lon="6.23549">
        <ele>1574.7</ele>
        <time>2023-07-25T12:01:45Z</time>
      </trkpt>
      <trkpt lat="44.93768" lon="6.23559">
        <ele>1579.3</ele>
        <time>2023-07-25T12:01:52Z</time>
      </trkpt>
      <trkpt lat="44.93771" lon="6.2357">
        <ele>1579.6</ele>
        <time>2023-07-25T12:01:59Z</time>
      </trkpt>
      <trkpt lat="44.93773" lon="6.23581">
        <ele>1580.3</ele>
        <time>2023-07-25T12:02:06Z</time>
      </trkpt>
      <trkpt lat="44.93772" lon="6.23591">
        <ele>1581.1</ele>
        <time>2023-07-25T12:02:11Z</time>
      </trkpt>
      <trkpt lat="44.93769" lon="6.23601">
        <ele>1581.6</ele>
        <time>2023-07-25T12:02:17Z</time>
      </trkpt>
      <trkpt lat="44.93767" lon="6.23603">
        <ele>1583.8</ele>
        <time>2023-07-25T12:02:24Z</time>
      </trkpt>
      <trkpt lat="44.93764" lon="6.23598">
        <ele>1584.1</ele>
        <time>2023-07-25T12:02:31Z</time>
      </trkpt>
      <trkpt lat="44.93766" lon="6.23601">
        <ele>1582.2</ele>
        <time>2023-07-25T12:02:38Z</time>
      </trkpt>
      <trkpt lat="44.93764" lon="6.23612">
        <ele>1584.1</ele>
        <time>2023-07-25T12:02:44Z</time>
      </trkpt>
      <trkpt lat="44.93763" lon="6.23623">
        <ele>1583.1</ele>
        <time>2023-07-25T12:02:50Z</time>
      </trkpt>
      <trkpt lat="44.93763" lon="6.23631">
        <ele>1584.6</ele>
        <time>2023-07-25T12:02:57Z</time>
      </trkpt>
      <trkpt lat="44.93761" lon="6.23637">
        <ele>1583.2</ele>
        <time>2023-07-25T12:03:04Z</time>
      </trkpt>
      <trkpt lat="44.93764" lon="6.2364">
        <ele>1583.2</ele>
        <time>2023-07-25T12:03:11Z</time>
      </trkpt>
      <trkpt lat="44.93768" lon="6.23643">
        <ele>1583.2</ele>
        <time>2023-07-25T12:03:18Z</time>
      </trkpt>
      <trkpt lat="44.93773" lon="6.23644">
        <ele>1583.2</ele>
        <time>2023-07-25T12:03:25Z</time>
      </trkpt>
      <trkpt lat="44.93777" lon="6.23652">
        <ele>1586.6</ele>
        <time>2023-07-25T12:03:32Z</time>
      </trkpt>
      <trkpt lat="44.93777" lon="6.23654">
        <ele>1588.4</ele>
        <time>2023-07-25T12:03:39Z</time>
      </trkpt>
      <trkpt lat="44.9378" lon="6.23659">
        <ele>1588.5</ele>
        <time>2023-07-25T12:03:46Z</time>
      </trkpt>
      <trkpt lat="44.93775" lon="6.2366">
        <ele>1586.4</ele>
        <time>2023-07-25T12:03:53Z</time>
      </trkpt>
      <trkpt lat="44.93769" lon="6.23664">
        <ele>1588.3</ele>
        <time>2023-07-25T12:04:00Z</time>
      </trkpt>
      <trkpt lat="44.93766" lon="6.23667">
        <ele>1590.3</ele>
        <time>2023-07-25T12:04:07Z</time>
      </trkpt>
      <trkpt lat="44.93764" lon="6.23672">
        <ele>1586.8</ele>
        <time>2023-07-25T12:04:14Z</time>
      </trkpt>
      <trkpt lat="44.93764" lon="6.23675">
        <ele>1594.3</ele>
        <time>2023-07-25T12:04:21Z</time>
      </trkpt>
      <trkpt lat="44.93765" lon="6.23679">
        <ele>1593.5</ele>
        <time>2023-07-25T12:04:28Z</time>
      </trkpt>
      <trkpt lat="44.93767" lon="6.23678">
        <ele>1594.4</ele>
        <time>2023-07-25T12:04:35Z</time>
      </trkpt>
      <trkpt lat="44.93766" lon="6.23685">
        <ele>1593.8</ele>
        <time>2023-07-25T12:04:42Z</time>
      </trkpt>
      <trkpt lat="44.93764" lon="6.2369">
        <ele>1598.1</ele>
        <time>2023-07-25T12:04:49Z</time>
      </trkpt>
      <trkpt lat="44.93761" lon="6.23688">
        <ele>1596.7</ele>
        <time>2023-07-25T12:04:56Z</time>
      </trkpt>
      <trkpt lat="44.93761" lon="6.23688">
        <ele>1596.1</ele>
        <time>2023-07-25T12:05:00Z</time>
      </trkpt>
      <trkpt lat="44.93762" lon="6.23691">
        <ele>1596.9</ele>
        <time>2023-07-25T12:05:55Z</time>
      </trkpt>
      <trkpt lat="44.93762" lon="6.23691">
        <ele>1596.9</ele>
        <time>2023-07-25T12:05:56Z</time>
      </trkpt>
      <trkpt lat="44.93761" lon="6.23698">
        <ele>1597.7</ele>
        <time>2023-07-25T12:06:09Z</time>
      </trkpt>
      <trkpt lat="44.93762" lon="6.23704">
        <ele>1601.9</ele>
        <time>2023-07-25T12:06:16Z</time>
      </trkpt>
      <trkpt lat="44.93768" lon="6.23711">
        <ele>1602.4</ele>
        <time>2023-07-25T12:06:22Z</time>
      </trkpt>
      <trkpt lat="44.93773" lon="6.2372">
        <ele>1603.9</ele>
        <time>2023-07-25T12:06:29Z</time>
      </trkpt>
      <trkpt lat="44.93776" lon="6.23729">
        <ele>1601.5</ele>
        <time>2023-07-25T12:06:36Z</time>
      </trkpt>
      <trkpt lat="44.93779" lon="6.23739">
        <ele>1603.6</ele>
        <time>2023-07-25T12:06:42Z</time>
      </trkpt>
      <trkpt lat="44.93781" lon="6.23749">
        <ele>1603.4</ele>
        <time>2023-07-25T12:06:49Z</time>
      </trkpt>
      <trkpt lat="44.93781" lon="6.23757">
        <ele>1601.2</ele>
        <time>2023-07-25T12:06:56Z</time>
      </trkpt>
      <trkpt lat="44.93779" lon="6.23764">
        <ele>1601.3</ele>
        <time>2023-07-25T12:07:03Z</time>
      </trkpt>
      <trkpt lat="44.93779" lon="6.2377">
        <ele>1599.5</ele>
        <time>2023-07-25T12:07:10Z</time>
      </trkpt>
      <trkpt lat="44.93786" lon="6.23771">
        <ele>1602.5</ele>
        <time>2023-07-25T12:07:17Z</time>
      </trkpt>
      <trkpt lat="44.93786" lon="6.23771">
        <ele>1602.5</ele>
        <time>2023-07-25T12:07:23Z</time>
      </trkpt>
      <trkpt lat="44.93789" lon="6.23766">
        <ele>1610</ele>
        <time>2023-07-25T12:08:23Z</time>
      </trkpt>
      <trkpt lat="44.93789" lon="6.23766">
        <ele>1611</ele>
        <time>2023-07-25T12:08:27Z</time>
      </trkpt>
      <trkpt lat="44.93793" lon="6.23768">
        <ele>1608.2</ele>
        <time>2023-07-25T12:08:40Z</time>
      </trkpt>
      <trkpt lat="44.93793" lon="6.23768">
        <ele>1608</ele>
        <time>2023-07-25T12:08:47Z</time>
      </trkpt>
      <trkpt lat="44.93793" lon="6.23769">
        <ele>1609.2</ele>
        <time>2023-07-25T12:08:49Z</time>
      </trkpt>
      <trkpt lat="44.93793" lon="6.23771">
        <ele>1608.3</ele>
        <time>2023-07-25T12:08:58Z</time>
      </trkpt>
      <trkpt lat="44.93793" lon="6.23779">
        <ele>1603.6</ele>
        <time>2023-07-25T12:09:05Z</time>
      </trkpt>
      <trkpt lat="44.93793" lon="6.23783">
        <ele>1599.1</ele>
        <time>2023-07-25T12:09:12Z</time>
      </trkpt>
      <trkpt lat="44.93791" lon="6.23793">
        <ele>1599.3</ele>
        <time>2023-07-25T12:09:18Z</time>
      </trkpt>
      <trkpt lat="44.93788" lon="6.23801">
        <ele>1600</ele>
        <time>2023-07-25T12:09:25Z</time>
      </trkpt>
      <trkpt lat="44.93787" lon="6.23809">
        <ele>1599.4</ele>
        <time>2023-07-25T12:09:32Z</time>
      </trkpt>
      <trkpt lat="44.93787" lon="6.23818">
        <ele>1600.1</ele>
        <time>2023-07-25T12:09:39Z</time>
      </trkpt>
      <trkpt lat="44.93791" lon="6.23826">
        <ele>1599.5</ele>
        <time>2023-07-25T12:09:46Z</time>
      </trkpt>
      <trkpt lat="44.93797" lon="6.23832">
        <ele>1599.6</ele>
        <time>2023-07-25T12:09:53Z</time>
      </trkpt>
      <trkpt lat="44.93802" lon="6.23837">
        <ele>1599.7</ele>
        <time>2023-07-25T12:10:00Z</time>
      </trkpt>
      <trkpt lat="44.93802" lon="6.23838">
        <ele>1599.7</ele>
        <time>2023-07-25T12:10:07Z</time>
      </trkpt>
      <trkpt lat="44.93802" lon="6.23838">
        <ele>1599.7</ele>
        <time>2023-07-25T12:10:08Z</time>
      </trkpt>
      <trkpt lat="44.93802" lon="6.23838">
        <ele>1599.7</ele>
        <time>2023-07-25T12:10:19Z</time>
      </trkpt>
      <trkpt lat="44.93802" lon="6.23838">
        <ele>1599.7</ele>
        <time>2023-07-25T12:10:20Z</time>
      </trkpt>
      <trkpt lat="44.93797" lon="6.23847">
        <ele>1602</ele>
        <time>2023-07-25T12:11:08Z</time>
      </trkpt>
      <trkpt lat="44.938" lon="6.23852">
        <ele>1601.3</ele>
        <time>2023-07-25T12:11:15Z</time>
      </trkpt>
      <trkpt lat="44.93796" lon="6.2386">
        <ele>1601.3</ele>
        <time>2023-07-25T12:11:21Z</time>
      </trkpt>
      <trkpt lat="44.93793" lon="6.23869">
        <ele>1601.9</ele>
        <time>2023-07-25T12:11:28Z</time>
      </trkpt>
      <trkpt lat="44.93798" lon="6.23877">
        <ele>1601.3</ele>
        <time>2023-07-25T12:11:35Z</time>
      </trkpt>
      <trkpt lat="44.93802" lon="6.23886">
        <ele>1601.2</ele>
        <time>2023-07-25T12:11:42Z</time>
      </trkpt>
      <trkpt lat="44.938" lon="6.23894">
        <ele>1604.8</ele>
        <time>2023-07-25T12:11:49Z</time>
      </trkpt>
      <trkpt lat="44.93802" lon="6.23904">
        <ele>1603</ele>
        <time>2023-07-25T12:11:56Z</time>
      </trkpt>
      <trkpt lat="44.938" lon="6.23912">
        <ele>1598.6</ele>
        <time>2023-07-25T12:12:03Z</time>
      </trkpt>
      <trkpt lat="44.93799" lon="6.2392">
        <ele>1600</ele>
        <time>2023-07-25T12:12:10Z</time>
      </trkpt>
      <trkpt lat="44.938" lon="6.23928">
        <ele>1599.4</ele>
        <time>2023-07-25T12:12:17Z</time>
      </trkpt>
      <trkpt lat="44.93799" lon="6.23936">
        <ele>1599.4</ele>
        <time>2023-07-25T12:12:24Z</time>
      </trkpt>
      <trkpt lat="44.938" lon="6.23944">
        <ele>1599.6</ele>
        <time>2023-07-25T12:12:31Z</time>
      </trkpt>
      <trkpt lat="44.93797" lon="6.23954">
        <ele>1598.6</ele>
        <time>2023-07-25T12:12:38Z</time>
      </trkpt>
      <trkpt lat="44.93797" lon="6.23963">
        <ele>1603.2</ele>
        <time>2023-07-25T12:12:45Z</time>
      </trkpt>
      <trkpt lat="44.93796" lon="6.23973">
        <ele>1601.8</ele>
        <time>2023-07-25T12:12:52Z</time>
      </trkpt>
      <trkpt lat="44.93796" lon="6.2398">
        <ele>1599.5</ele>
        <time>2023-07-25T12:12:59Z</time>
      </trkpt>
      <trkpt lat="44.93796" lon="6.23987">
        <ele>1602</ele>
        <time>2023-07-25T12:13:06Z</time>
      </trkpt>
      <trkpt lat="44.93796" lon="6.23996">
        <ele>1601</ele>
        <time>2023-07-25T12:13:13Z</time>
      </trkpt>
      <trkpt lat="44.93799" lon="6.24004">
        <ele>1602.9</ele>
        <time>2023-07-25T12:13:20Z</time>
      </trkpt>
      <trkpt lat="44.938" lon="6.24015">
        <ele>1603.8</ele>
        <time>2023-07-25T12:13:27Z</time>
      </trkpt>
      <trkpt lat="44.93797" lon="6.24023">
        <ele>1605.7</ele>
        <time>2023-07-25T12:13:34Z</time>
      </trkpt>
      <trkpt lat="44.93793" lon="6.24031">
        <ele>1606.5</ele>
        <time>2023-07-25T12:13:41Z</time>
      </trkpt>
      <trkpt lat="44.93794" lon="6.24039">
        <ele>1609.4</ele>
        <time>2023-07-25T12:13:48Z</time>
      </trkpt>
      <trkpt lat="44.93795" lon="6.24049">
        <ele>1605.4</ele>
        <time>2023-07-25T12:13:55Z</time>
      </trkpt>
      <trkpt lat="44.93794" lon="6.24059">
        <ele>1606.6</ele>
        <time>2023-07-25T12:14:02Z</time>
      </trkpt>
      <trkpt lat="44.93798" lon="6.24069">
        <ele>1605.6</ele>
        <time>2023-07-25T12:14:08Z</time>
      </trkpt>
      <trkpt lat="44.93802" lon="6.24079">
        <ele>1606.5</ele>
        <time>2023-07-25T12:14:15Z</time>
      </trkpt>
      <trkpt lat="44.93803" lon="6.24089">
        <ele>1606.9</ele>
        <time>2023-07-25T12:14:22Z</time>
      </trkpt>
      <trkpt lat="44.93805" lon="6.24096">
        <ele>1606.3</ele>
        <time>2023-07-25T12:14:29Z</time>
      </trkpt>
      <trkpt lat="44.93806" lon="6.24105">
        <ele>1606.9</ele>
        <time>2023-07-25T12:14:36Z</time>
      </trkpt>
      <trkpt lat="44.93803" lon="6.24114">
        <ele>1606.6</ele>
        <time>2023-07-25T12:14:43Z</time>
      </trkpt>
      <trkpt lat="44.938" lon="6.24123">
        <ele>1605</ele>
        <time>2023-07-25T12:14:50Z</time>
      </trkpt>
      <trkpt lat="44.93796" lon="6.24133">
        <ele>1604.3</ele>
        <time>2023-07-25T12:14:57Z</time>
      </trkpt>
      <trkpt lat="44.9379" lon="6.24142">
        <ele>1604.9</ele>
        <time>2023-07-25T12:15:03Z</time>
      </trkpt>
      <trkpt lat="44.93787" lon="6.24149">
        <ele>1600.5</ele>
        <time>2023-07-25T12:15:10Z</time>
      </trkpt>
      <trkpt lat="44.93786" lon="6.24156">
        <ele>1597.7</ele>
        <time>2023-07-25T12:15:17Z</time>
      </trkpt>
      <trkpt lat="44.93788" lon="6.24161">
        <ele>1594.2</ele>
        <time>2023-07-25T12:15:24Z</time>
      </trkpt>
      <trkpt lat="44.93792" lon="6.24168">
        <ele>1596.6</ele>
        <time>2023-07-25T12:15:31Z</time>
      </trkpt>
      <trkpt lat="44.93791" lon="6.24177">
        <ele>1596.7</ele>
        <time>2023-07-25T12:15:38Z</time>
      </trkpt>
      <trkpt lat="44.93792" lon="6.24182">
        <ele>1594.4</ele>
        <time>2023-07-25T12:15:45Z</time>
      </trkpt>
      <trkpt lat="44.93796" lon="6.2419">
        <ele>1597</ele>
        <time>2023-07-25T12:15:52Z</time>
      </trkpt>
      <trkpt lat="44.938" lon="6.24197">
        <ele>1598.6</ele>
        <time>2023-07-25T12:15:59Z</time>
      </trkpt>
      <trkpt lat="44.938" lon="6.24208">
        <ele>1599.3</ele>
        <time>2023-07-25T12:16:06Z</time>
      </trkpt>
      <trkpt lat="44.93802" lon="6.24212">
        <ele>1597.8</ele>
        <time>2023-07-25T12:16:13Z</time>
      </trkpt>
      <trkpt lat="44.938" lon="6.2421">
        <ele>1597.5</ele>
        <time>2023-07-25T12:16:20Z</time>
      </trkpt>
      <trkpt lat="44.938" lon="6.2421">
        <ele>1597.5</ele>
        <time>2023-07-25T12:16:21Z</time>
      </trkpt>
      <trkpt lat="44.93805" lon="6.24212">
        <ele>1597.2</ele>
        <time>2023-07-25T12:16:46Z</time>
      </trkpt>
      <trkpt lat="44.93806" lon="6.24219">
        <ele>1596.3</ele>
        <time>2023-07-25T12:16:53Z</time>
      </trkpt>
      <trkpt lat="44.93806" lon="6.24229">
        <ele>1598.4</ele>
        <time>2023-07-25T12:17:00Z</time>
      </trkpt>
      <trkpt lat="44.93803" lon="6.24238">
        <ele>1598.5</ele>
        <time>2023-07-25T12:17:07Z</time>
      </trkpt>
      <trkpt lat="44.938" lon="6.24248">
        <ele>1600.4</ele>
        <time>2023-07-25T12:17:14Z</time>
      </trkpt>
      <trkpt lat="44.93797" lon="6.24254">
        <ele>1601.5</ele>
        <time>2023-07-25T12:17:21Z</time>
      </trkpt>
      <trkpt lat="44.93798" lon="6.24259">
        <ele>1603.2</ele>
        <time>2023-07-25T12:17:28Z</time>
      </trkpt>
      <trkpt lat="44.93798" lon="6.24266">
        <ele>1605.7</ele>
        <time>2023-07-25T12:17:35Z</time>
      </trkpt>
      <trkpt lat="44.93797" lon="6.24273">
        <ele>1607.1</ele>
        <time>2023-07-25T12:17:42Z</time>
      </trkpt>
      <trkpt lat="44.93794" lon="6.2428">
        <ele>1610.5</ele>
        <time>2023-07-25T12:17:49Z</time>
      </trkpt>
      <trkpt lat="44.93789" lon="6.24282">
        <ele>1612.2</ele>
        <time>2023-07-25T12:17:56Z</time>
      </trkpt>
      <trkpt lat="44.93786" lon="6.24287">
        <ele>1609.7</ele>
        <time>2023-07-25T12:18:03Z</time>
      </trkpt>
      <trkpt lat="44.93786" lon="6.24299">
        <ele>1613.1</ele>
        <time>2023-07-25T12:18:10Z</time>
      </trkpt>
      <trkpt lat="44.93786" lon="6.24307">
        <ele>1611.6</ele>
        <time>2023-07-25T12:18:17Z</time>
      </trkpt>
      <trkpt lat="44.93783" lon="6.24314">
        <ele>1609.7</ele>
        <time>2023-07-25T12:18:24Z</time>
      </trkpt>
      <trkpt lat="44.93777" lon="6.2432">
        <ele>1608</ele>
        <time>2023-07-25T12:18:31Z</time>
      </trkpt>
      <trkpt lat="44.93777" lon="6.2433">
        <ele>1609.4</ele>
        <time>2023-07-25T12:18:38Z</time>
      </trkpt>
      <trkpt lat="44.93773" lon="6.24335">
        <ele>1608.9</ele>
        <time>2023-07-25T12:18:45Z</time>
      </trkpt>
      <trkpt lat="44.93772" lon="6.24342">
        <ele>1609.5</ele>
        <time>2023-07-25T12:18:52Z</time>
      </trkpt>
      <trkpt lat="44.93775" lon="6.24351">
        <ele>1609.7</ele>
        <time>2023-07-25T12:18:58Z</time>
      </trkpt>
      <trkpt lat="44.93774" lon="6.24361">
        <ele>1607.5</ele>
        <time>2023-07-25T12:19:05Z</time>
      </trkpt>
      <trkpt lat="44.93768" lon="6.24363">
        <ele>1606.8</ele>
        <time>2023-07-25T12:19:12Z</time>
      </trkpt>
      <trkpt lat="44.93766" lon="6.24373">
        <ele>1609.2</ele>
        <time>2023-07-25T12:19:19Z</time>
      </trkpt>
      <trkpt lat="44.93761" lon="6.24381">
        <ele>1608.1</ele>
        <time>2023-07-25T12:19:26Z</time>
      </trkpt>
      <trkpt lat="44.93757" lon="6.24385">
        <ele>1610.1</ele>
        <time>2023-07-25T12:19:33Z</time>
      </trkpt>
      <trkpt lat="44.93751" lon="6.24387">
        <ele>1612.2</ele>
        <time>2023-07-25T12:19:40Z</time>
      </trkpt>
      <trkpt lat="44.93748" lon="6.2439">
        <ele>1610.2</ele>
        <time>2023-07-25T12:19:47Z</time>
      </trkpt>
      <trkpt lat="44.93748" lon="6.24392">
        <ele>1613.1</ele>
        <time>2023-07-25T12:19:54Z</time>
      </trkpt>
      <trkpt lat="44.9375" lon="6.244">
        <ele>1614</ele>
        <time>2023-07-25T12:20:01Z</time>
      </trkpt>
      <trkpt lat="44.93749" lon="6.24411">
        <ele>1614.3</ele>
        <time>2023-07-25T12:20:08Z</time>
      </trkpt>
      <trkpt lat="44.93745" lon="6.24411">
        <ele>1614.3</ele>
        <time>2023-07-25T12:20:15Z</time>
      </trkpt>
      <trkpt lat="44.93745" lon="6.24421">
        <ele>1614.1</ele>
        <time>2023-07-25T12:20:22Z</time>
      </trkpt>
      <trkpt lat="44.93742" lon="6.24425">
        <ele>1611.3</ele>
        <time>2023-07-25T12:20:29Z</time>
      </trkpt>
      <trkpt lat="44.93741" lon="6.24431">
        <ele>1611.2</ele>
        <time>2023-07-25T12:20:36Z</time>
      </trkpt>
      <trkpt lat="44.93746" lon="6.24432">
        <ele>1611.1</ele>
        <time>2023-07-25T12:20:43Z</time>
      </trkpt>
      <trkpt lat="44.93742" lon="6.24432">
        <ele>1611.9</ele>
        <time>2023-07-25T12:20:50Z</time>
      </trkpt>
      <trkpt lat="44.93745" lon="6.24438">
        <ele>1611.6</ele>
        <time>2023-07-25T12:20:57Z</time>
      </trkpt>
      <trkpt lat="44.93746" lon="6.24446">
        <ele>1611.7</ele>
        <time>2023-07-25T12:21:04Z</time>
      </trkpt>
      <trkpt lat="44.93745" lon="6.24453">
        <ele>1611.7</ele>
        <time>2023-07-25T12:21:11Z</time>
      </trkpt>
      <trkpt lat="44.93744" lon="6.2446">
        <ele>1611.8</ele>
        <time>2023-07-25T12:21:18Z</time>
      </trkpt>
      <trkpt lat="44.93746" lon="6.24465">
        <ele>1611.8</ele>
        <time>2023-07-25T12:21:25Z</time>
      </trkpt>
      <trkpt lat="44.93746" lon="6.24471">
        <ele>1612</ele>
        <time>2023-07-25T12:21:32Z</time>
      </trkpt>
      <trkpt lat="44.93745" lon="6.24479">
        <ele>1612.1</ele>
        <time>2023-07-25T12:21:39Z</time>
      </trkpt>
      <trkpt lat="44.93739" lon="6.24483">
        <ele>1608.7</ele>
        <time>2023-07-25T12:21:46Z</time>
      </trkpt>
      <trkpt lat="44.93734" lon="6.24483">
        <ele>1610.8</ele>
        <time>2023-07-25T12:21:53Z</time>
      </trkpt>
      <trkpt lat="44.93734" lon="6.24483">
        <ele>1610.9</ele>
        <time>2023-07-25T12:22:00Z</time>
      </trkpt>
      <trkpt lat="44.93726" lon="6.24487">
        <ele>1614.4</ele>
        <time>2023-07-25T12:22:15Z</time>
      </trkpt>
      <trkpt lat="44.93726" lon="6.24492">
        <ele>1618.6</ele>
        <time>2023-07-25T12:22:22Z</time>
      </trkpt>
      <trkpt lat="44.93727" lon="6.24499">
        <ele>1620.7</ele>
        <time>2023-07-25T12:22:29Z</time>
      </trkpt>
      <trkpt lat="44.93724" lon="6.24505">
        <ele>1621.2</ele>
        <time>2023-07-25T12:22:36Z</time>
      </trkpt>
      <trkpt lat="44.93724" lon="6.24512">
        <ele>1621</ele>
        <time>2023-07-25T12:22:43Z</time>
      </trkpt>
      <trkpt lat="44.93729" lon="6.24522">
        <ele>1620.2</ele>
        <time>2023-07-25T12:22:50Z</time>
      </trkpt>
      <trkpt lat="44.93729" lon="6.24532">
        <ele>1616.8</ele>
        <time>2023-07-25T12:22:57Z</time>
      </trkpt>
      <trkpt lat="44.9373" lon="6.2454">
        <ele>1616.9</ele>
        <time>2023-07-25T12:23:04Z</time>
      </trkpt>
      <trkpt lat="44.93731" lon="6.24549">
        <ele>1617</ele>
        <time>2023-07-25T12:23:11Z</time>
      </trkpt>
      <trkpt lat="44.93731" lon="6.24559">
        <ele>1616.5</ele>
        <time>2023-07-25T12:23:18Z</time>
      </trkpt>
      <trkpt lat="44.93727" lon="6.2457">
        <ele>1617</ele>
        <time>2023-07-25T12:23:25Z</time>
      </trkpt>
      <trkpt lat="44.93723" lon="6.24575">
        <ele>1616.8</ele>
        <time>2023-07-25T12:23:32Z</time>
      </trkpt>
      <trkpt lat="44.93723" lon="6.24579">
        <ele>1617</ele>
        <time>2023-07-25T12:23:39Z</time>
      </trkpt>
      <trkpt lat="44.93725" lon="6.24586">
        <ele>1617.7</ele>
        <time>2023-07-25T12:23:46Z</time>
      </trkpt>
      <trkpt lat="44.93729" lon="6.24592">
        <ele>1620.4</ele>
        <time>2023-07-25T12:23:53Z</time>
      </trkpt>
      <trkpt lat="44.93734" lon="6.246">
        <ele>1624.2</ele>
        <time>2023-07-25T12:24:00Z</time>
      </trkpt>
      <trkpt lat="44.93737" lon="6.2461">
        <ele>1627.6</ele>
        <time>2023-07-25T12:24:06Z</time>
      </trkpt>
      <trkpt lat="44.93741" lon="6.24619">
        <ele>1630.9</ele>
        <time>2023-07-25T12:24:13Z</time>
      </trkpt>
      <trkpt lat="44.93739" lon="6.24618">
        <ele>1630.4</ele>
        <time>2023-07-25T12:24:20Z</time>
      </trkpt>
      <trkpt lat="44.93738" lon="6.24623">
        <ele>1631.5</ele>
        <time>2023-07-25T12:24:27Z</time>
      </trkpt>
      <trkpt lat="44.93738" lon="6.24625">
        <ele>1630.1</ele>
        <time>2023-07-25T12:24:34Z</time>
      </trkpt>
      <trkpt lat="44.93738" lon="6.24625">
        <ele>1630.2</ele>
        <time>2023-07-25T12:24:35Z</time>
      </trkpt>
      <trkpt lat="44.93738" lon="6.24628">
        <ele>1634.2</ele>
        <time>2023-07-25T12:24:46Z</time>
      </trkpt>
      <trkpt lat="44.93739" lon="6.24634">
        <ele>1637.6</ele>
        <time>2023-07-25T12:24:53Z</time>
      </trkpt>
      <trkpt lat="44.93739" lon="6.24632">
        <ele>1639.2</ele>
        <time>2023-07-25T12:24:59Z</time>
      </trkpt>
      <trkpt lat="44.93738" lon="6.24633">
        <ele>1638.1</ele>
        <time>2023-07-25T12:25:08Z</time>
      </trkpt>
      <trkpt lat="44.93738" lon="6.24632">
        <ele>1638.3</ele>
        <time>2023-07-25T12:25:09Z</time>
      </trkpt>
      <trkpt lat="44.93738" lon="6.24633">
        <ele>1637.3</ele>
        <time>2023-07-25T12:26:23Z</time>
      </trkpt>
      <trkpt lat="44.93738" lon="6.24633">
        <ele>1637.4</ele>
        <time>2023-07-25T12:26:26Z</time>
      </trkpt>
      <trkpt lat="44.93739" lon="6.24635">
        <ele>1637.9</ele>
        <time>2023-07-25T12:27:28Z</time>
      </trkpt>
      <trkpt lat="44.93739" lon="6.24635">
        <ele>1637.5</ele>
        <time>2023-07-25T12:27:32Z</time>
      </trkpt>
      <trkpt lat="44.93739" lon="6.24635">
        <ele>1637.4</ele>
        <time>2023-07-25T12:28:38Z</time>
      </trkpt>
      <trkpt lat="44.93739" lon="6.24635">
        <ele>1637.4</ele>
        <time>2023-07-25T12:28:39Z</time>
      </trkpt>
      <trkpt lat="44.93737" lon="6.24641">
        <ele>1638.4</ele>
        <time>2023-07-25T12:30:44Z</time>
      </trkpt>
      <trkpt lat="44.93736" lon="6.24641">
        <ele>1640.7</ele>
        <time>2023-07-25T12:30:50Z</time>
      </trkpt>
      <trkpt lat="44.93738" lon="6.24645">
        <ele>1641.2</ele>
        <time>2023-07-25T12:31:06Z</time>
      </trkpt>
      <trkpt lat="44.93739" lon="6.24651">
        <ele>1639.7</ele>
        <time>2023-07-25T12:31:13Z</time>
      </trkpt>
      <trkpt lat="44.93742" lon="6.24658">
        <ele>1639.5</ele>
        <time>2023-07-25T12:31:20Z</time>
      </trkpt>
      <trkpt lat="44.93743" lon="6.24663">
        <ele>1641.6</ele>
        <time>2023-07-25T12:31:27Z</time>
      </trkpt>
      <trkpt lat="44.93744" lon="6.24672">
        <ele>1641.9</ele>
        <time>2023-07-25T12:31:34Z</time>
      </trkpt>
      <trkpt lat="44.93743" lon="6.24679">
        <ele>1642.7</ele>
        <time>2023-07-25T12:31:41Z</time>
      </trkpt>
      <trkpt lat="44.93741" lon="6.24687">
        <ele>1642.9</ele>
        <time>2023-07-25T12:31:48Z</time>
      </trkpt>
      <trkpt lat="44.93739" lon="6.24696">
        <ele>1644.3</ele>
        <time>2023-07-25T12:31:55Z</time>
      </trkpt>
      <trkpt lat="44.93739" lon="6.24701">
        <ele>1641.6</ele>
        <time>2023-07-25T12:32:02Z</time>
      </trkpt>
      <trkpt lat="44.93739" lon="6.24705">
        <ele>1643.2</ele>
        <time>2023-07-25T12:32:09Z</time>
      </trkpt>
      <trkpt lat="44.93741" lon="6.24711">
        <ele>1641.2</ele>
        <time>2023-07-25T12:32:16Z</time>
      </trkpt>
      <trkpt lat="44.93741" lon="6.24718">
        <ele>1638.4</ele>
        <time>2023-07-25T12:32:23Z</time>
      </trkpt>
      <trkpt lat="44.93739" lon="6.24725">
        <ele>1642.6</ele>
        <time>2023-07-25T12:32:30Z</time>
      </trkpt>
      <trkpt lat="44.93733" lon="6.24729">
        <ele>1643.3</ele>
        <time>2023-07-25T12:32:37Z</time>
      </trkpt>
      <trkpt lat="44.93728" lon="6.24732">
        <ele>1641.7</ele>
        <time>2023-07-25T12:32:44Z</time>
      </trkpt>
      <trkpt lat="44.9373" lon="6.24743">
        <ele>1639.8</ele>
        <time>2023-07-25T12:32:51Z</time>
      </trkpt>
      <trkpt lat="44.93733" lon="6.24752">
        <ele>1643.4</ele>
        <time>2023-07-25T12:32:57Z</time>
      </trkpt>
      <trkpt lat="44.93735" lon="6.24763">
        <ele>1644</ele>
        <time>2023-07-25T12:33:04Z</time>
      </trkpt>
      <trkpt lat="44.93737" lon="6.24775">
        <ele>1643.7</ele>
        <time>2023-07-25T12:33:08Z</time>
      </trkpt>
      <trkpt lat="44.93732" lon="6.2478">
        <ele>1644.6</ele>
        <time>2023-07-25T12:33:15Z</time>
      </trkpt>
      <trkpt lat="44.93728" lon="6.24783">
        <ele>1643.8</ele>
        <time>2023-07-25T12:33:22Z</time>
      </trkpt>
      <trkpt lat="44.93723" lon="6.24789">
        <ele>1644.2</ele>
        <time>2023-07-25T12:33:29Z</time>
      </trkpt>
      <trkpt lat="44.93719" lon="6.24797">
        <ele>1639</ele>
        <time>2023-07-25T12:33:36Z</time>
      </trkpt>
      <trkpt lat="44.93716" lon="6.24805">
        <ele>1637.9</ele>
        <time>2023-07-25T12:33:43Z</time>
      </trkpt>
      <trkpt lat="44.93713" lon="6.24811">
        <ele>1641</ele>
        <time>2023-07-25T12:33:50Z</time>
      </trkpt>
      <trkpt lat="44.93709" lon="6.24816">
        <ele>1639.9</ele>
        <time>2023-07-25T12:33:57Z</time>
      </trkpt>
      <trkpt lat="44.93703" lon="6.24823">
        <ele>1642</ele>
        <time>2023-07-25T12:34:04Z</time>
      </trkpt>
      <trkpt lat="44.93701" lon="6.24829">
        <ele>1642.5</ele>
        <time>2023-07-25T12:34:11Z</time>
      </trkpt>
      <trkpt lat="44.93697" lon="6.24836">
        <ele>1640.9</ele>
        <time>2023-07-25T12:34:18Z</time>
      </trkpt>
      <trkpt lat="44.93694" lon="6.24846">
        <ele>1641.3</ele>
        <time>2023-07-25T12:34:24Z</time>
      </trkpt>
      <trkpt lat="44.9369" lon="6.24854">
        <ele>1643.9</ele>
        <time>2023-07-25T12:34:31Z</time>
      </trkpt>
      <trkpt lat="44.9369" lon="6.24863">
        <ele>1645.7</ele>
        <time>2023-07-25T12:34:38Z</time>
      </trkpt>
      <trkpt lat="44.93689" lon="6.24871">
        <ele>1646</ele>
        <time>2023-07-25T12:34:45Z</time>
      </trkpt>
      <trkpt lat="44.93687" lon="6.24879">
        <ele>1648.7</ele>
        <time>2023-07-25T12:34:52Z</time>
      </trkpt>
      <trkpt lat="44.93685" lon="6.24888">
        <ele>1649.5</ele>
        <time>2023-07-25T12:34:59Z</time>
      </trkpt>
      <trkpt lat="44.93683" lon="6.24897">
        <ele>1646.2</ele>
        <time>2023-07-25T12:35:06Z</time>
      </trkpt>
      <trkpt lat="44.93682" lon="6.24905">
        <ele>1647.5</ele>
        <time>2023-07-25T12:35:13Z</time>
      </trkpt>
      <trkpt lat="44.93681" lon="6.24912">
        <ele>1645.4</ele>
        <time>2023-07-25T12:35:20Z</time>
      </trkpt>
      <trkpt lat="44.93685" lon="6.24921">
        <ele>1648.9</ele>
        <time>2023-07-25T12:35:27Z</time>
      </trkpt>
      <trkpt lat="44.93686" lon="6.24929">
        <ele>1647.9</ele>
        <time>2023-07-25T12:35:34Z</time>
      </trkpt>
      <trkpt lat="44.93686" lon="6.24936">
        <ele>1648.2</ele>
        <time>2023-07-25T12:35:41Z</time>
      </trkpt>
      <trkpt lat="44.93686" lon="6.24941">
        <ele>1650.1</ele>
        <time>2023-07-25T12:35:48Z</time>
      </trkpt>
      <trkpt lat="44.93682" lon="6.24947">
        <ele>1650.6</ele>
        <time>2023-07-25T12:35:55Z</time>
      </trkpt>
      <trkpt lat="44.93682" lon="6.24956">
        <ele>1648.7</ele>
        <time>2023-07-25T12:36:02Z</time>
      </trkpt>
      <trkpt lat="44.93677" lon="6.24965">
        <ele>1648.3</ele>
        <time>2023-07-25T12:36:09Z</time>
      </trkpt>
      <trkpt lat="44.93677" lon="6.24975">
        <ele>1644.3</ele>
        <time>2023-07-25T12:36:16Z</time>
      </trkpt>
      <trkpt lat="44.93679" lon="6.24987">
        <ele>1647.7</ele>
        <time>2023-07-25T12:36:22Z</time>
      </trkpt>
      <trkpt lat="44.93678" lon="6.24997">
        <ele>1647.8</ele>
        <time>2023-07-25T12:36:29Z</time>
      </trkpt>
      <trkpt lat="44.93677" lon="6.25008">
        <ele>1647.3</ele>
        <time>2023-07-25T12:36:36Z</time>
      </trkpt>
      <trkpt lat="44.93678" lon="6.25017">
        <ele>1645.6</ele>
        <time>2023-07-25T12:36:43Z</time>
      </trkpt>
      <trkpt lat="44.93681" lon="6.25021">
        <ele>1642.6</ele>
        <time>2023-07-25T12:36:50Z</time>
      </trkpt>
      <trkpt lat="44.93683" lon="6.2502">
        <ele>1641.6</ele>
        <time>2023-07-25T12:36:57Z</time>
      </trkpt>
      <trkpt lat="44.93683" lon="6.2502">
        <ele>1641.6</ele>
        <time>2023-07-25T12:36:59Z</time>
      </trkpt>
      <trkpt lat="44.93686" lon="6.2502">
        <ele>1641.5</ele>
        <time>2023-07-25T12:37:19Z</time>
      </trkpt>
      <trkpt lat="44.93686" lon="6.25019">
        <ele>1641.5</ele>
        <time>2023-07-25T12:37:20Z</time>
      </trkpt>
      <trkpt lat="44.9369" lon="6.25029">
        <ele>1638.2</ele>
        <time>2023-07-25T12:37:29Z</time>
      </trkpt>
      <trkpt lat="44.93693" lon="6.25036">
        <ele>1634.7</ele>
        <time>2023-07-25T12:37:36Z</time>
      </trkpt>
      <trkpt lat="44.93693" lon="6.25047">
        <ele>1633.1</ele>
        <time>2023-07-25T12:37:42Z</time>
      </trkpt>
      <trkpt lat="44.93693" lon="6.25057">
        <ele>1634.6</ele>
        <time>2023-07-25T12:37:48Z</time>
      </trkpt>
      <trkpt lat="44.93692" lon="6.25066">
        <ele>1631.6</ele>
        <time>2023-07-25T12:37:55Z</time>
      </trkpt>
      <trkpt lat="44.93691" lon="6.25074">
        <ele>1630.8</ele>
        <time>2023-07-25T12:38:02Z</time>
      </trkpt>
      <trkpt lat="44.93691" lon="6.2508">
        <ele>1631.2</ele>
        <time>2023-07-25T12:38:09Z</time>
      </trkpt>
      <trkpt lat="44.93691" lon="6.2509">
        <ele>1633.6</ele>
        <time>2023-07-25T12:38:16Z</time>
      </trkpt>
      <trkpt lat="44.9369" lon="6.25099">
        <ele>1633.5</ele>
        <time>2023-07-25T12:38:23Z</time>
      </trkpt>
      <trkpt lat="44.9369" lon="6.25111">
        <ele>1636.3</ele>
        <time>2023-07-25T12:38:30Z</time>
      </trkpt>
      <trkpt lat="44.93688" lon="6.25121">
        <ele>1637.6</ele>
        <time>2023-07-25T12:38:36Z</time>
      </trkpt>
      <trkpt lat="44.93688" lon="6.25133">
        <ele>1637.1</ele>
        <time>2023-07-25T12:38:42Z</time>
      </trkpt>
      <trkpt lat="44.9369" lon="6.25144">
        <ele>1637.1</ele>
        <time>2023-07-25T12:38:49Z</time>
      </trkpt>
      <trkpt lat="44.93693" lon="6.25153">
        <ele>1636.3</ele>
        <time>2023-07-25T12:38:55Z</time>
      </trkpt>
      <trkpt lat="44.93696" lon="6.25163">
        <ele>1636.5</ele>
        <time>2023-07-25T12:39:00Z</time>
      </trkpt>
      <trkpt lat="44.937" lon="6.25173">
        <ele>1638.6</ele>
        <time>2023-07-25T12:39:07Z</time>
      </trkpt>
      <trkpt lat="44.93703" lon="6.25181">
        <ele>1639.3</ele>
        <time>2023-07-25T12:39:14Z</time>
      </trkpt>
      <trkpt lat="44.93706" lon="6.25188">
        <ele>1639.2</ele>
        <time>2023-07-25T12:39:21Z</time>
      </trkpt>
      <trkpt lat="44.93708" lon="6.25193">
        <ele>1639.8</ele>
        <time>2023-07-25T12:39:28Z</time>
      </trkpt>
      <trkpt lat="44.93712" lon="6.25198">
        <ele>1640.5</ele>
        <time>2023-07-25T12:39:35Z</time>
      </trkpt>
      <trkpt lat="44.93714" lon="6.25203">
        <ele>1640.9</ele>
        <time>2023-07-25T12:39:42Z</time>
      </trkpt>
      <trkpt lat="44.93712" lon="6.2521">
        <ele>1639.5</ele>
        <time>2023-07-25T12:39:49Z</time>
      </trkpt>
      <trkpt lat="44.93713" lon="6.25221">
        <ele>1641.3</ele>
        <time>2023-07-25T12:39:56Z</time>
      </trkpt>
      <trkpt lat="44.93713" lon="6.25229">
        <ele>1639.3</ele>
        <time>2023-07-25T12:40:03Z</time>
      </trkpt>
      <trkpt lat="44.93713" lon="6.25239">
        <ele>1638.3</ele>
        <time>2023-07-25T12:40:10Z</time>
      </trkpt>
      <trkpt lat="44.93714" lon="6.25249">
        <ele>1639.4</ele>
        <time>2023-07-25T12:40:17Z</time>
      </trkpt>
      <trkpt lat="44.93711" lon="6.25252">
        <ele>1641.6</ele>
        <time>2023-07-25T12:40:24Z</time>
      </trkpt>
      <trkpt lat="44.93711" lon="6.25254">
        <ele>1640.2</ele>
        <time>2023-07-25T12:40:28Z</time>
      </trkpt>
      <trkpt lat="44.93712" lon="6.25263">
        <ele>1638.2</ele>
        <time>2023-07-25T12:40:36Z</time>
      </trkpt>
      <trkpt lat="44.93712" lon="6.25272">
        <ele>1636.7</ele>
        <time>2023-07-25T12:40:43Z</time>
      </trkpt>
      <trkpt lat="44.93714" lon="6.25278">
        <ele>1634.9</ele>
        <time>2023-07-25T12:40:50Z</time>
      </trkpt>
      <trkpt lat="44.93713" lon="6.25281">
        <ele>1638.8</ele>
        <time>2023-07-25T12:40:57Z</time>
      </trkpt>
      <trkpt lat="44.93713" lon="6.25281">
        <ele>1637.8</ele>
        <time>2023-07-25T12:41:00Z</time>
      </trkpt>
      <trkpt lat="44.93712" lon="6.25282">
        <ele>1640</ele>
        <time>2023-07-25T12:41:14Z</time>
      </trkpt>
      <trkpt lat="44.93712" lon="6.25282">
        <ele>1639.4</ele>
        <time>2023-07-25T12:41:15Z</time>
      </trkpt>
      <trkpt lat="44.93711" lon="6.25283">
        <ele>1639.6</ele>
        <time>2023-07-25T12:41:38Z</time>
      </trkpt>
      <trkpt lat="44.93711" lon="6.25283">
        <ele>1639.7</ele>
        <time>2023-07-25T12:41:39Z</time>
      </trkpt>
      <trkpt lat="44.93712" lon="6.25286">
        <ele>1642.1</ele>
        <time>2023-07-25T12:42:12Z</time>
      </trkpt>
      <trkpt lat="44.93708" lon="6.25292">
        <ele>1646.3</ele>
        <time>2023-07-25T12:42:19Z</time>
      </trkpt>
      <trkpt lat="44.9371" lon="6.25301">
        <ele>1644.7</ele>
        <time>2023-07-25T12:42:26Z</time>
      </trkpt>
      <trkpt lat="44.9371" lon="6.2531">
        <ele>1647.8</ele>
        <time>2023-07-25T12:42:33Z</time>
      </trkpt>
      <trkpt lat="44.9371" lon="6.25318">
        <ele>1644.4</ele>
        <time>2023-07-25T12:42:40Z</time>
      </trkpt>
      <trkpt lat="44.93709" lon="6.25329">
        <ele>1643.3</ele>
        <time>2023-07-25T12:42:47Z</time>
      </trkpt>
      <trkpt lat="44.93705" lon="6.25337">
        <ele>1640.8</ele>
        <time>2023-07-25T12:42:54Z</time>
      </trkpt>
      <trkpt lat="44.93704" lon="6.25345">
        <ele>1636.3</ele>
        <time>2023-07-25T12:43:01Z</time>
      </trkpt>
      <trkpt lat="44.93703" lon="6.25357">
        <ele>1634</ele>
        <time>2023-07-25T12:43:08Z</time>
      </trkpt>
      <trkpt lat="44.93703" lon="6.25366">
        <ele>1634.9</ele>
        <time>2023-07-25T12:43:15Z</time>
      </trkpt>
      <trkpt lat="44.93704" lon="6.25375">
        <ele>1638.9</ele>
        <time>2023-07-25T12:43:22Z</time>
      </trkpt>
      <trkpt lat="44.93703" lon="6.25385">
        <ele>1638.9</ele>
        <time>2023-07-25T12:43:29Z</time>
      </trkpt>
      <trkpt lat="44.93703" lon="6.25392">
        <ele>1637.7</ele>
        <time>2023-07-25T12:43:36Z</time>
      </trkpt>
      <trkpt lat="44.93701" lon="6.25398">
        <ele>1635.1</ele>
        <time>2023-07-25T12:43:43Z</time>
      </trkpt>
      <trkpt lat="44.93701" lon="6.25398">
        <ele>1637.1</ele>
        <time>2023-07-25T12:43:50Z</time>
      </trkpt>
      <trkpt lat="44.93701" lon="6.25398">
        <ele>1638</ele>
        <time>2023-07-25T12:43:52Z</time>
      </trkpt>
      <trkpt lat="44.93703" lon="6.25394">
        <ele>1637.5</ele>
        <time>2023-07-25T12:44:13Z</time>
      </trkpt>
      <trkpt lat="44.93703" lon="6.25394">
        <ele>1637.4</ele>
        <time>2023-07-25T12:44:18Z</time>
      </trkpt>
      <trkpt lat="44.93701" lon="6.25404">
        <ele>1639.5</ele>
        <time>2023-07-25T12:44:37Z</time>
      </trkpt>
      <trkpt lat="44.93699" lon="6.25414">
        <ele>1641.9</ele>
        <time>2023-07-25T12:44:44Z</time>
      </trkpt>
      <trkpt lat="44.93695" lon="6.2542">
        <ele>1642.3</ele>
        <time>2023-07-25T12:44:51Z</time>
      </trkpt>
      <trkpt lat="44.93691" lon="6.25426">
        <ele>1638.4</ele>
        <time>2023-07-25T12:44:58Z</time>
      </trkpt>
      <trkpt lat="44.9369" lon="6.25431">
        <ele>1640.4</ele>
        <time>2023-07-25T12:45:05Z</time>
      </trkpt>
      <trkpt lat="44.9369" lon="6.25438">
        <ele>1640.4</ele>
        <time>2023-07-25T12:45:12Z</time>
      </trkpt>
      <trkpt lat="44.93689" lon="6.25449">
        <ele>1635.4</ele>
        <time>2023-07-25T12:45:19Z</time>
      </trkpt>
      <trkpt lat="44.93686" lon="6.25458">
        <ele>1637.4</ele>
        <time>2023-07-25T12:45:26Z</time>
      </trkpt>
      <trkpt lat="44.93685" lon="6.25467">
        <ele>1639.9</ele>
        <time>2023-07-25T12:45:33Z</time>
      </trkpt>
      <trkpt lat="44.93681" lon="6.25477">
        <ele>1639.8</ele>
        <time>2023-07-25T12:45:40Z</time>
      </trkpt>
      <trkpt lat="44.93676" lon="6.25486">
        <ele>1640.9</ele>
        <time>2023-07-25T12:45:47Z</time>
      </trkpt>
      <trkpt lat="44.93676" lon="6.25496">
        <ele>1640.6</ele>
        <time>2023-07-25T12:45:53Z</time>
      </trkpt>
      <trkpt lat="44.93672" lon="6.25506">
        <ele>1644.1</ele>
        <time>2023-07-25T12:46:00Z</time>
      </trkpt>
      <trkpt lat="44.93671" lon="6.25513">
        <ele>1643.9</ele>
        <time>2023-07-25T12:46:07Z</time>
      </trkpt>
      <trkpt lat="44.93669" lon="6.25524">
        <ele>1647.1</ele>
        <time>2023-07-25T12:46:14Z</time>
      </trkpt>
      <trkpt lat="44.93667" lon="6.25534">
        <ele>1647.6</ele>
        <time>2023-07-25T12:46:21Z</time>
      </trkpt>
      <trkpt lat="44.93662" lon="6.25539">
        <ele>1650.4</ele>
        <time>2023-07-25T12:46:28Z</time>
      </trkpt>
      <trkpt lat="44.93659" lon="6.25546">
        <ele>1653.6</ele>
        <time>2023-07-25T12:46:35Z</time>
      </trkpt>
      <trkpt lat="44.93654" lon="6.25554">
        <ele>1652.1</ele>
        <time>2023-07-25T12:46:42Z</time>
      </trkpt>
      <trkpt lat="44.93648" lon="6.25561">
        <ele>1649</ele>
        <time>2023-07-25T12:46:49Z</time>
      </trkpt>
      <trkpt lat="44.93644" lon="6.25571">
        <ele>1648.3</ele>
        <time>2023-07-25T12:46:56Z</time>
      </trkpt>
      <trkpt lat="44.93641" lon="6.25577">
        <ele>1645.7</ele>
        <time>2023-07-25T12:47:03Z</time>
      </trkpt>
      <trkpt lat="44.93636" lon="6.25582">
        <ele>1648.9</ele>
        <time>2023-07-25T12:47:10Z</time>
      </trkpt>
      <trkpt lat="44.93635" lon="6.25582">
        <ele>1649.6</ele>
        <time>2023-07-25T12:47:17Z</time>
      </trkpt>
      <trkpt lat="44.93634" lon="6.25582">
        <ele>1652.1</ele>
        <time>2023-07-25T12:47:25Z</time>
      </trkpt>
      <trkpt lat="44.93634" lon="6.25582">
        <ele>1652.5</ele>
        <time>2023-07-25T12:47:27Z</time>
      </trkpt>
      <trkpt lat="44.93635" lon="6.25582">
        <ele>1648.9</ele>
        <time>2023-07-25T12:47:35Z</time>
      </trkpt>
      <trkpt lat="44.93635" lon="6.25584">
        <ele>1651.6</ele>
        <time>2023-07-25T12:47:42Z</time>
      </trkpt>
      <trkpt lat="44.93635" lon="6.25584">
        <ele>1651.4</ele>
        <time>2023-07-25T12:47:44Z</time>
      </trkpt>
      <trkpt lat="44.93634" lon="6.25583">
        <ele>1650</ele>
        <time>2023-07-25T12:47:52Z</time>
      </trkpt>
      <trkpt lat="44.93634" lon="6.25583">
        <ele>1649.6</ele>
        <time>2023-07-25T12:47:53Z</time>
      </trkpt>
      <trkpt lat="44.93634" lon="6.2559">
        <ele>1647.9</ele>
        <time>2023-07-25T12:48:15Z</time>
      </trkpt>
      <trkpt lat="44.9363" lon="6.25597">
        <ele>1647.8</ele>
        <time>2023-07-25T12:48:22Z</time>
      </trkpt>
      <trkpt lat="44.93631" lon="6.25608">
        <ele>1645.7</ele>
        <time>2023-07-25T13:11:40Z</time>
      </trkpt>
      <trkpt lat="44.93627" lon="6.25614">
        <ele>1643.4</ele>
        <time>2023-07-25T13:11:47Z</time>
      </trkpt>
      <trkpt lat="44.93624" lon="6.25622">
        <ele>1643.3</ele>
        <time>2023-07-25T13:11:54Z</time>
      </trkpt>
      <trkpt lat="44.93624" lon="6.25632">
        <ele>1640.5</ele>
        <time>2023-07-25T13:12:01Z</time>
      </trkpt>
      <trkpt lat="44.93625" lon="6.25643">
        <ele>1640.1</ele>
        <time>2023-07-25T13:12:08Z</time>
      </trkpt>
      <trkpt lat="44.93625" lon="6.25651">
        <ele>1640.7</ele>
        <time>2023-07-25T13:12:15Z</time>
      </trkpt>
      <trkpt lat="44.93623" lon="6.25658">
        <ele>1638.2</ele>
        <time>2023-07-25T13:12:22Z</time>
      </trkpt>
      <trkpt lat="44.93621" lon="6.25668">
        <ele>1639.9</ele>
        <time>2023-07-25T13:12:29Z</time>
      </trkpt>
      <trkpt lat="44.93624" lon="6.25674">
        <ele>1639.4</ele>
        <time>2023-07-25T13:12:36Z</time>
      </trkpt>
      <trkpt lat="44.93624" lon="6.25681">
        <ele>1640.4</ele>
        <time>2023-07-25T13:12:43Z</time>
      </trkpt>
      <trkpt lat="44.93622" lon="6.25688">
        <ele>1637.8</ele>
        <time>2023-07-25T13:12:50Z</time>
      </trkpt>
      <trkpt lat="44.93621" lon="6.25697">
        <ele>1638.3</ele>
        <time>2023-07-25T13:12:57Z</time>
      </trkpt>
      <trkpt lat="44.93613" lon="6.25699">
        <ele>1639.3</ele>
        <time>2023-07-25T13:13:03Z</time>
      </trkpt>
      <trkpt lat="44.93605" lon="6.25698">
        <ele>1640.2</ele>
        <time>2023-07-25T13:13:10Z</time>
      </trkpt>
      <trkpt lat="44.93599" lon="6.25698">
        <ele>1645.2</ele>
        <time>2023-07-25T13:13:17Z</time>
      </trkpt>
      <trkpt lat="44.93595" lon="6.25701">
        <ele>1646.8</ele>
        <time>2023-07-25T13:13:24Z</time>
      </trkpt>
      <trkpt lat="44.93589" lon="6.25697">
        <ele>1647.6</ele>
        <time>2023-07-25T13:13:31Z</time>
      </trkpt>
      <trkpt lat="44.93586" lon="6.25702">
        <ele>1649.4</ele>
        <time>2023-07-25T13:13:38Z</time>
      </trkpt>
      <trkpt lat="44.93584" lon="6.25704">
        <ele>1653</ele>
        <time>2023-07-25T13:13:45Z</time>
      </trkpt>
      <trkpt lat="44.93583" lon="6.25704">
        <ele>1650.7</ele>
        <time>2023-07-25T13:13:48Z</time>
      </trkpt>
      <trkpt lat="44.9358" lon="6.25711">
        <ele>1648.9</ele>
        <time>2023-07-25T13:13:57Z</time>
      </trkpt>
      <trkpt lat="44.93579" lon="6.25713">
        <ele>1646.2</ele>
        <time>2023-07-25T13:14:04Z</time>
      </trkpt>
      <trkpt lat="44.93579" lon="6.25722">
        <ele>1641.1</ele>
        <time>2023-07-25T13:14:11Z</time>
      </trkpt>
      <trkpt lat="44.93582" lon="6.25732">
        <ele>1644.5</ele>
        <time>2023-07-25T13:14:17Z</time>
      </trkpt>
      <trkpt lat="44.93582" lon="6.25742">
        <ele>1644.6</ele>
        <time>2023-07-25T13:14:24Z</time>
      </trkpt>
      <trkpt lat="44.93583" lon="6.25752">
        <ele>1646.6</ele>
        <time>2023-07-25T13:14:31Z</time>
      </trkpt>
      <trkpt lat="44.93579" lon="6.25756">
        <ele>1649.2</ele>
        <time>2023-07-25T13:14:38Z</time>
      </trkpt>
      <trkpt lat="44.93577" lon="6.25763">
        <ele>1650.5</ele>
        <time>2023-07-25T13:14:45Z</time>
      </trkpt>
      <trkpt lat="44.93577" lon="6.25769">
        <ele>1652</ele>
        <time>2023-07-25T13:14:52Z</time>
      </trkpt>
      <trkpt lat="44.93576" lon="6.25771">
        <ele>1651.5</ele>
        <time>2023-07-25T13:14:59Z</time>
      </trkpt>
      <trkpt lat="44.93576" lon="6.25771">
        <ele>1651.6</ele>
        <time>2023-07-25T13:15:02Z</time>
      </trkpt>
      <trkpt lat="44.93571" lon="6.25776">
        <ele>1657.6</ele>
        <time>2023-07-25T13:15:14Z</time>
      </trkpt>
      <trkpt lat="44.93565" lon="6.25778">
        <ele>1661.6</ele>
        <time>2023-07-25T13:15:21Z</time>
      </trkpt>
      <trkpt lat="44.93562" lon="6.25782">
        <ele>1658.8</ele>
        <time>2023-07-25T13:15:28Z</time>
      </trkpt>
      <trkpt lat="44.93557" lon="6.25785">
        <ele>1655.6</ele>
        <time>2023-07-25T13:15:35Z</time>
      </trkpt>
      <trkpt lat="44.93558" lon="6.25795">
        <ele>1656.9</ele>
        <time>2023-07-25T13:15:42Z</time>
      </trkpt>
      <trkpt lat="44.93562" lon="6.25804">
        <ele>1656.5</ele>
        <time>2023-07-25T13:15:48Z</time>
      </trkpt>
      <trkpt lat="44.93564" lon="6.25811">
        <ele>1662</ele>
        <time>2023-07-25T13:15:55Z</time>
      </trkpt>
      <trkpt lat="44.93565" lon="6.25818">
        <ele>1659.9</ele>
        <time>2023-07-25T13:16:02Z</time>
      </trkpt>
      <trkpt lat="44.93562" lon="6.25825">
        <ele>1657.8</ele>
        <time>2023-07-25T13:16:09Z</time>
      </trkpt>
      <trkpt lat="44.93567" lon="6.25829">
        <ele>1657.8</ele>
        <time>2023-07-25T13:16:16Z</time>
      </trkpt>
      <trkpt lat="44.93569" lon="6.25831">
        <ele>1657.8</ele>
        <time>2023-07-25T13:16:23Z</time>
      </trkpt>
      <trkpt lat="44.9357" lon="6.25831">
        <ele>1657.8</ele>
        <time>2023-07-25T13:16:25Z</time>
      </trkpt>
      <trkpt lat="44.93565" lon="6.25841">
        <ele>1656.7</ele>
        <time>2023-07-25T13:16:50Z</time>
      </trkpt>
      <trkpt lat="44.93564" lon="6.25844">
        <ele>1657.4</ele>
        <time>2023-07-25T13:16:57Z</time>
      </trkpt>
      <trkpt lat="44.93562" lon="6.25845">
        <ele>1662.3</ele>
        <time>2023-07-25T13:17:04Z</time>
      </trkpt>
      <trkpt lat="44.93557" lon="6.25853">
        <ele>1660.5</ele>
        <time>2023-07-25T13:17:09Z</time>
      </trkpt>
      <trkpt lat="44.93555" lon="6.25862">
        <ele>1660.4</ele>
        <time>2023-07-25T13:17:16Z</time>
      </trkpt>
      <trkpt lat="44.93556" lon="6.25869">
        <ele>1660.3</ele>
        <time>2023-07-25T13:17:23Z</time>
      </trkpt>
      <trkpt lat="44.93556" lon="6.25877">
        <ele>1660.3</ele>
        <time>2023-07-25T13:17:30Z</time>
      </trkpt>
      <trkpt lat="44.93561" lon="6.2588">
        <ele>1660.2</ele>
        <time>2023-07-25T13:17:37Z</time>
      </trkpt>
      <trkpt lat="44.93565" lon="6.25881">
        <ele>1660.4</ele>
        <time>2023-07-25T13:17:44Z</time>
      </trkpt>
      <trkpt lat="44.93569" lon="6.25888">
        <ele>1660.4</ele>
        <time>2023-07-25T13:17:51Z</time>
      </trkpt>
      <trkpt lat="44.93574" lon="6.25897">
        <ele>1660.7</ele>
        <time>2023-07-25T13:17:58Z</time>
      </trkpt>
      <trkpt lat="44.93577" lon="6.25906">
        <ele>1660.7</ele>
        <time>2023-07-25T13:18:05Z</time>
      </trkpt>
      <trkpt lat="44.93578" lon="6.25915">
        <ele>1661</ele>
        <time>2023-07-25T13:18:12Z</time>
      </trkpt>
      <trkpt lat="44.9358" lon="6.25923">
        <ele>1660.9</ele>
        <time>2023-07-25T13:18:19Z</time>
      </trkpt>
      <trkpt lat="44.93583" lon="6.25931">
        <ele>1661.1</ele>
        <time>2023-07-25T13:18:26Z</time>
      </trkpt>
      <trkpt lat="44.93576" lon="6.25935">
        <ele>1655.1</ele>
        <time>2023-07-25T13:18:30Z</time>
      </trkpt>
      <trkpt lat="44.93575" lon="6.25938">
        <ele>1650.6</ele>
        <time>2023-07-25T13:18:37Z</time>
      </trkpt>
      <trkpt lat="44.93574" lon="6.25943">
        <ele>1649.1</ele>
        <time>2023-07-25T13:18:44Z</time>
      </trkpt>
      <trkpt lat="44.93572" lon="6.25948">
        <ele>1650.5</ele>
        <time>2023-07-25T13:18:51Z</time>
      </trkpt>
      <trkpt lat="44.93572" lon="6.25952">
        <ele>1653.3</ele>
        <time>2023-07-25T13:18:58Z</time>
      </trkpt>
      <trkpt lat="44.93576" lon="6.2596">
        <ele>1652.7</ele>
        <time>2023-07-25T13:19:05Z</time>
      </trkpt>
      <trkpt lat="44.93575" lon="6.2597">
        <ele>1648.7</ele>
        <time>2023-07-25T13:19:12Z</time>
      </trkpt>
      <trkpt lat="44.93575" lon="6.25979">
        <ele>1649.9</ele>
        <time>2023-07-25T13:19:19Z</time>
      </trkpt>
      <trkpt lat="44.93576" lon="6.25987">
        <ele>1648.6</ele>
        <time>2023-07-25T13:19:26Z</time>
      </trkpt>
      <trkpt lat="44.93574" lon="6.25991">
        <ele>1650</ele>
        <time>2023-07-25T13:19:33Z</time>
      </trkpt>
      <trkpt lat="44.93568" lon="6.25995">
        <ele>1650.5</ele>
        <time>2023-07-25T13:19:40Z</time>
      </trkpt>
      <trkpt lat="44.93565" lon="6.26">
        <ele>1650.5</ele>
        <time>2023-07-25T13:19:47Z</time>
      </trkpt>
      <trkpt lat="44.93563" lon="6.26008">
        <ele>1648.7</ele>
        <time>2023-07-25T13:19:54Z</time>
      </trkpt>
      <trkpt lat="44.9356" lon="6.26016">
        <ele>1651.9</ele>
        <time>2023-07-25T13:20:01Z</time>
      </trkpt>
      <trkpt lat="44.93559" lon="6.2602">
        <ele>1656.3</ele>
        <time>2023-07-25T13:20:08Z</time>
      </trkpt>
      <trkpt lat="44.9356" lon="6.26024">
        <ele>1650.5</ele>
        <time>2023-07-25T13:20:15Z</time>
      </trkpt>
      <trkpt lat="44.9356" lon="6.26027">
        <ele>1650.4</ele>
        <time>2023-07-25T13:20:22Z</time>
      </trkpt>
      <trkpt lat="44.9356" lon="6.26027">
        <ele>1649</ele>
        <time>2023-07-25T13:20:27Z</time>
      </trkpt>
      <trkpt lat="44.93558" lon="6.26033">
        <ele>1648.6</ele>
        <time>2023-07-25T13:20:40Z</time>
      </trkpt>
      <trkpt lat="44.93553" lon="6.26039">
        <ele>1648.9</ele>
        <time>2023-07-25T13:20:47Z</time>
      </trkpt>
      <trkpt lat="44.93555" lon="6.26045">
        <ele>1652.5</ele>
        <time>2023-07-25T13:20:54Z</time>
      </trkpt>
      <trkpt lat="44.93554" lon="6.26054">
        <ele>1655.1</ele>
        <time>2023-07-25T13:21:01Z</time>
      </trkpt>
      <trkpt lat="44.93558" lon="6.26063">
        <ele>1650.7</ele>
        <time>2023-07-25T13:21:07Z</time>
      </trkpt>
      <trkpt lat="44.93558" lon="6.26074">
        <ele>1648.6</ele>
        <time>2023-07-25T13:21:14Z</time>
      </trkpt>
      <trkpt lat="44.93556" lon="6.26083">
        <ele>1649</ele>
        <time>2023-07-25T13:21:21Z</time>
      </trkpt>
      <trkpt lat="44.93555" lon="6.26091">
        <ele>1650.1</ele>
        <time>2023-07-25T13:21:28Z</time>
      </trkpt>
      <trkpt lat="44.93554" lon="6.261">
        <ele>1647.9</ele>
        <time>2023-07-25T13:21:35Z</time>
      </trkpt>
      <trkpt lat="44.93555" lon="6.26108">
        <ele>1649.8</ele>
        <time>2023-07-25T13:21:42Z</time>
      </trkpt>
      <trkpt lat="44.93554" lon="6.26115">
        <ele>1652.5</ele>
        <time>2023-07-25T13:21:49Z</time>
      </trkpt>
      <trkpt lat="44.93557" lon="6.26125">
        <ele>1652.4</ele>
        <time>2023-07-25T13:21:56Z</time>
      </trkpt>
      <trkpt lat="44.93554" lon="6.26134">
        <ele>1652.8</ele>
        <time>2023-07-25T13:22:03Z</time>
      </trkpt>
      <trkpt lat="44.93554" lon="6.26145">
        <ele>1654</ele>
        <time>2023-07-25T13:22:10Z</time>
      </trkpt>
      <trkpt lat="44.93556" lon="6.26157">
        <ele>1661.1</ele>
        <time>2023-07-25T13:22:17Z</time>
      </trkpt>
      <trkpt lat="44.93558" lon="6.26168">
        <ele>1662.7</ele>
        <time>2023-07-25T13:22:23Z</time>
      </trkpt>
      <trkpt lat="44.93561" lon="6.26179">
        <ele>1661.1</ele>
        <time>2023-07-25T13:22:30Z</time>
      </trkpt>
      <trkpt lat="44.93565" lon="6.26187">
        <ele>1661.5</ele>
        <time>2023-07-25T13:22:37Z</time>
      </trkpt>
      <trkpt lat="44.93565" lon="6.26192">
        <ele>1661.5</ele>
        <time>2023-07-25T13:22:44Z</time>
      </trkpt>
      <trkpt lat="44.93571" lon="6.262">
        <ele>1665.6</ele>
        <time>2023-07-25T13:22:51Z</time>
      </trkpt>
      <trkpt lat="44.93571" lon="6.26211">
        <ele>1665.4</ele>
        <time>2023-07-25T13:22:58Z</time>
      </trkpt>
      <trkpt lat="44.93575" lon="6.2622">
        <ele>1659.9</ele>
        <time>2023-07-25T13:23:05Z</time>
      </trkpt>
      <trkpt lat="44.93579" lon="6.26226">
        <ele>1662.5</ele>
        <time>2023-07-25T13:23:12Z</time>
      </trkpt>
      <trkpt lat="44.93584" lon="6.26234">
        <ele>1662.5</ele>
        <time>2023-07-25T13:23:18Z</time>
      </trkpt>
      <trkpt lat="44.93586" lon="6.26242">
        <ele>1659.2</ele>
        <time>2023-07-25T13:23:25Z</time>
      </trkpt>
      <trkpt lat="44.93585" lon="6.26247">
        <ele>1665.1</ele>
        <time>2023-07-25T13:23:32Z</time>
      </trkpt>
      <trkpt lat="44.9359" lon="6.26253">
        <ele>1658.4</ele>
        <time>2023-07-25T13:23:39Z</time>
      </trkpt>
      <trkpt lat="44.93596" lon="6.26259">
        <ele>1659.5</ele>
        <time>2023-07-25T13:23:46Z</time>
      </trkpt>
      <trkpt lat="44.936" lon="6.26267">
        <ele>1661.2</ele>
        <time>2023-07-25T13:23:53Z</time>
      </trkpt>
      <trkpt lat="44.93603" lon="6.26273">
        <ele>1658</ele>
        <time>2023-07-25T13:24:00Z</time>
      </trkpt>
      <trkpt lat="44.93603" lon="6.26283">
        <ele>1655.7</ele>
        <time>2023-07-25T13:24:07Z</time>
      </trkpt>
      <trkpt lat="44.93603" lon="6.26291">
        <ele>1658.2</ele>
        <time>2023-07-25T13:24:14Z</time>
      </trkpt>
      <trkpt lat="44.93601" lon="6.26301">
        <ele>1660.4</ele>
        <time>2023-07-25T13:24:21Z</time>
      </trkpt>
      <trkpt lat="44.93597" lon="6.26309">
        <ele>1663.5</ele>
        <time>2023-07-25T13:24:28Z</time>
      </trkpt>
      <trkpt lat="44.93595" lon="6.26314">
        <ele>1663.6</ele>
        <time>2023-07-25T13:24:35Z</time>
      </trkpt>
      <trkpt lat="44.93594" lon="6.26321">
        <ele>1666.6</ele>
        <time>2023-07-25T13:24:42Z</time>
      </trkpt>
      <trkpt lat="44.93594" lon="6.26329">
        <ele>1665.7</ele>
        <time>2023-07-25T13:24:49Z</time>
      </trkpt>
      <trkpt lat="44.93592" lon="6.26341">
        <ele>1664.6</ele>
        <time>2023-07-25T13:24:56Z</time>
      </trkpt>
      <trkpt lat="44.93587" lon="6.26347">
        <ele>1667.1</ele>
        <time>2023-07-25T13:25:03Z</time>
      </trkpt>
      <trkpt lat="44.93585" lon="6.26351">
        <ele>1670.4</ele>
        <time>2023-07-25T13:25:10Z</time>
      </trkpt>
      <trkpt lat="44.93584" lon="6.26359">
        <ele>1668.6</ele>
        <time>2023-07-25T13:25:17Z</time>
      </trkpt>
      <trkpt lat="44.93585" lon="6.26369">
        <ele>1666.7</ele>
        <time>2023-07-25T13:25:24Z</time>
      </trkpt>
      <trkpt lat="44.93584" lon="6.26378">
        <ele>1664.6</ele>
        <time>2023-07-25T13:25:31Z</time>
      </trkpt>
      <trkpt lat="44.93582" lon="6.26388">
        <ele>1667.6</ele>
        <time>2023-07-25T13:25:38Z</time>
      </trkpt>
      <trkpt lat="44.93586" lon="6.26398">
        <ele>1667.2</ele>
        <time>2023-07-25T13:25:45Z</time>
      </trkpt>
      <trkpt lat="44.93592" lon="6.26405">
        <ele>1665.4</ele>
        <time>2023-07-25T13:25:51Z</time>
      </trkpt>
      <trkpt lat="44.93595" lon="6.26411">
        <ele>1671.2</ele>
        <time>2023-07-25T13:25:58Z</time>
      </trkpt>
      <trkpt lat="44.93594" lon="6.26418">
        <ele>1672.2</ele>
        <time>2023-07-25T13:26:05Z</time>
      </trkpt>
      <trkpt lat="44.9359" lon="6.26421">
        <ele>1672.7</ele>
        <time>2023-07-25T13:26:12Z</time>
      </trkpt>
      <trkpt lat="44.93591" lon="6.26423">
        <ele>1678.3</ele>
        <time>2023-07-25T13:26:19Z</time>
      </trkpt>
      <trkpt lat="44.93592" lon="6.26426">
        <ele>1680.7</ele>
        <time>2023-07-25T13:26:26Z</time>
      </trkpt>
      <trkpt lat="44.93596" lon="6.26434">
        <ele>1675.8</ele>
        <time>2023-07-25T13:26:33Z</time>
      </trkpt>
      <trkpt lat="44.936" lon="6.26443">
        <ele>1677.2</ele>
        <time>2023-07-25T13:26:39Z</time>
      </trkpt>
      <trkpt lat="44.93603" lon="6.26453">
        <ele>1674.4</ele>
        <time>2023-07-25T13:26:46Z</time>
      </trkpt>
      <trkpt lat="44.93606" lon="6.26455">
        <ele>1673.9</ele>
        <time>2023-07-25T13:26:53Z</time>
      </trkpt>
      <trkpt lat="44.93609" lon="6.26465">
        <ele>1676.8</ele>
        <time>2023-07-25T13:27:00Z</time>
      </trkpt>
      <trkpt lat="44.9361" lon="6.26474">
        <ele>1675.5</ele>
        <time>2023-07-25T13:27:07Z</time>
      </trkpt>
      <trkpt lat="44.9361" lon="6.26479">
        <ele>1678.5</ele>
        <time>2023-07-25T13:27:14Z</time>
      </trkpt>
      <trkpt lat="44.93608" lon="6.26488">
        <ele>1676.7</ele>
        <time>2023-07-25T13:27:21Z</time>
      </trkpt>
      <trkpt lat="44.93605" lon="6.26493">
        <ele>1678.2</ele>
        <time>2023-07-25T13:27:28Z</time>
      </trkpt>
      <trkpt lat="44.93603" lon="6.26502">
        <ele>1678.5</ele>
        <time>2023-07-25T13:27:35Z</time>
      </trkpt>
      <trkpt lat="44.93598" lon="6.2651">
        <ele>1679.2</ele>
        <time>2023-07-25T13:27:42Z</time>
      </trkpt>
      <trkpt lat="44.93593" lon="6.26515">
        <ele>1679.4</ele>
        <time>2023-07-25T13:27:49Z</time>
      </trkpt>
      <trkpt lat="44.93587" lon="6.26524">
        <ele>1679.7</ele>
        <time>2023-07-25T13:27:56Z</time>
      </trkpt>
      <trkpt lat="44.93584" lon="6.26532">
        <ele>1677.6</ele>
        <time>2023-07-25T13:28:03Z</time>
      </trkpt>
      <trkpt lat="44.93582" lon="6.26541">
        <ele>1680.3</ele>
        <time>2023-07-25T13:28:10Z</time>
      </trkpt>
      <trkpt lat="44.93582" lon="6.26547">
        <ele>1679.2</ele>
        <time>2023-07-25T13:28:17Z</time>
      </trkpt>
      <trkpt lat="44.93585" lon="6.26557">
        <ele>1682.4</ele>
        <time>2023-07-25T13:28:23Z</time>
      </trkpt>
      <trkpt lat="44.93585" lon="6.26567">
        <ele>1677.6</ele>
        <time>2023-07-25T13:28:30Z</time>
      </trkpt>
      <trkpt lat="44.93585" lon="6.26578">
        <ele>1675.2</ele>
        <time>2023-07-25T13:28:37Z</time>
      </trkpt>
      <trkpt lat="44.93585" lon="6.26589">
        <ele>1674.3</ele>
        <time>2023-07-25T13:28:44Z</time>
      </trkpt>
      <trkpt lat="44.93584" lon="6.26598">
        <ele>1675</ele>
        <time>2023-07-25T13:28:51Z</time>
      </trkpt>
      <trkpt lat="44.93584" lon="6.26606">
        <ele>1673.4</ele>
        <time>2023-07-25T13:28:58Z</time>
      </trkpt>
      <trkpt lat="44.93584" lon="6.26615">
        <ele>1678.5</ele>
        <time>2023-07-25T13:29:05Z</time>
      </trkpt>
      <trkpt lat="44.93584" lon="6.26621">
        <ele>1679.2</ele>
        <time>2023-07-25T13:29:12Z</time>
      </trkpt>
      <trkpt lat="44.93583" lon="6.26627">
        <ele>1679.6</ele>
        <time>2023-07-25T13:29:19Z</time>
      </trkpt>
      <trkpt lat="44.9358" lon="6.26635">
        <ele>1680.4</ele>
        <time>2023-07-25T13:29:26Z</time>
      </trkpt>
      <trkpt lat="44.93579" lon="6.26642">
        <ele>1679.3</ele>
        <time>2023-07-25T13:29:33Z</time>
      </trkpt>
      <trkpt lat="44.9358" lon="6.26653">
        <ele>1675.8</ele>
        <time>2023-07-25T13:29:39Z</time>
      </trkpt>
      <trkpt lat="44.9358" lon="6.26663">
        <ele>1677.1</ele>
        <time>2023-07-25T13:29:46Z</time>
      </trkpt>
      <trkpt lat="44.9358" lon="6.26674">
        <ele>1677.6</ele>
        <time>2023-07-25T13:29:53Z</time>
      </trkpt>
      <trkpt lat="44.9358" lon="6.26681">
        <ele>1677.5</ele>
        <time>2023-07-25T13:30:00Z</time>
      </trkpt>
      <trkpt lat="44.93583" lon="6.2669">
        <ele>1673.8</ele>
        <time>2023-07-25T13:30:07Z</time>
      </trkpt>
      <trkpt lat="44.93582" lon="6.26701">
        <ele>1672.9</ele>
        <time>2023-07-25T13:30:14Z</time>
      </trkpt>
      <trkpt lat="44.93584" lon="6.26711">
        <ele>1674.1</ele>
        <time>2023-07-25T13:30:20Z</time>
      </trkpt>
      <trkpt lat="44.93587" lon="6.26722">
        <ele>1678.8</ele>
        <time>2023-07-25T13:30:27Z</time>
      </trkpt>
      <trkpt lat="44.93592" lon="6.26731">
        <ele>1677.2</ele>
        <time>2023-07-25T13:30:34Z</time>
      </trkpt>
      <trkpt lat="44.93595" lon="6.26741">
        <ele>1680.9</ele>
        <time>2023-07-25T13:30:40Z</time>
      </trkpt>
      <trkpt lat="44.93598" lon="6.26751">
        <ele>1682.2</ele>
        <time>2023-07-25T13:30:47Z</time>
      </trkpt>
      <trkpt lat="44.93602" lon="6.2676">
        <ele>1681.7</ele>
        <time>2023-07-25T13:30:54Z</time>
      </trkpt>
      <trkpt lat="44.93603" lon="6.26768">
        <ele>1683.9</ele>
        <time>2023-07-25T13:31:01Z</time>
      </trkpt>
      <trkpt lat="44.93607" lon="6.26777">
        <ele>1682.5</ele>
        <time>2023-07-25T13:31:08Z</time>
      </trkpt>
      <trkpt lat="44.9361" lon="6.26783">
        <ele>1682.4</ele>
        <time>2023-07-25T13:31:15Z</time>
      </trkpt>
      <trkpt lat="44.93609" lon="6.26789">
        <ele>1685.5</ele>
        <time>2023-07-25T13:31:22Z</time>
      </trkpt>
      <trkpt lat="44.93605" lon="6.26798">
        <ele>1682.7</ele>
        <time>2023-07-25T13:31:29Z</time>
      </trkpt>
      <trkpt lat="44.93603" lon="6.26802">
        <ele>1679.9</ele>
        <time>2023-07-25T13:31:36Z</time>
      </trkpt>
      <trkpt lat="44.93603" lon="6.26802">
        <ele>1678.6</ele>
        <time>2023-07-25T13:31:42Z</time>
      </trkpt>
      <trkpt lat="44.93604" lon="6.26808">
        <ele>1680.1</ele>
        <time>2023-07-25T13:32:54Z</time>
      </trkpt>
      <trkpt lat="44.93604" lon="6.26808">
        <ele>1680.5</ele>
        <time>2023-07-25T13:32:55Z</time>
      </trkpt>
      <trkpt lat="44.93603" lon="6.26808">
        <ele>1678.7</ele>
        <time>2023-07-25T13:33:05Z</time>
      </trkpt>
      <trkpt lat="44.93603" lon="6.26808">
        <ele>1678.6</ele>
        <time>2023-07-25T13:33:06Z</time>
      </trkpt>
      <trkpt lat="44.93605" lon="6.26807">
        <ele>1679</ele>
        <time>2023-07-25T13:34:07Z</time>
      </trkpt>
      <trkpt lat="44.93606" lon="6.26807">
        <ele>1678</ele>
        <time>2023-07-25T13:34:14Z</time>
      </trkpt>
      <trkpt lat="44.93605" lon="6.26802">
        <ele>1678.9</ele>
        <time>2023-07-25T13:37:09Z</time>
      </trkpt>
      <trkpt lat="44.93605" lon="6.26802">
        <ele>1678.9</ele>
        <time>2023-07-25T13:37:12Z</time>
      </trkpt>
      <trkpt lat="44.93606" lon="6.26807">
        <ele>1677.7</ele>
        <time>2023-07-25T13:37:35Z</time>
      </trkpt>
      <trkpt lat="44.93608" lon="6.26808">
        <ele>1678.4</ele>
        <time>2023-07-25T13:37:42Z</time>
      </trkpt>
      <trkpt lat="44.93608" lon="6.26808">
        <ele>1678.8</ele>
        <time>2023-07-25T13:37:46Z</time>
      </trkpt>
      <trkpt lat="44.93609" lon="6.26808">
        <ele>1680.9</ele>
        <time>2023-07-25T13:37:55Z</time>
      </trkpt>
      <trkpt lat="44.93609" lon="6.26808">
        <ele>1681</ele>
        <time>2023-07-25T13:37:56Z</time>
      </trkpt>
      <trkpt lat="44.93608" lon="6.26808">
        <ele>1686.1</ele>
        <time>2023-07-25T13:38:55Z</time>
      </trkpt>
      <trkpt lat="44.93608" lon="6.26808">
        <ele>1686.4</ele>
        <time>2023-07-25T13:38:56Z</time>
      </trkpt>
      <trkpt lat="44.93607" lon="6.26814">
        <ele>1690.1</ele>
        <time>2023-07-25T13:39:03Z</time>
      </trkpt>
      <trkpt lat="44.9361" lon="6.26816">
        <ele>1692.6</ele>
        <time>2023-07-25T13:39:10Z</time>
      </trkpt>
      <trkpt lat="44.93611" lon="6.26819">
        <ele>1698.4</ele>
        <time>2023-07-25T13:39:17Z</time>
      </trkpt>
      <trkpt lat="44.93611" lon="6.26819">
        <ele>1699.1</ele>
        <time>2023-07-25T13:39:22Z</time>
      </trkpt>
      <trkpt lat="44.93611" lon="6.26819">
        <ele>1699.5</ele>
        <time>2023-07-25T13:39:40Z</time>
      </trkpt>
      <trkpt lat="44.9361" lon="6.26825">
        <ele>1701.1</ele>
        <time>2023-07-25T13:39:47Z</time>
      </trkpt>
      <trkpt lat="44.93608" lon="6.26828">
        <ele>1702.4</ele>
        <time>2023-07-25T13:39:54Z</time>
      </trkpt>
      <trkpt lat="44.93607" lon="6.26828">
        <ele>1702.4</ele>
        <time>2023-07-25T13:39:57Z</time>
      </trkpt>
      <trkpt lat="44.93609" lon="6.26836">
        <ele>1701.7</ele>
        <time>2023-07-25T13:40:04Z</time>
      </trkpt>
      <trkpt lat="44.93609" lon="6.26844">
        <ele>1701.9</ele>
        <time>2023-07-25T13:40:11Z</time>
      </trkpt>
      <trkpt lat="44.9361" lon="6.2685">
        <ele>1701.9</ele>
        <time>2023-07-25T13:40:18Z</time>
      </trkpt>
      <trkpt lat="44.93608" lon="6.26859">
        <ele>1701.5</ele>
        <time>2023-07-25T13:40:25Z</time>
      </trkpt>
      <trkpt lat="44.936" lon="6.26867">
        <ele>1698</ele>
        <time>2023-07-25T13:40:31Z</time>
      </trkpt>
      <trkpt lat="44.93597" lon="6.26873">
        <ele>1697.9</ele>
        <time>2023-07-25T13:40:38Z</time>
      </trkpt>
      <trkpt lat="44.93589" lon="6.2688">
        <ele>1698.2</ele>
        <time>2023-07-25T13:40:45Z</time>
      </trkpt>
      <trkpt lat="44.93595" lon="6.26888">
        <ele>1700.6</ele>
        <time>2023-07-25T13:40:52Z</time>
      </trkpt>
      <trkpt lat="44.93602" lon="6.26892">
        <ele>1703.8</ele>
        <time>2023-07-25T13:40:59Z</time>
      </trkpt>
      <trkpt lat="44.93605" lon="6.26897">
        <ele>1703.8</ele>
        <time>2023-07-25T13:41:06Z</time>
      </trkpt>
      <trkpt lat="44.93608" lon="6.26902">
        <ele>1703.8</ele>
        <time>2023-07-25T13:41:13Z</time>
      </trkpt>
      <trkpt lat="44.93606" lon="6.2691">
        <ele>1703.7</ele>
        <time>2023-07-25T13:41:20Z</time>
      </trkpt>
      <trkpt lat="44.93603" lon="6.26912">
        <ele>1698.8</ele>
        <time>2023-07-25T13:41:27Z</time>
      </trkpt>
      <trkpt lat="44.93603" lon="6.26912">
        <ele>1699.5</ele>
        <time>2023-07-25T13:41:32Z</time>
      </trkpt>
      <trkpt lat="44.936" lon="6.26915">
        <ele>1699.3</ele>
        <time>2023-07-25T13:41:48Z</time>
      </trkpt>
      <trkpt lat="44.93593" lon="6.2692">
        <ele>1704.9</ele>
        <time>2023-07-25T13:41:54Z</time>
      </trkpt>
      <trkpt lat="44.93585" lon="6.26923">
        <ele>1705.8</ele>
        <time>2023-07-25T13:42:00Z</time>
      </trkpt>
      <trkpt lat="44.9358" lon="6.26924">
        <ele>1708.4</ele>
        <time>2023-07-25T13:42:07Z</time>
      </trkpt>
      <trkpt lat="44.93579" lon="6.26931">
        <ele>1709.8</ele>
        <time>2023-07-25T13:42:14Z</time>
      </trkpt>
      <trkpt lat="44.93578" lon="6.2694">
        <ele>1712.9</ele>
        <time>2023-07-25T13:42:21Z</time>
      </trkpt>
      <trkpt lat="44.93576" lon="6.26948">
        <ele>1715</ele>
        <time>2023-07-25T13:42:28Z</time>
      </trkpt>
      <trkpt lat="44.93577" lon="6.26959">
        <ele>1715.6</ele>
        <time>2023-07-25T13:42:34Z</time>
      </trkpt>
      <trkpt lat="44.93575" lon="6.26968">
        <ele>1713.7</ele>
        <time>2023-07-25T13:42:41Z</time>
      </trkpt>
      <trkpt lat="44.9357" lon="6.26974">
        <ele>1711</ele>
        <time>2023-07-25T13:42:48Z</time>
      </trkpt>
      <trkpt lat="44.93567" lon="6.2698">
        <ele>1710.9</ele>
        <time>2023-07-25T13:42:55Z</time>
      </trkpt>
      <trkpt lat="44.93568" lon="6.26988">
        <ele>1710.9</ele>
        <time>2023-07-25T13:43:02Z</time>
      </trkpt>
      <trkpt lat="44.93566" lon="6.26997">
        <ele>1707.1</ele>
        <time>2023-07-25T13:43:09Z</time>
      </trkpt>
      <trkpt lat="44.93565" lon="6.27007">
        <ele>1708.6</ele>
        <time>2023-07-25T13:43:16Z</time>
      </trkpt>
      <trkpt lat="44.93558" lon="6.27011">
        <ele>1706.8</ele>
        <time>2023-07-25T13:43:23Z</time>
      </trkpt>
      <trkpt lat="44.93555" lon="6.27015">
        <ele>1705.7</ele>
        <time>2023-07-25T13:43:30Z</time>
      </trkpt>
      <trkpt lat="44.93553" lon="6.27021">
        <ele>1705.6</ele>
        <time>2023-07-25T13:43:37Z</time>
      </trkpt>
      <trkpt lat="44.93553" lon="6.27026">
        <ele>1705.1</ele>
        <time>2023-07-25T13:43:44Z</time>
      </trkpt>
      <trkpt lat="44.93551" lon="6.27033">
        <ele>1702.6</ele>
        <time>2023-07-25T13:43:51Z</time>
      </trkpt>
      <trkpt lat="44.93549" lon="6.27039">
        <ele>1701.7</ele>
        <time>2023-07-25T13:43:58Z</time>
      </trkpt>
      <trkpt lat="44.93544" lon="6.27047">
        <ele>1701.7</ele>
        <time>2023-07-25T13:44:05Z</time>
      </trkpt>
      <trkpt lat="44.93538" lon="6.2705">
        <ele>1701.4</ele>
        <time>2023-07-25T13:44:12Z</time>
      </trkpt>
      <trkpt lat="44.93533" lon="6.27058">
        <ele>1695.1</ele>
        <time>2023-07-25T13:44:19Z</time>
      </trkpt>
      <trkpt lat="44.9353" lon="6.27063">
        <ele>1694.8</ele>
        <time>2023-07-25T13:44:26Z</time>
      </trkpt>
      <trkpt lat="44.93527" lon="6.27069">
        <ele>1699.7</ele>
        <time>2023-07-25T13:44:33Z</time>
      </trkpt>
      <trkpt lat="44.93525" lon="6.27079">
        <ele>1696.3</ele>
        <time>2023-07-25T13:44:39Z</time>
      </trkpt>
      <trkpt lat="44.93526" lon="6.27091">
        <ele>1699.8</ele>
        <time>2023-07-25T13:44:46Z</time>
      </trkpt>
      <trkpt lat="44.93526" lon="6.271">
        <ele>1700.1</ele>
        <time>2023-07-25T13:44:53Z</time>
      </trkpt>
      <trkpt lat="44.93528" lon="6.27107">
        <ele>1700</ele>
        <time>2023-07-25T13:45:00Z</time>
      </trkpt>
      <trkpt lat="44.93527" lon="6.27115">
        <ele>1699.2</ele>
        <time>2023-07-25T13:45:07Z</time>
      </trkpt>
      <trkpt lat="44.93528" lon="6.27124">
        <ele>1702.2</ele>
        <time>2023-07-25T13:45:14Z</time>
      </trkpt>
      <trkpt lat="44.93529" lon="6.27133">
        <ele>1698.8</ele>
        <time>2023-07-25T13:45:21Z</time>
      </trkpt>
      <trkpt lat="44.93531" lon="6.2714">
        <ele>1696.8</ele>
        <time>2023-07-25T13:45:28Z</time>
      </trkpt>
      <trkpt lat="44.93532" lon="6.27146">
        <ele>1698.4</ele>
        <time>2023-07-25T13:45:35Z</time>
      </trkpt>
      <trkpt lat="44.93532" lon="6.27151">
        <ele>1699.7</ele>
        <time>2023-07-25T13:45:42Z</time>
      </trkpt>
      <trkpt lat="44.93528" lon="6.27156">
        <ele>1698.9</ele>
        <time>2023-07-25T13:45:49Z</time>
      </trkpt>
      <trkpt lat="44.93523" lon="6.27164">
        <ele>1696.3</ele>
        <time>2023-07-25T13:45:55Z</time>
      </trkpt>
      <trkpt lat="44.93519" lon="6.27174">
        <ele>1692.7</ele>
        <time>2023-07-25T13:46:01Z</time>
      </trkpt>
      <trkpt lat="44.93516" lon="6.27185">
        <ele>1693.1</ele>
        <time>2023-07-25T13:46:07Z</time>
      </trkpt>
      <trkpt lat="44.93513" lon="6.27195">
        <ele>1692.6</ele>
        <time>2023-07-25T13:46:12Z</time>
      </trkpt>
      <trkpt lat="44.93511" lon="6.27206">
        <ele>1689.1</ele>
        <time>2023-07-25T13:46:18Z</time>
      </trkpt>
      <trkpt lat="44.93506" lon="6.2721">
        <ele>1687.4</ele>
        <time>2023-07-25T13:46:25Z</time>
      </trkpt>
      <trkpt lat="44.93506" lon="6.27213">
        <ele>1687</ele>
        <time>2023-07-25T13:46:32Z</time>
      </trkpt>
      <trkpt lat="44.93507" lon="6.27214">
        <ele>1686</ele>
        <time>2023-07-25T13:46:39Z</time>
      </trkpt>
      <trkpt lat="44.93507" lon="6.27215">
        <ele>1684.2</ele>
        <time>2023-07-25T13:46:41Z</time>
      </trkpt>
      <trkpt lat="44.93507" lon="6.27218">
        <ele>1683.2</ele>
        <time>2023-07-25T13:46:49Z</time>
      </trkpt>
      <trkpt lat="44.93502" lon="6.27224">
        <ele>1683.6</ele>
        <time>2023-07-25T13:46:56Z</time>
      </trkpt>
      <trkpt lat="44.93499" lon="6.27231">
        <ele>1683.6</ele>
        <time>2023-07-25T13:47:03Z</time>
      </trkpt>
      <trkpt lat="44.93496" lon="6.27237">
        <ele>1683.5</ele>
        <time>2023-07-25T13:47:10Z</time>
      </trkpt>
      <trkpt lat="44.93492" lon="6.27242">
        <ele>1683.6</ele>
        <time>2023-07-25T13:47:17Z</time>
      </trkpt>
      <trkpt lat="44.93489" lon="6.2725">
        <ele>1683.6</ele>
        <time>2023-07-25T13:47:24Z</time>
      </trkpt>
      <trkpt lat="44.93487" lon="6.27258">
        <ele>1689.4</ele>
        <time>2023-07-25T13:47:31Z</time>
      </trkpt>
      <trkpt lat="44.93489" lon="6.27268">
        <ele>1694.2</ele>
        <time>2023-07-25T13:47:38Z</time>
      </trkpt>
      <trkpt lat="44.9349" lon="6.27274">
        <ele>1696.1</ele>
        <time>2023-07-25T13:47:45Z</time>
      </trkpt>
      <trkpt lat="44.93488" lon="6.27279">
        <ele>1696.6</ele>
        <time>2023-07-25T13:47:52Z</time>
      </trkpt>
      <trkpt lat="44.93489" lon="6.27284">
        <ele>1696.1</ele>
        <time>2023-07-25T13:47:59Z</time>
      </trkpt>
      <trkpt lat="44.93487" lon="6.27286">
        <ele>1698.1</ele>
        <time>2023-07-25T13:48:06Z</time>
      </trkpt>
      <trkpt lat="44.93482" lon="6.27291">
        <ele>1700.2</ele>
        <time>2023-07-25T13:48:13Z</time>
      </trkpt>
      <trkpt lat="44.93479" lon="6.27297">
        <ele>1697.2</ele>
        <time>2023-07-25T13:48:20Z</time>
      </trkpt>
      <trkpt lat="44.93475" lon="6.27304">
        <ele>1697.9</ele>
        <time>2023-07-25T13:48:27Z</time>
      </trkpt>
      <trkpt lat="44.93473" lon="6.2731">
        <ele>1694.3</ele>
        <time>2023-07-25T13:48:34Z</time>
      </trkpt>
      <trkpt lat="44.9347" lon="6.27318">
        <ele>1693.9</ele>
        <time>2023-07-25T13:48:41Z</time>
      </trkpt>
      <trkpt lat="44.93468" lon="6.27325">
        <ele>1693.3</ele>
        <time>2023-07-25T13:48:48Z</time>
      </trkpt>
      <trkpt lat="44.93466" lon="6.27333">
        <ele>1694.3</ele>
        <time>2023-07-25T13:48:55Z</time>
      </trkpt>
      <trkpt lat="44.93466" lon="6.27341">
        <ele>1692.3</ele>
        <time>2023-07-25T13:49:02Z</time>
      </trkpt>
      <trkpt lat="44.93468" lon="6.27348">
        <ele>1694.1</ele>
        <time>2023-07-25T13:49:09Z</time>
      </trkpt>
      <trkpt lat="44.93468" lon="6.27356">
        <ele>1695.2</ele>
        <time>2023-07-25T13:49:16Z</time>
      </trkpt>
      <trkpt lat="44.93466" lon="6.27363">
        <ele>1699.5</ele>
        <time>2023-07-25T13:49:23Z</time>
      </trkpt>
      <trkpt lat="44.93465" lon="6.27369">
        <ele>1696.4</ele>
        <time>2023-07-25T13:49:30Z</time>
      </trkpt>
      <trkpt lat="44.93459" lon="6.27375">
        <ele>1696.2</ele>
        <time>2023-07-25T13:49:37Z</time>
      </trkpt>
      <trkpt lat="44.93455" lon="6.27383">
        <ele>1696.3</ele>
        <time>2023-07-25T13:49:43Z</time>
      </trkpt>
      <trkpt lat="44.93451" lon="6.27387">
        <ele>1695.5</ele>
        <time>2023-07-25T13:49:50Z</time>
      </trkpt>
      <trkpt lat="44.93449" lon="6.2739">
        <ele>1696.4</ele>
        <time>2023-07-25T13:49:57Z</time>
      </trkpt>
      <trkpt lat="44.93448" lon="6.27396">
        <ele>1701.5</ele>
        <time>2023-07-25T13:50:04Z</time>
      </trkpt>
      <trkpt lat="44.93448" lon="6.27403">
        <ele>1701.1</ele>
        <time>2023-07-25T13:50:11Z</time>
      </trkpt>
      <trkpt lat="44.93444" lon="6.27409">
        <ele>1701.4</ele>
        <time>2023-07-25T13:50:18Z</time>
      </trkpt>
      <trkpt lat="44.93444" lon="6.27415">
        <ele>1703.3</ele>
        <time>2023-07-25T13:50:25Z</time>
      </trkpt>
      <trkpt lat="44.93441" lon="6.27422">
        <ele>1702.3</ele>
        <time>2023-07-25T13:50:32Z</time>
      </trkpt>
      <trkpt lat="44.93439" lon="6.27431">
        <ele>1703.3</ele>
        <time>2023-07-25T13:50:39Z</time>
      </trkpt>
      <trkpt lat="44.93437" lon="6.2744">
        <ele>1703.8</ele>
        <time>2023-07-25T13:50:46Z</time>
      </trkpt>
      <trkpt lat="44.93435" lon="6.27447">
        <ele>1703.1</ele>
        <time>2023-07-25T13:50:53Z</time>
      </trkpt>
      <trkpt lat="44.93433" lon="6.27455">
        <ele>1704.7</ele>
        <time>2023-07-25T13:51:00Z</time>
      </trkpt>
      <trkpt lat="44.93432" lon="6.27462">
        <ele>1706.8</ele>
        <time>2023-07-25T13:51:07Z</time>
      </trkpt>
      <trkpt lat="44.93432" lon="6.27471">
        <ele>1704</ele>
        <time>2023-07-25T13:51:14Z</time>
      </trkpt>
      <trkpt lat="44.93431" lon="6.27479">
        <ele>1703.4</ele>
        <time>2023-07-25T13:51:21Z</time>
      </trkpt>
      <trkpt lat="44.9343" lon="6.27487">
        <ele>1704</ele>
        <time>2023-07-25T13:51:28Z</time>
      </trkpt>
      <trkpt lat="44.93428" lon="6.27494">
        <ele>1706.2</ele>
        <time>2023-07-25T13:51:35Z</time>
      </trkpt>
      <trkpt lat="44.93425" lon="6.27501">
        <ele>1705.1</ele>
        <time>2023-07-25T13:51:42Z</time>
      </trkpt>
      <trkpt lat="44.93425" lon="6.27511">
        <ele>1705.2</ele>
        <time>2023-07-25T13:51:49Z</time>
      </trkpt>
      <trkpt lat="44.93427" lon="6.27518">
        <ele>1707.6</ele>
        <time>2023-07-25T13:51:56Z</time>
      </trkpt>
      <trkpt lat="44.93433" lon="6.27521">
        <ele>1706.2</ele>
        <time>2023-07-25T13:52:03Z</time>
      </trkpt>
      <trkpt lat="44.93435" lon="6.27527">
        <ele>1706</ele>
        <time>2023-07-25T13:52:10Z</time>
      </trkpt>
      <trkpt lat="44.93436" lon="6.27534">
        <ele>1706.3</ele>
        <time>2023-07-25T13:52:17Z</time>
      </trkpt>
      <trkpt lat="44.93434" lon="6.27543">
        <ele>1708.2</ele>
        <time>2023-07-25T13:52:24Z</time>
      </trkpt>
      <trkpt lat="44.9343" lon="6.27552">
        <ele>1707.9</ele>
        <time>2023-07-25T13:52:31Z</time>
      </trkpt>
      <trkpt lat="44.93428" lon="6.2756">
        <ele>1708.6</ele>
        <time>2023-07-25T13:52:38Z</time>
      </trkpt>
      <trkpt lat="44.9343" lon="6.27569">
        <ele>1708.4</ele>
        <time>2023-07-25T13:52:45Z</time>
      </trkpt>
      <trkpt lat="44.9343" lon="6.27576">
        <ele>1708.2</ele>
        <time>2023-07-25T13:52:52Z</time>
      </trkpt>
      <trkpt lat="44.93437" lon="6.27582">
        <ele>1709.9</ele>
        <time>2023-07-25T13:52:58Z</time>
      </trkpt>
      <trkpt lat="44.9344" lon="6.27586">
        <ele>1706.9</ele>
        <time>2023-07-25T13:53:05Z</time>
      </trkpt>
      <trkpt lat="44.9344" lon="6.27593">
        <ele>1708</ele>
        <time>2023-07-25T13:53:12Z</time>
      </trkpt>
      <trkpt lat="44.93442" lon="6.27594">
        <ele>1705.5</ele>
        <time>2023-07-25T13:53:19Z</time>
      </trkpt>
      <trkpt lat="44.93439" lon="6.27595">
        <ele>1705.2</ele>
        <time>2023-07-25T13:53:26Z</time>
      </trkpt>
      <trkpt lat="44.9344" lon="6.276">
        <ele>1707.2</ele>
        <time>2023-07-25T13:53:33Z</time>
      </trkpt>
      <trkpt lat="44.93437" lon="6.27606">
        <ele>1706.1</ele>
        <time>2023-07-25T13:53:40Z</time>
      </trkpt>
      <trkpt lat="44.93436" lon="6.27613">
        <ele>1706.8</ele>
        <time>2023-07-25T13:53:47Z</time>
      </trkpt>
      <trkpt lat="44.93437" lon="6.27615">
        <ele>1707.6</ele>
        <time>2023-07-25T13:53:54Z</time>
      </trkpt>
      <trkpt lat="44.93439" lon="6.27614">
        <ele>1710.1</ele>
        <time>2023-07-25T13:54:01Z</time>
      </trkpt>
      <trkpt lat="44.93439" lon="6.27614">
        <ele>1710.1</ele>
        <time>2023-07-25T13:54:02Z</time>
      </trkpt>
      <trkpt lat="44.9344" lon="6.27617">
        <ele>1713.1</ele>
        <time>2023-07-25T13:55:00Z</time>
      </trkpt>
      <trkpt lat="44.93442" lon="6.27617">
        <ele>1716.7</ele>
        <time>2023-07-25T13:55:07Z</time>
      </trkpt>
      <trkpt lat="44.93443" lon="6.27618">
        <ele>1718.3</ele>
        <time>2023-07-25T13:55:09Z</time>
      </trkpt>
      <trkpt lat="44.93443" lon="6.27618">
        <ele>1719</ele>
        <time>2023-07-25T13:55:25Z</time>
      </trkpt>
      <trkpt lat="44.93443" lon="6.27618">
        <ele>1719</ele>
        <time>2023-07-25T13:55:26Z</time>
      </trkpt>
      <trkpt lat="44.93442" lon="6.27618">
        <ele>1719.6</ele>
        <time>2023-07-25T13:56:58Z</time>
      </trkpt>
      <trkpt lat="44.93442" lon="6.27618">
        <ele>1720.2</ele>
        <time>2023-07-25T13:57:00Z</time>
      </trkpt>
      <trkpt lat="44.93441" lon="6.27618">
        <ele>1720.7</ele>
        <time>2023-07-25T13:57:11Z</time>
      </trkpt>
      <trkpt lat="44.93442" lon="6.27618">
        <ele>1720.4</ele>
        <time>2023-07-25T13:57:12Z</time>
      </trkpt>
      <trkpt lat="44.93442" lon="6.27618">
        <ele>1720.7</ele>
        <time>2023-07-25T13:57:19Z</time>
      </trkpt>
      <trkpt lat="44.93442" lon="6.27618">
        <ele>1720.8</ele>
        <time>2023-07-25T13:57:20Z</time>
      </trkpt>
      <trkpt lat="44.93442" lon="6.27618">
        <ele>1720.6</ele>
        <time>2023-07-25T13:58:06Z</time>
      </trkpt>
      <trkpt lat="44.93442" lon="6.27618">
        <ele>1720.6</ele>
        <time>2023-07-25T13:58:07Z</time>
      </trkpt>
      <trkpt lat="44.93442" lon="6.2762">
        <ele>1720.3</ele>
        <time>2023-07-25T13:58:37Z</time>
      </trkpt>
      <trkpt lat="44.93442" lon="6.2762">
        <ele>1720.3</ele>
        <time>2023-07-25T13:58:38Z</time>
      </trkpt>
      <trkpt lat="44.93441" lon="6.27621">
        <ele>1719.9</ele>
        <time>2023-07-25T13:59:53Z</time>
      </trkpt>
      <trkpt lat="44.93441" lon="6.2762">
        <ele>1719.9</ele>
        <time>2023-07-25T13:59:54Z</time>
      </trkpt>
      <trkpt lat="44.93442" lon="6.27621">
        <ele>1721.2</ele>
        <time>2023-07-25T14:00:40Z</time>
      </trkpt>
      <trkpt lat="44.93442" lon="6.27621">
        <ele>1721.2</ele>
        <time>2023-07-25T14:00:41Z</time>
      </trkpt>
      <trkpt lat="44.93441" lon="6.27623">
        <ele>1720.5</ele>
        <time>2023-07-25T14:01:51Z</time>
      </trkpt>
      <trkpt lat="44.93441" lon="6.27623">
        <ele>1720.5</ele>
        <time>2023-07-25T14:01:52Z</time>
      </trkpt>
      <trkpt lat="44.9344" lon="6.27623">
        <ele>1720.9</ele>
        <time>2023-07-25T14:02:11Z</time>
      </trkpt>
      <trkpt lat="44.9344" lon="6.27623">
        <ele>1720.9</ele>
        <time>2023-07-25T14:02:12Z</time>
      </trkpt>
      <trkpt lat="44.93439" lon="6.27624">
        <ele>1723.5</ele>
        <time>2023-07-25T14:03:12Z</time>
      </trkpt>
      <trkpt lat="44.93439" lon="6.27624">
        <ele>1723.4</ele>
        <time>2023-07-25T14:03:15Z</time>
      </trkpt>
      <trkpt lat="44.93438" lon="6.27624">
        <ele>1724.5</ele>
        <time>2023-07-25T14:03:40Z</time>
      </trkpt>
      <trkpt lat="44.93438" lon="6.27625">
        <ele>1724.8</ele>
        <time>2023-07-25T14:03:47Z</time>
      </trkpt>
      <trkpt lat="44.93438" lon="6.27625">
        <ele>1724.6</ele>
        <time>2023-07-25T14:03:48Z</time>
      </trkpt>
      <trkpt lat="44.93439" lon="6.27626">
        <ele>1724.5</ele>
        <time>2023-07-25T14:04:25Z</time>
      </trkpt>
      <trkpt lat="44.93439" lon="6.27626">
        <ele>1724.5</ele>
        <time>2023-07-25T14:04:26Z</time>
      </trkpt>
      <trkpt lat="44.9344" lon="6.27626">
        <ele>1724.4</ele>
        <time>2023-07-25T14:04:43Z</time>
      </trkpt>
      <trkpt lat="44.9344" lon="6.27627">
        <ele>1726.1</ele>
        <time>2023-07-25T14:04:44Z</time>
      </trkpt>
      <trkpt lat="44.9344" lon="6.27631">
        <ele>1725.6</ele>
        <time>2023-07-25T14:04:52Z</time>
      </trkpt>
      <trkpt lat="44.9344" lon="6.27639">
        <ele>1723.7</ele>
        <time>2023-07-25T14:04:59Z</time>
      </trkpt>
      <trkpt lat="44.9344" lon="6.27641">
        <ele>1724.7</ele>
        <time>2023-07-25T14:05:06Z</time>
      </trkpt>
      <trkpt lat="44.9344" lon="6.27641">
        <ele>1723.9</ele>
        <time>2023-07-25T14:05:07Z</time>
      </trkpt>
      <trkpt lat="44.93442" lon="6.27648">
        <ele>1723.5</ele>
        <time>2023-07-25T14:05:15Z</time>
      </trkpt>
      <trkpt lat="44.93444" lon="6.27651">
        <ele>1723.2</ele>
        <time>2023-07-25T14:05:22Z</time>
      </trkpt>
      <trkpt lat="44.93443" lon="6.2766">
        <ele>1722.2</ele>
        <time>2023-07-25T14:05:29Z</time>
      </trkpt>
      <trkpt lat="44.93444" lon="6.27666">
        <ele>1716.7</ele>
        <time>2023-07-25T14:05:36Z</time>
      </trkpt>
      <trkpt lat="44.93444" lon="6.27672">
        <ele>1720.4</ele>
        <time>2023-07-25T14:05:43Z</time>
      </trkpt>
      <trkpt lat="44.93447" lon="6.2767">
        <ele>1722.6</ele>
        <time>2023-07-25T14:05:50Z</time>
      </trkpt>
      <trkpt lat="44.93446" lon="6.27678">
        <ele>1717.7</ele>
        <time>2023-07-25T14:05:57Z</time>
      </trkpt>
      <trkpt lat="44.93448" lon="6.2768">
        <ele>1718.8</ele>
        <time>2023-07-25T14:06:04Z</time>
      </trkpt>
      <trkpt lat="44.93451" lon="6.27682">
        <ele>1716.9</ele>
        <time>2023-07-25T14:06:11Z</time>
      </trkpt>
      <trkpt lat="44.93451" lon="6.27687">
        <ele>1717.3</ele>
        <time>2023-07-25T14:06:18Z</time>
      </trkpt>
      <trkpt lat="44.9345" lon="6.27694">
        <ele>1720</ele>
        <time>2023-07-25T14:06:25Z</time>
      </trkpt>
      <trkpt lat="44.93452" lon="6.277">
        <ele>1723.8</ele>
        <time>2023-07-25T14:06:32Z</time>
      </trkpt>
      <trkpt lat="44.93448" lon="6.27705">
        <ele>1724.4</ele>
        <time>2023-07-25T14:06:39Z</time>
      </trkpt>
      <trkpt lat="44.93449" lon="6.27712">
        <ele>1720</ele>
        <time>2023-07-25T14:06:46Z</time>
      </trkpt>
      <trkpt lat="44.93447" lon="6.27719">
        <ele>1716.5</ele>
        <time>2023-07-25T14:06:53Z</time>
      </trkpt>
      <trkpt lat="44.93449" lon="6.27727">
        <ele>1717.1</ele>
        <time>2023-07-25T14:07:00Z</time>
      </trkpt>
      <trkpt lat="44.9345" lon="6.27733">
        <ele>1712.3</ele>
        <time>2023-07-25T14:07:07Z</time>
      </trkpt>
      <trkpt lat="44.93448" lon="6.27743">
        <ele>1713.4</ele>
        <time>2023-07-25T14:07:13Z</time>
      </trkpt>
      <trkpt lat="44.93448" lon="6.27752">
        <ele>1711.6</ele>
        <time>2023-07-25T14:07:20Z</time>
      </trkpt>
      <trkpt lat="44.93451" lon="6.2776">
        <ele>1711.9</ele>
        <time>2023-07-25T14:07:27Z</time>
      </trkpt>
      <trkpt lat="44.93448" lon="6.2777">
        <ele>1710.4</ele>
        <time>2023-07-25T14:07:33Z</time>
      </trkpt>
      <trkpt lat="44.93449" lon="6.27779">
        <ele>1711.9</ele>
        <time>2023-07-25T14:07:40Z</time>
      </trkpt>
      <trkpt lat="44.93451" lon="6.27787">
        <ele>1711</ele>
        <time>2023-07-25T14:07:47Z</time>
      </trkpt>
      <trkpt lat="44.93458" lon="6.2779">
        <ele>1707.6</ele>
        <time>2023-07-25T14:07:54Z</time>
      </trkpt>
      <trkpt lat="44.93462" lon="6.27793">
        <ele>1708.6</ele>
        <time>2023-07-25T14:08:01Z</time>
      </trkpt>
      <trkpt lat="44.93465" lon="6.27801">
        <ele>1707.1</ele>
        <time>2023-07-25T14:08:08Z</time>
      </trkpt>
      <trkpt lat="44.93466" lon="6.27806">
        <ele>1708.7</ele>
        <time>2023-07-25T14:08:15Z</time>
      </trkpt>
      <trkpt lat="44.93466" lon="6.27812">
        <ele>1709.1</ele>
        <time>2023-07-25T14:08:22Z</time>
      </trkpt>
      <trkpt lat="44.93468" lon="6.27812">
        <ele>1710.5</ele>
        <time>2023-07-25T14:08:29Z</time>
      </trkpt>
      <trkpt lat="44.93475" lon="6.27809">
        <ele>1721.9</ele>
        <time>2023-07-25T14:08:36Z</time>
      </trkpt>
      <trkpt lat="44.93479" lon="6.27807">
        <ele>1721.5</ele>
        <time>2023-07-25T14:08:43Z</time>
      </trkpt>
      <trkpt lat="44.93479" lon="6.27807">
        <ele>1722.8</ele>
        <time>2023-07-25T14:08:46Z</time>
      </trkpt>
      <trkpt lat="44.93483" lon="6.27806">
        <ele>1727</ele>
        <time>2023-07-25T14:08:55Z</time>
      </trkpt>
      <trkpt lat="44.93483" lon="6.27806">
        <ele>1725.8</ele>
        <time>2023-07-25T14:08:59Z</time>
      </trkpt>
      <trkpt lat="44.93482" lon="6.27806">
        <ele>1723.6</ele>
        <time>2023-07-25T14:09:07Z</time>
      </trkpt>
      <trkpt lat="44.93479" lon="6.27807">
        <ele>1722.5</ele>
        <time>2023-07-25T14:09:14Z</time>
      </trkpt>
      <trkpt lat="44.93478" lon="6.27818">
        <ele>1720.8</ele>
        <time>2023-07-25T14:09:21Z</time>
      </trkpt>
      <trkpt lat="44.93477" lon="6.27827">
        <ele>1720.1</ele>
        <time>2023-07-25T14:09:28Z</time>
      </trkpt>
      <trkpt lat="44.93478" lon="6.27835">
        <ele>1719.4</ele>
        <time>2023-07-25T14:09:35Z</time>
      </trkpt>
      <trkpt lat="44.93478" lon="6.27842">
        <ele>1718.4</ele>
        <time>2023-07-25T14:09:42Z</time>
      </trkpt>
      <trkpt lat="44.93477" lon="6.2785">
        <ele>1715.9</ele>
        <time>2023-07-25T14:09:49Z</time>
      </trkpt>
      <trkpt lat="44.93477" lon="6.27858">
        <ele>1716.6</ele>
        <time>2023-07-25T14:09:56Z</time>
      </trkpt>
      <trkpt lat="44.93478" lon="6.27866">
        <ele>1719.6</ele>
        <time>2023-07-25T14:10:03Z</time>
      </trkpt>
      <trkpt lat="44.93478" lon="6.27874">
        <ele>1718.7</ele>
        <time>2023-07-25T14:10:10Z</time>
      </trkpt>
      <trkpt lat="44.93478" lon="6.27874">
        <ele>1718.7</ele>
        <time>2023-07-25T14:10:16Z</time>
      </trkpt>
      <trkpt lat="44.93479" lon="6.27877">
        <ele>1720</ele>
        <time>2023-07-25T14:10:23Z</time>
      </trkpt>
      <trkpt lat="44.93479" lon="6.27877">
        <ele>1720</ele>
        <time>2023-07-25T14:10:25Z</time>
      </trkpt>
      <trkpt lat="44.9348" lon="6.27874">
        <ele>1719.9</ele>
        <time>2023-07-25T14:12:06Z</time>
      </trkpt>
      <trkpt lat="44.9348" lon="6.27874">
        <ele>1720.3</ele>
        <time>2023-07-25T14:12:13Z</time>
      </trkpt>
      <trkpt lat="44.93479" lon="6.27874">
        <ele>1724.6</ele>
        <time>2023-07-25T14:12:29Z</time>
      </trkpt>
      <trkpt lat="44.93479" lon="6.27874">
        <ele>1725.7</ele>
        <time>2023-07-25T14:12:30Z</time>
      </trkpt>
      <trkpt lat="44.93481" lon="6.27879">
        <ele>1727.1</ele>
        <time>2023-07-25T14:14:08Z</time>
      </trkpt>
      <trkpt lat="44.93483" lon="6.27886">
        <ele>1727.7</ele>
        <time>2023-07-25T14:14:15Z</time>
      </trkpt>
      <trkpt lat="44.93482" lon="6.27894">
        <ele>1729.8</ele>
        <time>2023-07-25T14:14:22Z</time>
      </trkpt>
      <trkpt lat="44.9348" lon="6.27901">
        <ele>1732</ele>
        <time>2023-07-25T14:14:29Z</time>
      </trkpt>
      <trkpt lat="44.93481" lon="6.27905">
        <ele>1732.1</ele>
        <time>2023-07-25T14:14:36Z</time>
      </trkpt>
      <trkpt lat="44.93476" lon="6.27908">
        <ele>1733.2</ele>
        <time>2023-07-25T14:14:43Z</time>
      </trkpt>
      <trkpt lat="44.93478" lon="6.27915">
        <ele>1733.8</ele>
        <time>2023-07-25T14:14:50Z</time>
      </trkpt>
      <trkpt lat="44.93479" lon="6.27924">
        <ele>1729.8</ele>
        <time>2023-07-25T14:14:57Z</time>
      </trkpt>
      <trkpt lat="44.93481" lon="6.27933">
        <ele>1730.2</ele>
        <time>2023-07-25T14:15:04Z</time>
      </trkpt>
      <trkpt lat="44.93481" lon="6.27942">
        <ele>1727.1</ele>
        <time>2023-07-25T14:15:11Z</time>
      </trkpt>
      <trkpt lat="44.93478" lon="6.27949">
        <ele>1728.6</ele>
        <time>2023-07-25T14:15:18Z</time>
      </trkpt>
      <trkpt lat="44.93477" lon="6.27957">
        <ele>1728.4</ele>
        <time>2023-07-25T14:15:25Z</time>
      </trkpt>
      <trkpt lat="44.9348" lon="6.27964">
        <ele>1725.6</ele>
        <time>2023-07-25T14:15:32Z</time>
      </trkpt>
      <trkpt lat="44.93483" lon="6.27969">
        <ele>1725.9</ele>
        <time>2023-07-25T14:15:39Z</time>
      </trkpt>
      <trkpt lat="44.93482" lon="6.27976">
        <ele>1725.2</ele>
        <time>2023-07-25T14:15:46Z</time>
      </trkpt>
      <trkpt lat="44.93482" lon="6.27983">
        <ele>1724.9</ele>
        <time>2023-07-25T14:15:53Z</time>
      </trkpt>
      <trkpt lat="44.93485" lon="6.2799">
        <ele>1720.2</ele>
        <time>2023-07-25T14:16:00Z</time>
      </trkpt>
      <trkpt lat="44.93484" lon="6.27998">
        <ele>1720.5</ele>
        <time>2023-07-25T14:16:07Z</time>
      </trkpt>
      <trkpt lat="44.93482" lon="6.28005">
        <ele>1721.8</ele>
        <time>2023-07-25T14:16:14Z</time>
      </trkpt>
      <trkpt lat="44.93485" lon="6.28014">
        <ele>1722.9</ele>
        <time>2023-07-25T14:16:21Z</time>
      </trkpt>
      <trkpt lat="44.93487" lon="6.28023">
        <ele>1720.2</ele>
        <time>2023-07-25T14:16:28Z</time>
      </trkpt>
      <trkpt lat="44.93486" lon="6.28032">
        <ele>1720.9</ele>
        <time>2023-07-25T14:16:35Z</time>
      </trkpt>
      <trkpt lat="44.93486" lon="6.2804">
        <ele>1720.9</ele>
        <time>2023-07-25T14:16:42Z</time>
      </trkpt>
      <trkpt lat="44.93486" lon="6.28047">
        <ele>1723.7</ele>
        <time>2023-07-25T14:16:49Z</time>
      </trkpt>
      <trkpt lat="44.93487" lon="6.28054">
        <ele>1721</ele>
        <time>2023-07-25T14:16:56Z</time>
      </trkpt>
      <trkpt lat="44.93487" lon="6.28057">
        <ele>1719.2</ele>
        <time>2023-07-25T14:17:03Z</time>
      </trkpt>
      <trkpt lat="44.93487" lon="6.28057">
        <ele>1720.1</ele>
        <time>2023-07-25T14:17:08Z</time>
      </trkpt>
      <trkpt lat="44.93485" lon="6.28069">
        <ele>1720</ele>
        <time>2023-07-25T14:18:14Z</time>
      </trkpt>
      <trkpt lat="44.9348" lon="6.28076">
        <ele>1720.7</ele>
        <time>2023-07-25T14:18:21Z</time>
      </trkpt>
      <trkpt lat="44.93481" lon="6.28082">
        <ele>1721.4</ele>
        <time>2023-07-25T14:18:28Z</time>
      </trkpt>
      <trkpt lat="44.93484" lon="6.28085">
        <ele>1721.7</ele>
        <time>2023-07-25T14:18:35Z</time>
      </trkpt>
      <trkpt lat="44.93486" lon="6.28092">
        <ele>1720.7</ele>
        <time>2023-07-25T14:18:42Z</time>
      </trkpt>
      <trkpt lat="44.93485" lon="6.28092">
        <ele>1722.4</ele>
        <time>2023-07-25T14:18:49Z</time>
      </trkpt>
      <trkpt lat="44.93487" lon="6.28095">
        <ele>1723.9</ele>
        <time>2023-07-25T14:18:58Z</time>
      </trkpt>
      <trkpt lat="44.93487" lon="6.28101">
        <ele>1722.2</ele>
        <time>2023-07-25T14:19:05Z</time>
      </trkpt>
      <trkpt lat="44.93486" lon="6.28107">
        <ele>1722.9</ele>
        <time>2023-07-25T14:19:12Z</time>
      </trkpt>
      <trkpt lat="44.93486" lon="6.28108">
        <ele>1723</ele>
        <time>2023-07-25T14:19:19Z</time>
      </trkpt>
      <trkpt lat="44.93486" lon="6.28108">
        <ele>1722.7</ele>
        <time>2023-07-25T14:19:21Z</time>
      </trkpt>
      <trkpt lat="44.93488" lon="6.28114">
        <ele>1721.5</ele>
        <time>2023-07-25T14:19:28Z</time>
      </trkpt>
      <trkpt lat="44.93492" lon="6.2812">
        <ele>1719.3</ele>
        <time>2023-07-25T14:19:35Z</time>
      </trkpt>
      <trkpt lat="44.93496" lon="6.28126">
        <ele>1721.1</ele>
        <time>2023-07-25T14:19:42Z</time>
      </trkpt>
      <trkpt lat="44.93499" lon="6.28133">
        <ele>1718.9</ele>
        <time>2023-07-25T14:19:49Z</time>
      </trkpt>
      <trkpt lat="44.93503" lon="6.28138">
        <ele>1717.9</ele>
        <time>2023-07-25T14:19:56Z</time>
      </trkpt>
      <trkpt lat="44.93506" lon="6.28146">
        <ele>1718.8</ele>
        <time>2023-07-25T14:20:03Z</time>
      </trkpt>
      <trkpt lat="44.93507" lon="6.28156">
        <ele>1717</ele>
        <time>2023-07-25T14:20:10Z</time>
      </trkpt>
      <trkpt lat="44.93509" lon="6.28165">
        <ele>1716.1</ele>
        <time>2023-07-25T14:20:17Z</time>
      </trkpt>
      <trkpt lat="44.93508" lon="6.28174">
        <ele>1718.1</ele>
        <time>2023-07-25T14:20:24Z</time>
      </trkpt>
      <trkpt lat="44.93509" lon="6.2818">
        <ele>1717.5</ele>
        <time>2023-07-25T14:20:31Z</time>
      </trkpt>
      <trkpt lat="44.93508" lon="6.28182">
        <ele>1718.3</ele>
        <time>2023-07-25T14:20:38Z</time>
      </trkpt>
      <trkpt lat="44.93508" lon="6.28182">
        <ele>1718.3</ele>
        <time>2023-07-25T14:20:39Z</time>
      </trkpt>
      <trkpt lat="44.93507" lon="6.28182">
        <ele>1721.2</ele>
        <time>2023-07-25T14:21:04Z</time>
      </trkpt>
      <trkpt lat="44.93504" lon="6.28184">
        <ele>1718.7</ele>
        <time>2023-07-25T14:21:11Z</time>
      </trkpt>
      <trkpt lat="44.93506" lon="6.28193">
        <ele>1713.1</ele>
        <time>2023-07-25T14:21:18Z</time>
      </trkpt>
      <trkpt lat="44.93506" lon="6.28193">
        <ele>1713.1</ele>
        <time>2023-07-25T14:21:23Z</time>
      </trkpt>
      <trkpt lat="44.93507" lon="6.28195">
        <ele>1712.6</ele>
        <time>2023-07-25T14:21:47Z</time>
      </trkpt>
      <trkpt lat="44.93507" lon="6.28195">
        <ele>1712.6</ele>
        <time>2023-07-25T14:21:48Z</time>
      </trkpt>
      <trkpt lat="44.93504" lon="6.282">
        <ele>1714.3</ele>
        <time>2023-07-25T14:24:36Z</time>
      </trkpt>
      <trkpt lat="44.93502" lon="6.28205">
        <ele>1720.6</ele>
        <time>2023-07-25T14:24:43Z</time>
      </trkpt>
      <trkpt lat="44.93501" lon="6.28211">
        <ele>1722.6</ele>
        <time>2023-07-25T14:24:50Z</time>
      </trkpt>
      <trkpt lat="44.93498" lon="6.28218">
        <ele>1724.4</ele>
        <time>2023-07-25T14:24:57Z</time>
      </trkpt>
      <trkpt lat="44.93495" lon="6.28222">
        <ele>1725.1</ele>
        <time>2023-07-25T14:25:04Z</time>
      </trkpt>
      <trkpt lat="44.93493" lon="6.28227">
        <ele>1727.5</ele>
        <time>2023-07-25T14:25:11Z</time>
      </trkpt>
      <trkpt lat="44.9349" lon="6.28236">
        <ele>1729.1</ele>
        <time>2023-07-25T14:25:18Z</time>
      </trkpt>
      <trkpt lat="44.93487" lon="6.28245">
        <ele>1729.4</ele>
        <time>2023-07-25T14:25:25Z</time>
      </trkpt>
      <trkpt lat="44.93484" lon="6.28254">
        <ele>1727.8</ele>
        <time>2023-07-25T14:25:32Z</time>
      </trkpt>
      <trkpt lat="44.93482" lon="6.28263">
        <ele>1725.1</ele>
        <time>2023-07-25T14:25:39Z</time>
      </trkpt>
      <trkpt lat="44.9348" lon="6.28269">
        <ele>1729.4</ele>
        <time>2023-07-25T14:25:46Z</time>
      </trkpt>
      <trkpt lat="44.93475" lon="6.28278">
        <ele>1731.9</ele>
        <time>2023-07-25T14:25:53Z</time>
      </trkpt>
      <trkpt lat="44.93474" lon="6.28287">
        <ele>1733.6</ele>
        <time>2023-07-25T14:26:00Z</time>
      </trkpt>
      <trkpt lat="44.93472" lon="6.28295">
        <ele>1734.5</ele>
        <time>2023-07-25T14:26:07Z</time>
      </trkpt>
      <trkpt lat="44.9347" lon="6.28303">
        <ele>1737</ele>
        <time>2023-07-25T14:26:14Z</time>
      </trkpt>
      <trkpt lat="44.93469" lon="6.28308">
        <ele>1739.3</ele>
        <time>2023-07-25T14:26:21Z</time>
      </trkpt>
      <trkpt lat="44.93466" lon="6.28314">
        <ele>1742.3</ele>
        <time>2023-07-25T14:26:28Z</time>
      </trkpt>
      <trkpt lat="44.93465" lon="6.28325">
        <ele>1742.6</ele>
        <time>2023-07-25T14:26:35Z</time>
      </trkpt>
      <trkpt lat="44.93464" lon="6.28332">
        <ele>1745.7</ele>
        <time>2023-07-25T14:26:42Z</time>
      </trkpt>
      <trkpt lat="44.93461" lon="6.28337">
        <ele>1744.2</ele>
        <time>2023-07-25T14:26:49Z</time>
      </trkpt>
      <trkpt lat="44.93459" lon="6.28344">
        <ele>1742.9</ele>
        <time>2023-07-25T14:26:56Z</time>
      </trkpt>
      <trkpt lat="44.93457" lon="6.28351">
        <ele>1744.5</ele>
        <time>2023-07-25T14:27:03Z</time>
      </trkpt>
      <trkpt lat="44.93453" lon="6.28357">
        <ele>1747.2</ele>
        <time>2023-07-25T14:27:10Z</time>
      </trkpt>
      <trkpt lat="44.9345" lon="6.28365">
        <ele>1747.7</ele>
        <time>2023-07-25T14:27:17Z</time>
      </trkpt>
      <trkpt lat="44.93446" lon="6.28375">
        <ele>1747.6</ele>
        <time>2023-07-25T14:27:23Z</time>
      </trkpt>
      <trkpt lat="44.93444" lon="6.28384">
        <ele>1747</ele>
        <time>2023-07-25T14:27:30Z</time>
      </trkpt>
      <trkpt lat="44.93442" lon="6.28394">
        <ele>1746.2</ele>
        <time>2023-07-25T14:27:37Z</time>
      </trkpt>
      <trkpt lat="44.93441" lon="6.28405">
        <ele>1745.9</ele>
        <time>2023-07-25T14:27:44Z</time>
      </trkpt>
      <trkpt lat="44.93437" lon="6.28412">
        <ele>1744.2</ele>
        <time>2023-07-25T14:27:51Z</time>
      </trkpt>
      <trkpt lat="44.93434" lon="6.28422">
        <ele>1742.9</ele>
        <time>2023-07-25T14:27:58Z</time>
      </trkpt>
      <trkpt lat="44.93435" lon="6.28433">
        <ele>1741.5</ele>
        <time>2023-07-25T14:28:04Z</time>
      </trkpt>
      <trkpt lat="44.93437" lon="6.28443">
        <ele>1739.9</ele>
        <time>2023-07-25T14:28:09Z</time>
      </trkpt>
      <trkpt lat="44.93438" lon="6.28453">
        <ele>1735.9</ele>
        <time>2023-07-25T14:28:13Z</time>
      </trkpt>
      <trkpt lat="44.93439" lon="6.28465">
        <ele>1738</ele>
        <time>2023-07-25T14:28:18Z</time>
      </trkpt>
      <trkpt lat="44.93438" lon="6.28476">
        <ele>1737.3</ele>
        <time>2023-07-25T14:28:24Z</time>
      </trkpt>
      <trkpt lat="44.93433" lon="6.28485">
        <ele>1735</ele>
        <time>2023-07-25T14:28:31Z</time>
      </trkpt>
      <trkpt lat="44.93428" lon="6.28489">
        <ele>1736</ele>
        <time>2023-07-25T14:28:38Z</time>
      </trkpt>
      <trkpt lat="44.93428" lon="6.28494">
        <ele>1735</ele>
        <time>2023-07-25T14:28:45Z</time>
      </trkpt>
      <trkpt lat="44.93426" lon="6.28501">
        <ele>1734.3</ele>
        <time>2023-07-25T14:28:52Z</time>
      </trkpt>
      <trkpt lat="44.93425" lon="6.28508">
        <ele>1733.1</ele>
        <time>2023-07-25T14:28:59Z</time>
      </trkpt>
      <trkpt lat="44.93423" lon="6.28518">
        <ele>1732.7</ele>
        <time>2023-07-25T14:29:06Z</time>
      </trkpt>
      <trkpt lat="44.9342" lon="6.28527">
        <ele>1732.3</ele>
        <time>2023-07-25T14:29:11Z</time>
      </trkpt>
      <trkpt lat="44.93418" lon="6.28538">
        <ele>1732.9</ele>
        <time>2023-07-25T14:29:16Z</time>
      </trkpt>
      <trkpt lat="44.93416" lon="6.28548">
        <ele>1731.5</ele>
        <time>2023-07-25T14:29:21Z</time>
      </trkpt>
      <trkpt lat="44.93413" lon="6.28557">
        <ele>1733.8</ele>
        <time>2023-07-25T14:29:26Z</time>
      </trkpt>
      <trkpt lat="44.93411" lon="6.28565">
        <ele>1732.8</ele>
        <time>2023-07-25T14:29:33Z</time>
      </trkpt>
      <trkpt lat="44.9341" lon="6.28574">
        <ele>1729.7</ele>
        <time>2023-07-25T14:29:40Z</time>
      </trkpt>
      <trkpt lat="44.93409" lon="6.28581">
        <ele>1732.8</ele>
        <time>2023-07-25T14:29:47Z</time>
      </trkpt>
      <trkpt lat="44.93409" lon="6.28587">
        <ele>1737.4</ele>
        <time>2023-07-25T14:29:54Z</time>
      </trkpt>
      <trkpt lat="44.93406" lon="6.28592">
        <ele>1740.9</ele>
        <time>2023-07-25T14:30:01Z</time>
      </trkpt>
      <trkpt lat="44.93404" lon="6.286">
        <ele>1740.6</ele>
        <time>2023-07-25T14:30:08Z</time>
      </trkpt>
      <trkpt lat="44.93402" lon="6.28606">
        <ele>1740.6</ele>
        <time>2023-07-25T14:30:15Z</time>
      </trkpt>
      <trkpt lat="44.934" lon="6.28613">
        <ele>1739.7</ele>
        <time>2023-07-25T14:30:22Z</time>
      </trkpt>
      <trkpt lat="44.93398" lon="6.28622">
        <ele>1739.5</ele>
        <time>2023-07-25T14:30:29Z</time>
      </trkpt>
      <trkpt lat="44.93394" lon="6.28634">
        <ele>1739.9</ele>
        <time>2023-07-25T14:30:35Z</time>
      </trkpt>
      <trkpt lat="44.9339" lon="6.28643">
        <ele>1738.6</ele>
        <time>2023-07-25T14:30:39Z</time>
      </trkpt>
      <trkpt lat="44.93386" lon="6.28652">
        <ele>1739.3</ele>
        <time>2023-07-25T14:30:46Z</time>
      </trkpt>
      <trkpt lat="44.93383" lon="6.2866">
        <ele>1738.3</ele>
        <time>2023-07-25T14:30:53Z</time>
      </trkpt>
      <trkpt lat="44.93382" lon="6.28665">
        <ele>1737.5</ele>
        <time>2023-07-25T14:31:00Z</time>
      </trkpt>
      <trkpt lat="44.93381" lon="6.2867">
        <ele>1737</ele>
        <time>2023-07-25T14:31:07Z</time>
      </trkpt>
      <trkpt lat="44.93379" lon="6.28676">
        <ele>1737</ele>
        <time>2023-07-25T14:31:14Z</time>
      </trkpt>
      <trkpt lat="44.93377" lon="6.2868">
        <ele>1739.2</ele>
        <time>2023-07-25T14:31:21Z</time>
      </trkpt>
      <trkpt lat="44.93374" lon="6.28681">
        <ele>1741.5</ele>
        <time>2023-07-25T14:31:28Z</time>
      </trkpt>
      <trkpt lat="44.93374" lon="6.28681">
        <ele>1741.3</ele>
        <time>2023-07-25T14:31:31Z</time>
      </trkpt>
      <trkpt lat="44.93372" lon="6.28691">
        <ele>1732.6</ele>
        <time>2023-07-25T14:32:43Z</time>
      </trkpt>
      <trkpt lat="44.93372" lon="6.28691">
        <ele>1734.1</ele>
        <time>2023-07-25T14:32:50Z</time>
      </trkpt>
      <trkpt lat="44.93372" lon="6.28698">
        <ele>1735</ele>
        <time>2023-07-25T14:33:11Z</time>
      </trkpt>
      <trkpt lat="44.93372" lon="6.28698">
        <ele>1736.8</ele>
        <time>2023-07-25T14:33:16Z</time>
      </trkpt>
      <trkpt lat="44.93372" lon="6.28699">
        <ele>1737.3</ele>
        <time>2023-07-25T14:34:33Z</time>
      </trkpt>
      <trkpt lat="44.93368" lon="6.28697">
        <ele>1738.3</ele>
        <time>2023-07-25T14:34:40Z</time>
      </trkpt>
      <trkpt lat="44.93364" lon="6.28697">
        <ele>1738</ele>
        <time>2023-07-25T14:34:47Z</time>
      </trkpt>
      <trkpt lat="44.9336" lon="6.28699">
        <ele>1738.5</ele>
        <time>2023-07-25T14:34:54Z</time>
      </trkpt>
      <trkpt lat="44.93352" lon="6.28696">
        <ele>1735.6</ele>
        <time>2023-07-25T14:35:01Z</time>
      </trkpt>
      <trkpt lat="44.9335" lon="6.28701">
        <ele>1733.2</ele>
        <time>2023-07-25T14:35:08Z</time>
      </trkpt>
      <trkpt lat="44.93348" lon="6.28708">
        <ele>1731.3</ele>
        <time>2023-07-25T14:35:15Z</time>
      </trkpt>
      <trkpt lat="44.93344" lon="6.28718">
        <ele>1728.1</ele>
        <time>2023-07-25T14:35:21Z</time>
      </trkpt>
      <trkpt lat="44.93341" lon="6.28723">
        <ele>1728.5</ele>
        <time>2023-07-25T14:35:28Z</time>
      </trkpt>
      <trkpt lat="44.93336" lon="6.28726">
        <ele>1731.3</ele>
        <time>2023-07-25T14:35:35Z</time>
      </trkpt>
      <trkpt lat="44.93329" lon="6.28725">
        <ele>1734.4</ele>
        <time>2023-07-25T14:35:42Z</time>
      </trkpt>
      <trkpt lat="44.93326" lon="6.28732">
        <ele>1734.9</ele>
        <time>2023-07-25T14:35:49Z</time>
      </trkpt>
      <trkpt lat="44.9332" lon="6.28737">
        <ele>1735.3</ele>
        <time>2023-07-25T14:35:56Z</time>
      </trkpt>
      <trkpt lat="44.93314" lon="6.28736">
        <ele>1732</ele>
        <time>2023-07-25T14:36:03Z</time>
      </trkpt>
      <trkpt lat="44.93309" lon="6.28744">
        <ele>1730.2</ele>
        <time>2023-07-25T14:36:09Z</time>
      </trkpt>
      <trkpt lat="44.93304" lon="6.28748">
        <ele>1731.7</ele>
        <time>2023-07-25T14:36:16Z</time>
      </trkpt>
      <trkpt lat="44.933" lon="6.28752">
        <ele>1731.4</ele>
        <time>2023-07-25T14:36:23Z</time>
      </trkpt>
      <trkpt lat="44.93295" lon="6.28759">
        <ele>1731.6</ele>
        <time>2023-07-25T14:36:30Z</time>
      </trkpt>
      <trkpt lat="44.93291" lon="6.28765">
        <ele>1732.6</ele>
        <time>2023-07-25T14:36:37Z</time>
      </trkpt>
      <trkpt lat="44.93284" lon="6.28768">
        <ele>1732.6</ele>
        <time>2023-07-25T14:36:44Z</time>
      </trkpt>
      <trkpt lat="44.9328" lon="6.28773">
        <ele>1733.1</ele>
        <time>2023-07-25T14:36:51Z</time>
      </trkpt>
      <trkpt lat="44.93274" lon="6.28776">
        <ele>1733.5</ele>
        <time>2023-07-25T14:36:58Z</time>
      </trkpt>
      <trkpt lat="44.93269" lon="6.28779">
        <ele>1733.1</ele>
        <time>2023-07-25T14:37:05Z</time>
      </trkpt>
      <trkpt lat="44.93265" lon="6.28781">
        <ele>1736.5</ele>
        <time>2023-07-25T14:37:12Z</time>
      </trkpt>
      <trkpt lat="44.9326" lon="6.28782">
        <ele>1737.4</ele>
        <time>2023-07-25T14:37:19Z</time>
      </trkpt>
      <trkpt lat="44.93256" lon="6.28784">
        <ele>1740</ele>
        <time>2023-07-25T14:37:26Z</time>
      </trkpt>
      <trkpt lat="44.93252" lon="6.28788">
        <ele>1741.4</ele>
        <time>2023-07-25T14:37:33Z</time>
      </trkpt>
      <trkpt lat="44.93249" lon="6.28792">
        <ele>1744</ele>
        <time>2023-07-25T14:37:40Z</time>
      </trkpt>
      <trkpt lat="44.93246" lon="6.28799">
        <ele>1738.7</ele>
        <time>2023-07-25T14:37:47Z</time>
      </trkpt>
      <trkpt lat="44.93245" lon="6.28808">
        <ele>1739</ele>
        <time>2023-07-25T14:37:54Z</time>
      </trkpt>
      <trkpt lat="44.93245" lon="6.28809">
        <ele>1738</ele>
        <time>2023-07-25T14:38:01Z</time>
      </trkpt>
      <trkpt lat="44.93245" lon="6.28809">
        <ele>1737.9</ele>
        <time>2023-07-25T14:38:02Z</time>
      </trkpt>
      <trkpt lat="44.93244" lon="6.28814">
        <ele>1738.2</ele>
        <time>2023-07-25T14:38:16Z</time>
      </trkpt>
      <trkpt lat="44.93243" lon="6.2882">
        <ele>1737.8</ele>
        <time>2023-07-25T14:38:23Z</time>
      </trkpt>
      <trkpt lat="44.9324" lon="6.28827">
        <ele>1739.8</ele>
        <time>2023-07-25T14:38:30Z</time>
      </trkpt>
      <trkpt lat="44.93234" lon="6.28834">
        <ele>1740.7</ele>
        <time>2023-07-25T14:38:37Z</time>
      </trkpt>
      <trkpt lat="44.9323" lon="6.28843">
        <ele>1741</ele>
        <time>2023-07-25T14:38:44Z</time>
      </trkpt>
      <trkpt lat="44.9323" lon="6.28849">
        <ele>1743.6</ele>
        <time>2023-07-25T14:38:51Z</time>
      </trkpt>
      <trkpt lat="44.93228" lon="6.28858">
        <ele>1743.6</ele>
        <time>2023-07-25T14:38:58Z</time>
      </trkpt>
      <trkpt lat="44.93226" lon="6.28867">
        <ele>1744.2</ele>
        <time>2023-07-25T14:39:05Z</time>
      </trkpt>
      <trkpt lat="44.93223" lon="6.28873">
        <ele>1744.5</ele>
        <time>2023-07-25T14:39:12Z</time>
      </trkpt>
      <trkpt lat="44.93221" lon="6.28882">
        <ele>1743.3</ele>
        <time>2023-07-25T14:39:19Z</time>
      </trkpt>
      <trkpt lat="44.93218" lon="6.28891">
        <ele>1742.8</ele>
        <time>2023-07-25T14:39:26Z</time>
      </trkpt>
      <trkpt lat="44.93216" lon="6.289">
        <ele>1744.4</ele>
        <time>2023-07-25T14:39:33Z</time>
      </trkpt>
      <trkpt lat="44.93215" lon="6.28907">
        <ele>1744.8</ele>
        <time>2023-07-25T14:39:40Z</time>
      </trkpt>
      <trkpt lat="44.93214" lon="6.28915">
        <ele>1745</ele>
        <time>2023-07-25T14:39:47Z</time>
      </trkpt>
      <trkpt lat="44.93209" lon="6.28916">
        <ele>1746.1</ele>
        <time>2023-07-25T14:39:54Z</time>
      </trkpt>
      <trkpt lat="44.93205" lon="6.28921">
        <ele>1747.5</ele>
        <time>2023-07-25T14:40:01Z</time>
      </trkpt>
      <trkpt lat="44.93202" lon="6.28924">
        <ele>1749.9</ele>
        <time>2023-07-25T14:40:08Z</time>
      </trkpt>
      <trkpt lat="44.93198" lon="6.28928">
        <ele>1748.6</ele>
        <time>2023-07-25T14:40:15Z</time>
      </trkpt>
      <trkpt lat="44.93197" lon="6.2893">
        <ele>1747.8</ele>
        <time>2023-07-25T14:40:22Z</time>
      </trkpt>
      <trkpt lat="44.93192" lon="6.28933">
        <ele>1747.8</ele>
        <time>2023-07-25T14:40:29Z</time>
      </trkpt>
      <trkpt lat="44.93188" lon="6.28938">
        <ele>1749.1</ele>
        <time>2023-07-25T14:40:36Z</time>
      </trkpt>
      <trkpt lat="44.93188" lon="6.2894">
        <ele>1752.9</ele>
        <time>2023-07-25T14:40:42Z</time>
      </trkpt>
      <trkpt lat="44.93189" lon="6.2894">
        <ele>1752.8</ele>
        <time>2023-07-25T14:40:50Z</time>
      </trkpt>
      <trkpt lat="44.93189" lon="6.2894">
        <ele>1752.6</ele>
        <time>2023-07-25T14:40:51Z</time>
      </trkpt>
      <trkpt lat="44.93186" lon="6.28945">
        <ele>1751.8</ele>
        <time>2023-07-25T14:41:00Z</time>
      </trkpt>
      <trkpt lat="44.93183" lon="6.28951">
        <ele>1751.4</ele>
        <time>2023-07-25T14:41:07Z</time>
      </trkpt>
      <trkpt lat="44.9318" lon="6.28953">
        <ele>1754.3</ele>
        <time>2023-07-25T14:41:14Z</time>
      </trkpt>
      <trkpt lat="44.93178" lon="6.28952">
        <ele>1754.8</ele>
        <time>2023-07-25T14:41:17Z</time>
      </trkpt>
      <trkpt lat="44.93176" lon="6.28947">
        <ele>1757.6</ele>
        <time>2023-07-25T14:41:25Z</time>
      </trkpt>
      <trkpt lat="44.9317" lon="6.28949">
        <ele>1755.4</ele>
        <time>2023-07-25T14:41:32Z</time>
      </trkpt>
      <trkpt lat="44.9317" lon="6.28947">
        <ele>1758.8</ele>
        <time>2023-07-25T14:41:39Z</time>
      </trkpt>
      <trkpt lat="44.9317" lon="6.28949">
        <ele>1759</ele>
        <time>2023-07-25T14:41:46Z</time>
      </trkpt>
      <trkpt lat="44.93166" lon="6.28951">
        <ele>1758.3</ele>
        <time>2023-07-25T14:41:53Z</time>
      </trkpt>
      <trkpt lat="44.93165" lon="6.2895">
        <ele>1758.8</ele>
        <time>2023-07-25T14:42:00Z</time>
      </trkpt>
      <trkpt lat="44.93164" lon="6.2895">
        <ele>1758.6</ele>
        <time>2023-07-25T14:42:03Z</time>
      </trkpt>
      <trkpt lat="44.93164" lon="6.28958">
        <ele>1760.9</ele>
        <time>2023-07-25T14:43:46Z</time>
      </trkpt>
      <trkpt lat="44.93164" lon="6.28959">
        <ele>1762</ele>
        <time>2023-07-25T14:43:53Z</time>
      </trkpt>
      <trkpt lat="44.93167" lon="6.28963">
        <ele>1762</ele>
        <time>2023-07-25T14:44:01Z</time>
      </trkpt>
      <trkpt lat="44.93169" lon="6.2897">
        <ele>1764.1</ele>
        <time>2023-07-25T14:44:08Z</time>
      </trkpt>
      <trkpt lat="44.93169" lon="6.2897">
        <ele>1762.6</ele>
        <time>2023-07-25T14:44:14Z</time>
      </trkpt>
      <trkpt lat="44.9317" lon="6.2897">
        <ele>1764.9</ele>
        <time>2023-07-25T14:44:36Z</time>
      </trkpt>
      <trkpt lat="44.9317" lon="6.2897">
        <ele>1764.9</ele>
        <time>2023-07-25T14:44:37Z</time>
      </trkpt>
      <trkpt lat="44.93172" lon="6.2897">
        <ele>1770.6</ele>
        <time>2023-07-25T14:46:11Z</time>
      </trkpt>
      <trkpt lat="44.93172" lon="6.2897">
        <ele>1773.7</ele>
        <time>2023-07-25T14:46:16Z</time>
      </trkpt>
      <trkpt lat="44.93176" lon="6.2897">
        <ele>1776.2</ele>
        <time>2023-07-25T14:46:28Z</time>
      </trkpt>
      <trkpt lat="44.93176" lon="6.28968">
        <ele>1776.8</ele>
        <time>2023-07-25T14:46:35Z</time>
      </trkpt>
      <trkpt lat="44.93176" lon="6.28968">
        <ele>1777.2</ele>
        <time>2023-07-25T14:46:41Z</time>
      </trkpt>
      <trkpt lat="44.93174" lon="6.28969">
        <ele>1777.3</ele>
        <time>2023-07-25T14:46:48Z</time>
      </trkpt>
      <trkpt lat="44.93174" lon="6.28969">
        <ele>1777.9</ele>
        <time>2023-07-25T14:46:54Z</time>
      </trkpt>
      <trkpt lat="44.93175" lon="6.28969">
        <ele>1779.7</ele>
        <time>2023-07-25T14:47:16Z</time>
      </trkpt>
      <trkpt lat="44.93175" lon="6.28968">
        <ele>1779.3</ele>
        <time>2023-07-25T14:47:17Z</time>
      </trkpt>
      <trkpt lat="44.93176" lon="6.28969">
        <ele>1780.6</ele>
        <time>2023-07-25T14:47:25Z</time>
      </trkpt>
      <trkpt lat="44.93176" lon="6.28969">
        <ele>1780.5</ele>
        <time>2023-07-25T14:47:26Z</time>
      </trkpt>
      <trkpt lat="44.93174" lon="6.28974">
        <ele>1780.7</ele>
        <time>2023-07-25T14:47:40Z</time>
      </trkpt>
      <trkpt lat="44.9317" lon="6.28981">
        <ele>1780.6</ele>
        <time>2023-07-25T14:47:47Z</time>
      </trkpt>
      <trkpt lat="44.93169" lon="6.28986">
        <ele>1778.2</ele>
        <time>2023-07-25T14:47:54Z</time>
      </trkpt>
      <trkpt lat="44.93167" lon="6.28992">
        <ele>1777.5</ele>
        <time>2023-07-25T14:48:01Z</time>
      </trkpt>
      <trkpt lat="44.93167" lon="6.28998">
        <ele>1776</ele>
        <time>2023-07-25T14:48:08Z</time>
      </trkpt>
      <trkpt lat="44.93167" lon="6.29001">
        <ele>1777.5</ele>
        <time>2023-07-25T14:48:15Z</time>
      </trkpt>
      <trkpt lat="44.93167" lon="6.29002">
        <ele>1777.1</ele>
        <time>2023-07-25T14:48:17Z</time>
      </trkpt>
      <trkpt lat="44.93165" lon="6.29012">
        <ele>1776</ele>
        <time>2023-07-25T14:48:25Z</time>
      </trkpt>
      <trkpt lat="44.93163" lon="6.29015">
        <ele>1776.8</ele>
        <time>2023-07-25T14:48:32Z</time>
      </trkpt>
      <trkpt lat="44.93164" lon="6.29013">
        <ele>1775.3</ele>
        <time>2023-07-25T14:48:39Z</time>
      </trkpt>
      <trkpt lat="44.93164" lon="6.29013">
        <ele>1775.3</ele>
        <time>2023-07-25T14:48:43Z</time>
      </trkpt>
      <trkpt lat="44.93164" lon="6.29016">
        <ele>1773.6</ele>
        <time>2023-07-25T14:48:54Z</time>
      </trkpt>
      <trkpt lat="44.93164" lon="6.29016">
        <ele>1775.6</ele>
        <time>2023-07-25T14:48:58Z</time>
      </trkpt>
      <trkpt lat="44.93163" lon="6.29021">
        <ele>1776.4</ele>
        <time>2023-07-25T14:49:05Z</time>
      </trkpt>
      <trkpt lat="44.93162" lon="6.29023">
        <ele>1775</ele>
        <time>2023-07-25T14:49:12Z</time>
      </trkpt>
      <trkpt lat="44.93162" lon="6.29023">
        <ele>1774.9</ele>
        <time>2023-07-25T14:49:13Z</time>
      </trkpt>
      <trkpt lat="44.93162" lon="6.29029">
        <ele>1775</ele>
        <time>2023-07-25T14:49:20Z</time>
      </trkpt>
      <trkpt lat="44.93164" lon="6.29034">
        <ele>1774.7</ele>
        <time>2023-07-25T14:49:27Z</time>
      </trkpt>
      <trkpt lat="44.93164" lon="6.29036">
        <ele>1774.5</ele>
        <time>2023-07-25T14:49:32Z</time>
      </trkpt>
      <trkpt lat="44.93164" lon="6.29042">
        <ele>1772.8</ele>
        <time>2023-07-25T14:49:40Z</time>
      </trkpt>
      <trkpt lat="44.93164" lon="6.29048">
        <ele>1771.9</ele>
        <time>2023-07-25T14:49:47Z</time>
      </trkpt>
      <trkpt lat="44.93164" lon="6.29053">
        <ele>1771.3</ele>
        <time>2023-07-25T14:49:54Z</time>
      </trkpt>
      <trkpt lat="44.93167" lon="6.29057">
        <ele>1772.1</ele>
        <time>2023-07-25T14:50:01Z</time>
      </trkpt>
      <trkpt lat="44.93168" lon="6.29061">
        <ele>1770.1</ele>
        <time>2023-07-25T14:50:08Z</time>
      </trkpt>
      <trkpt lat="44.9317" lon="6.29064">
        <ele>1768.4</ele>
        <time>2023-07-25T14:50:15Z</time>
      </trkpt>
      <trkpt lat="44.93173" lon="6.29071">
        <ele>1765.7</ele>
        <time>2023-07-25T14:50:22Z</time>
      </trkpt>
      <trkpt lat="44.93173" lon="6.29078">
        <ele>1765.5</ele>
        <time>2023-07-25T14:50:29Z</time>
      </trkpt>
      <trkpt lat="44.93174" lon="6.29083">
        <ele>1765.5</ele>
        <time>2023-07-25T14:50:36Z</time>
      </trkpt>
      <trkpt lat="44.93171" lon="6.29091">
        <ele>1763.3</ele>
        <time>2023-07-25T14:50:43Z</time>
      </trkpt>
      <trkpt lat="44.9317" lon="6.29098">
        <ele>1762.6</ele>
        <time>2023-07-25T14:50:50Z</time>
      </trkpt>
      <trkpt lat="44.93168" lon="6.29104">
        <ele>1759.8</ele>
        <time>2023-07-25T14:50:57Z</time>
      </trkpt>
      <trkpt lat="44.93166" lon="6.29111">
        <ele>1758.4</ele>
        <time>2023-07-25T14:51:04Z</time>
      </trkpt>
      <trkpt lat="44.93167" lon="6.29111">
        <ele>1759.4</ele>
        <time>2023-07-25T14:51:11Z</time>
      </trkpt>
      <trkpt lat="44.93167" lon="6.29111">
        <ele>1758.6</ele>
        <time>2023-07-25T14:51:15Z</time>
      </trkpt>
      <trkpt lat="44.93167" lon="6.29115">
        <ele>1759.3</ele>
        <time>2023-07-25T14:51:28Z</time>
      </trkpt>
      <trkpt lat="44.93163" lon="6.29123">
        <ele>1758</ele>
        <time>2023-07-25T14:51:35Z</time>
      </trkpt>
      <trkpt lat="44.9316" lon="6.2913">
        <ele>1756.7</ele>
        <time>2023-07-25T14:51:42Z</time>
      </trkpt>
      <trkpt lat="44.93153" lon="6.29137">
        <ele>1756</ele>
        <time>2023-07-25T14:51:47Z</time>
      </trkpt>
      <trkpt lat="44.93148" lon="6.29146">
        <ele>1753.1</ele>
        <time>2023-07-25T14:51:53Z</time>
      </trkpt>
      <trkpt lat="44.93146" lon="6.29156">
        <ele>1751.1</ele>
        <time>2023-07-25T14:52:00Z</time>
      </trkpt>
      <trkpt lat="44.93143" lon="6.29163">
        <ele>1753.8</ele>
        <time>2023-07-25T14:52:07Z</time>
      </trkpt>
      <trkpt lat="44.93142" lon="6.29171">
        <ele>1752.1</ele>
        <time>2023-07-25T14:52:14Z</time>
      </trkpt>
      <trkpt lat="44.9314" lon="6.29177">
        <ele>1750.9</ele>
        <time>2023-07-25T14:52:21Z</time>
      </trkpt>
      <trkpt lat="44.9314" lon="6.29177">
        <ele>1751.7</ele>
        <time>2023-07-25T14:52:25Z</time>
      </trkpt>
      <trkpt lat="44.9314" lon="6.29178">
        <ele>1751.8</ele>
        <time>2023-07-25T14:52:37Z</time>
      </trkpt>
      <trkpt lat="44.9314" lon="6.29178">
        <ele>1751.8</ele>
        <time>2023-07-25T14:52:38Z</time>
      </trkpt>
      <trkpt lat="44.93142" lon="6.29168">
        <ele>1750.3</ele>
        <time>2023-07-25T14:53:01Z</time>
      </trkpt>
      <trkpt lat="44.93143" lon="6.29159">
        <ele>1750.6</ele>
        <time>2023-07-25T14:53:08Z</time>
      </trkpt>
      <trkpt lat="44.93147" lon="6.29158">
        <ele>1749.4</ele>
        <time>2023-07-25T14:53:15Z</time>
      </trkpt>
      <trkpt lat="44.93148" lon="6.29153">
        <ele>1748.7</ele>
        <time>2023-07-25T14:53:22Z</time>
      </trkpt>
      <trkpt lat="44.93147" lon="6.29142">
        <ele>1746.8</ele>
        <time>2023-07-25T14:53:29Z</time>
      </trkpt>
      <trkpt lat="44.93152" lon="6.29137">
        <ele>1745.9</ele>
        <time>2023-07-25T14:53:36Z</time>
      </trkpt>
      <trkpt lat="44.93154" lon="6.29132">
        <ele>1746.1</ele>
        <time>2023-07-25T14:53:43Z</time>
      </trkpt>
      <trkpt lat="44.93155" lon="6.29123">
        <ele>1745.6</ele>
        <time>2023-07-25T14:53:50Z</time>
      </trkpt>
      <trkpt lat="44.93155" lon="6.29122">
        <ele>1747.4</ele>
        <time>2023-07-25T14:53:57Z</time>
      </trkpt>
      <trkpt lat="44.93157" lon="6.29119">
        <ele>1750.1</ele>
        <time>2023-07-25T14:54:04Z</time>
      </trkpt>
      <trkpt lat="44.93159" lon="6.29118">
        <ele>1751</ele>
        <time>2023-07-25T14:54:07Z</time>
      </trkpt>
      <trkpt lat="44.93159" lon="6.29118">
        <ele>1751.3</ele>
        <time>2023-07-25T14:54:21Z</time>
      </trkpt>
      <trkpt lat="44.93159" lon="6.29118">
        <ele>1751.3</ele>
        <time>2023-07-25T14:54:22Z</time>
      </trkpt>
      <trkpt lat="44.9316" lon="6.29113">
        <ele>1752.8</ele>
        <time>2023-07-25T14:54:34Z</time>
      </trkpt>
      <trkpt lat="44.93157" lon="6.2911">
        <ele>1752.2</ele>
        <time>2023-07-25T14:54:41Z</time>
      </trkpt>
      <trkpt lat="44.93155" lon="6.29109">
        <ele>1753.8</ele>
        <time>2023-07-25T14:54:48Z</time>
      </trkpt>
      <trkpt lat="44.93154" lon="6.29114">
        <ele>1756.2</ele>
        <time>2023-07-25T14:54:55Z</time>
      </trkpt>
      <trkpt lat="44.93153" lon="6.29115">
        <ele>1758.9</ele>
        <time>2023-07-25T14:55:00Z</time>
      </trkpt>
      <trkpt lat="44.93148" lon="6.29117">
        <ele>1760</ele>
        <time>2023-07-25T14:55:08Z</time>
      </trkpt>
      <trkpt lat="44.93148" lon="6.2912">
        <ele>1761.6</ele>
        <time>2023-07-25T14:55:15Z</time>
      </trkpt>
      <trkpt lat="44.93144" lon="6.29121">
        <ele>1760.9</ele>
        <time>2023-07-25T14:55:22Z</time>
      </trkpt>
      <trkpt lat="44.93144" lon="6.2912">
        <ele>1760.2</ele>
        <time>2023-07-25T14:55:29Z</time>
      </trkpt>
      <trkpt lat="44.93145" lon="6.29121">
        <ele>1760.7</ele>
        <time>2023-07-25T14:55:40Z</time>
      </trkpt>
      <trkpt lat="44.93145" lon="6.29121">
        <ele>1762.4</ele>
        <time>2023-07-25T14:55:47Z</time>
      </trkpt>
      <trkpt lat="44.93146" lon="6.29124">
        <ele>1762.9</ele>
        <time>2023-07-25T14:55:54Z</time>
      </trkpt>
      <trkpt lat="44.93146" lon="6.29124">
        <ele>1763.2</ele>
        <time>2023-07-25T14:55:56Z</time>
      </trkpt>
      <trkpt lat="44.93146" lon="6.29123">
        <ele>1763.5</ele>
        <time>2023-07-25T14:56:05Z</time>
      </trkpt>
      <trkpt lat="44.93146" lon="6.29123">
        <ele>1763.6</ele>
        <time>2023-07-25T14:56:06Z</time>
      </trkpt>
      <trkpt lat="44.93147" lon="6.29121">
        <ele>1765.6</ele>
        <time>2023-07-25T14:56:15Z</time>
      </trkpt>
      <trkpt lat="44.93147" lon="6.29121">
        <ele>1765.9</ele>
        <time>2023-07-25T14:56:16Z</time>
      </trkpt>
      <trkpt lat="44.93147" lon="6.2912">
        <ele>1766.3</ele>
        <time>2023-07-25T14:56:42Z</time>
      </trkpt>
      <trkpt lat="44.93147" lon="6.2912">
        <ele>1766.4</ele>
        <time>2023-07-25T14:56:43Z</time>
      </trkpt>
      <trkpt lat="44.93142" lon="6.29122">
        <ele>1766.8</ele>
        <time>2023-07-25T14:57:16Z</time>
      </trkpt>
      <trkpt lat="44.93142" lon="6.29124">
        <ele>1765.9</ele>
        <time>2023-07-25T14:57:23Z</time>
      </trkpt>
      <trkpt lat="44.93142" lon="6.29124">
        <ele>1765.6</ele>
        <time>2023-07-25T14:57:27Z</time>
      </trkpt>
      <trkpt lat="44.93142" lon="6.29123">
        <ele>1767</ele>
        <time>2023-07-25T14:58:46Z</time>
      </trkpt>
      <trkpt lat="44.93141" lon="6.29123">
        <ele>1766.8</ele>
        <time>2023-07-25T14:58:47Z</time>
      </trkpt>
      <trkpt lat="44.9314" lon="6.29123">
        <ele>1767.8</ele>
        <time>2023-07-25T15:00:37Z</time>
      </trkpt>
      <trkpt lat="44.9314" lon="6.29123">
        <ele>1767.6</ele>
        <time>2023-07-25T15:00:38Z</time>
      </trkpt>
      <trkpt lat="44.9314" lon="6.29122">
        <ele>1768.1</ele>
        <time>2023-07-25T15:00:52Z</time>
      </trkpt>
      <trkpt lat="44.9314" lon="6.29122">
        <ele>1767.8</ele>
        <time>2023-07-25T15:00:53Z</time>
      </trkpt>
      <trkpt lat="44.93143" lon="6.29121">
        <ele>1768.4</ele>
        <time>2023-07-25T15:01:03Z</time>
      </trkpt>
      <trkpt lat="44.93148" lon="6.29114">
        <ele>1767.8</ele>
        <time>2023-07-25T15:01:09Z</time>
      </trkpt>
      <trkpt lat="44.93151" lon="6.2911">
        <ele>1767.5</ele>
        <time>2023-07-25T15:01:16Z</time>
      </trkpt>
      <trkpt lat="44.93153" lon="6.29102">
        <ele>1768.7</ele>
        <time>2023-07-25T15:01:23Z</time>
      </trkpt>
      <trkpt lat="44.93155" lon="6.29094">
        <ele>1767.9</ele>
        <time>2023-07-25T15:01:30Z</time>
      </trkpt>
      <trkpt lat="44.93157" lon="6.29089">
        <ele>1770.5</ele>
        <time>2023-07-25T15:01:37Z</time>
      </trkpt>
      <trkpt lat="44.93158" lon="6.29081">
        <ele>1766.7</ele>
        <time>2023-07-25T15:01:44Z</time>
      </trkpt>
      <trkpt lat="44.93157" lon="6.29074">
        <ele>1764.1</ele>
        <time>2023-07-25T15:01:51Z</time>
      </trkpt>
      <trkpt lat="44.93155" lon="6.29064">
        <ele>1768.5</ele>
        <time>2023-07-25T15:01:58Z</time>
      </trkpt>
      <trkpt lat="44.93155" lon="6.29057">
        <ele>1767</ele>
        <time>2023-07-25T15:02:05Z</time>
      </trkpt>
      <trkpt lat="44.93155" lon="6.29045">
        <ele>1763.6</ele>
        <time>2023-07-25T15:02:11Z</time>
      </trkpt>
      <trkpt lat="44.93155" lon="6.29044">
        <ele>1764.9</ele>
        <time>2023-07-25T15:02:18Z</time>
      </trkpt>
      <trkpt lat="44.93155" lon="6.29045">
        <ele>1767.3</ele>
        <time>2023-07-25T15:02:24Z</time>
      </trkpt>
      <trkpt lat="44.93152" lon="6.29052">
        <ele>1768.9</ele>
        <time>2023-07-25T15:02:31Z</time>
      </trkpt>
      <trkpt lat="44.93148" lon="6.2906">
        <ele>1765.9</ele>
        <time>2023-07-25T15:02:38Z</time>
      </trkpt>
      <trkpt lat="44.93148" lon="6.29067">
        <ele>1764.8</ele>
        <time>2023-07-25T15:02:45Z</time>
      </trkpt>
      <trkpt lat="44.9315" lon="6.29067">
        <ele>1766.5</ele>
        <time>2023-07-25T15:02:52Z</time>
      </trkpt>
      <trkpt lat="44.93147" lon="6.29077">
        <ele>1764.9</ele>
        <time>2023-07-25T15:03:01Z</time>
      </trkpt>
      <trkpt lat="44.93145" lon="6.29085">
        <ele>1763.3</ele>
        <time>2023-07-25T15:03:08Z</time>
      </trkpt>
      <trkpt lat="44.93145" lon="6.29093">
        <ele>1762.8</ele>
        <time>2023-07-25T15:03:15Z</time>
      </trkpt>
      <trkpt lat="44.93145" lon="6.29099">
        <ele>1760.7</ele>
        <time>2023-07-25T15:03:22Z</time>
      </trkpt>
      <trkpt lat="44.93148" lon="6.29104">
        <ele>1759.8</ele>
        <time>2023-07-25T15:03:29Z</time>
      </trkpt>
      <trkpt lat="44.93148" lon="6.29113">
        <ele>1758.8</ele>
        <time>2023-07-25T15:03:36Z</time>
      </trkpt>
      <trkpt lat="44.93154" lon="6.29113">
        <ele>1760.8</ele>
        <time>2023-07-25T15:03:43Z</time>
      </trkpt>
      <trkpt lat="44.93157" lon="6.29115">
        <ele>1761</ele>
        <time>2023-07-25T15:03:50Z</time>
      </trkpt>
      <trkpt lat="44.9316" lon="6.29115">
        <ele>1761</ele>
        <time>2023-07-25T15:03:57Z</time>
      </trkpt>
      <trkpt lat="44.93161" lon="6.29117">
        <ele>1763.8</ele>
        <time>2023-07-25T15:04:04Z</time>
      </trkpt>
      <trkpt lat="44.93161" lon="6.29116">
        <ele>1761</ele>
        <time>2023-07-25T15:04:11Z</time>
      </trkpt>
      <trkpt lat="44.93159" lon="6.29112">
        <ele>1759.8</ele>
        <time>2023-07-25T15:04:18Z</time>
      </trkpt>
      <trkpt lat="44.93162" lon="6.29113">
        <ele>1759.7</ele>
        <time>2023-07-25T15:04:25Z</time>
      </trkpt>
      <trkpt lat="44.93162" lon="6.29115">
        <ele>1758.2</ele>
        <time>2023-07-25T15:04:29Z</time>
      </trkpt>
      <trkpt lat="44.93162" lon="6.29122">
        <ele>1757.6</ele>
        <time>2023-07-25T15:04:36Z</time>
      </trkpt>
      <trkpt lat="44.93166" lon="6.29121">
        <ele>1758.3</ele>
        <time>2023-07-25T15:04:43Z</time>
      </trkpt>
      <trkpt lat="44.93171" lon="6.29118">
        <ele>1758.6</ele>
        <time>2023-07-25T15:04:50Z</time>
      </trkpt>
      <trkpt lat="44.93176" lon="6.29112">
        <ele>1757.9</ele>
        <time>2023-07-25T15:04:57Z</time>
      </trkpt>
      <trkpt lat="44.93176" lon="6.29104">
        <ele>1756.7</ele>
        <time>2023-07-25T15:05:04Z</time>
      </trkpt>
      <trkpt lat="44.93177" lon="6.29094">
        <ele>1756.4</ele>
        <time>2023-07-25T15:05:11Z</time>
      </trkpt>
      <trkpt lat="44.9318" lon="6.29083">
        <ele>1754.9</ele>
        <time>2023-07-25T15:05:18Z</time>
      </trkpt>
      <trkpt lat="44.93181" lon="6.29078">
        <ele>1757.1</ele>
        <time>2023-07-25T15:05:25Z</time>
      </trkpt>
      <trkpt lat="44.93181" lon="6.29078">
        <ele>1757.9</ele>
        <time>2023-07-25T15:05:28Z</time>
      </trkpt>
      <trkpt lat="44.93183" lon="6.29078">
        <ele>1755.6</ele>
        <time>2023-07-25T15:05:40Z</time>
      </trkpt>
      <trkpt lat="44.93191" lon="6.29077">
        <ele>1757</ele>
        <time>2023-07-25T15:05:47Z</time>
      </trkpt>
      <trkpt lat="44.93199" lon="6.29076">
        <ele>1757.8</ele>
        <time>2023-07-25T15:05:54Z</time>
      </trkpt>
      <trkpt lat="44.93206" lon="6.29074">
        <ele>1756.4</ele>
        <time>2023-07-25T15:06:01Z</time>
      </trkpt>
      <trkpt lat="44.93209" lon="6.29071">
        <ele>1755.8</ele>
        <time>2023-07-25T15:06:08Z</time>
      </trkpt>
      <trkpt lat="44.93209" lon="6.29074">
        <ele>1752.4</ele>
        <time>2023-07-25T15:06:15Z</time>
      </trkpt>
      <trkpt lat="44.93206" lon="6.2908">
        <ele>1750.5</ele>
        <time>2023-07-25T15:06:22Z</time>
      </trkpt>
      <trkpt lat="44.93203" lon="6.29087">
        <ele>1746.4</ele>
        <time>2023-07-25T15:06:29Z</time>
      </trkpt>
      <trkpt lat="44.93203" lon="6.29089">
        <ele>1746.3</ele>
        <time>2023-07-25T15:06:36Z</time>
      </trkpt>
      <trkpt lat="44.93204" lon="6.29089">
        <ele>1746.4</ele>
        <time>2023-07-25T15:06:38Z</time>
      </trkpt>
      <trkpt lat="44.93205" lon="6.2909">
        <ele>1747.5</ele>
        <time>2023-07-25T15:06:46Z</time>
      </trkpt>
      <trkpt lat="44.93205" lon="6.2909">
        <ele>1747.6</ele>
        <time>2023-07-25T15:06:47Z</time>
      </trkpt>
      <trkpt lat="44.93207" lon="6.29093">
        <ele>1748.8</ele>
        <time>2023-07-25T15:07:11Z</time>
      </trkpt>
      <trkpt lat="44.93208" lon="6.29093">
        <ele>1748.7</ele>
        <time>2023-07-25T15:07:14Z</time>
      </trkpt>
      <trkpt lat="44.93203" lon="6.291">
        <ele>1747.1</ele>
        <time>2023-07-25T15:07:29Z</time>
      </trkpt>
      <trkpt lat="44.93201" lon="6.29108">
        <ele>1746.9</ele>
        <time>2023-07-25T15:07:36Z</time>
      </trkpt>
      <trkpt lat="44.93204" lon="6.29116">
        <ele>1746.6</ele>
        <time>2023-07-25T15:07:43Z</time>
      </trkpt>
      <trkpt lat="44.93203" lon="6.29121">
        <ele>1747.7</ele>
        <time>2023-07-25T15:07:50Z</time>
      </trkpt>
      <trkpt lat="44.93205" lon="6.2913">
        <ele>1745.1</ele>
        <time>2023-07-25T15:07:57Z</time>
      </trkpt>
      <trkpt lat="44.93208" lon="6.2914">
        <ele>1743.7</ele>
        <time>2023-07-25T15:08:03Z</time>
      </trkpt>
      <trkpt lat="44.93208" lon="6.29151">
        <ele>1737.9</ele>
        <time>2023-07-25T15:08:10Z</time>
      </trkpt>
      <trkpt lat="44.93207" lon="6.29161">
        <ele>1737</ele>
        <time>2023-07-25T15:08:17Z</time>
      </trkpt>
      <trkpt lat="44.93206" lon="6.29173">
        <ele>1738.2</ele>
        <time>2023-07-25T15:08:24Z</time>
      </trkpt>
      <trkpt lat="44.93205" lon="6.29184">
        <ele>1738</ele>
        <time>2023-07-25T15:08:30Z</time>
      </trkpt>
      <trkpt lat="44.93202" lon="6.29195">
        <ele>1734.7</ele>
        <time>2023-07-25T15:08:37Z</time>
      </trkpt>
      <trkpt lat="44.93202" lon="6.29203">
        <ele>1736.2</ele>
        <time>2023-07-25T15:08:44Z</time>
      </trkpt>
      <trkpt lat="44.93206" lon="6.2921">
        <ele>1742.1</ele>
        <time>2023-07-25T15:08:51Z</time>
      </trkpt>
      <trkpt lat="44.93209" lon="6.29214">
        <ele>1743.9</ele>
        <time>2023-07-25T15:08:58Z</time>
      </trkpt>
      <trkpt lat="44.93208" lon="6.29221">
        <ele>1742</ele>
        <time>2023-07-25T15:09:05Z</time>
      </trkpt>
      <trkpt lat="44.93205" lon="6.29226">
        <ele>1743.2</ele>
        <time>2023-07-25T15:09:12Z</time>
      </trkpt>
      <trkpt lat="44.93204" lon="6.29235">
        <ele>1741.8</ele>
        <time>2023-07-25T15:09:19Z</time>
      </trkpt>
      <trkpt lat="44.93202" lon="6.29242">
        <ele>1732.5</ele>
        <time>2023-07-25T15:09:26Z</time>
      </trkpt>
      <trkpt lat="44.93202" lon="6.29242">
        <ele>1732.8</ele>
        <time>2023-07-25T15:09:32Z</time>
      </trkpt>
      <trkpt lat="44.93204" lon="6.29243">
        <ele>1734.2</ele>
        <time>2023-07-25T15:09:52Z</time>
      </trkpt>
      <trkpt lat="44.93204" lon="6.29243">
        <ele>1734.2</ele>
        <time>2023-07-25T15:09:53Z</time>
      </trkpt>
      <trkpt lat="44.93209" lon="6.29243">
        <ele>1734.5</ele>
        <time>2023-07-25T15:10:05Z</time>
      </trkpt>
      <trkpt lat="44.93216" lon="6.29241">
        <ele>1734.8</ele>
        <time>2023-07-25T15:10:11Z</time>
      </trkpt>
      <trkpt lat="44.93224" lon="6.29241">
        <ele>1734.8</ele>
        <time>2023-07-25T15:10:17Z</time>
      </trkpt>
      <trkpt lat="44.93229" lon="6.29243">
        <ele>1734.9</ele>
        <time>2023-07-25T15:10:24Z</time>
      </trkpt>
      <trkpt lat="44.93231" lon="6.29242">
        <ele>1735.2</ele>
        <time>2023-07-25T15:10:31Z</time>
      </trkpt>
      <trkpt lat="44.93235" lon="6.29238">
        <ele>1738.3</ele>
        <time>2023-07-25T15:10:38Z</time>
      </trkpt>
      <trkpt lat="44.9324" lon="6.29238">
        <ele>1741.5</ele>
        <time>2023-07-25T15:10:45Z</time>
      </trkpt>
      <trkpt lat="44.93244" lon="6.29241">
        <ele>1744.7</ele>
        <time>2023-07-25T15:10:52Z</time>
      </trkpt>
      <trkpt lat="44.93247" lon="6.29243">
        <ele>1744</ele>
        <time>2023-07-25T15:10:59Z</time>
      </trkpt>
      <trkpt lat="44.93247" lon="6.29243">
        <ele>1744</ele>
        <time>2023-07-25T15:11:03Z</time>
      </trkpt>
      <trkpt lat="44.93246" lon="6.29236">
        <ele>1743</ele>
        <time>2023-07-25T15:11:11Z</time>
      </trkpt>
      <trkpt lat="44.93246" lon="6.29236">
        <ele>1746.9</ele>
        <time>2023-07-25T15:11:17Z</time>
      </trkpt>
      <trkpt lat="44.93243" lon="6.29236">
        <ele>1748</ele>
        <time>2023-07-25T15:11:24Z</time>
      </trkpt>
      <trkpt lat="44.93243" lon="6.29236">
        <ele>1747.7</ele>
        <time>2023-07-25T15:11:25Z</time>
      </trkpt>
      <trkpt lat="44.93244" lon="6.29235">
        <ele>1746.9</ele>
        <time>2023-07-25T15:11:35Z</time>
      </trkpt>
      <trkpt lat="44.93249" lon="6.29224">
        <ele>1751</ele>
        <time>2023-07-25T15:11:42Z</time>
      </trkpt>
      <trkpt lat="44.93252" lon="6.29219">
        <ele>1752.9</ele>
        <time>2023-07-25T15:11:49Z</time>
      </trkpt>
      <trkpt lat="44.93256" lon="6.29214">
        <ele>1752.9</ele>
        <time>2023-07-25T15:11:56Z</time>
      </trkpt>
      <trkpt lat="44.93261" lon="6.2921">
        <ele>1752.9</ele>
        <time>2023-07-25T15:12:03Z</time>
      </trkpt>
      <trkpt lat="44.93269" lon="6.29217">
        <ele>1751.5</ele>
        <time>2023-07-25T15:12:09Z</time>
      </trkpt>
      <trkpt lat="44.93275" lon="6.29224">
        <ele>1750</ele>
        <time>2023-07-25T15:12:16Z</time>
      </trkpt>
      <trkpt lat="44.93269" lon="6.29234">
        <ele>1758.3</ele>
        <time>2023-07-25T15:12:23Z</time>
      </trkpt>
      <trkpt lat="44.93264" lon="6.29242">
        <ele>1760.8</ele>
        <time>2023-07-25T15:12:30Z</time>
      </trkpt>
      <trkpt lat="44.93258" lon="6.29249">
        <ele>1759.3</ele>
        <time>2023-07-25T15:12:37Z</time>
      </trkpt>
      <trkpt lat="44.93255" lon="6.29256">
        <ele>1760.7</ele>
        <time>2023-07-25T15:12:44Z</time>
      </trkpt>
      <trkpt lat="44.93254" lon="6.29267">
        <ele>1759.2</ele>
        <time>2023-07-25T15:12:51Z</time>
      </trkpt>
      <trkpt lat="44.93253" lon="6.29273">
        <ele>1758.2</ele>
        <time>2023-07-25T15:12:58Z</time>
      </trkpt>
      <trkpt lat="44.9325" lon="6.29274">
        <ele>1755.7</ele>
        <time>2023-07-25T15:13:05Z</time>
      </trkpt>
      <trkpt lat="44.9325" lon="6.29274">
        <ele>1754.2</ele>
        <time>2023-07-25T15:13:09Z</time>
      </trkpt>
      <trkpt lat="44.93249" lon="6.29282">
        <ele>1750.9</ele>
        <time>2023-07-25T15:13:18Z</time>
      </trkpt>
      <trkpt lat="44.93248" lon="6.29291">
        <ele>1745.2</ele>
        <time>2023-07-25T15:13:25Z</time>
      </trkpt>
      <trkpt lat="44.93249" lon="6.29299">
        <ele>1742.9</ele>
        <time>2023-07-25T15:13:32Z</time>
      </trkpt>
      <trkpt lat="44.93245" lon="6.29307">
        <ele>1745.6</ele>
        <time>2023-07-25T15:13:39Z</time>
      </trkpt>
      <trkpt lat="44.93246" lon="6.29317">
        <ele>1747.5</ele>
        <time>2023-07-25T15:13:46Z</time>
      </trkpt>
      <trkpt lat="44.93245" lon="6.2932">
        <ele>1747.6</ele>
        <time>2023-07-25T15:13:53Z</time>
      </trkpt>
      <trkpt lat="44.93245" lon="6.29322">
        <ele>1748</ele>
        <time>2023-07-25T15:14:00Z</time>
      </trkpt>
      <trkpt lat="44.93244" lon="6.2932">
        <ele>1747.8</ele>
        <time>2023-07-25T15:14:07Z</time>
      </trkpt>
      <trkpt lat="44.93244" lon="6.2932">
        <ele>1748.3</ele>
        <time>2023-07-25T15:14:12Z</time>
      </trkpt>
      <trkpt lat="44.93244" lon="6.2932">
        <ele>1748.5</ele>
        <time>2023-07-25T15:14:24Z</time>
      </trkpt>
      <trkpt lat="44.93244" lon="6.2932">
        <ele>1748.5</ele>
        <time>2023-07-25T15:14:25Z</time>
      </trkpt>
      <trkpt lat="44.93245" lon="6.29318">
        <ele>1748</ele>
        <time>2023-07-25T15:14:33Z</time>
      </trkpt>
      <trkpt lat="44.93247" lon="6.29324">
        <ele>1751.9</ele>
        <time>2023-07-25T15:14:40Z</time>
      </trkpt>
      <trkpt lat="44.93253" lon="6.29328">
        <ele>1752.7</ele>
        <time>2023-07-25T15:14:47Z</time>
      </trkpt>
      <trkpt lat="44.93256" lon="6.29323">
        <ele>1752.6</ele>
        <time>2023-07-25T15:14:54Z</time>
      </trkpt>
      <trkpt lat="44.93257" lon="6.29324">
        <ele>1752.4</ele>
        <time>2023-07-25T15:14:58Z</time>
      </trkpt>
      <trkpt lat="44.93257" lon="6.29332">
        <ele>1751.6</ele>
        <time>2023-07-25T15:15:25Z</time>
      </trkpt>
      <trkpt lat="44.93256" lon="6.29331">
        <ele>1753.5</ele>
        <time>2023-07-25T15:15:32Z</time>
      </trkpt>
      <trkpt lat="44.93255" lon="6.29332">
        <ele>1751.8</ele>
        <time>2023-07-25T15:15:41Z</time>
      </trkpt>
      <trkpt lat="44.93256" lon="6.29332">
        <ele>1751.8</ele>
        <time>2023-07-25T15:15:42Z</time>
      </trkpt>
      <trkpt lat="44.93262" lon="6.29334">
        <ele>1751.3</ele>
        <time>2023-07-25T15:15:49Z</time>
      </trkpt>
      <trkpt lat="44.93265" lon="6.29341">
        <ele>1752.8</ele>
        <time>2023-07-25T15:15:56Z</time>
      </trkpt>
      <trkpt lat="44.93266" lon="6.29345">
        <ele>1752.2</ele>
        <time>2023-07-25T15:16:03Z</time>
      </trkpt>
      <trkpt lat="44.93266" lon="6.29342">
        <ele>1754.2</ele>
        <time>2023-07-25T15:16:10Z</time>
      </trkpt>
      <trkpt lat="44.93266" lon="6.29341">
        <ele>1755.2</ele>
        <time>2023-07-25T15:16:14Z</time>
      </trkpt>
    </trkseg>
  </trk>
</gpx>